<?xml version="1.0" encoding="UTF-8" standalone="no" ?>
<gpx xmlns="http://www.topografix.com/GPX/1/1" xmlns:xsi="http://www.w3.org/2001/XMLSchema-instance" xsi:schemaLocation="http://www.topografix.com/GPX/1/1 http://www.topografix.com/GPX/1/1/gpx.xsd" version="1.1" creator="VisuGPX - https://www.visugpx.com">
  <metadata>
    <name>échappée Jurassienne étape 6 Les Bordes/Sur Roche</name>
    <desc><![CDATA[Dès le départ du gîte des Bordes, le sentier GR 59 est raide, genre ruisseau caillouteux. Poursuivre sur GR 59 vers Passenans village vigneron, puis Ménetroux le vignoble, rejoindre Château Chalon en suivant la voie romaine au pied des falaises verticales, pour monter au belvédère, superbe point de vue. Poursuivre vers Baume Les Messieurs en suivant le cours de la rivière jusque la Cascade. Pour les Roches, il faut emprunter les échelles de Crançot(escaliers) et monter au belvédère.]]></desc>
  </metadata>
  <trk>
    <name><![CDATA[Jura G Les Bordes/ Sur Roche 07-JUIN-16 07:04:22 PM]]></name>
    <trkseg>
      <trkpt lat="46.80656" lon="5.64606">
        <ele>372.65</ele>
        <time>2016-06-07T05:50:48Z</time>
      </trkpt>
      <trkpt lat="46.80656" lon="5.64606">
        <ele>372.65</ele>
        <time>2016-06-07T05:50:51Z</time>
      </trkpt>
      <trkpt lat="46.80657" lon="5.64605">
        <ele>374.57</ele>
        <time>2016-06-07T05:51:00Z</time>
      </trkpt>
      <trkpt lat="46.80658" lon="5.64591">
        <ele>372.65</ele>
        <time>2016-06-07T05:51:12Z</time>
      </trkpt>
      <trkpt lat="46.80662" lon="5.6458">
        <ele>371.69</ele>
        <time>2016-06-07T05:51:22Z</time>
      </trkpt>
      <trkpt lat="46.80664" lon="5.64574">
        <ele>373.13</ele>
        <time>2016-06-07T05:51:27Z</time>
      </trkpt>
      <trkpt lat="46.80667" lon="5.64564">
        <ele>377.45</ele>
        <time>2016-06-07T05:51:39Z</time>
      </trkpt>
      <trkpt lat="46.80664" lon="5.64555">
        <ele>380.34</ele>
        <time>2016-06-07T05:51:49Z</time>
      </trkpt>
      <trkpt lat="46.80662" lon="5.64543">
        <ele>379.86</ele>
        <time>2016-06-07T05:52:00Z</time>
      </trkpt>
      <trkpt lat="46.80661" lon="5.64528">
        <ele>381.3</ele>
        <time>2016-06-07T05:52:14Z</time>
      </trkpt>
      <trkpt lat="46.80662" lon="5.64525">
        <ele>382.74</ele>
        <time>2016-06-07T05:52:29Z</time>
      </trkpt>
      <trkpt lat="46.80669" lon="5.64517">
        <ele>386.11</ele>
        <time>2016-06-07T05:52:41Z</time>
      </trkpt>
      <trkpt lat="46.80672" lon="5.64513">
        <ele>387.55</ele>
        <time>2016-06-07T05:52:56Z</time>
      </trkpt>
      <trkpt lat="46.80674" lon="5.64507">
        <ele>388.51</ele>
        <time>2016-06-07T05:53:12Z</time>
      </trkpt>
      <trkpt lat="46.80676" lon="5.64506">
        <ele>390.43</ele>
        <time>2016-06-07T05:53:31Z</time>
      </trkpt>
      <trkpt lat="46.80677" lon="5.64504">
        <ele>391.39</ele>
        <time>2016-06-07T05:53:48Z</time>
      </trkpt>
      <trkpt lat="46.80678" lon="5.64502">
        <ele>391.39</ele>
        <time>2016-06-07T05:54:07Z</time>
      </trkpt>
      <trkpt lat="46.8068" lon="5.64495">
        <ele>392.84</ele>
        <time>2016-06-07T05:54:25Z</time>
      </trkpt>
      <trkpt lat="46.80679" lon="5.6449">
        <ele>393.8</ele>
        <time>2016-06-07T05:54:51Z</time>
      </trkpt>
      <trkpt lat="46.80679" lon="5.64489">
        <ele>398.12</ele>
        <time>2016-06-07T05:55:18Z</time>
      </trkpt>
      <trkpt lat="46.80677" lon="5.64483">
        <ele>400.05</ele>
        <time>2016-06-07T05:55:32Z</time>
      </trkpt>
      <trkpt lat="46.8067" lon="5.64471">
        <ele>402.93</ele>
        <time>2016-06-07T05:55:44Z</time>
      </trkpt>
      <trkpt lat="46.80672" lon="5.64461">
        <ele>399.57</ele>
        <time>2016-06-07T05:55:59Z</time>
      </trkpt>
      <trkpt lat="46.8067" lon="5.64456">
        <ele>398.6</ele>
        <time>2016-06-07T05:56:15Z</time>
      </trkpt>
      <trkpt lat="46.80668" lon="5.64454">
        <ele>398.6</ele>
        <time>2016-06-07T05:56:30Z</time>
      </trkpt>
      <trkpt lat="46.80664" lon="5.64448">
        <ele>396.2</ele>
        <time>2016-06-07T05:56:44Z</time>
      </trkpt>
      <trkpt lat="46.8066" lon="5.64441">
        <ele>397.16</ele>
        <time>2016-06-07T05:56:59Z</time>
      </trkpt>
      <trkpt lat="46.80659" lon="5.64438">
        <ele>398.6</ele>
        <time>2016-06-07T05:57:13Z</time>
      </trkpt>
      <trkpt lat="46.80657" lon="5.64432">
        <ele>400.53</ele>
        <time>2016-06-07T05:57:30Z</time>
      </trkpt>
      <trkpt lat="46.80656" lon="5.64429">
        <ele>402.45</ele>
        <time>2016-06-07T05:57:48Z</time>
      </trkpt>
      <trkpt lat="46.80651" lon="5.64426">
        <ele>404.37</ele>
        <time>2016-06-07T05:58:01Z</time>
      </trkpt>
      <trkpt lat="46.80645" lon="5.64421">
        <ele>405.81</ele>
        <time>2016-06-07T05:58:15Z</time>
      </trkpt>
      <trkpt lat="46.80639" lon="5.64423">
        <ele>404.85</ele>
        <time>2016-06-07T05:58:27Z</time>
      </trkpt>
      <trkpt lat="46.80634" lon="5.64425">
        <ele>404.85</ele>
        <time>2016-06-07T05:58:42Z</time>
      </trkpt>
      <trkpt lat="46.8063" lon="5.64423">
        <ele>406.29</ele>
        <time>2016-06-07T05:58:55Z</time>
      </trkpt>
      <trkpt lat="46.80629" lon="5.64423">
        <ele>406.77</ele>
        <time>2016-06-07T05:58:59Z</time>
      </trkpt>
      <trkpt lat="46.8062" lon="5.64425">
        <ele>409.66</ele>
        <time>2016-06-07T05:59:12Z</time>
      </trkpt>
      <trkpt lat="46.80616" lon="5.64423">
        <ele>408.22</ele>
        <time>2016-06-07T05:59:24Z</time>
      </trkpt>
      <trkpt lat="46.80611" lon="5.6442">
        <ele>407.74</ele>
        <time>2016-06-07T05:59:36Z</time>
      </trkpt>
      <trkpt lat="46.80602" lon="5.64417">
        <ele>405.81</ele>
        <time>2016-06-07T05:59:47Z</time>
      </trkpt>
      <trkpt lat="46.80597" lon="5.64414">
        <ele>405.81</ele>
        <time>2016-06-07T05:59:57Z</time>
      </trkpt>
      <trkpt lat="46.80581" lon="5.64403">
        <ele>409.66</ele>
        <time>2016-06-07T06:00:11Z</time>
      </trkpt>
      <trkpt lat="46.80575" lon="5.64397">
        <ele>410.14</ele>
        <time>2016-06-07T06:00:25Z</time>
      </trkpt>
      <trkpt lat="46.80567" lon="5.64389">
        <ele>410.62</ele>
        <time>2016-06-07T06:00:37Z</time>
      </trkpt>
      <trkpt lat="46.80556" lon="5.64381">
        <ele>413.98</ele>
        <time>2016-06-07T06:00:51Z</time>
      </trkpt>
      <trkpt lat="46.80548" lon="5.64377">
        <ele>413.02</ele>
        <time>2016-06-07T06:01:02Z</time>
      </trkpt>
      <trkpt lat="46.80545" lon="5.64372">
        <ele>412.06</ele>
        <time>2016-06-07T06:01:07Z</time>
      </trkpt>
      <trkpt lat="46.80535" lon="5.64361">
        <ele>410.14</ele>
        <time>2016-06-07T06:01:20Z</time>
      </trkpt>
      <trkpt lat="46.80527" lon="5.64351">
        <ele>408.22</ele>
        <time>2016-06-07T06:01:30Z</time>
      </trkpt>
      <trkpt lat="46.80514" lon="5.64338">
        <ele>408.7</ele>
        <time>2016-06-07T06:01:41Z</time>
      </trkpt>
      <trkpt lat="46.80506" lon="5.6432">
        <ele>413.98</ele>
        <time>2016-06-07T06:01:54Z</time>
      </trkpt>
      <trkpt lat="46.80493" lon="5.64303">
        <ele>422.16</ele>
        <time>2016-06-07T06:02:08Z</time>
      </trkpt>
      <trkpt lat="46.80488" lon="5.64292">
        <ele>418.79</ele>
        <time>2016-06-07T06:02:19Z</time>
      </trkpt>
      <trkpt lat="46.80482" lon="5.64281">
        <ele>417.35</ele>
        <time>2016-06-07T06:02:30Z</time>
      </trkpt>
      <trkpt lat="46.8047" lon="5.64268">
        <ele>415.43</ele>
        <time>2016-06-07T06:02:42Z</time>
      </trkpt>
      <trkpt lat="46.80456" lon="5.64255">
        <ele>415.91</ele>
        <time>2016-06-07T06:02:55Z</time>
      </trkpt>
      <trkpt lat="46.80443" lon="5.64245">
        <ele>418.31</ele>
        <time>2016-06-07T06:03:09Z</time>
      </trkpt>
      <trkpt lat="46.80433" lon="5.64232">
        <ele>418.31</ele>
        <time>2016-06-07T06:03:23Z</time>
      </trkpt>
      <trkpt lat="46.80423" lon="5.64216">
        <ele>418.79</ele>
        <time>2016-06-07T06:03:35Z</time>
      </trkpt>
      <trkpt lat="46.80413" lon="5.64203">
        <ele>417.83</ele>
        <time>2016-06-07T06:03:49Z</time>
      </trkpt>
      <trkpt lat="46.80405" lon="5.64189">
        <ele>421.68</ele>
        <time>2016-06-07T06:04:02Z</time>
      </trkpt>
      <trkpt lat="46.80405" lon="5.64189">
        <ele>422.16</ele>
        <time>2016-06-07T06:04:04Z</time>
      </trkpt>
      <trkpt lat="46.80394" lon="5.64173">
        <ele>423.6</ele>
        <time>2016-06-07T06:04:15Z</time>
      </trkpt>
      <trkpt lat="46.80382" lon="5.64159">
        <ele>426</ele>
        <time>2016-06-07T06:04:26Z</time>
      </trkpt>
      <trkpt lat="46.80373" lon="5.64153">
        <ele>428.4</ele>
        <time>2016-06-07T06:04:36Z</time>
      </trkpt>
      <trkpt lat="46.80365" lon="5.64148">
        <ele>427.44</ele>
        <time>2016-06-07T06:04:43Z</time>
      </trkpt>
      <trkpt lat="46.80351" lon="5.64139">
        <ele>424.08</ele>
        <time>2016-06-07T06:04:55Z</time>
      </trkpt>
      <trkpt lat="46.80338" lon="5.64126">
        <ele>426.48</ele>
        <time>2016-06-07T06:05:08Z</time>
      </trkpt>
      <trkpt lat="46.80328" lon="5.64111">
        <ele>430.81</ele>
        <time>2016-06-07T06:05:22Z</time>
      </trkpt>
      <trkpt lat="46.8032" lon="5.64096">
        <ele>432.73</ele>
        <time>2016-06-07T06:05:34Z</time>
      </trkpt>
      <trkpt lat="46.80316" lon="5.64078">
        <ele>432.73</ele>
        <time>2016-06-07T06:05:47Z</time>
      </trkpt>
      <trkpt lat="46.80314" lon="5.6406">
        <ele>433.21</ele>
        <time>2016-06-07T06:06:00Z</time>
      </trkpt>
      <trkpt lat="46.80314" lon="5.64057">
        <ele>435.61</ele>
        <time>2016-06-07T06:06:19Z</time>
      </trkpt>
      <trkpt lat="46.80317" lon="5.64051">
        <ele>439.94</ele>
        <time>2016-06-07T06:06:34Z</time>
      </trkpt>
      <trkpt lat="46.80318" lon="5.6403">
        <ele>435.13</ele>
        <time>2016-06-07T06:06:46Z</time>
      </trkpt>
      <trkpt lat="46.8032" lon="5.64021">
        <ele>432.73</ele>
        <time>2016-06-07T06:06:57Z</time>
      </trkpt>
      <trkpt lat="46.80328" lon="5.64001">
        <ele>430.81</ele>
        <time>2016-06-07T06:07:09Z</time>
      </trkpt>
      <trkpt lat="46.80335" lon="5.6398">
        <ele>427.92</ele>
        <time>2016-06-07T06:07:21Z</time>
      </trkpt>
      <trkpt lat="46.80339" lon="5.63967">
        <ele>429.37</ele>
        <time>2016-06-07T06:07:30Z</time>
      </trkpt>
      <trkpt lat="46.80345" lon="5.6395">
        <ele>429.37</ele>
        <time>2016-06-07T06:07:40Z</time>
      </trkpt>
      <trkpt lat="46.80347" lon="5.63946">
        <ele>428.89</ele>
        <time>2016-06-07T06:07:44Z</time>
      </trkpt>
      <trkpt lat="46.80352" lon="5.63931">
        <ele>428.89</ele>
        <time>2016-06-07T06:07:56Z</time>
      </trkpt>
      <trkpt lat="46.80359" lon="5.63912">
        <ele>426.96</ele>
        <time>2016-06-07T06:08:09Z</time>
      </trkpt>
      <trkpt lat="46.80368" lon="5.63888">
        <ele>430.33</ele>
        <time>2016-06-07T06:08:20Z</time>
      </trkpt>
      <trkpt lat="46.80371" lon="5.63875">
        <ele>433.69</ele>
        <time>2016-06-07T06:08:30Z</time>
      </trkpt>
      <trkpt lat="46.80376" lon="5.63865">
        <ele>433.21</ele>
        <time>2016-06-07T06:08:40Z</time>
      </trkpt>
      <trkpt lat="46.80378" lon="5.63859">
        <ele>433.21</ele>
        <time>2016-06-07T06:08:45Z</time>
      </trkpt>
      <trkpt lat="46.80388" lon="5.63845">
        <ele>433.21</ele>
        <time>2016-06-07T06:08:55Z</time>
      </trkpt>
      <trkpt lat="46.80395" lon="5.63833">
        <ele>432.73</ele>
        <time>2016-06-07T06:09:05Z</time>
      </trkpt>
      <trkpt lat="46.80401" lon="5.63811">
        <ele>434.17</ele>
        <time>2016-06-07T06:09:18Z</time>
      </trkpt>
      <trkpt lat="46.80411" lon="5.63791">
        <ele>438.02</ele>
        <time>2016-06-07T06:09:30Z</time>
      </trkpt>
      <trkpt lat="46.80419" lon="5.63771">
        <ele>437.54</ele>
        <time>2016-06-07T06:09:43Z</time>
      </trkpt>
      <trkpt lat="46.80428" lon="5.63755">
        <ele>436.58</ele>
        <time>2016-06-07T06:09:56Z</time>
      </trkpt>
      <trkpt lat="46.80436" lon="5.63743">
        <ele>438.02</ele>
        <time>2016-06-07T06:10:06Z</time>
      </trkpt>
      <trkpt lat="46.80437" lon="5.63737">
        <ele>439.46</ele>
        <time>2016-06-07T06:10:09Z</time>
      </trkpt>
      <trkpt lat="46.80436" lon="5.63734">
        <ele>439.46</ele>
        <time>2016-06-07T06:10:11Z</time>
      </trkpt>
      <trkpt lat="46.80443" lon="5.63714">
        <ele>441.86</ele>
        <time>2016-06-07T06:10:25Z</time>
      </trkpt>
      <trkpt lat="46.80447" lon="5.63705">
        <ele>442.34</ele>
        <time>2016-06-07T06:10:37Z</time>
      </trkpt>
      <trkpt lat="46.80452" lon="5.6369">
        <ele>442.34</ele>
        <time>2016-06-07T06:10:49Z</time>
      </trkpt>
      <trkpt lat="46.80459" lon="5.6368">
        <ele>443.79</ele>
        <time>2016-06-07T06:11:00Z</time>
      </trkpt>
      <trkpt lat="46.80465" lon="5.63674">
        <ele>442.34</ele>
        <time>2016-06-07T06:11:10Z</time>
      </trkpt>
      <trkpt lat="46.80474" lon="5.63652">
        <ele>437.54</ele>
        <time>2016-06-07T06:11:22Z</time>
      </trkpt>
      <trkpt lat="46.80477" lon="5.6364">
        <ele>441.86</ele>
        <time>2016-06-07T06:11:35Z</time>
      </trkpt>
      <trkpt lat="46.80477" lon="5.6363">
        <ele>444.27</ele>
        <time>2016-06-07T06:11:48Z</time>
      </trkpt>
      <trkpt lat="46.80477" lon="5.63619">
        <ele>446.19</ele>
        <time>2016-06-07T06:12:00Z</time>
      </trkpt>
      <trkpt lat="46.80477" lon="5.63608">
        <ele>447.63</ele>
        <time>2016-06-07T06:12:11Z</time>
      </trkpt>
      <trkpt lat="46.80476" lon="5.63579">
        <ele>450.03</ele>
        <time>2016-06-07T06:12:23Z</time>
      </trkpt>
      <trkpt lat="46.80478" lon="5.63551">
        <ele>449.07</ele>
        <time>2016-06-07T06:12:37Z</time>
      </trkpt>
      <trkpt lat="46.80482" lon="5.63535">
        <ele>453.88</ele>
        <time>2016-06-07T06:12:50Z</time>
      </trkpt>
      <trkpt lat="46.80483" lon="5.63519">
        <ele>453.4</ele>
        <time>2016-06-07T06:13:02Z</time>
      </trkpt>
      <trkpt lat="46.80487" lon="5.63495">
        <ele>453.88</ele>
        <time>2016-06-07T06:13:16Z</time>
      </trkpt>
      <trkpt lat="46.8049" lon="5.63479">
        <ele>451.48</ele>
        <time>2016-06-07T06:13:29Z</time>
      </trkpt>
      <trkpt lat="46.80493" lon="5.63473">
        <ele>450.52</ele>
        <time>2016-06-07T06:13:33Z</time>
      </trkpt>
      <trkpt lat="46.80498" lon="5.6346">
        <ele>452.44</ele>
        <time>2016-06-07T06:13:44Z</time>
      </trkpt>
      <trkpt lat="46.80501" lon="5.63439">
        <ele>450.52</ele>
        <time>2016-06-07T06:13:59Z</time>
      </trkpt>
      <trkpt lat="46.80511" lon="5.63417">
        <ele>451.96</ele>
        <time>2016-06-07T06:14:14Z</time>
      </trkpt>
      <trkpt lat="46.80515" lon="5.634">
        <ele>449.07</ele>
        <time>2016-06-07T06:14:26Z</time>
      </trkpt>
      <trkpt lat="46.80517" lon="5.63384">
        <ele>448.59</ele>
        <time>2016-06-07T06:14:39Z</time>
      </trkpt>
      <trkpt lat="46.80519" lon="5.63375">
        <ele>448.11</ele>
        <time>2016-06-07T06:14:51Z</time>
      </trkpt>
      <trkpt lat="46.8052" lon="5.63365">
        <ele>445.23</ele>
        <time>2016-06-07T06:15:06Z</time>
      </trkpt>
      <trkpt lat="46.8052" lon="5.63346">
        <ele>442.34</ele>
        <time>2016-06-07T06:15:18Z</time>
      </trkpt>
      <trkpt lat="46.80521" lon="5.63329">
        <ele>438.98</ele>
        <time>2016-06-07T06:15:32Z</time>
      </trkpt>
      <trkpt lat="46.80524" lon="5.63302">
        <ele>442.34</ele>
        <time>2016-06-07T06:15:45Z</time>
      </trkpt>
      <trkpt lat="46.80525" lon="5.63281">
        <ele>448.59</ele>
        <time>2016-06-07T06:15:56Z</time>
      </trkpt>
      <trkpt lat="46.8053" lon="5.6328">
        <ele>451</ele>
        <time>2016-06-07T06:16:10Z</time>
      </trkpt>
      <trkpt lat="46.8054" lon="5.63274">
        <ele>448.59</ele>
        <time>2016-06-07T06:16:22Z</time>
      </trkpt>
      <trkpt lat="46.80542" lon="5.63246">
        <ele>455.8</ele>
        <time>2016-06-07T06:16:32Z</time>
      </trkpt>
      <trkpt lat="46.80547" lon="5.63224">
        <ele>454.84</ele>
        <time>2016-06-07T06:16:44Z</time>
      </trkpt>
      <trkpt lat="46.80554" lon="5.6322">
        <ele>456.28</ele>
        <time>2016-06-07T06:16:54Z</time>
      </trkpt>
      <trkpt lat="46.80558" lon="5.63203">
        <ele>456.76</ele>
        <time>2016-06-07T06:17:07Z</time>
      </trkpt>
      <trkpt lat="46.80559" lon="5.63191">
        <ele>457.72</ele>
        <time>2016-06-07T06:17:20Z</time>
      </trkpt>
      <trkpt lat="46.80558" lon="5.63164">
        <ele>459.65</ele>
        <time>2016-06-07T06:17:33Z</time>
      </trkpt>
      <trkpt lat="46.80552" lon="5.6314">
        <ele>457.24</ele>
        <time>2016-06-07T06:17:49Z</time>
      </trkpt>
      <trkpt lat="46.80554" lon="5.63135">
        <ele>463.01</ele>
        <time>2016-06-07T06:18:05Z</time>
      </trkpt>
      <trkpt lat="46.80557" lon="5.63135">
        <ele>464.45</ele>
        <time>2016-06-07T06:18:24Z</time>
      </trkpt>
      <trkpt lat="46.80557" lon="5.63136">
        <ele>464.45</ele>
        <time>2016-06-07T06:18:40Z</time>
      </trkpt>
      <trkpt lat="46.80559" lon="5.63135">
        <ele>463.97</ele>
        <time>2016-06-07T06:18:58Z</time>
      </trkpt>
      <trkpt lat="46.8056" lon="5.63135">
        <ele>463.97</ele>
        <time>2016-06-07T06:19:10Z</time>
      </trkpt>
      <trkpt lat="46.80558" lon="5.63135">
        <ele>464.45</ele>
        <time>2016-06-07T06:19:29Z</time>
      </trkpt>
      <trkpt lat="46.80557" lon="5.63136">
        <ele>464.45</ele>
        <time>2016-06-07T06:19:52Z</time>
      </trkpt>
      <trkpt lat="46.80557" lon="5.63138">
        <ele>465.42</ele>
        <time>2016-06-07T06:20:10Z</time>
      </trkpt>
      <trkpt lat="46.80558" lon="5.63139">
        <ele>465.42</ele>
        <time>2016-06-07T06:20:27Z</time>
      </trkpt>
      <trkpt lat="46.80558" lon="5.6314">
        <ele>465.42</ele>
        <time>2016-06-07T06:20:41Z</time>
      </trkpt>
      <trkpt lat="46.80559" lon="5.6314">
        <ele>466.38</ele>
        <time>2016-06-07T06:20:51Z</time>
      </trkpt>
      <trkpt lat="46.80559" lon="5.6314">
        <ele>466.86</ele>
        <time>2016-06-07T06:21:02Z</time>
      </trkpt>
      <trkpt lat="46.8056" lon="5.6314">
        <ele>466.86</ele>
        <time>2016-06-07T06:21:15Z</time>
      </trkpt>
      <trkpt lat="46.8056" lon="5.63141">
        <ele>466.86</ele>
        <time>2016-06-07T06:21:35Z</time>
      </trkpt>
      <trkpt lat="46.80561" lon="5.63141">
        <ele>468.78</ele>
        <time>2016-06-07T06:21:50Z</time>
      </trkpt>
      <trkpt lat="46.80559" lon="5.63139">
        <ele>468.78</ele>
        <time>2016-06-07T06:22:03Z</time>
      </trkpt>
      <trkpt lat="46.80558" lon="5.63138">
        <ele>468.3</ele>
        <time>2016-06-07T06:22:19Z</time>
      </trkpt>
      <trkpt lat="46.80553" lon="5.63132">
        <ele>466.86</ele>
        <time>2016-06-07T06:22:38Z</time>
      </trkpt>
      <trkpt lat="46.80549" lon="5.63123">
        <ele>464.45</ele>
        <time>2016-06-07T06:22:45Z</time>
      </trkpt>
      <trkpt lat="46.80551" lon="5.63129">
        <ele>458.21</ele>
        <time>2016-06-07T06:22:56Z</time>
      </trkpt>
      <trkpt lat="46.80552" lon="5.63133">
        <ele>452.92</ele>
        <time>2016-06-07T06:23:08Z</time>
      </trkpt>
      <trkpt lat="46.80547" lon="5.6312">
        <ele>451.48</ele>
        <time>2016-06-07T06:23:20Z</time>
      </trkpt>
      <trkpt lat="46.80536" lon="5.63102">
        <ele>449.07</ele>
        <time>2016-06-07T06:23:33Z</time>
      </trkpt>
      <trkpt lat="46.80531" lon="5.63091">
        <ele>444.27</ele>
        <time>2016-06-07T06:23:44Z</time>
      </trkpt>
      <trkpt lat="46.80521" lon="5.63078">
        <ele>439.94</ele>
        <time>2016-06-07T06:23:58Z</time>
      </trkpt>
      <trkpt lat="46.80511" lon="5.63061">
        <ele>437.06</ele>
        <time>2016-06-07T06:24:11Z</time>
      </trkpt>
      <trkpt lat="46.80501" lon="5.63045">
        <ele>427.92</ele>
        <time>2016-06-07T06:24:27Z</time>
      </trkpt>
      <trkpt lat="46.80494" lon="5.63033">
        <ele>421.68</ele>
        <time>2016-06-07T06:24:39Z</time>
      </trkpt>
      <trkpt lat="46.80483" lon="5.63015">
        <ele>414.47</ele>
        <time>2016-06-07T06:24:52Z</time>
      </trkpt>
      <trkpt lat="46.80474" lon="5.62997">
        <ele>406.29</ele>
        <time>2016-06-07T06:25:05Z</time>
      </trkpt>
      <trkpt lat="46.80462" lon="5.62978">
        <ele>399.08</ele>
        <time>2016-06-07T06:25:18Z</time>
      </trkpt>
      <trkpt lat="46.80457" lon="5.62966">
        <ele>397.64</ele>
        <time>2016-06-07T06:25:31Z</time>
      </trkpt>
      <trkpt lat="46.80451" lon="5.62957">
        <ele>405.81</ele>
        <time>2016-06-07T06:25:45Z</time>
      </trkpt>
      <trkpt lat="46.80442" lon="5.62941">
        <ele>408.22</ele>
        <time>2016-06-07T06:25:57Z</time>
      </trkpt>
      <trkpt lat="46.80435" lon="5.62927">
        <ele>407.74</ele>
        <time>2016-06-07T06:26:09Z</time>
      </trkpt>
      <trkpt lat="46.80425" lon="5.62909">
        <ele>409.18</ele>
        <time>2016-06-07T06:26:23Z</time>
      </trkpt>
      <trkpt lat="46.8042" lon="5.629">
        <ele>409.66</ele>
        <time>2016-06-07T06:26:28Z</time>
      </trkpt>
      <trkpt lat="46.8041" lon="5.62884">
        <ele>411.1</ele>
        <time>2016-06-07T06:26:39Z</time>
      </trkpt>
      <trkpt lat="46.80398" lon="5.62867">
        <ele>411.1</ele>
        <time>2016-06-07T06:26:52Z</time>
      </trkpt>
      <trkpt lat="46.8039" lon="5.62855">
        <ele>410.62</ele>
        <time>2016-06-07T06:27:00Z</time>
      </trkpt>
      <trkpt lat="46.80384" lon="5.62844">
        <ele>412.54</ele>
        <time>2016-06-07T06:27:07Z</time>
      </trkpt>
      <trkpt lat="46.80382" lon="5.62841">
        <ele>413.5</ele>
        <time>2016-06-07T06:27:09Z</time>
      </trkpt>
      <trkpt lat="46.80367" lon="5.62815">
        <ele>419.27</ele>
        <time>2016-06-07T06:27:26Z</time>
      </trkpt>
      <trkpt lat="46.80355" lon="5.62797">
        <ele>422.16</ele>
        <time>2016-06-07T06:27:41Z</time>
      </trkpt>
      <trkpt lat="46.8035" lon="5.62789">
        <ele>421.68</ele>
        <time>2016-06-07T06:27:47Z</time>
      </trkpt>
      <trkpt lat="46.80339" lon="5.6277">
        <ele>419.27</ele>
        <time>2016-06-07T06:28:02Z</time>
      </trkpt>
      <trkpt lat="46.80338" lon="5.62768">
        <ele>418.79</ele>
        <time>2016-06-07T06:28:04Z</time>
      </trkpt>
      <trkpt lat="46.80333" lon="5.62759">
        <ele>418.31</ele>
        <time>2016-06-07T06:28:11Z</time>
      </trkpt>
      <trkpt lat="46.80321" lon="5.62731">
        <ele>418.31</ele>
        <time>2016-06-07T06:28:28Z</time>
      </trkpt>
      <trkpt lat="46.80316" lon="5.62705">
        <ele>417.83</ele>
        <time>2016-06-07T06:28:42Z</time>
      </trkpt>
      <trkpt lat="46.80315" lon="5.62684">
        <ele>422.16</ele>
        <time>2016-06-07T06:28:58Z</time>
      </trkpt>
      <trkpt lat="46.80315" lon="5.62684">
        <ele>422.64</ele>
        <time>2016-06-07T06:29:06Z</time>
      </trkpt>
      <trkpt lat="46.80314" lon="5.62684">
        <ele>422.64</ele>
        <time>2016-06-07T06:29:08Z</time>
      </trkpt>
      <trkpt lat="46.80315" lon="5.62671">
        <ele>422.16</ele>
        <time>2016-06-07T06:29:19Z</time>
      </trkpt>
      <trkpt lat="46.80312" lon="5.62652">
        <ele>420.71</ele>
        <time>2016-06-07T06:29:30Z</time>
      </trkpt>
      <trkpt lat="46.80307" lon="5.62627">
        <ele>420.71</ele>
        <time>2016-06-07T06:29:44Z</time>
      </trkpt>
      <trkpt lat="46.803" lon="5.62609">
        <ele>417.83</ele>
        <time>2016-06-07T06:29:57Z</time>
      </trkpt>
      <trkpt lat="46.80289" lon="5.62589">
        <ele>415.91</ele>
        <time>2016-06-07T06:30:11Z</time>
      </trkpt>
      <trkpt lat="46.80286" lon="5.62583">
        <ele>415.91</ele>
        <time>2016-06-07T06:30:14Z</time>
      </trkpt>
      <trkpt lat="46.80282" lon="5.62577">
        <ele>414.47</ele>
        <time>2016-06-07T06:30:19Z</time>
      </trkpt>
      <trkpt lat="46.8027" lon="5.62563">
        <ele>412.06</ele>
        <time>2016-06-07T06:30:33Z</time>
      </trkpt>
      <trkpt lat="46.80258" lon="5.62544">
        <ele>412.06</ele>
        <time>2016-06-07T06:30:46Z</time>
      </trkpt>
      <trkpt lat="46.80248" lon="5.62529">
        <ele>409.66</ele>
        <time>2016-06-07T06:30:59Z</time>
      </trkpt>
      <trkpt lat="46.80244" lon="5.62525">
        <ele>407.26</ele>
        <time>2016-06-07T06:31:04Z</time>
      </trkpt>
      <trkpt lat="46.80234" lon="5.62502">
        <ele>405.81</ele>
        <time>2016-06-07T06:31:18Z</time>
      </trkpt>
      <trkpt lat="46.80225" lon="5.62485">
        <ele>406.77</ele>
        <time>2016-06-07T06:31:30Z</time>
      </trkpt>
      <trkpt lat="46.80217" lon="5.62463">
        <ele>406.29</ele>
        <time>2016-06-07T06:31:42Z</time>
      </trkpt>
      <trkpt lat="46.80215" lon="5.62448">
        <ele>405.33</ele>
        <time>2016-06-07T06:31:51Z</time>
      </trkpt>
      <trkpt lat="46.80215" lon="5.62437">
        <ele>405.33</ele>
        <time>2016-06-07T06:31:57Z</time>
      </trkpt>
      <trkpt lat="46.80217" lon="5.62435">
        <ele>404.85</ele>
        <time>2016-06-07T06:31:59Z</time>
      </trkpt>
      <trkpt lat="46.80218" lon="5.62416">
        <ele>404.37</ele>
        <time>2016-06-07T06:32:09Z</time>
      </trkpt>
      <trkpt lat="46.80218" lon="5.62411">
        <ele>404.37</ele>
        <time>2016-06-07T06:32:11Z</time>
      </trkpt>
      <trkpt lat="46.80221" lon="5.6239">
        <ele>405.33</ele>
        <time>2016-06-07T06:32:22Z</time>
      </trkpt>
      <trkpt lat="46.80221" lon="5.62388">
        <ele>405.33</ele>
        <time>2016-06-07T06:32:23Z</time>
      </trkpt>
      <trkpt lat="46.80221" lon="5.62368">
        <ele>406.29</ele>
        <time>2016-06-07T06:32:34Z</time>
      </trkpt>
      <trkpt lat="46.80219" lon="5.62347">
        <ele>406.77</ele>
        <time>2016-06-07T06:32:45Z</time>
      </trkpt>
      <trkpt lat="46.80213" lon="5.62326">
        <ele>405.81</ele>
        <time>2016-06-07T06:32:59Z</time>
      </trkpt>
      <trkpt lat="46.80205" lon="5.62312">
        <ele>403.89</ele>
        <time>2016-06-07T06:33:13Z</time>
      </trkpt>
      <trkpt lat="46.80205" lon="5.6231">
        <ele>402.93</ele>
        <time>2016-06-07T06:33:18Z</time>
      </trkpt>
      <trkpt lat="46.80205" lon="5.62305">
        <ele>403.89</ele>
        <time>2016-06-07T06:33:21Z</time>
      </trkpt>
      <trkpt lat="46.80204" lon="5.62286">
        <ele>404.37</ele>
        <time>2016-06-07T06:33:33Z</time>
      </trkpt>
      <trkpt lat="46.80204" lon="5.62284">
        <ele>404.37</ele>
        <time>2016-06-07T06:33:48Z</time>
      </trkpt>
      <trkpt lat="46.80203" lon="5.62283">
        <ele>403.89</ele>
        <time>2016-06-07T06:34:09Z</time>
      </trkpt>
      <trkpt lat="46.80199" lon="5.6227">
        <ele>401.49</ele>
        <time>2016-06-07T06:34:19Z</time>
      </trkpt>
      <trkpt lat="46.80194" lon="5.6225">
        <ele>395.24</ele>
        <time>2016-06-07T06:34:32Z</time>
      </trkpt>
      <trkpt lat="46.80189" lon="5.62233">
        <ele>393.32</ele>
        <time>2016-06-07T06:34:44Z</time>
      </trkpt>
      <trkpt lat="46.80182" lon="5.62225">
        <ele>391.39</ele>
        <time>2016-06-07T06:34:53Z</time>
      </trkpt>
      <trkpt lat="46.80169" lon="5.6221">
        <ele>388.51</ele>
        <time>2016-06-07T06:35:07Z</time>
      </trkpt>
      <trkpt lat="46.80161" lon="5.622">
        <ele>387.07</ele>
        <time>2016-06-07T06:35:17Z</time>
      </trkpt>
      <trkpt lat="46.80157" lon="5.62193">
        <ele>386.11</ele>
        <time>2016-06-07T06:35:22Z</time>
      </trkpt>
      <trkpt lat="46.80146" lon="5.62181">
        <ele>383.22</ele>
        <time>2016-06-07T06:35:33Z</time>
      </trkpt>
      <trkpt lat="46.80136" lon="5.6217">
        <ele>379.38</ele>
        <time>2016-06-07T06:35:45Z</time>
      </trkpt>
      <trkpt lat="46.80124" lon="5.62153">
        <ele>380.34</ele>
        <time>2016-06-07T06:35:58Z</time>
      </trkpt>
      <trkpt lat="46.80117" lon="5.62143">
        <ele>381.3</ele>
        <time>2016-06-07T06:36:05Z</time>
      </trkpt>
      <trkpt lat="46.80107" lon="5.62127">
        <ele>380.82</ele>
        <time>2016-06-07T06:36:18Z</time>
      </trkpt>
      <trkpt lat="46.80098" lon="5.62113">
        <ele>376.49</ele>
        <time>2016-06-07T06:36:30Z</time>
      </trkpt>
      <trkpt lat="46.80088" lon="5.62101">
        <ele>373.61</ele>
        <time>2016-06-07T06:36:42Z</time>
      </trkpt>
      <trkpt lat="46.80077" lon="5.62087">
        <ele>370.24</ele>
        <time>2016-06-07T06:36:55Z</time>
      </trkpt>
      <trkpt lat="46.80068" lon="5.62076">
        <ele>365.92</ele>
        <time>2016-06-07T06:37:07Z</time>
      </trkpt>
      <trkpt lat="46.80052" lon="5.62062">
        <ele>364.48</ele>
        <time>2016-06-07T06:37:21Z</time>
      </trkpt>
      <trkpt lat="46.80048" lon="5.62053">
        <ele>367.36</ele>
        <time>2016-06-07T06:37:34Z</time>
      </trkpt>
      <trkpt lat="46.80048" lon="5.62053">
        <ele>367.36</ele>
        <time>2016-06-07T06:37:35Z</time>
      </trkpt>
      <trkpt lat="46.80041" lon="5.62049">
        <ele>367.36</ele>
        <time>2016-06-07T06:37:41Z</time>
      </trkpt>
      <trkpt lat="46.80026" lon="5.62039">
        <ele>365.92</ele>
        <time>2016-06-07T06:37:56Z</time>
      </trkpt>
      <trkpt lat="46.80021" lon="5.62037">
        <ele>364.96</ele>
        <time>2016-06-07T06:38:01Z</time>
      </trkpt>
      <trkpt lat="46.80016" lon="5.62037">
        <ele>364.96</ele>
        <time>2016-06-07T06:38:06Z</time>
      </trkpt>
      <trkpt lat="46.80013" lon="5.62034">
        <ele>364</ele>
        <time>2016-06-07T06:38:09Z</time>
      </trkpt>
      <trkpt lat="46.8" lon="5.62029">
        <ele>362.55</ele>
        <time>2016-06-07T06:38:20Z</time>
      </trkpt>
      <trkpt lat="46.79989" lon="5.62025">
        <ele>360.15</ele>
        <time>2016-06-07T06:38:30Z</time>
      </trkpt>
      <trkpt lat="46.79972" lon="5.62019">
        <ele>360.15</ele>
        <time>2016-06-07T06:38:44Z</time>
      </trkpt>
      <trkpt lat="46.79968" lon="5.62018">
        <ele>360.63</ele>
        <time>2016-06-07T06:38:47Z</time>
      </trkpt>
      <trkpt lat="46.79949" lon="5.62014">
        <ele>359.67</ele>
        <time>2016-06-07T06:39:03Z</time>
      </trkpt>
      <trkpt lat="46.79938" lon="5.62009">
        <ele>357.75</ele>
        <time>2016-06-07T06:39:13Z</time>
      </trkpt>
      <trkpt lat="46.79918" lon="5.62001">
        <ele>352.94</ele>
        <time>2016-06-07T06:39:30Z</time>
      </trkpt>
      <trkpt lat="46.79903" lon="5.61998">
        <ele>349.58</ele>
        <time>2016-06-07T06:39:44Z</time>
      </trkpt>
      <trkpt lat="46.79896" lon="5.61994">
        <ele>348.62</ele>
        <time>2016-06-07T06:39:51Z</time>
      </trkpt>
      <trkpt lat="46.7989" lon="5.61993">
        <ele>347.65</ele>
        <time>2016-06-07T06:39:56Z</time>
      </trkpt>
      <trkpt lat="46.79883" lon="5.6199">
        <ele>346.21</ele>
        <time>2016-06-07T06:40:02Z</time>
      </trkpt>
      <trkpt lat="46.79879" lon="5.61989">
        <ele>346.21</ele>
        <time>2016-06-07T06:40:05Z</time>
      </trkpt>
      <trkpt lat="46.79862" lon="5.61982">
        <ele>346.69</ele>
        <time>2016-06-07T06:40:19Z</time>
      </trkpt>
      <trkpt lat="46.79861" lon="5.61981">
        <ele>346.69</ele>
        <time>2016-06-07T06:40:21Z</time>
      </trkpt>
      <trkpt lat="46.79855" lon="5.6198">
        <ele>345.73</ele>
        <time>2016-06-07T06:40:27Z</time>
      </trkpt>
      <trkpt lat="46.7985" lon="5.61978">
        <ele>345.25</ele>
        <time>2016-06-07T06:40:31Z</time>
      </trkpt>
      <trkpt lat="46.79834" lon="5.61972">
        <ele>343.33</ele>
        <time>2016-06-07T06:40:46Z</time>
      </trkpt>
      <trkpt lat="46.79821" lon="5.61964">
        <ele>341.41</ele>
        <time>2016-06-07T06:40:58Z</time>
      </trkpt>
      <trkpt lat="46.79818" lon="5.61963">
        <ele>340.44</ele>
        <time>2016-06-07T06:41:01Z</time>
      </trkpt>
      <trkpt lat="46.79807" lon="5.61963">
        <ele>339</ele>
        <time>2016-06-07T06:41:12Z</time>
      </trkpt>
      <trkpt lat="46.79805" lon="5.61964">
        <ele>338.04</ele>
        <time>2016-06-07T06:41:14Z</time>
      </trkpt>
      <trkpt lat="46.79792" lon="5.61966">
        <ele>335.16</ele>
        <time>2016-06-07T06:41:24Z</time>
      </trkpt>
      <trkpt lat="46.79787" lon="5.61964">
        <ele>334.68</ele>
        <time>2016-06-07T06:41:28Z</time>
      </trkpt>
      <trkpt lat="46.79783" lon="5.61964">
        <ele>333.71</ele>
        <time>2016-06-07T06:41:31Z</time>
      </trkpt>
      <trkpt lat="46.79776" lon="5.61956">
        <ele>333.71</ele>
        <time>2016-06-07T06:41:38Z</time>
      </trkpt>
      <trkpt lat="46.79773" lon="5.61947">
        <ele>333.23</ele>
        <time>2016-06-07T06:41:43Z</time>
      </trkpt>
      <trkpt lat="46.79771" lon="5.61927">
        <ele>333.23</ele>
        <time>2016-06-07T06:41:55Z</time>
      </trkpt>
      <trkpt lat="46.79769" lon="5.61923">
        <ele>334.68</ele>
        <time>2016-06-07T06:42:09Z</time>
      </trkpt>
      <trkpt lat="46.79759" lon="5.61914">
        <ele>334.68</ele>
        <time>2016-06-07T06:42:20Z</time>
      </trkpt>
      <trkpt lat="46.79744" lon="5.61902">
        <ele>332.27</ele>
        <time>2016-06-07T06:42:36Z</time>
      </trkpt>
      <trkpt lat="46.79739" lon="5.61887">
        <ele>327.47</ele>
        <time>2016-06-07T06:42:49Z</time>
      </trkpt>
      <trkpt lat="46.7974" lon="5.61881">
        <ele>326.99</ele>
        <time>2016-06-07T06:42:52Z</time>
      </trkpt>
      <trkpt lat="46.79733" lon="5.61866">
        <ele>323.62</ele>
        <time>2016-06-07T06:43:04Z</time>
      </trkpt>
      <trkpt lat="46.7973" lon="5.61866">
        <ele>322.66</ele>
        <time>2016-06-07T06:43:07Z</time>
      </trkpt>
      <trkpt lat="46.79726" lon="5.61867">
        <ele>321.22</ele>
        <time>2016-06-07T06:43:13Z</time>
      </trkpt>
      <trkpt lat="46.7972" lon="5.61867">
        <ele>319.78</ele>
        <time>2016-06-07T06:43:18Z</time>
      </trkpt>
      <trkpt lat="46.79704" lon="5.61875">
        <ele>320.74</ele>
        <time>2016-06-07T06:43:31Z</time>
      </trkpt>
      <trkpt lat="46.79694" lon="5.61888">
        <ele>315.93</ele>
        <time>2016-06-07T06:43:45Z</time>
      </trkpt>
      <trkpt lat="46.79682" lon="5.61899">
        <ele>310.64</ele>
        <time>2016-06-07T06:44:00Z</time>
      </trkpt>
      <trkpt lat="46.79668" lon="5.61913">
        <ele>304.39</ele>
        <time>2016-06-07T06:44:16Z</time>
      </trkpt>
      <trkpt lat="46.79654" lon="5.61925">
        <ele>310.16</ele>
        <time>2016-06-07T06:44:28Z</time>
      </trkpt>
      <trkpt lat="46.79652" lon="5.61928">
        <ele>311.12</ele>
        <time>2016-06-07T06:44:30Z</time>
      </trkpt>
      <trkpt lat="46.79637" lon="5.6193">
        <ele>317.37</ele>
        <time>2016-06-07T06:44:43Z</time>
      </trkpt>
      <trkpt lat="46.79634" lon="5.61932">
        <ele>325.06</ele>
        <time>2016-06-07T06:44:57Z</time>
      </trkpt>
      <trkpt lat="46.79633" lon="5.61932">
        <ele>327.95</ele>
        <time>2016-06-07T06:45:11Z</time>
      </trkpt>
      <trkpt lat="46.79632" lon="5.61932">
        <ele>327.95</ele>
        <time>2016-06-07T06:45:44Z</time>
      </trkpt>
      <trkpt lat="46.79633" lon="5.61932">
        <ele>327.47</ele>
        <time>2016-06-07T06:46:07Z</time>
      </trkpt>
      <trkpt lat="46.79623" lon="5.61924">
        <ele>327.95</ele>
        <time>2016-06-07T06:46:19Z</time>
      </trkpt>
      <trkpt lat="46.79616" lon="5.61917">
        <ele>327.47</ele>
        <time>2016-06-07T06:46:31Z</time>
      </trkpt>
      <trkpt lat="46.79615" lon="5.61916">
        <ele>327.47</ele>
        <time>2016-06-07T06:46:44Z</time>
      </trkpt>
      <trkpt lat="46.79615" lon="5.61917">
        <ele>327.95</ele>
        <time>2016-06-07T06:46:51Z</time>
      </trkpt>
      <trkpt lat="46.7962" lon="5.61919">
        <ele>329.39</ele>
        <time>2016-06-07T06:46:56Z</time>
      </trkpt>
      <trkpt lat="46.7963" lon="5.61926">
        <ele>328.91</ele>
        <time>2016-06-07T06:47:07Z</time>
      </trkpt>
      <trkpt lat="46.79635" lon="5.61937">
        <ele>328.91</ele>
        <time>2016-06-07T06:47:16Z</time>
      </trkpt>
      <trkpt lat="46.79634" lon="5.61949">
        <ele>327.95</ele>
        <time>2016-06-07T06:47:24Z</time>
      </trkpt>
      <trkpt lat="46.79637" lon="5.61963">
        <ele>327.95</ele>
        <time>2016-06-07T06:47:34Z</time>
      </trkpt>
      <trkpt lat="46.79646" lon="5.61976">
        <ele>328.91</ele>
        <time>2016-06-07T06:47:45Z</time>
      </trkpt>
      <trkpt lat="46.79646" lon="5.61987">
        <ele>329.39</ele>
        <time>2016-06-07T06:47:53Z</time>
      </trkpt>
      <trkpt lat="46.79643" lon="5.61993">
        <ele>328.43</ele>
        <time>2016-06-07T06:47:58Z</time>
      </trkpt>
      <trkpt lat="46.79643" lon="5.62001">
        <ele>326.99</ele>
        <time>2016-06-07T06:48:05Z</time>
      </trkpt>
      <trkpt lat="46.79639" lon="5.6201">
        <ele>327.47</ele>
        <time>2016-06-07T06:48:10Z</time>
      </trkpt>
      <trkpt lat="46.79643" lon="5.62018">
        <ele>328.43</ele>
        <time>2016-06-07T06:48:17Z</time>
      </trkpt>
      <trkpt lat="46.7964" lon="5.62022">
        <ele>327.47</ele>
        <time>2016-06-07T06:48:20Z</time>
      </trkpt>
      <trkpt lat="46.79639" lon="5.62026">
        <ele>328.43</ele>
        <time>2016-06-07T06:48:23Z</time>
      </trkpt>
      <trkpt lat="46.79639" lon="5.6203">
        <ele>329.39</ele>
        <time>2016-06-07T06:48:26Z</time>
      </trkpt>
      <trkpt lat="46.79642" lon="5.62036">
        <ele>330.83</ele>
        <time>2016-06-07T06:48:30Z</time>
      </trkpt>
      <trkpt lat="46.79643" lon="5.62048">
        <ele>333.23</ele>
        <time>2016-06-07T06:48:40Z</time>
      </trkpt>
      <trkpt lat="46.79643" lon="5.6205">
        <ele>333.71</ele>
        <time>2016-06-07T06:48:42Z</time>
      </trkpt>
      <trkpt lat="46.79645" lon="5.62056">
        <ele>334.68</ele>
        <time>2016-06-07T06:48:46Z</time>
      </trkpt>
      <trkpt lat="46.79649" lon="5.6206">
        <ele>335.64</ele>
        <time>2016-06-07T06:48:50Z</time>
      </trkpt>
      <trkpt lat="46.79649" lon="5.62063">
        <ele>335.64</ele>
        <time>2016-06-07T06:48:52Z</time>
      </trkpt>
      <trkpt lat="46.79663" lon="5.62076">
        <ele>345.25</ele>
        <time>2016-06-07T06:49:03Z</time>
      </trkpt>
      <trkpt lat="46.79664" lon="5.62087">
        <ele>347.65</ele>
        <time>2016-06-07T06:49:11Z</time>
      </trkpt>
      <trkpt lat="46.79665" lon="5.62092">
        <ele>348.62</ele>
        <time>2016-06-07T06:49:14Z</time>
      </trkpt>
      <trkpt lat="46.79666" lon="5.62107">
        <ele>348.13</ele>
        <time>2016-06-07T06:49:27Z</time>
      </trkpt>
      <trkpt lat="46.79666" lon="5.62111">
        <ele>348.62</ele>
        <time>2016-06-07T06:49:48Z</time>
      </trkpt>
      <trkpt lat="46.79668" lon="5.62122">
        <ele>348.13</ele>
        <time>2016-06-07T06:50:01Z</time>
      </trkpt>
      <trkpt lat="46.79664" lon="5.62136">
        <ele>349.1</ele>
        <time>2016-06-07T06:50:13Z</time>
      </trkpt>
      <trkpt lat="46.79662" lon="5.6214">
        <ele>349.58</ele>
        <time>2016-06-07T06:50:16Z</time>
      </trkpt>
      <trkpt lat="46.7966" lon="5.62146">
        <ele>350.54</ele>
        <time>2016-06-07T06:50:20Z</time>
      </trkpt>
      <trkpt lat="46.79656" lon="5.62159">
        <ele>352.46</ele>
        <time>2016-06-07T06:50:31Z</time>
      </trkpt>
      <trkpt lat="46.79657" lon="5.62169">
        <ele>352.94</ele>
        <time>2016-06-07T06:50:40Z</time>
      </trkpt>
      <trkpt lat="46.79655" lon="5.62184">
        <ele>350.54</ele>
        <time>2016-06-07T06:50:51Z</time>
      </trkpt>
      <trkpt lat="46.79655" lon="5.62185">
        <ele>350.54</ele>
        <time>2016-06-07T06:50:52Z</time>
      </trkpt>
      <trkpt lat="46.79653" lon="5.62195">
        <ele>350.54</ele>
        <time>2016-06-07T06:50:59Z</time>
      </trkpt>
      <trkpt lat="46.79652" lon="5.62198">
        <ele>351.5</ele>
        <time>2016-06-07T06:51:02Z</time>
      </trkpt>
      <trkpt lat="46.79649" lon="5.62218">
        <ele>355.83</ele>
        <time>2016-06-07T06:51:15Z</time>
      </trkpt>
      <trkpt lat="46.79647" lon="5.62236">
        <ele>356.79</ele>
        <time>2016-06-07T06:51:27Z</time>
      </trkpt>
      <trkpt lat="46.79645" lon="5.62252">
        <ele>354.38</ele>
        <time>2016-06-07T06:51:37Z</time>
      </trkpt>
      <trkpt lat="46.79645" lon="5.62263">
        <ele>346.21</ele>
        <time>2016-06-07T06:51:50Z</time>
      </trkpt>
      <trkpt lat="46.79648" lon="5.62277">
        <ele>339</ele>
        <time>2016-06-07T06:52:01Z</time>
      </trkpt>
      <trkpt lat="46.79649" lon="5.62295">
        <ele>338.52</ele>
        <time>2016-06-07T06:52:12Z</time>
      </trkpt>
      <trkpt lat="46.79654" lon="5.62308">
        <ele>336.6</ele>
        <time>2016-06-07T06:52:23Z</time>
      </trkpt>
      <trkpt lat="46.79658" lon="5.62318">
        <ele>339.48</ele>
        <time>2016-06-07T06:52:38Z</time>
      </trkpt>
      <trkpt lat="46.7966" lon="5.62325">
        <ele>341.41</ele>
        <time>2016-06-07T06:52:43Z</time>
      </trkpt>
      <trkpt lat="46.79663" lon="5.62337">
        <ele>344.29</ele>
        <time>2016-06-07T06:52:56Z</time>
      </trkpt>
      <trkpt lat="46.79664" lon="5.62348">
        <ele>343.81</ele>
        <time>2016-06-07T06:53:08Z</time>
      </trkpt>
      <trkpt lat="46.79665" lon="5.62362">
        <ele>346.21</ele>
        <time>2016-06-07T06:53:23Z</time>
      </trkpt>
      <trkpt lat="46.79663" lon="5.62381">
        <ele>345.73</ele>
        <time>2016-06-07T06:53:35Z</time>
      </trkpt>
      <trkpt lat="46.79662" lon="5.62384">
        <ele>344.77</ele>
        <time>2016-06-07T06:53:37Z</time>
      </trkpt>
      <trkpt lat="46.79661" lon="5.62394">
        <ele>341.41</ele>
        <time>2016-06-07T06:53:47Z</time>
      </trkpt>
      <trkpt lat="46.79664" lon="5.62413">
        <ele>334.2</ele>
        <time>2016-06-07T06:54:01Z</time>
      </trkpt>
      <trkpt lat="46.79662" lon="5.62429">
        <ele>332.75</ele>
        <time>2016-06-07T06:54:15Z</time>
      </trkpt>
      <trkpt lat="46.79662" lon="5.62435">
        <ele>333.71</ele>
        <time>2016-06-07T06:54:29Z</time>
      </trkpt>
      <trkpt lat="46.79659" lon="5.6244">
        <ele>336.12</ele>
        <time>2016-06-07T06:54:42Z</time>
      </trkpt>
      <trkpt lat="46.79655" lon="5.62449">
        <ele>334.68</ele>
        <time>2016-06-07T06:54:56Z</time>
      </trkpt>
      <trkpt lat="46.79653" lon="5.62462">
        <ele>335.64</ele>
        <time>2016-06-07T06:55:12Z</time>
      </trkpt>
      <trkpt lat="46.79653" lon="5.62478">
        <ele>334.2</ele>
        <time>2016-06-07T06:55:28Z</time>
      </trkpt>
      <trkpt lat="46.79657" lon="5.62487">
        <ele>335.64</ele>
        <time>2016-06-07T06:55:41Z</time>
      </trkpt>
      <trkpt lat="46.79664" lon="5.62493">
        <ele>332.27</ele>
        <time>2016-06-07T06:55:54Z</time>
      </trkpt>
      <trkpt lat="46.79668" lon="5.62498">
        <ele>336.6</ele>
        <time>2016-06-07T06:56:08Z</time>
      </trkpt>
      <trkpt lat="46.79675" lon="5.62497">
        <ele>344.77</ele>
        <time>2016-06-07T06:56:23Z</time>
      </trkpt>
      <trkpt lat="46.79676" lon="5.62495">
        <ele>345.73</ele>
        <time>2016-06-07T06:56:26Z</time>
      </trkpt>
      <trkpt lat="46.79685" lon="5.62488">
        <ele>348.62</ele>
        <time>2016-06-07T06:56:39Z</time>
      </trkpt>
      <trkpt lat="46.79687" lon="5.62487">
        <ele>351.98</ele>
        <time>2016-06-07T06:56:47Z</time>
      </trkpt>
      <trkpt lat="46.79688" lon="5.62486">
        <ele>352.94</ele>
        <time>2016-06-07T06:56:50Z</time>
      </trkpt>
      <trkpt lat="46.79689" lon="5.6248">
        <ele>358.23</ele>
        <time>2016-06-07T06:57:01Z</time>
      </trkpt>
      <trkpt lat="46.79689" lon="5.62479">
        <ele>358.71</ele>
        <time>2016-06-07T06:57:02Z</time>
      </trkpt>
      <trkpt lat="46.79696" lon="5.62477">
        <ele>361.59</ele>
        <time>2016-06-07T06:57:08Z</time>
      </trkpt>
      <trkpt lat="46.79701" lon="5.62476">
        <ele>364.96</ele>
        <time>2016-06-07T06:57:20Z</time>
      </trkpt>
      <trkpt lat="46.79705" lon="5.62479">
        <ele>366.88</ele>
        <time>2016-06-07T06:57:33Z</time>
      </trkpt>
      <trkpt lat="46.79704" lon="5.62487">
        <ele>369.28</ele>
        <time>2016-06-07T06:57:46Z</time>
      </trkpt>
      <trkpt lat="46.79703" lon="5.62494">
        <ele>371.69</ele>
        <time>2016-06-07T06:58:01Z</time>
      </trkpt>
      <trkpt lat="46.79704" lon="5.62494">
        <ele>375.53</ele>
        <time>2016-06-07T06:58:07Z</time>
      </trkpt>
      <trkpt lat="46.79711" lon="5.6248">
        <ele>380.34</ele>
        <time>2016-06-07T06:58:19Z</time>
      </trkpt>
      <trkpt lat="46.79722" lon="5.62467">
        <ele>382.26</ele>
        <time>2016-06-07T06:58:32Z</time>
      </trkpt>
      <trkpt lat="46.79731" lon="5.62462">
        <ele>383.22</ele>
        <time>2016-06-07T06:58:44Z</time>
      </trkpt>
      <trkpt lat="46.79732" lon="5.62461">
        <ele>383.22</ele>
        <time>2016-06-07T06:58:45Z</time>
      </trkpt>
      <trkpt lat="46.79744" lon="5.62451">
        <ele>387.55</ele>
        <time>2016-06-07T06:58:54Z</time>
      </trkpt>
      <trkpt lat="46.79753" lon="5.62447">
        <ele>390.91</ele>
        <time>2016-06-07T06:59:08Z</time>
      </trkpt>
      <trkpt lat="46.79758" lon="5.62441">
        <ele>392.36</ele>
        <time>2016-06-07T06:59:19Z</time>
      </trkpt>
      <trkpt lat="46.7977" lon="5.62432">
        <ele>392.36</ele>
        <time>2016-06-07T06:59:32Z</time>
      </trkpt>
      <trkpt lat="46.79778" lon="5.62425">
        <ele>391.87</ele>
        <time>2016-06-07T06:59:45Z</time>
      </trkpt>
      <trkpt lat="46.79784" lon="5.62423">
        <ele>390.91</ele>
        <time>2016-06-07T06:59:57Z</time>
      </trkpt>
      <trkpt lat="46.79785" lon="5.62423">
        <ele>390.91</ele>
        <time>2016-06-07T06:59:58Z</time>
      </trkpt>
      <trkpt lat="46.79794" lon="5.6242">
        <ele>390.91</ele>
        <time>2016-06-07T07:00:08Z</time>
      </trkpt>
      <trkpt lat="46.79804" lon="5.62415">
        <ele>394.76</ele>
        <time>2016-06-07T07:00:19Z</time>
      </trkpt>
      <trkpt lat="46.79816" lon="5.6241">
        <ele>398.6</ele>
        <time>2016-06-07T07:00:31Z</time>
      </trkpt>
      <trkpt lat="46.79824" lon="5.62404">
        <ele>399.57</ele>
        <time>2016-06-07T07:00:42Z</time>
      </trkpt>
      <trkpt lat="46.79826" lon="5.62404">
        <ele>401.49</ele>
        <time>2016-06-07T07:00:59Z</time>
      </trkpt>
      <trkpt lat="46.7983" lon="5.62406">
        <ele>402.93</ele>
        <time>2016-06-07T07:01:11Z</time>
      </trkpt>
      <trkpt lat="46.79833" lon="5.62408">
        <ele>404.37</ele>
        <time>2016-06-07T07:01:21Z</time>
      </trkpt>
      <trkpt lat="46.79843" lon="5.62409">
        <ele>406.29</ele>
        <time>2016-06-07T07:01:32Z</time>
      </trkpt>
      <trkpt lat="46.79851" lon="5.62408">
        <ele>409.18</ele>
        <time>2016-06-07T07:01:45Z</time>
      </trkpt>
      <trkpt lat="46.79859" lon="5.62409">
        <ele>411.1</ele>
        <time>2016-06-07T07:01:56Z</time>
      </trkpt>
      <trkpt lat="46.79869" lon="5.62409">
        <ele>414.47</ele>
        <time>2016-06-07T07:02:07Z</time>
      </trkpt>
      <trkpt lat="46.79874" lon="5.62408">
        <ele>416.87</ele>
        <time>2016-06-07T07:02:19Z</time>
      </trkpt>
      <trkpt lat="46.79878" lon="5.62409">
        <ele>418.79</ele>
        <time>2016-06-07T07:02:30Z</time>
      </trkpt>
      <trkpt lat="46.79886" lon="5.62407">
        <ele>420.71</ele>
        <time>2016-06-07T07:02:43Z</time>
      </trkpt>
      <trkpt lat="46.79897" lon="5.62406">
        <ele>423.12</ele>
        <time>2016-06-07T07:02:54Z</time>
      </trkpt>
      <trkpt lat="46.79905" lon="5.62405">
        <ele>423.6</ele>
        <time>2016-06-07T07:03:05Z</time>
      </trkpt>
      <trkpt lat="46.79911" lon="5.62405">
        <ele>425.04</ele>
        <time>2016-06-07T07:03:16Z</time>
      </trkpt>
      <trkpt lat="46.79918" lon="5.62406">
        <ele>426.48</ele>
        <time>2016-06-07T07:03:28Z</time>
      </trkpt>
      <trkpt lat="46.79925" lon="5.62406">
        <ele>426.96</ele>
        <time>2016-06-07T07:03:42Z</time>
      </trkpt>
      <trkpt lat="46.79932" lon="5.62414">
        <ele>426.48</ele>
        <time>2016-06-07T07:03:52Z</time>
      </trkpt>
      <trkpt lat="46.79942" lon="5.6242">
        <ele>426</ele>
        <time>2016-06-07T07:04:05Z</time>
      </trkpt>
      <trkpt lat="46.79946" lon="5.62428">
        <ele>426.48</ele>
        <time>2016-06-07T07:04:19Z</time>
      </trkpt>
      <trkpt lat="46.79952" lon="5.62434">
        <ele>428.4</ele>
        <time>2016-06-07T07:04:35Z</time>
      </trkpt>
      <trkpt lat="46.79954" lon="5.62439">
        <ele>428.89</ele>
        <time>2016-06-07T07:04:52Z</time>
      </trkpt>
      <trkpt lat="46.79955" lon="5.62444">
        <ele>426.96</ele>
        <time>2016-06-07T07:05:05Z</time>
      </trkpt>
      <trkpt lat="46.79961" lon="5.62456">
        <ele>426.96</ele>
        <time>2016-06-07T07:05:16Z</time>
      </trkpt>
      <trkpt lat="46.79964" lon="5.62471">
        <ele>422.64</ele>
        <time>2016-06-07T07:05:26Z</time>
      </trkpt>
      <trkpt lat="46.79965" lon="5.62471">
        <ele>422.64</ele>
        <time>2016-06-07T07:05:27Z</time>
      </trkpt>
      <trkpt lat="46.79971" lon="5.62482">
        <ele>423.12</ele>
        <time>2016-06-07T07:05:41Z</time>
      </trkpt>
      <trkpt lat="46.79981" lon="5.62491">
        <ele>426.96</ele>
        <time>2016-06-07T07:05:57Z</time>
      </trkpt>
      <trkpt lat="46.79975" lon="5.62499">
        <ele>428.4</ele>
        <time>2016-06-07T07:06:05Z</time>
      </trkpt>
      <trkpt lat="46.79969" lon="5.62499">
        <ele>428.4</ele>
        <time>2016-06-07T07:06:11Z</time>
      </trkpt>
      <trkpt lat="46.79954" lon="5.62496">
        <ele>431.29</ele>
        <time>2016-06-07T07:06:24Z</time>
      </trkpt>
      <trkpt lat="46.79952" lon="5.62495">
        <ele>431.29</ele>
        <time>2016-06-07T07:06:26Z</time>
      </trkpt>
      <trkpt lat="46.79945" lon="5.62493">
        <ele>431.29</ele>
        <time>2016-06-07T07:06:34Z</time>
      </trkpt>
      <trkpt lat="46.79942" lon="5.62491">
        <ele>431.29</ele>
        <time>2016-06-07T07:06:37Z</time>
      </trkpt>
      <trkpt lat="46.7993" lon="5.62487">
        <ele>431.29</ele>
        <time>2016-06-07T07:06:48Z</time>
      </trkpt>
      <trkpt lat="46.7992" lon="5.62484">
        <ele>430.33</ele>
        <time>2016-06-07T07:06:59Z</time>
      </trkpt>
      <trkpt lat="46.79913" lon="5.62482">
        <ele>429.85</ele>
        <time>2016-06-07T07:07:06Z</time>
      </trkpt>
      <trkpt lat="46.79911" lon="5.62481">
        <ele>429.85</ele>
        <time>2016-06-07T07:07:08Z</time>
      </trkpt>
      <trkpt lat="46.79898" lon="5.62479">
        <ele>429.85</ele>
        <time>2016-06-07T07:07:20Z</time>
      </trkpt>
      <trkpt lat="46.79884" lon="5.62475">
        <ele>428.89</ele>
        <time>2016-06-07T07:07:33Z</time>
      </trkpt>
      <trkpt lat="46.79883" lon="5.62476">
        <ele>428.4</ele>
        <time>2016-06-07T07:07:35Z</time>
      </trkpt>
      <trkpt lat="46.7988" lon="5.62477">
        <ele>428.89</ele>
        <time>2016-06-07T07:07:38Z</time>
      </trkpt>
      <trkpt lat="46.79873" lon="5.62476">
        <ele>429.85</ele>
        <time>2016-06-07T07:07:44Z</time>
      </trkpt>
      <trkpt lat="46.79868" lon="5.62476">
        <ele>430.81</ele>
        <time>2016-06-07T07:07:48Z</time>
      </trkpt>
      <trkpt lat="46.79863" lon="5.62475">
        <ele>432.25</ele>
        <time>2016-06-07T07:07:53Z</time>
      </trkpt>
      <trkpt lat="46.79859" lon="5.62476">
        <ele>433.69</ele>
        <time>2016-06-07T07:07:56Z</time>
      </trkpt>
      <trkpt lat="46.79848" lon="5.62474">
        <ele>435.13</ele>
        <time>2016-06-07T07:08:06Z</time>
      </trkpt>
      <trkpt lat="46.79846" lon="5.62476">
        <ele>435.13</ele>
        <time>2016-06-07T07:08:08Z</time>
      </trkpt>
      <trkpt lat="46.79832" lon="5.62481">
        <ele>436.58</ele>
        <time>2016-06-07T07:08:20Z</time>
      </trkpt>
      <trkpt lat="46.79828" lon="5.62482">
        <ele>437.06</ele>
        <time>2016-06-07T07:08:23Z</time>
      </trkpt>
      <trkpt lat="46.79825" lon="5.62484">
        <ele>437.06</ele>
        <time>2016-06-07T07:08:26Z</time>
      </trkpt>
      <trkpt lat="46.79822" lon="5.62485">
        <ele>437.54</ele>
        <time>2016-06-07T07:08:29Z</time>
      </trkpt>
      <trkpt lat="46.79818" lon="5.62487">
        <ele>439.46</ele>
        <time>2016-06-07T07:08:32Z</time>
      </trkpt>
      <trkpt lat="46.79815" lon="5.62486">
        <ele>439.94</ele>
        <time>2016-06-07T07:08:34Z</time>
      </trkpt>
      <trkpt lat="46.7981" lon="5.62487">
        <ele>440.9</ele>
        <time>2016-06-07T07:08:39Z</time>
      </trkpt>
      <trkpt lat="46.798" lon="5.62483">
        <ele>448.11</ele>
        <time>2016-06-07T07:08:52Z</time>
      </trkpt>
      <trkpt lat="46.79798" lon="5.62481">
        <ele>450.52</ele>
        <time>2016-06-07T07:09:08Z</time>
      </trkpt>
      <trkpt lat="46.79798" lon="5.62481">
        <ele>453.88</ele>
        <time>2016-06-07T07:09:33Z</time>
      </trkpt>
      <trkpt lat="46.79797" lon="5.6248">
        <ele>454.84</ele>
        <time>2016-06-07T07:09:50Z</time>
      </trkpt>
      <trkpt lat="46.79797" lon="5.6248">
        <ele>455.32</ele>
        <time>2016-06-07T07:10:09Z</time>
      </trkpt>
      <trkpt lat="46.79797" lon="5.62481">
        <ele>455.32</ele>
        <time>2016-06-07T07:10:38Z</time>
      </trkpt>
      <trkpt lat="46.79797" lon="5.62481">
        <ele>456.28</ele>
        <time>2016-06-07T07:11:04Z</time>
      </trkpt>
      <trkpt lat="46.79797" lon="5.62481">
        <ele>457.24</ele>
        <time>2016-06-07T07:11:28Z</time>
      </trkpt>
      <trkpt lat="46.79796" lon="5.6248">
        <ele>457.72</ele>
        <time>2016-06-07T07:11:48Z</time>
      </trkpt>
      <trkpt lat="46.79796" lon="5.62483">
        <ele>457.24</ele>
        <time>2016-06-07T07:11:52Z</time>
      </trkpt>
      <trkpt lat="46.79793" lon="5.62499">
        <ele>453.88</ele>
        <time>2016-06-07T07:12:07Z</time>
      </trkpt>
      <trkpt lat="46.79785" lon="5.62521">
        <ele>452.44</ele>
        <time>2016-06-07T07:12:25Z</time>
      </trkpt>
      <trkpt lat="46.7977" lon="5.62547">
        <ele>455.32</ele>
        <time>2016-06-07T07:12:39Z</time>
      </trkpt>
      <trkpt lat="46.79763" lon="5.62557">
        <ele>457.24</ele>
        <time>2016-06-07T07:12:49Z</time>
      </trkpt>
      <trkpt lat="46.79751" lon="5.6258">
        <ele>459.17</ele>
        <time>2016-06-07T07:13:05Z</time>
      </trkpt>
      <trkpt lat="46.79741" lon="5.62599">
        <ele>460.61</ele>
        <time>2016-06-07T07:13:22Z</time>
      </trkpt>
      <trkpt lat="46.79738" lon="5.62606">
        <ele>461.09</ele>
        <time>2016-06-07T07:13:38Z</time>
      </trkpt>
      <trkpt lat="46.7973" lon="5.6262">
        <ele>461.57</ele>
        <time>2016-06-07T07:13:50Z</time>
      </trkpt>
      <trkpt lat="46.79723" lon="5.62634">
        <ele>461.57</ele>
        <time>2016-06-07T07:14:07Z</time>
      </trkpt>
      <trkpt lat="46.79711" lon="5.62652">
        <ele>460.61</ele>
        <time>2016-06-07T07:14:23Z</time>
      </trkpt>
      <trkpt lat="46.79696" lon="5.62671">
        <ele>460.13</ele>
        <time>2016-06-07T07:14:37Z</time>
      </trkpt>
      <trkpt lat="46.79692" lon="5.62681">
        <ele>462.05</ele>
        <time>2016-06-07T07:14:47Z</time>
      </trkpt>
      <trkpt lat="46.79682" lon="5.62692">
        <ele>464.45</ele>
        <time>2016-06-07T07:14:58Z</time>
      </trkpt>
      <trkpt lat="46.79677" lon="5.62697">
        <ele>465.42</ele>
        <time>2016-06-07T07:15:02Z</time>
      </trkpt>
      <trkpt lat="46.79671" lon="5.62703">
        <ele>466.86</ele>
        <time>2016-06-07T07:15:05Z</time>
      </trkpt>
      <trkpt lat="46.79656" lon="5.62726">
        <ele>471.66</ele>
        <time>2016-06-07T07:15:18Z</time>
      </trkpt>
      <trkpt lat="46.7965" lon="5.62739">
        <ele>473.11</ele>
        <time>2016-06-07T07:15:26Z</time>
      </trkpt>
      <trkpt lat="46.79641" lon="5.62748">
        <ele>473.59</ele>
        <time>2016-06-07T07:15:39Z</time>
      </trkpt>
      <trkpt lat="46.79631" lon="5.62731">
        <ele>475.51</ele>
        <time>2016-06-07T07:15:53Z</time>
      </trkpt>
      <trkpt lat="46.79619" lon="5.62717">
        <ele>474.07</ele>
        <time>2016-06-07T07:16:05Z</time>
      </trkpt>
      <trkpt lat="46.79617" lon="5.62713">
        <ele>473.59</ele>
        <time>2016-06-07T07:16:07Z</time>
      </trkpt>
      <trkpt lat="46.79614" lon="5.62708">
        <ele>473.11</ele>
        <time>2016-06-07T07:16:10Z</time>
      </trkpt>
      <trkpt lat="46.79607" lon="5.62695">
        <ele>473.11</ele>
        <time>2016-06-07T07:16:19Z</time>
      </trkpt>
      <trkpt lat="46.79598" lon="5.62681">
        <ele>471.18</ele>
        <time>2016-06-07T07:16:33Z</time>
      </trkpt>
      <trkpt lat="46.79598" lon="5.62675">
        <ele>470.7</ele>
        <time>2016-06-07T07:16:53Z</time>
      </trkpt>
      <trkpt lat="46.79598" lon="5.62674">
        <ele>470.22</ele>
        <time>2016-06-07T07:17:15Z</time>
      </trkpt>
      <trkpt lat="46.79597" lon="5.62672">
        <ele>470.22</ele>
        <time>2016-06-07T07:17:37Z</time>
      </trkpt>
      <trkpt lat="46.79594" lon="5.62671">
        <ele>470.7</ele>
        <time>2016-06-07T07:17:49Z</time>
      </trkpt>
      <trkpt lat="46.79594" lon="5.62672">
        <ele>472.14</ele>
        <time>2016-06-07T07:17:58Z</time>
      </trkpt>
      <trkpt lat="46.79582" lon="5.62667">
        <ele>471.66</ele>
        <time>2016-06-07T07:18:10Z</time>
      </trkpt>
      <trkpt lat="46.7957" lon="5.62663">
        <ele>471.66</ele>
        <time>2016-06-07T07:18:22Z</time>
      </trkpt>
      <trkpt lat="46.79561" lon="5.6266">
        <ele>470.7</ele>
        <time>2016-06-07T07:18:36Z</time>
      </trkpt>
      <trkpt lat="46.79554" lon="5.62662">
        <ele>470.22</ele>
        <time>2016-06-07T07:18:47Z</time>
      </trkpt>
      <trkpt lat="46.79545" lon="5.62659">
        <ele>468.78</ele>
        <time>2016-06-07T07:18:58Z</time>
      </trkpt>
      <trkpt lat="46.79536" lon="5.62655">
        <ele>467.82</ele>
        <time>2016-06-07T07:19:09Z</time>
      </trkpt>
      <trkpt lat="46.79525" lon="5.62651">
        <ele>470.22</ele>
        <time>2016-06-07T07:19:20Z</time>
      </trkpt>
      <trkpt lat="46.79512" lon="5.62642">
        <ele>471.18</ele>
        <time>2016-06-07T07:19:33Z</time>
      </trkpt>
      <trkpt lat="46.79498" lon="5.62636">
        <ele>470.7</ele>
        <time>2016-06-07T07:19:41Z</time>
      </trkpt>
      <trkpt lat="46.79488" lon="5.62631">
        <ele>472.14</ele>
        <time>2016-06-07T07:19:51Z</time>
      </trkpt>
      <trkpt lat="46.79475" lon="5.62628">
        <ele>475.03</ele>
        <time>2016-06-07T07:20:00Z</time>
      </trkpt>
      <trkpt lat="46.79464" lon="5.62624">
        <ele>473.59</ele>
        <time>2016-06-07T07:20:12Z</time>
      </trkpt>
      <trkpt lat="46.79453" lon="5.62622">
        <ele>469.74</ele>
        <time>2016-06-07T07:20:25Z</time>
      </trkpt>
      <trkpt lat="46.79437" lon="5.62614">
        <ele>469.26</ele>
        <time>2016-06-07T07:20:38Z</time>
      </trkpt>
      <trkpt lat="46.79425" lon="5.62611">
        <ele>470.7</ele>
        <time>2016-06-07T07:20:51Z</time>
      </trkpt>
      <trkpt lat="46.79415" lon="5.62608">
        <ele>471.18</ele>
        <time>2016-06-07T07:21:03Z</time>
      </trkpt>
      <trkpt lat="46.79402" lon="5.62604">
        <ele>472.63</ele>
        <time>2016-06-07T07:21:12Z</time>
      </trkpt>
      <trkpt lat="46.79391" lon="5.62601">
        <ele>473.59</ele>
        <time>2016-06-07T07:21:22Z</time>
      </trkpt>
      <trkpt lat="46.79381" lon="5.626">
        <ele>474.07</ele>
        <time>2016-06-07T07:21:34Z</time>
      </trkpt>
      <trkpt lat="46.79377" lon="5.626">
        <ele>475.03</ele>
        <time>2016-06-07T07:21:48Z</time>
      </trkpt>
      <trkpt lat="46.79364" lon="5.62595">
        <ele>478.39</ele>
        <time>2016-06-07T07:22:00Z</time>
      </trkpt>
      <trkpt lat="46.79354" lon="5.62594">
        <ele>480.8</ele>
        <time>2016-06-07T07:22:14Z</time>
      </trkpt>
      <trkpt lat="46.79343" lon="5.62592">
        <ele>482.24</ele>
        <time>2016-06-07T07:22:26Z</time>
      </trkpt>
      <trkpt lat="46.79325" lon="5.62592">
        <ele>482.72</ele>
        <time>2016-06-07T07:22:40Z</time>
      </trkpt>
      <trkpt lat="46.79305" lon="5.62592">
        <ele>484.64</ele>
        <time>2016-06-07T07:22:52Z</time>
      </trkpt>
      <trkpt lat="46.79296" lon="5.62593">
        <ele>484.16</ele>
        <time>2016-06-07T07:23:05Z</time>
      </trkpt>
      <trkpt lat="46.79295" lon="5.62592">
        <ele>484.16</ele>
        <time>2016-06-07T07:23:07Z</time>
      </trkpt>
      <trkpt lat="46.79274" lon="5.62593">
        <ele>481.76</ele>
        <time>2016-06-07T07:23:21Z</time>
      </trkpt>
      <trkpt lat="46.79266" lon="5.62591">
        <ele>482.72</ele>
        <time>2016-06-07T07:23:25Z</time>
      </trkpt>
      <trkpt lat="46.79249" lon="5.6259">
        <ele>479.84</ele>
        <time>2016-06-07T07:23:38Z</time>
      </trkpt>
      <trkpt lat="46.79235" lon="5.62591">
        <ele>478.87</ele>
        <time>2016-06-07T07:23:50Z</time>
      </trkpt>
      <trkpt lat="46.79225" lon="5.6259">
        <ele>479.35</ele>
        <time>2016-06-07T07:24:03Z</time>
      </trkpt>
      <trkpt lat="46.79211" lon="5.62591">
        <ele>479.84</ele>
        <time>2016-06-07T07:24:14Z</time>
      </trkpt>
      <trkpt lat="46.79194" lon="5.62593">
        <ele>479.84</ele>
        <time>2016-06-07T07:24:28Z</time>
      </trkpt>
      <trkpt lat="46.79177" lon="5.62594">
        <ele>479.35</ele>
        <time>2016-06-07T07:24:40Z</time>
      </trkpt>
      <trkpt lat="46.79167" lon="5.62594">
        <ele>478.87</ele>
        <time>2016-06-07T07:24:48Z</time>
      </trkpt>
      <trkpt lat="46.7914" lon="5.62599">
        <ele>483.2</ele>
        <time>2016-06-07T07:25:04Z</time>
      </trkpt>
      <trkpt lat="46.79126" lon="5.62597">
        <ele>482.72</ele>
        <time>2016-06-07T07:25:17Z</time>
      </trkpt>
      <trkpt lat="46.79124" lon="5.62596">
        <ele>482.24</ele>
        <time>2016-06-07T07:25:20Z</time>
      </trkpt>
      <trkpt lat="46.7911" lon="5.62595">
        <ele>483.2</ele>
        <time>2016-06-07T07:25:34Z</time>
      </trkpt>
      <trkpt lat="46.791" lon="5.62591">
        <ele>481.28</ele>
        <time>2016-06-07T07:25:46Z</time>
      </trkpt>
      <trkpt lat="46.79082" lon="5.62579">
        <ele>480.8</ele>
        <time>2016-06-07T07:26:00Z</time>
      </trkpt>
      <trkpt lat="46.79078" lon="5.62576">
        <ele>481.28</ele>
        <time>2016-06-07T07:26:03Z</time>
      </trkpt>
      <trkpt lat="46.7907" lon="5.62571">
        <ele>481.76</ele>
        <time>2016-06-07T07:26:08Z</time>
      </trkpt>
      <trkpt lat="46.79048" lon="5.62561">
        <ele>479.84</ele>
        <time>2016-06-07T07:26:21Z</time>
      </trkpt>
      <trkpt lat="46.79036" lon="5.62549">
        <ele>476.47</ele>
        <time>2016-06-07T07:26:35Z</time>
      </trkpt>
      <trkpt lat="46.79026" lon="5.62542">
        <ele>474.55</ele>
        <time>2016-06-07T07:26:45Z</time>
      </trkpt>
      <trkpt lat="46.79009" lon="5.62531">
        <ele>474.55</ele>
        <time>2016-06-07T07:27:00Z</time>
      </trkpt>
      <trkpt lat="46.79007" lon="5.6253">
        <ele>474.55</ele>
        <time>2016-06-07T07:27:02Z</time>
      </trkpt>
      <trkpt lat="46.79" lon="5.62527">
        <ele>473.59</ele>
        <time>2016-06-07T07:27:07Z</time>
      </trkpt>
      <trkpt lat="46.78998" lon="5.62525">
        <ele>474.07</ele>
        <time>2016-06-07T07:27:10Z</time>
      </trkpt>
      <trkpt lat="46.78986" lon="5.62522">
        <ele>475.03</ele>
        <time>2016-06-07T07:27:21Z</time>
      </trkpt>
      <trkpt lat="46.78972" lon="5.6252">
        <ele>477.91</ele>
        <time>2016-06-07T07:27:33Z</time>
      </trkpt>
      <trkpt lat="46.78958" lon="5.62513">
        <ele>477.43</ele>
        <time>2016-06-07T07:27:49Z</time>
      </trkpt>
      <trkpt lat="46.78955" lon="5.62502">
        <ele>476.47</ele>
        <time>2016-06-07T07:28:03Z</time>
      </trkpt>
      <trkpt lat="46.7895" lon="5.62485">
        <ele>476.47</ele>
        <time>2016-06-07T07:28:13Z</time>
      </trkpt>
      <trkpt lat="46.78937" lon="5.6246">
        <ele>475.51</ele>
        <time>2016-06-07T07:28:27Z</time>
      </trkpt>
      <trkpt lat="46.78933" lon="5.62443">
        <ele>474.07</ele>
        <time>2016-06-07T07:28:39Z</time>
      </trkpt>
      <trkpt lat="46.78928" lon="5.62428">
        <ele>474.07</ele>
        <time>2016-06-07T07:28:50Z</time>
      </trkpt>
      <trkpt lat="46.78921" lon="5.62407">
        <ele>472.63</ele>
        <time>2016-06-07T07:29:05Z</time>
      </trkpt>
      <trkpt lat="46.78913" lon="5.62384">
        <ele>469.74</ele>
        <time>2016-06-07T07:29:19Z</time>
      </trkpt>
      <trkpt lat="46.7891" lon="5.62367">
        <ele>465.42</ele>
        <time>2016-06-07T07:29:32Z</time>
      </trkpt>
      <trkpt lat="46.78911" lon="5.62356">
        <ele>461.57</ele>
        <time>2016-06-07T07:29:45Z</time>
      </trkpt>
      <trkpt lat="46.7891" lon="5.62359">
        <ele>460.61</ele>
        <time>2016-06-07T07:29:55Z</time>
      </trkpt>
      <trkpt lat="46.7891" lon="5.62359">
        <ele>460.13</ele>
        <time>2016-06-07T07:29:56Z</time>
      </trkpt>
      <trkpt lat="46.78904" lon="5.62368">
        <ele>458.21</ele>
        <time>2016-06-07T07:30:05Z</time>
      </trkpt>
      <trkpt lat="46.78897" lon="5.6238">
        <ele>457.24</ele>
        <time>2016-06-07T07:30:15Z</time>
      </trkpt>
      <trkpt lat="46.78894" lon="5.62393">
        <ele>456.28</ele>
        <time>2016-06-07T07:30:24Z</time>
      </trkpt>
      <trkpt lat="46.78889" lon="5.62403">
        <ele>455.32</ele>
        <time>2016-06-07T07:30:35Z</time>
      </trkpt>
      <trkpt lat="46.78888" lon="5.62407">
        <ele>456.28</ele>
        <time>2016-06-07T07:30:43Z</time>
      </trkpt>
      <trkpt lat="46.78882" lon="5.62415">
        <ele>456.76</ele>
        <time>2016-06-07T07:30:55Z</time>
      </trkpt>
      <trkpt lat="46.78871" lon="5.62426">
        <ele>458.21</ele>
        <time>2016-06-07T07:31:08Z</time>
      </trkpt>
      <trkpt lat="46.78862" lon="5.62435">
        <ele>457.72</ele>
        <time>2016-06-07T07:31:20Z</time>
      </trkpt>
      <trkpt lat="46.78852" lon="5.62448">
        <ele>460.61</ele>
        <time>2016-06-07T07:31:35Z</time>
      </trkpt>
      <trkpt lat="46.78843" lon="5.62455">
        <ele>462.05</ele>
        <time>2016-06-07T07:31:46Z</time>
      </trkpt>
      <trkpt lat="46.78832" lon="5.62467">
        <ele>465.9</ele>
        <time>2016-06-07T07:31:59Z</time>
      </trkpt>
      <trkpt lat="46.78824" lon="5.62472">
        <ele>467.82</ele>
        <time>2016-06-07T07:32:12Z</time>
      </trkpt>
      <trkpt lat="46.78807" lon="5.62486">
        <ele>470.22</ele>
        <time>2016-06-07T07:32:26Z</time>
      </trkpt>
      <trkpt lat="46.78788" lon="5.62492">
        <ele>472.63</ele>
        <time>2016-06-07T07:32:44Z</time>
      </trkpt>
      <trkpt lat="46.78777" lon="5.62497">
        <ele>473.11</ele>
        <time>2016-06-07T07:32:55Z</time>
      </trkpt>
      <trkpt lat="46.78763" lon="5.62507">
        <ele>472.14</ele>
        <time>2016-06-07T07:33:09Z</time>
      </trkpt>
      <trkpt lat="46.78754" lon="5.62516">
        <ele>473.59</ele>
        <time>2016-06-07T07:33:21Z</time>
      </trkpt>
      <trkpt lat="46.78743" lon="5.6253">
        <ele>474.55</ele>
        <time>2016-06-07T07:33:36Z</time>
      </trkpt>
      <trkpt lat="46.7873" lon="5.62548">
        <ele>474.55</ele>
        <time>2016-06-07T07:33:52Z</time>
      </trkpt>
      <trkpt lat="46.78712" lon="5.62569">
        <ele>477.91</ele>
        <time>2016-06-07T07:34:06Z</time>
      </trkpt>
      <trkpt lat="46.78703" lon="5.62576">
        <ele>480.8</ele>
        <time>2016-06-07T07:34:19Z</time>
      </trkpt>
      <trkpt lat="46.78693" lon="5.62585">
        <ele>479.84</ele>
        <time>2016-06-07T07:34:31Z</time>
      </trkpt>
      <trkpt lat="46.78676" lon="5.62603">
        <ele>479.84</ele>
        <time>2016-06-07T07:34:44Z</time>
      </trkpt>
      <trkpt lat="46.78663" lon="5.62616">
        <ele>482.24</ele>
        <time>2016-06-07T07:34:55Z</time>
      </trkpt>
      <trkpt lat="46.7865" lon="5.62628">
        <ele>481.76</ele>
        <time>2016-06-07T07:35:07Z</time>
      </trkpt>
      <trkpt lat="46.78642" lon="5.62638">
        <ele>480.8</ele>
        <time>2016-06-07T07:35:18Z</time>
      </trkpt>
      <trkpt lat="46.78638" lon="5.62645">
        <ele>479.35</ele>
        <time>2016-06-07T07:35:29Z</time>
      </trkpt>
      <trkpt lat="46.78625" lon="5.62651">
        <ele>477.91</ele>
        <time>2016-06-07T07:35:42Z</time>
      </trkpt>
      <trkpt lat="46.78605" lon="5.62663">
        <ele>476.95</ele>
        <time>2016-06-07T07:35:56Z</time>
      </trkpt>
      <trkpt lat="46.78591" lon="5.62668">
        <ele>475.51</ele>
        <time>2016-06-07T07:36:10Z</time>
      </trkpt>
      <trkpt lat="46.78576" lon="5.62668">
        <ele>474.07</ele>
        <time>2016-06-07T07:36:24Z</time>
      </trkpt>
      <trkpt lat="46.78559" lon="5.62671">
        <ele>471.18</ele>
        <time>2016-06-07T07:36:36Z</time>
      </trkpt>
      <trkpt lat="46.78546" lon="5.62672">
        <ele>470.7</ele>
        <time>2016-06-07T07:36:49Z</time>
      </trkpt>
      <trkpt lat="46.78537" lon="5.62672">
        <ele>471.18</ele>
        <time>2016-06-07T07:36:54Z</time>
      </trkpt>
      <trkpt lat="46.78521" lon="5.62668">
        <ele>470.22</ele>
        <time>2016-06-07T07:37:07Z</time>
      </trkpt>
      <trkpt lat="46.78505" lon="5.62664">
        <ele>467.34</ele>
        <time>2016-06-07T07:37:20Z</time>
      </trkpt>
      <trkpt lat="46.78494" lon="5.62663">
        <ele>467.34</ele>
        <time>2016-06-07T07:37:32Z</time>
      </trkpt>
      <trkpt lat="46.78481" lon="5.62658">
        <ele>464.45</ele>
        <time>2016-06-07T07:37:46Z</time>
      </trkpt>
      <trkpt lat="46.78459" lon="5.62652">
        <ele>464.93</ele>
        <time>2016-06-07T07:38:00Z</time>
      </trkpt>
      <trkpt lat="46.78445" lon="5.62646">
        <ele>466.86</ele>
        <time>2016-06-07T07:38:13Z</time>
      </trkpt>
      <trkpt lat="46.78434" lon="5.62639">
        <ele>469.26</ele>
        <time>2016-06-07T07:38:24Z</time>
      </trkpt>
      <trkpt lat="46.78419" lon="5.62631">
        <ele>472.63</ele>
        <time>2016-06-07T07:38:37Z</time>
      </trkpt>
      <trkpt lat="46.78412" lon="5.62625">
        <ele>470.7</ele>
        <time>2016-06-07T07:38:48Z</time>
      </trkpt>
      <trkpt lat="46.78398" lon="5.62611">
        <ele>466.86</ele>
        <time>2016-06-07T07:39:02Z</time>
      </trkpt>
      <trkpt lat="46.78381" lon="5.626">
        <ele>466.86</ele>
        <time>2016-06-07T07:39:14Z</time>
      </trkpt>
      <trkpt lat="46.78371" lon="5.62589">
        <ele>467.34</ele>
        <time>2016-06-07T07:39:23Z</time>
      </trkpt>
      <trkpt lat="46.78361" lon="5.62578">
        <ele>464.93</ele>
        <time>2016-06-07T07:39:34Z</time>
      </trkpt>
      <trkpt lat="46.78359" lon="5.62576">
        <ele>463.97</ele>
        <time>2016-06-07T07:39:38Z</time>
      </trkpt>
      <trkpt lat="46.78347" lon="5.62565">
        <ele>461.09</ele>
        <time>2016-06-07T07:39:49Z</time>
      </trkpt>
      <trkpt lat="46.78344" lon="5.62563">
        <ele>460.13</ele>
        <time>2016-06-07T07:39:51Z</time>
      </trkpt>
      <trkpt lat="46.78339" lon="5.62557">
        <ele>454.84</ele>
        <time>2016-06-07T07:40:01Z</time>
      </trkpt>
      <trkpt lat="46.78333" lon="5.62548">
        <ele>449.07</ele>
        <time>2016-06-07T07:40:13Z</time>
      </trkpt>
      <trkpt lat="46.78323" lon="5.62538">
        <ele>445.71</ele>
        <time>2016-06-07T07:40:25Z</time>
      </trkpt>
      <trkpt lat="46.78311" lon="5.62527">
        <ele>445.71</ele>
        <time>2016-06-07T07:40:34Z</time>
      </trkpt>
      <trkpt lat="46.78301" lon="5.62519">
        <ele>447.15</ele>
        <time>2016-06-07T07:40:41Z</time>
      </trkpt>
      <trkpt lat="46.78286" lon="5.62506">
        <ele>451.96</ele>
        <time>2016-06-07T07:40:54Z</time>
      </trkpt>
      <trkpt lat="46.7828" lon="5.62504">
        <ele>453.4</ele>
        <time>2016-06-07T07:41:07Z</time>
      </trkpt>
      <trkpt lat="46.78271" lon="5.62504">
        <ele>459.17</ele>
        <time>2016-06-07T07:41:18Z</time>
      </trkpt>
      <trkpt lat="46.78261" lon="5.62502">
        <ele>463.01</ele>
        <time>2016-06-07T07:41:26Z</time>
      </trkpt>
      <trkpt lat="46.78258" lon="5.62502">
        <ele>462.53</ele>
        <time>2016-06-07T07:41:28Z</time>
      </trkpt>
      <trkpt lat="46.78241" lon="5.62493">
        <ele>460.61</ele>
        <time>2016-06-07T07:41:40Z</time>
      </trkpt>
      <trkpt lat="46.78226" lon="5.62488">
        <ele>460.13</ele>
        <time>2016-06-07T07:41:51Z</time>
      </trkpt>
      <trkpt lat="46.78218" lon="5.62487">
        <ele>461.09</ele>
        <time>2016-06-07T07:41:55Z</time>
      </trkpt>
      <trkpt lat="46.782" lon="5.62485">
        <ele>460.61</ele>
        <time>2016-06-07T07:42:08Z</time>
      </trkpt>
      <trkpt lat="46.78198" lon="5.62485">
        <ele>460.61</ele>
        <time>2016-06-07T07:42:10Z</time>
      </trkpt>
      <trkpt lat="46.78194" lon="5.62486">
        <ele>460.13</ele>
        <time>2016-06-07T07:42:13Z</time>
      </trkpt>
      <trkpt lat="46.78177" lon="5.62488">
        <ele>456.76</ele>
        <time>2016-06-07T07:42:28Z</time>
      </trkpt>
      <trkpt lat="46.78163" lon="5.62498">
        <ele>456.76</ele>
        <time>2016-06-07T07:42:41Z</time>
      </trkpt>
      <trkpt lat="46.78159" lon="5.62505">
        <ele>456.28</ele>
        <time>2016-06-07T07:42:46Z</time>
      </trkpt>
      <trkpt lat="46.78145" lon="5.62521">
        <ele>458.21</ele>
        <time>2016-06-07T07:43:00Z</time>
      </trkpt>
      <trkpt lat="46.7814" lon="5.62527">
        <ele>458.21</ele>
        <time>2016-06-07T07:43:07Z</time>
      </trkpt>
      <trkpt lat="46.78137" lon="5.62531">
        <ele>458.69</ele>
        <time>2016-06-07T07:43:10Z</time>
      </trkpt>
      <trkpt lat="46.78132" lon="5.62535">
        <ele>458.69</ele>
        <time>2016-06-07T07:43:14Z</time>
      </trkpt>
      <trkpt lat="46.78116" lon="5.62545">
        <ele>461.57</ele>
        <time>2016-06-07T07:43:28Z</time>
      </trkpt>
      <trkpt lat="46.78103" lon="5.6255">
        <ele>462.53</ele>
        <time>2016-06-07T07:43:40Z</time>
      </trkpt>
      <trkpt lat="46.78099" lon="5.62551">
        <ele>463.01</ele>
        <time>2016-06-07T07:43:43Z</time>
      </trkpt>
      <trkpt lat="46.78083" lon="5.62554">
        <ele>464.45</ele>
        <time>2016-06-07T07:43:57Z</time>
      </trkpt>
      <trkpt lat="46.78081" lon="5.62554">
        <ele>464.45</ele>
        <time>2016-06-07T07:43:59Z</time>
      </trkpt>
      <trkpt lat="46.78063" lon="5.62555">
        <ele>465.42</ele>
        <time>2016-06-07T07:44:14Z</time>
      </trkpt>
      <trkpt lat="46.78047" lon="5.62555">
        <ele>465.9</ele>
        <time>2016-06-07T07:44:27Z</time>
      </trkpt>
      <trkpt lat="46.78035" lon="5.62555">
        <ele>465.9</ele>
        <time>2016-06-07T07:44:38Z</time>
      </trkpt>
      <trkpt lat="46.7802" lon="5.62554">
        <ele>465.9</ele>
        <time>2016-06-07T07:44:50Z</time>
      </trkpt>
      <trkpt lat="46.78004" lon="5.62553">
        <ele>463.97</ele>
        <time>2016-06-07T07:45:04Z</time>
      </trkpt>
      <trkpt lat="46.77987" lon="5.62551">
        <ele>464.93</ele>
        <time>2016-06-07T07:45:18Z</time>
      </trkpt>
      <trkpt lat="46.77972" lon="5.62552">
        <ele>465.9</ele>
        <time>2016-06-07T07:45:30Z</time>
      </trkpt>
      <trkpt lat="46.7796" lon="5.62556">
        <ele>465.42</ele>
        <time>2016-06-07T07:45:41Z</time>
      </trkpt>
      <trkpt lat="46.77951" lon="5.62564">
        <ele>465.42</ele>
        <time>2016-06-07T07:45:51Z</time>
      </trkpt>
      <trkpt lat="46.77942" lon="5.62572">
        <ele>466.86</ele>
        <time>2016-06-07T07:46:01Z</time>
      </trkpt>
      <trkpt lat="46.77931" lon="5.62582">
        <ele>466.86</ele>
        <time>2016-06-07T07:46:13Z</time>
      </trkpt>
      <trkpt lat="46.77919" lon="5.62591">
        <ele>467.82</ele>
        <time>2016-06-07T07:46:25Z</time>
      </trkpt>
      <trkpt lat="46.77904" lon="5.62592">
        <ele>469.26</ele>
        <time>2016-06-07T07:46:38Z</time>
      </trkpt>
      <trkpt lat="46.77895" lon="5.62589">
        <ele>469.26</ele>
        <time>2016-06-07T07:46:46Z</time>
      </trkpt>
      <trkpt lat="46.77881" lon="5.62582">
        <ele>469.26</ele>
        <time>2016-06-07T07:46:58Z</time>
      </trkpt>
      <trkpt lat="46.77878" lon="5.6258">
        <ele>468.78</ele>
        <time>2016-06-07T07:47:01Z</time>
      </trkpt>
      <trkpt lat="46.77876" lon="5.62579">
        <ele>468.78</ele>
        <time>2016-06-07T07:47:03Z</time>
      </trkpt>
      <trkpt lat="46.77867" lon="5.62577">
        <ele>467.34</ele>
        <time>2016-06-07T07:47:12Z</time>
      </trkpt>
      <trkpt lat="46.77854" lon="5.6258">
        <ele>467.82</ele>
        <time>2016-06-07T07:47:23Z</time>
      </trkpt>
      <trkpt lat="46.77841" lon="5.62581">
        <ele>466.86</ele>
        <time>2016-06-07T07:47:34Z</time>
      </trkpt>
      <trkpt lat="46.77832" lon="5.62581">
        <ele>466.38</ele>
        <time>2016-06-07T07:47:42Z</time>
      </trkpt>
      <trkpt lat="46.77816" lon="5.62578">
        <ele>468.3</ele>
        <time>2016-06-07T07:47:55Z</time>
      </trkpt>
      <trkpt lat="46.77815" lon="5.62578">
        <ele>468.78</ele>
        <time>2016-06-07T07:47:56Z</time>
      </trkpt>
      <trkpt lat="46.77808" lon="5.62578">
        <ele>468.78</ele>
        <time>2016-06-07T07:48:02Z</time>
      </trkpt>
      <trkpt lat="46.77799" lon="5.62579">
        <ele>469.74</ele>
        <time>2016-06-07T07:48:13Z</time>
      </trkpt>
      <trkpt lat="46.77798" lon="5.6258">
        <ele>469.74</ele>
        <time>2016-06-07T07:48:38Z</time>
      </trkpt>
      <trkpt lat="46.77798" lon="5.6258">
        <ele>469.26</ele>
        <time>2016-06-07T07:49:01Z</time>
      </trkpt>
      <trkpt lat="46.77785" lon="5.6259">
        <ele>467.82</ele>
        <time>2016-06-07T07:49:14Z</time>
      </trkpt>
      <trkpt lat="46.77784" lon="5.62591">
        <ele>467.82</ele>
        <time>2016-06-07T07:49:15Z</time>
      </trkpt>
      <trkpt lat="46.77782" lon="5.62592">
        <ele>467.82</ele>
        <time>2016-06-07T07:49:17Z</time>
      </trkpt>
      <trkpt lat="46.77769" lon="5.62604">
        <ele>468.3</ele>
        <time>2016-06-07T07:49:29Z</time>
      </trkpt>
      <trkpt lat="46.77759" lon="5.62617">
        <ele>469.26</ele>
        <time>2016-06-07T07:49:40Z</time>
      </trkpt>
      <trkpt lat="46.77748" lon="5.6263">
        <ele>469.26</ele>
        <time>2016-06-07T07:49:51Z</time>
      </trkpt>
      <trkpt lat="46.77737" lon="5.62645">
        <ele>468.3</ele>
        <time>2016-06-07T07:50:04Z</time>
      </trkpt>
      <trkpt lat="46.77736" lon="5.62648">
        <ele>468.3</ele>
        <time>2016-06-07T07:50:06Z</time>
      </trkpt>
      <trkpt lat="46.77728" lon="5.62665">
        <ele>467.34</ele>
        <time>2016-06-07T07:50:18Z</time>
      </trkpt>
      <trkpt lat="46.77718" lon="5.62683">
        <ele>467.82</ele>
        <time>2016-06-07T07:50:31Z</time>
      </trkpt>
      <trkpt lat="46.7771" lon="5.62698">
        <ele>468.3</ele>
        <time>2016-06-07T07:50:42Z</time>
      </trkpt>
      <trkpt lat="46.77705" lon="5.62709">
        <ele>469.26</ele>
        <time>2016-06-07T07:50:50Z</time>
      </trkpt>
      <trkpt lat="46.77697" lon="5.62726">
        <ele>468.78</ele>
        <time>2016-06-07T07:51:04Z</time>
      </trkpt>
      <trkpt lat="46.77691" lon="5.6274">
        <ele>468.3</ele>
        <time>2016-06-07T07:51:15Z</time>
      </trkpt>
      <trkpt lat="46.77688" lon="5.62746">
        <ele>467.82</ele>
        <time>2016-06-07T07:51:21Z</time>
      </trkpt>
      <trkpt lat="46.77681" lon="5.62762">
        <ele>467.34</ele>
        <time>2016-06-07T07:51:32Z</time>
      </trkpt>
      <trkpt lat="46.77676" lon="5.62777">
        <ele>469.74</ele>
        <time>2016-06-07T07:51:42Z</time>
      </trkpt>
      <trkpt lat="46.77671" lon="5.62789">
        <ele>470.22</ele>
        <time>2016-06-07T07:51:52Z</time>
      </trkpt>
      <trkpt lat="46.77662" lon="5.62804">
        <ele>472.14</ele>
        <time>2016-06-07T07:52:04Z</time>
      </trkpt>
      <trkpt lat="46.77655" lon="5.6282">
        <ele>473.11</ele>
        <time>2016-06-07T07:52:15Z</time>
      </trkpt>
      <trkpt lat="46.7765" lon="5.62828">
        <ele>473.59</ele>
        <time>2016-06-07T07:52:21Z</time>
      </trkpt>
      <trkpt lat="46.77641" lon="5.62844">
        <ele>473.11</ele>
        <time>2016-06-07T07:52:34Z</time>
      </trkpt>
      <trkpt lat="46.77634" lon="5.62855">
        <ele>473.11</ele>
        <time>2016-06-07T07:52:44Z</time>
      </trkpt>
      <trkpt lat="46.77625" lon="5.62863">
        <ele>472.14</ele>
        <time>2016-06-07T07:52:53Z</time>
      </trkpt>
      <trkpt lat="46.77616" lon="5.62862">
        <ele>470.7</ele>
        <time>2016-06-07T07:53:02Z</time>
      </trkpt>
      <trkpt lat="46.77608" lon="5.62859">
        <ele>469.74</ele>
        <time>2016-06-07T07:53:09Z</time>
      </trkpt>
      <trkpt lat="46.77589" lon="5.62857">
        <ele>470.22</ele>
        <time>2016-06-07T07:53:24Z</time>
      </trkpt>
      <trkpt lat="46.77578" lon="5.62854">
        <ele>468.3</ele>
        <time>2016-06-07T07:53:36Z</time>
      </trkpt>
      <trkpt lat="46.7756" lon="5.62851">
        <ele>470.7</ele>
        <time>2016-06-07T07:53:52Z</time>
      </trkpt>
      <trkpt lat="46.7755" lon="5.6285">
        <ele>471.18</ele>
        <time>2016-06-07T07:54:03Z</time>
      </trkpt>
      <trkpt lat="46.7754" lon="5.62846">
        <ele>470.22</ele>
        <time>2016-06-07T07:54:10Z</time>
      </trkpt>
      <trkpt lat="46.77521" lon="5.62841">
        <ele>469.26</ele>
        <time>2016-06-07T07:54:26Z</time>
      </trkpt>
      <trkpt lat="46.77515" lon="5.62841">
        <ele>468.3</ele>
        <time>2016-06-07T07:54:31Z</time>
      </trkpt>
      <trkpt lat="46.77513" lon="5.62839">
        <ele>468.3</ele>
        <time>2016-06-07T07:54:34Z</time>
      </trkpt>
      <trkpt lat="46.77511" lon="5.62838">
        <ele>467.82</ele>
        <time>2016-06-07T07:54:36Z</time>
      </trkpt>
      <trkpt lat="46.77505" lon="5.62832">
        <ele>467.34</ele>
        <time>2016-06-07T07:54:43Z</time>
      </trkpt>
      <trkpt lat="46.77498" lon="5.62835">
        <ele>467.34</ele>
        <time>2016-06-07T07:54:50Z</time>
      </trkpt>
      <trkpt lat="46.77487" lon="5.62824">
        <ele>468.3</ele>
        <time>2016-06-07T07:55:05Z</time>
      </trkpt>
      <trkpt lat="46.77485" lon="5.62822">
        <ele>467.82</ele>
        <time>2016-06-07T07:55:18Z</time>
      </trkpt>
      <trkpt lat="46.77484" lon="5.62821">
        <ele>467.82</ele>
        <time>2016-06-07T07:55:33Z</time>
      </trkpt>
      <trkpt lat="46.7748" lon="5.62817">
        <ele>467.34</ele>
        <time>2016-06-07T07:55:41Z</time>
      </trkpt>
      <trkpt lat="46.77479" lon="5.62813">
        <ele>465.9</ele>
        <time>2016-06-07T07:55:45Z</time>
      </trkpt>
      <trkpt lat="46.77467" lon="5.62799">
        <ele>462.05</ele>
        <time>2016-06-07T07:55:58Z</time>
      </trkpt>
      <trkpt lat="46.77466" lon="5.62798">
        <ele>462.05</ele>
        <time>2016-06-07T07:55:59Z</time>
      </trkpt>
      <trkpt lat="46.77453" lon="5.62783">
        <ele>461.09</ele>
        <time>2016-06-07T07:56:10Z</time>
      </trkpt>
      <trkpt lat="46.77443" lon="5.62772">
        <ele>457.72</ele>
        <time>2016-06-07T07:56:22Z</time>
      </trkpt>
      <trkpt lat="46.77438" lon="5.62767">
        <ele>456.76</ele>
        <time>2016-06-07T07:56:27Z</time>
      </trkpt>
      <trkpt lat="46.77431" lon="5.62759">
        <ele>452.44</ele>
        <time>2016-06-07T07:56:40Z</time>
      </trkpt>
      <trkpt lat="46.77426" lon="5.62752">
        <ele>451.96</ele>
        <time>2016-06-07T07:57:09Z</time>
      </trkpt>
      <trkpt lat="46.77419" lon="5.62745">
        <ele>451.96</ele>
        <time>2016-06-07T07:57:18Z</time>
      </trkpt>
      <trkpt lat="46.77411" lon="5.62731">
        <ele>453.88</ele>
        <time>2016-06-07T07:57:28Z</time>
      </trkpt>
      <trkpt lat="46.77404" lon="5.62725">
        <ele>455.32</ele>
        <time>2016-06-07T07:57:33Z</time>
      </trkpt>
      <trkpt lat="46.77391" lon="5.62707">
        <ele>458.69</ele>
        <time>2016-06-07T07:57:45Z</time>
      </trkpt>
      <trkpt lat="46.77388" lon="5.62704">
        <ele>459.17</ele>
        <time>2016-06-07T07:57:48Z</time>
      </trkpt>
      <trkpt lat="46.77376" lon="5.62696">
        <ele>458.69</ele>
        <time>2016-06-07T07:58:00Z</time>
      </trkpt>
      <trkpt lat="46.77362" lon="5.62694">
        <ele>458.21</ele>
        <time>2016-06-07T07:58:13Z</time>
      </trkpt>
      <trkpt lat="46.77349" lon="5.62693">
        <ele>456.76</ele>
        <time>2016-06-07T07:58:25Z</time>
      </trkpt>
      <trkpt lat="46.77338" lon="5.62693">
        <ele>456.28</ele>
        <time>2016-06-07T07:58:37Z</time>
      </trkpt>
      <trkpt lat="46.77328" lon="5.62684">
        <ele>454.36</ele>
        <time>2016-06-07T07:58:50Z</time>
      </trkpt>
      <trkpt lat="46.7732" lon="5.62674">
        <ele>449.55</ele>
        <time>2016-06-07T07:59:00Z</time>
      </trkpt>
      <trkpt lat="46.77319" lon="5.62673">
        <ele>449.07</ele>
        <time>2016-06-07T07:59:01Z</time>
      </trkpt>
      <trkpt lat="46.7731" lon="5.62657">
        <ele>443.79</ele>
        <time>2016-06-07T07:59:12Z</time>
      </trkpt>
      <trkpt lat="46.773" lon="5.62642">
        <ele>439.94</ele>
        <time>2016-06-07T07:59:23Z</time>
      </trkpt>
      <trkpt lat="46.77294" lon="5.6263">
        <ele>437.54</ele>
        <time>2016-06-07T07:59:33Z</time>
      </trkpt>
      <trkpt lat="46.77293" lon="5.62629">
        <ele>437.54</ele>
        <time>2016-06-07T07:59:34Z</time>
      </trkpt>
      <trkpt lat="46.77283" lon="5.62613">
        <ele>433.69</ele>
        <time>2016-06-07T07:59:48Z</time>
      </trkpt>
      <trkpt lat="46.7728" lon="5.62607">
        <ele>432.73</ele>
        <time>2016-06-07T07:59:52Z</time>
      </trkpt>
      <trkpt lat="46.77276" lon="5.62602">
        <ele>432.73</ele>
        <time>2016-06-07T07:59:56Z</time>
      </trkpt>
      <trkpt lat="46.77265" lon="5.62585">
        <ele>429.85</ele>
        <time>2016-06-07T08:00:11Z</time>
      </trkpt>
      <trkpt lat="46.77257" lon="5.62576">
        <ele>427.92</ele>
        <time>2016-06-07T08:00:20Z</time>
      </trkpt>
      <trkpt lat="46.77244" lon="5.6256">
        <ele>427.92</ele>
        <time>2016-06-07T08:00:33Z</time>
      </trkpt>
      <trkpt lat="46.77231" lon="5.62543">
        <ele>425.52</ele>
        <time>2016-06-07T08:00:47Z</time>
      </trkpt>
      <trkpt lat="46.77224" lon="5.62537">
        <ele>424.08</ele>
        <time>2016-06-07T08:00:56Z</time>
      </trkpt>
      <trkpt lat="46.77211" lon="5.62521">
        <ele>421.19</ele>
        <time>2016-06-07T08:01:10Z</time>
      </trkpt>
      <trkpt lat="46.77205" lon="5.62513">
        <ele>420.71</ele>
        <time>2016-06-07T08:01:17Z</time>
      </trkpt>
      <trkpt lat="46.77202" lon="5.6251">
        <ele>420.23</ele>
        <time>2016-06-07T08:01:21Z</time>
      </trkpt>
      <trkpt lat="46.77194" lon="5.62499">
        <ele>418.31</ele>
        <time>2016-06-07T08:01:30Z</time>
      </trkpt>
      <trkpt lat="46.77182" lon="5.62486">
        <ele>418.31</ele>
        <time>2016-06-07T08:01:43Z</time>
      </trkpt>
      <trkpt lat="46.7718" lon="5.62482">
        <ele>418.31</ele>
        <time>2016-06-07T08:01:46Z</time>
      </trkpt>
      <trkpt lat="46.77169" lon="5.62467">
        <ele>419.75</ele>
        <time>2016-06-07T08:01:57Z</time>
      </trkpt>
      <trkpt lat="46.77161" lon="5.62459">
        <ele>419.27</ele>
        <time>2016-06-07T08:02:04Z</time>
      </trkpt>
      <trkpt lat="46.77151" lon="5.62447">
        <ele>418.79</ele>
        <time>2016-06-07T08:02:15Z</time>
      </trkpt>
      <trkpt lat="46.77145" lon="5.62442">
        <ele>417.35</ele>
        <time>2016-06-07T08:02:22Z</time>
      </trkpt>
      <trkpt lat="46.7714" lon="5.62436">
        <ele>415.91</ele>
        <time>2016-06-07T08:02:27Z</time>
      </trkpt>
      <trkpt lat="46.77126" lon="5.62424">
        <ele>415.43</ele>
        <time>2016-06-07T08:02:40Z</time>
      </trkpt>
      <trkpt lat="46.77116" lon="5.62416">
        <ele>414.95</ele>
        <time>2016-06-07T08:02:49Z</time>
      </trkpt>
      <trkpt lat="46.77111" lon="5.62412">
        <ele>415.43</ele>
        <time>2016-06-07T08:02:54Z</time>
      </trkpt>
      <trkpt lat="46.77094" lon="5.62398">
        <ele>413.5</ele>
        <time>2016-06-07T08:03:10Z</time>
      </trkpt>
      <trkpt lat="46.77078" lon="5.62387">
        <ele>413.98</ele>
        <time>2016-06-07T08:03:24Z</time>
      </trkpt>
      <trkpt lat="46.77071" lon="5.62382">
        <ele>413.98</ele>
        <time>2016-06-07T08:03:30Z</time>
      </trkpt>
      <trkpt lat="46.77057" lon="5.62369">
        <ele>413.02</ele>
        <time>2016-06-07T08:03:43Z</time>
      </trkpt>
      <trkpt lat="46.77043" lon="5.6236">
        <ele>412.54</ele>
        <time>2016-06-07T08:03:56Z</time>
      </trkpt>
      <trkpt lat="46.77028" lon="5.6235">
        <ele>411.58</ele>
        <time>2016-06-07T08:04:09Z</time>
      </trkpt>
      <trkpt lat="46.77021" lon="5.62348">
        <ele>411.1</ele>
        <time>2016-06-07T08:04:15Z</time>
      </trkpt>
      <trkpt lat="46.77004" lon="5.62344">
        <ele>409.18</ele>
        <time>2016-06-07T08:04:29Z</time>
      </trkpt>
      <trkpt lat="46.76989" lon="5.62338">
        <ele>410.14</ele>
        <time>2016-06-07T08:04:42Z</time>
      </trkpt>
      <trkpt lat="46.76978" lon="5.62336">
        <ele>410.62</ele>
        <time>2016-06-07T08:04:51Z</time>
      </trkpt>
      <trkpt lat="46.76963" lon="5.62335">
        <ele>411.1</ele>
        <time>2016-06-07T08:05:03Z</time>
      </trkpt>
      <trkpt lat="46.76954" lon="5.62334">
        <ele>412.06</ele>
        <time>2016-06-07T08:05:10Z</time>
      </trkpt>
      <trkpt lat="46.76938" lon="5.62328">
        <ele>411.58</ele>
        <time>2016-06-07T08:05:22Z</time>
      </trkpt>
      <trkpt lat="46.76925" lon="5.62322">
        <ele>413.02</ele>
        <time>2016-06-07T08:05:31Z</time>
      </trkpt>
      <trkpt lat="46.76911" lon="5.62311">
        <ele>416.87</ele>
        <time>2016-06-07T08:05:43Z</time>
      </trkpt>
      <trkpt lat="46.76902" lon="5.62308">
        <ele>414.47</ele>
        <time>2016-06-07T08:05:57Z</time>
      </trkpt>
      <trkpt lat="46.76902" lon="5.62309">
        <ele>413.5</ele>
        <time>2016-06-07T08:06:02Z</time>
      </trkpt>
      <trkpt lat="46.76901" lon="5.62313">
        <ele>412.54</ele>
        <time>2016-06-07T08:06:07Z</time>
      </trkpt>
      <trkpt lat="46.76897" lon="5.62329">
        <ele>412.54</ele>
        <time>2016-06-07T08:06:18Z</time>
      </trkpt>
      <trkpt lat="46.76892" lon="5.62345">
        <ele>412.06</ele>
        <time>2016-06-07T08:06:30Z</time>
      </trkpt>
      <trkpt lat="46.76892" lon="5.62347">
        <ele>412.54</ele>
        <time>2016-06-07T08:06:32Z</time>
      </trkpt>
      <trkpt lat="46.76888" lon="5.62362">
        <ele>413.5</ele>
        <time>2016-06-07T08:06:44Z</time>
      </trkpt>
      <trkpt lat="46.76886" lon="5.62377">
        <ele>412.06</ele>
        <time>2016-06-07T08:06:56Z</time>
      </trkpt>
      <trkpt lat="46.76884" lon="5.62384">
        <ele>409.66</ele>
        <time>2016-06-07T08:07:02Z</time>
      </trkpt>
      <trkpt lat="46.76876" lon="5.62393">
        <ele>406.29</ele>
        <time>2016-06-07T08:07:15Z</time>
      </trkpt>
      <trkpt lat="46.76866" lon="5.62393">
        <ele>410.14</ele>
        <time>2016-06-07T08:07:28Z</time>
      </trkpt>
      <trkpt lat="46.76858" lon="5.62391">
        <ele>412.54</ele>
        <time>2016-06-07T08:07:38Z</time>
      </trkpt>
      <trkpt lat="46.76869" lon="5.62391">
        <ele>412.54</ele>
        <time>2016-06-07T08:07:52Z</time>
      </trkpt>
      <trkpt lat="46.76877" lon="5.62395">
        <ele>413.02</ele>
        <time>2016-06-07T08:08:02Z</time>
      </trkpt>
      <trkpt lat="46.76892" lon="5.62404">
        <ele>414.95</ele>
        <time>2016-06-07T08:08:15Z</time>
      </trkpt>
      <trkpt lat="46.76899" lon="5.62412">
        <ele>415.43</ele>
        <time>2016-06-07T08:08:28Z</time>
      </trkpt>
      <trkpt lat="46.76901" lon="5.6242">
        <ele>416.87</ele>
        <time>2016-06-07T08:08:39Z</time>
      </trkpt>
      <trkpt lat="46.76902" lon="5.6243">
        <ele>418.79</ele>
        <time>2016-06-07T08:08:51Z</time>
      </trkpt>
      <trkpt lat="46.76904" lon="5.62435">
        <ele>419.75</ele>
        <time>2016-06-07T08:09:07Z</time>
      </trkpt>
      <trkpt lat="46.76906" lon="5.6244">
        <ele>420.23</ele>
        <time>2016-06-07T08:09:19Z</time>
      </trkpt>
      <trkpt lat="46.76907" lon="5.62442">
        <ele>420.71</ele>
        <time>2016-06-07T08:09:21Z</time>
      </trkpt>
      <trkpt lat="46.76912" lon="5.62454">
        <ele>425.52</ele>
        <time>2016-06-07T08:09:31Z</time>
      </trkpt>
      <trkpt lat="46.76919" lon="5.62464">
        <ele>428.89</ele>
        <time>2016-06-07T08:09:39Z</time>
      </trkpt>
      <trkpt lat="46.76929" lon="5.62472">
        <ele>431.77</ele>
        <time>2016-06-07T08:09:52Z</time>
      </trkpt>
      <trkpt lat="46.76933" lon="5.62477">
        <ele>428.4</ele>
        <time>2016-06-07T08:10:04Z</time>
      </trkpt>
      <trkpt lat="46.7694" lon="5.62479">
        <ele>428.4</ele>
        <time>2016-06-07T08:10:14Z</time>
      </trkpt>
      <trkpt lat="46.7695" lon="5.62484">
        <ele>425.52</ele>
        <time>2016-06-07T08:10:26Z</time>
      </trkpt>
      <trkpt lat="46.76958" lon="5.62492">
        <ele>425.04</ele>
        <time>2016-06-07T08:10:41Z</time>
      </trkpt>
      <trkpt lat="46.76965" lon="5.62498">
        <ele>428.89</ele>
        <time>2016-06-07T08:10:52Z</time>
      </trkpt>
      <trkpt lat="46.76967" lon="5.62498">
        <ele>430.33</ele>
        <time>2016-06-07T08:11:05Z</time>
      </trkpt>
      <trkpt lat="46.7697" lon="5.62505">
        <ele>431.77</ele>
        <time>2016-06-07T08:11:18Z</time>
      </trkpt>
      <trkpt lat="46.76973" lon="5.62516">
        <ele>432.25</ele>
        <time>2016-06-07T08:11:30Z</time>
      </trkpt>
      <trkpt lat="46.76974" lon="5.62525">
        <ele>432.25</ele>
        <time>2016-06-07T08:11:45Z</time>
      </trkpt>
      <trkpt lat="46.76975" lon="5.62537">
        <ele>431.77</ele>
        <time>2016-06-07T08:11:58Z</time>
      </trkpt>
      <trkpt lat="46.76974" lon="5.62545">
        <ele>431.29</ele>
        <time>2016-06-07T08:12:13Z</time>
      </trkpt>
      <trkpt lat="46.76977" lon="5.62555">
        <ele>430.33</ele>
        <time>2016-06-07T08:12:29Z</time>
      </trkpt>
      <trkpt lat="46.76979" lon="5.62568">
        <ele>428.89</ele>
        <time>2016-06-07T08:12:43Z</time>
      </trkpt>
      <trkpt lat="46.76984" lon="5.62579">
        <ele>430.33</ele>
        <time>2016-06-07T08:12:58Z</time>
      </trkpt>
      <trkpt lat="46.76986" lon="5.62583">
        <ele>431.77</ele>
        <time>2016-06-07T08:13:16Z</time>
      </trkpt>
      <trkpt lat="46.76991" lon="5.6259">
        <ele>435.13</ele>
        <time>2016-06-07T08:13:33Z</time>
      </trkpt>
      <trkpt lat="46.76995" lon="5.62598">
        <ele>436.58</ele>
        <time>2016-06-07T08:13:50Z</time>
      </trkpt>
      <trkpt lat="46.76996" lon="5.62612">
        <ele>439.94</ele>
        <time>2016-06-07T08:14:08Z</time>
      </trkpt>
      <trkpt lat="46.76995" lon="5.6262">
        <ele>442.82</ele>
        <time>2016-06-07T08:14:22Z</time>
      </trkpt>
      <trkpt lat="46.76996" lon="5.62627">
        <ele>445.23</ele>
        <time>2016-06-07T08:14:34Z</time>
      </trkpt>
      <trkpt lat="46.76996" lon="5.62631">
        <ele>445.71</ele>
        <time>2016-06-07T08:14:51Z</time>
      </trkpt>
      <trkpt lat="46.76996" lon="5.62631">
        <ele>445.71</ele>
        <time>2016-06-07T08:14:52Z</time>
      </trkpt>
      <trkpt lat="46.76997" lon="5.62637">
        <ele>445.71</ele>
        <time>2016-06-07T08:15:04Z</time>
      </trkpt>
      <trkpt lat="46.77001" lon="5.62639">
        <ele>449.55</ele>
        <time>2016-06-07T08:15:20Z</time>
      </trkpt>
      <trkpt lat="46.77006" lon="5.62643">
        <ele>450.03</ele>
        <time>2016-06-07T08:15:31Z</time>
      </trkpt>
      <trkpt lat="46.77008" lon="5.62648">
        <ele>450.03</ele>
        <time>2016-06-07T08:15:46Z</time>
      </trkpt>
      <trkpt lat="46.77011" lon="5.62653">
        <ele>451.48</ele>
        <time>2016-06-07T08:16:03Z</time>
      </trkpt>
      <trkpt lat="46.77013" lon="5.62665">
        <ele>456.28</ele>
        <time>2016-06-07T08:16:17Z</time>
      </trkpt>
      <trkpt lat="46.77012" lon="5.62671">
        <ele>464.45</ele>
        <time>2016-06-07T08:16:31Z</time>
      </trkpt>
      <trkpt lat="46.7701" lon="5.62672">
        <ele>468.78</ele>
        <time>2016-06-07T08:16:43Z</time>
      </trkpt>
      <trkpt lat="46.77003" lon="5.62671">
        <ele>472.14</ele>
        <time>2016-06-07T08:16:59Z</time>
      </trkpt>
      <trkpt lat="46.77" lon="5.62673">
        <ele>473.59</ele>
        <time>2016-06-07T08:17:13Z</time>
      </trkpt>
      <trkpt lat="46.76994" lon="5.62677">
        <ele>475.51</ele>
        <time>2016-06-07T08:17:30Z</time>
      </trkpt>
      <trkpt lat="46.76989" lon="5.62683">
        <ele>476.47</ele>
        <time>2016-06-07T08:17:46Z</time>
      </trkpt>
      <trkpt lat="46.76986" lon="5.62686">
        <ele>478.39</ele>
        <time>2016-06-07T08:17:52Z</time>
      </trkpt>
      <trkpt lat="46.7698" lon="5.62689">
        <ele>479.35</ele>
        <time>2016-06-07T08:18:07Z</time>
      </trkpt>
      <trkpt lat="46.76977" lon="5.62694">
        <ele>482.24</ele>
        <time>2016-06-07T08:18:20Z</time>
      </trkpt>
      <trkpt lat="46.7697" lon="5.62687">
        <ele>482.24</ele>
        <time>2016-06-07T08:18:32Z</time>
      </trkpt>
      <trkpt lat="46.76965" lon="5.62681">
        <ele>484.16</ele>
        <time>2016-06-07T08:18:39Z</time>
      </trkpt>
      <trkpt lat="46.76954" lon="5.62668">
        <ele>486.56</ele>
        <time>2016-06-07T08:18:52Z</time>
      </trkpt>
      <trkpt lat="46.76947" lon="5.6266">
        <ele>487.05</ele>
        <time>2016-06-07T08:19:03Z</time>
      </trkpt>
      <trkpt lat="46.76946" lon="5.62659">
        <ele>487.05</ele>
        <time>2016-06-07T08:19:05Z</time>
      </trkpt>
      <trkpt lat="46.76936" lon="5.62658">
        <ele>489.45</ele>
        <time>2016-06-07T08:19:17Z</time>
      </trkpt>
      <trkpt lat="46.76926" lon="5.62655">
        <ele>491.85</ele>
        <time>2016-06-07T08:19:29Z</time>
      </trkpt>
      <trkpt lat="46.76917" lon="5.62652">
        <ele>493.77</ele>
        <time>2016-06-07T08:19:40Z</time>
      </trkpt>
      <trkpt lat="46.76905" lon="5.62644">
        <ele>492.81</ele>
        <time>2016-06-07T08:19:54Z</time>
      </trkpt>
      <trkpt lat="46.76894" lon="5.62639">
        <ele>492.33</ele>
        <time>2016-06-07T08:20:06Z</time>
      </trkpt>
      <trkpt lat="46.76883" lon="5.62636">
        <ele>493.29</ele>
        <time>2016-06-07T08:20:17Z</time>
      </trkpt>
      <trkpt lat="46.76872" lon="5.62636">
        <ele>494.74</ele>
        <time>2016-06-07T08:20:29Z</time>
      </trkpt>
      <trkpt lat="46.76861" lon="5.62632">
        <ele>495.7</ele>
        <time>2016-06-07T08:20:40Z</time>
      </trkpt>
      <trkpt lat="46.76849" lon="5.62628">
        <ele>494.26</ele>
        <time>2016-06-07T08:20:51Z</time>
      </trkpt>
      <trkpt lat="46.7684" lon="5.62625">
        <ele>496.18</ele>
        <time>2016-06-07T08:21:00Z</time>
      </trkpt>
      <trkpt lat="46.76832" lon="5.62621">
        <ele>498.1</ele>
        <time>2016-06-07T08:21:10Z</time>
      </trkpt>
      <trkpt lat="46.76822" lon="5.62616">
        <ele>498.58</ele>
        <time>2016-06-07T08:21:20Z</time>
      </trkpt>
      <trkpt lat="46.76811" lon="5.62608">
        <ele>496.18</ele>
        <time>2016-06-07T08:21:31Z</time>
      </trkpt>
      <trkpt lat="46.76799" lon="5.62601">
        <ele>494.74</ele>
        <time>2016-06-07T08:21:43Z</time>
      </trkpt>
      <trkpt lat="46.76797" lon="5.62596">
        <ele>494.26</ele>
        <time>2016-06-07T08:21:56Z</time>
      </trkpt>
      <trkpt lat="46.76798" lon="5.62594">
        <ele>492.81</ele>
        <time>2016-06-07T08:22:09Z</time>
      </trkpt>
      <trkpt lat="46.76799" lon="5.62593">
        <ele>492.81</ele>
        <time>2016-06-07T08:22:26Z</time>
      </trkpt>
      <trkpt lat="46.76799" lon="5.62594">
        <ele>491.85</ele>
        <time>2016-06-07T08:22:44Z</time>
      </trkpt>
      <trkpt lat="46.76788" lon="5.62599">
        <ele>490.41</ele>
        <time>2016-06-07T08:22:57Z</time>
      </trkpt>
      <trkpt lat="46.76784" lon="5.62598">
        <ele>490.41</ele>
        <time>2016-06-07T08:23:01Z</time>
      </trkpt>
      <trkpt lat="46.76774" lon="5.62599">
        <ele>490.41</ele>
        <time>2016-06-07T08:23:15Z</time>
      </trkpt>
      <trkpt lat="46.76771" lon="5.6261">
        <ele>490.89</ele>
        <time>2016-06-07T08:23:24Z</time>
      </trkpt>
      <trkpt lat="46.76767" lon="5.62632">
        <ele>491.85</ele>
        <time>2016-06-07T08:23:39Z</time>
      </trkpt>
      <trkpt lat="46.76762" lon="5.62651">
        <ele>490.89</ele>
        <time>2016-06-07T08:23:52Z</time>
      </trkpt>
      <trkpt lat="46.76758" lon="5.62671">
        <ele>490.41</ele>
        <time>2016-06-07T08:24:06Z</time>
      </trkpt>
      <trkpt lat="46.7675" lon="5.6269">
        <ele>488.49</ele>
        <time>2016-06-07T08:24:20Z</time>
      </trkpt>
      <trkpt lat="46.76744" lon="5.62705">
        <ele>486.56</ele>
        <time>2016-06-07T08:24:33Z</time>
      </trkpt>
      <trkpt lat="46.76733" lon="5.62722">
        <ele>484.16</ele>
        <time>2016-06-07T08:24:48Z</time>
      </trkpt>
      <trkpt lat="46.76724" lon="5.62733">
        <ele>482.72</ele>
        <time>2016-06-07T08:25:01Z</time>
      </trkpt>
      <trkpt lat="46.76714" lon="5.62746">
        <ele>482.24</ele>
        <time>2016-06-07T08:25:14Z</time>
      </trkpt>
      <trkpt lat="46.76704" lon="5.62764">
        <ele>483.2</ele>
        <time>2016-06-07T08:25:26Z</time>
      </trkpt>
      <trkpt lat="46.767" lon="5.62774">
        <ele>481.76</ele>
        <time>2016-06-07T08:25:37Z</time>
      </trkpt>
      <trkpt lat="46.76709" lon="5.62775">
        <ele>479.35</ele>
        <time>2016-06-07T08:25:47Z</time>
      </trkpt>
      <trkpt lat="46.76715" lon="5.62776">
        <ele>475.03</ele>
        <time>2016-06-07T08:25:58Z</time>
      </trkpt>
      <trkpt lat="46.76722" lon="5.62784">
        <ele>473.59</ele>
        <time>2016-06-07T08:26:10Z</time>
      </trkpt>
      <trkpt lat="46.76735" lon="5.628">
        <ele>473.11</ele>
        <time>2016-06-07T08:26:23Z</time>
      </trkpt>
      <trkpt lat="46.76735" lon="5.62818">
        <ele>475.51</ele>
        <time>2016-06-07T08:26:36Z</time>
      </trkpt>
      <trkpt lat="46.76733" lon="5.62835">
        <ele>476.47</ele>
        <time>2016-06-07T08:26:49Z</time>
      </trkpt>
      <trkpt lat="46.76731" lon="5.62853">
        <ele>479.35</ele>
        <time>2016-06-07T08:27:01Z</time>
      </trkpt>
      <trkpt lat="46.76733" lon="5.62872">
        <ele>481.28</ele>
        <time>2016-06-07T08:27:12Z</time>
      </trkpt>
      <trkpt lat="46.76732" lon="5.62876">
        <ele>481.76</ele>
        <time>2016-06-07T08:27:14Z</time>
      </trkpt>
      <trkpt lat="46.76727" lon="5.62894">
        <ele>481.76</ele>
        <time>2016-06-07T08:27:26Z</time>
      </trkpt>
      <trkpt lat="46.76728" lon="5.62901">
        <ele>481.28</ele>
        <time>2016-06-07T08:27:38Z</time>
      </trkpt>
      <trkpt lat="46.76722" lon="5.62908">
        <ele>482.72</ele>
        <time>2016-06-07T08:27:49Z</time>
      </trkpt>
      <trkpt lat="46.76715" lon="5.62925">
        <ele>483.2</ele>
        <time>2016-06-07T08:28:03Z</time>
      </trkpt>
      <trkpt lat="46.76709" lon="5.62944">
        <ele>481.76</ele>
        <time>2016-06-07T08:28:15Z</time>
      </trkpt>
      <trkpt lat="46.76703" lon="5.62958">
        <ele>480.8</ele>
        <time>2016-06-07T08:28:25Z</time>
      </trkpt>
      <trkpt lat="46.76703" lon="5.62969">
        <ele>477.43</ele>
        <time>2016-06-07T08:28:34Z</time>
      </trkpt>
      <trkpt lat="46.76701" lon="5.62981">
        <ele>475.03</ele>
        <time>2016-06-07T08:28:44Z</time>
      </trkpt>
      <trkpt lat="46.76703" lon="5.62992">
        <ele>471.18</ele>
        <time>2016-06-07T08:28:55Z</time>
      </trkpt>
      <trkpt lat="46.76703" lon="5.62994">
        <ele>471.18</ele>
        <time>2016-06-07T08:28:56Z</time>
      </trkpt>
      <trkpt lat="46.76709" lon="5.63022">
        <ele>474.55</ele>
        <time>2016-06-07T08:29:09Z</time>
      </trkpt>
      <trkpt lat="46.76711" lon="5.63037">
        <ele>475.03</ele>
        <time>2016-06-07T08:29:21Z</time>
      </trkpt>
      <trkpt lat="46.76718" lon="5.63047">
        <ele>471.66</ele>
        <time>2016-06-07T08:29:34Z</time>
      </trkpt>
      <trkpt lat="46.76721" lon="5.6305">
        <ele>471.66</ele>
        <time>2016-06-07T08:29:45Z</time>
      </trkpt>
      <trkpt lat="46.76732" lon="5.63057">
        <ele>469.74</ele>
        <time>2016-06-07T08:29:56Z</time>
      </trkpt>
      <trkpt lat="46.76737" lon="5.63059">
        <ele>469.26</ele>
        <time>2016-06-07T08:30:12Z</time>
      </trkpt>
      <trkpt lat="46.76745" lon="5.63064">
        <ele>468.78</ele>
        <time>2016-06-07T08:30:20Z</time>
      </trkpt>
      <trkpt lat="46.76753" lon="5.63077">
        <ele>470.22</ele>
        <time>2016-06-07T08:30:33Z</time>
      </trkpt>
      <trkpt lat="46.76761" lon="5.63083">
        <ele>471.66</ele>
        <time>2016-06-07T08:30:46Z</time>
      </trkpt>
      <trkpt lat="46.76767" lon="5.63089">
        <ele>473.11</ele>
        <time>2016-06-07T08:30:59Z</time>
      </trkpt>
      <trkpt lat="46.76784" lon="5.63104">
        <ele>477.43</ele>
        <time>2016-06-07T08:31:13Z</time>
      </trkpt>
      <trkpt lat="46.76789" lon="5.63109">
        <ele>478.87</ele>
        <time>2016-06-07T08:31:18Z</time>
      </trkpt>
      <trkpt lat="46.76801" lon="5.63127">
        <ele>484.16</ele>
        <time>2016-06-07T08:31:31Z</time>
      </trkpt>
      <trkpt lat="46.76811" lon="5.63149">
        <ele>488.97</ele>
        <time>2016-06-07T08:31:46Z</time>
      </trkpt>
      <trkpt lat="46.76816" lon="5.63159">
        <ele>488.01</ele>
        <time>2016-06-07T08:31:57Z</time>
      </trkpt>
      <trkpt lat="46.76825" lon="5.63174">
        <ele>485.12</ele>
        <time>2016-06-07T08:32:09Z</time>
      </trkpt>
      <trkpt lat="46.76832" lon="5.63187">
        <ele>483.2</ele>
        <time>2016-06-07T08:32:21Z</time>
      </trkpt>
      <trkpt lat="46.76839" lon="5.63204">
        <ele>481.76</ele>
        <time>2016-06-07T08:32:33Z</time>
      </trkpt>
      <trkpt lat="46.76847" lon="5.6322">
        <ele>481.76</ele>
        <time>2016-06-07T08:32:45Z</time>
      </trkpt>
      <trkpt lat="46.76855" lon="5.63231">
        <ele>477.43</ele>
        <time>2016-06-07T08:32:56Z</time>
      </trkpt>
      <trkpt lat="46.76859" lon="5.63237">
        <ele>475.99</ele>
        <time>2016-06-07T08:33:06Z</time>
      </trkpt>
      <trkpt lat="46.7686" lon="5.63239">
        <ele>475.51</ele>
        <time>2016-06-07T08:33:27Z</time>
      </trkpt>
      <trkpt lat="46.76866" lon="5.63257">
        <ele>471.18</ele>
        <time>2016-06-07T08:33:41Z</time>
      </trkpt>
      <trkpt lat="46.76876" lon="5.63281">
        <ele>467.34</ele>
        <time>2016-06-07T08:33:55Z</time>
      </trkpt>
      <trkpt lat="46.76883" lon="5.63307">
        <ele>473.59</ele>
        <time>2016-06-07T08:34:07Z</time>
      </trkpt>
      <trkpt lat="46.76888" lon="5.63324">
        <ele>476.47</ele>
        <time>2016-06-07T08:34:19Z</time>
      </trkpt>
      <trkpt lat="46.76889" lon="5.63338">
        <ele>479.84</ele>
        <time>2016-06-07T08:34:31Z</time>
      </trkpt>
      <trkpt lat="46.76895" lon="5.63357">
        <ele>484.64</ele>
        <time>2016-06-07T08:34:43Z</time>
      </trkpt>
      <trkpt lat="46.76898" lon="5.6337">
        <ele>483.68</ele>
        <time>2016-06-07T08:34:55Z</time>
      </trkpt>
      <trkpt lat="46.76896" lon="5.6339">
        <ele>481.28</ele>
        <time>2016-06-07T08:35:08Z</time>
      </trkpt>
      <trkpt lat="46.76897" lon="5.63406">
        <ele>476.95</ele>
        <time>2016-06-07T08:35:19Z</time>
      </trkpt>
      <trkpt lat="46.769" lon="5.63416">
        <ele>473.11</ele>
        <time>2016-06-07T08:35:31Z</time>
      </trkpt>
      <trkpt lat="46.76905" lon="5.63422">
        <ele>466.38</ele>
        <time>2016-06-07T08:35:41Z</time>
      </trkpt>
      <trkpt lat="46.76909" lon="5.63429">
        <ele>465.42</ele>
        <time>2016-06-07T08:35:55Z</time>
      </trkpt>
      <trkpt lat="46.7691" lon="5.63438">
        <ele>464.45</ele>
        <time>2016-06-07T08:36:07Z</time>
      </trkpt>
      <trkpt lat="46.7691" lon="5.63451">
        <ele>461.09</ele>
        <time>2016-06-07T08:36:20Z</time>
      </trkpt>
      <trkpt lat="46.76911" lon="5.63465">
        <ele>462.53</ele>
        <time>2016-06-07T08:36:32Z</time>
      </trkpt>
      <trkpt lat="46.76911" lon="5.63476">
        <ele>463.49</ele>
        <time>2016-06-07T08:36:49Z</time>
      </trkpt>
      <trkpt lat="46.76914" lon="5.63492">
        <ele>464.45</ele>
        <time>2016-06-07T08:37:02Z</time>
      </trkpt>
      <trkpt lat="46.7691" lon="5.63508">
        <ele>466.86</ele>
        <time>2016-06-07T08:37:13Z</time>
      </trkpt>
      <trkpt lat="46.76909" lon="5.63525">
        <ele>470.22</ele>
        <time>2016-06-07T08:37:28Z</time>
      </trkpt>
      <trkpt lat="46.76907" lon="5.63528">
        <ele>471.66</ele>
        <time>2016-06-07T08:37:31Z</time>
      </trkpt>
      <trkpt lat="46.76904" lon="5.63531">
        <ele>473.11</ele>
        <time>2016-06-07T08:37:34Z</time>
      </trkpt>
      <trkpt lat="46.76896" lon="5.63549">
        <ele>477.91</ele>
        <time>2016-06-07T08:37:49Z</time>
      </trkpt>
      <trkpt lat="46.7689" lon="5.63562">
        <ele>478.87</ele>
        <time>2016-06-07T08:38:01Z</time>
      </trkpt>
      <trkpt lat="46.76886" lon="5.63563">
        <ele>478.39</ele>
        <time>2016-06-07T08:38:05Z</time>
      </trkpt>
      <trkpt lat="46.76878" lon="5.63568">
        <ele>476.95</ele>
        <time>2016-06-07T08:38:16Z</time>
      </trkpt>
      <trkpt lat="46.76877" lon="5.63574">
        <ele>476.95</ele>
        <time>2016-06-07T08:38:20Z</time>
      </trkpt>
      <trkpt lat="46.76875" lon="5.63583">
        <ele>478.39</ele>
        <time>2016-06-07T08:38:30Z</time>
      </trkpt>
      <trkpt lat="46.76869" lon="5.63592">
        <ele>478.39</ele>
        <time>2016-06-07T08:38:37Z</time>
      </trkpt>
      <trkpt lat="46.76861" lon="5.63605">
        <ele>478.87</ele>
        <time>2016-06-07T08:38:50Z</time>
      </trkpt>
      <trkpt lat="46.76862" lon="5.63615">
        <ele>478.87</ele>
        <time>2016-06-07T08:39:01Z</time>
      </trkpt>
      <trkpt lat="46.76869" lon="5.63626">
        <ele>475.03</ele>
        <time>2016-06-07T08:39:15Z</time>
      </trkpt>
      <trkpt lat="46.76875" lon="5.6364">
        <ele>475.99</ele>
        <time>2016-06-07T08:39:26Z</time>
      </trkpt>
      <trkpt lat="46.76883" lon="5.63652">
        <ele>475.03</ele>
        <time>2016-06-07T08:39:39Z</time>
      </trkpt>
      <trkpt lat="46.76886" lon="5.63655">
        <ele>474.55</ele>
        <time>2016-06-07T08:39:43Z</time>
      </trkpt>
      <trkpt lat="46.76892" lon="5.6366">
        <ele>472.63</ele>
        <time>2016-06-07T08:39:48Z</time>
      </trkpt>
      <trkpt lat="46.76899" lon="5.6368">
        <ele>472.14</ele>
        <time>2016-06-07T08:40:02Z</time>
      </trkpt>
      <trkpt lat="46.76907" lon="5.63694">
        <ele>472.14</ele>
        <time>2016-06-07T08:40:15Z</time>
      </trkpt>
      <trkpt lat="46.76915" lon="5.63703">
        <ele>471.66</ele>
        <time>2016-06-07T08:40:29Z</time>
      </trkpt>
      <trkpt lat="46.76927" lon="5.63719">
        <ele>471.18</ele>
        <time>2016-06-07T08:40:42Z</time>
      </trkpt>
      <trkpt lat="46.76934" lon="5.63734">
        <ele>474.55</ele>
        <time>2016-06-07T08:40:56Z</time>
      </trkpt>
      <trkpt lat="46.76937" lon="5.6374">
        <ele>475.03</ele>
        <time>2016-06-07T08:41:01Z</time>
      </trkpt>
      <trkpt lat="46.76952" lon="5.6376">
        <ele>475.99</ele>
        <time>2016-06-07T08:41:16Z</time>
      </trkpt>
      <trkpt lat="46.76958" lon="5.63769">
        <ele>475.03</ele>
        <time>2016-06-07T08:41:28Z</time>
      </trkpt>
      <trkpt lat="46.76958" lon="5.63769">
        <ele>475.03</ele>
        <time>2016-06-07T08:41:29Z</time>
      </trkpt>
      <trkpt lat="46.76962" lon="5.63772">
        <ele>475.99</ele>
        <time>2016-06-07T08:41:40Z</time>
      </trkpt>
      <trkpt lat="46.76972" lon="5.63779">
        <ele>476.95</ele>
        <time>2016-06-07T08:41:52Z</time>
      </trkpt>
      <trkpt lat="46.76978" lon="5.6379">
        <ele>475.51</ele>
        <time>2016-06-07T08:42:05Z</time>
      </trkpt>
      <trkpt lat="46.76981" lon="5.63797">
        <ele>475.03</ele>
        <time>2016-06-07T08:42:21Z</time>
      </trkpt>
      <trkpt lat="46.76986" lon="5.6381">
        <ele>474.07</ele>
        <time>2016-06-07T08:42:35Z</time>
      </trkpt>
      <trkpt lat="46.7699" lon="5.63813">
        <ele>475.03</ele>
        <time>2016-06-07T08:42:50Z</time>
      </trkpt>
      <trkpt lat="46.76996" lon="5.63817">
        <ele>476.47</ele>
        <time>2016-06-07T08:43:04Z</time>
      </trkpt>
      <trkpt lat="46.76997" lon="5.63825">
        <ele>476.95</ele>
        <time>2016-06-07T08:43:17Z</time>
      </trkpt>
      <trkpt lat="46.76994" lon="5.63837">
        <ele>476.95</ele>
        <time>2016-06-07T08:43:29Z</time>
      </trkpt>
      <trkpt lat="46.76987" lon="5.63849">
        <ele>476.47</ele>
        <time>2016-06-07T08:43:39Z</time>
      </trkpt>
      <trkpt lat="46.76982" lon="5.63867">
        <ele>476.95</ele>
        <time>2016-06-07T08:43:52Z</time>
      </trkpt>
      <trkpt lat="46.76975" lon="5.63885">
        <ele>479.35</ele>
        <time>2016-06-07T08:44:05Z</time>
      </trkpt>
      <trkpt lat="46.76971" lon="5.63894">
        <ele>482.24</ele>
        <time>2016-06-07T08:44:16Z</time>
      </trkpt>
      <trkpt lat="46.76963" lon="5.63905">
        <ele>485.6</ele>
        <time>2016-06-07T08:44:28Z</time>
      </trkpt>
      <trkpt lat="46.76956" lon="5.63913">
        <ele>485.12</ele>
        <time>2016-06-07T08:44:40Z</time>
      </trkpt>
      <trkpt lat="46.76951" lon="5.63925">
        <ele>484.16</ele>
        <time>2016-06-07T08:44:52Z</time>
      </trkpt>
      <trkpt lat="46.76947" lon="5.63938">
        <ele>485.12</ele>
        <time>2016-06-07T08:45:04Z</time>
      </trkpt>
      <trkpt lat="46.76945" lon="5.63947">
        <ele>484.64</ele>
        <time>2016-06-07T08:45:18Z</time>
      </trkpt>
      <trkpt lat="46.76942" lon="5.63961">
        <ele>482.24</ele>
        <time>2016-06-07T08:45:29Z</time>
      </trkpt>
      <trkpt lat="46.76936" lon="5.63976">
        <ele>484.64</ele>
        <time>2016-06-07T08:45:40Z</time>
      </trkpt>
      <trkpt lat="46.76931" lon="5.63989">
        <ele>486.56</ele>
        <time>2016-06-07T08:45:52Z</time>
      </trkpt>
      <trkpt lat="46.76924" lon="5.64007">
        <ele>487.05</ele>
        <time>2016-06-07T08:46:05Z</time>
      </trkpt>
      <trkpt lat="46.7692" lon="5.64019">
        <ele>486.08</ele>
        <time>2016-06-07T08:46:15Z</time>
      </trkpt>
      <trkpt lat="46.76916" lon="5.64033">
        <ele>485.12</ele>
        <time>2016-06-07T08:46:25Z</time>
      </trkpt>
      <trkpt lat="46.76913" lon="5.6405">
        <ele>485.6</ele>
        <time>2016-06-07T08:46:38Z</time>
      </trkpt>
      <trkpt lat="46.76912" lon="5.6406">
        <ele>484.64</ele>
        <time>2016-06-07T08:46:47Z</time>
      </trkpt>
      <trkpt lat="46.76909" lon="5.64076">
        <ele>482.24</ele>
        <time>2016-06-07T08:47:03Z</time>
      </trkpt>
      <trkpt lat="46.76906" lon="5.64081">
        <ele>481.76</ele>
        <time>2016-06-07T08:47:06Z</time>
      </trkpt>
      <trkpt lat="46.76903" lon="5.64086">
        <ele>481.28</ele>
        <time>2016-06-07T08:47:09Z</time>
      </trkpt>
      <trkpt lat="46.76893" lon="5.64091">
        <ele>481.28</ele>
        <time>2016-06-07T08:47:17Z</time>
      </trkpt>
      <trkpt lat="46.76877" lon="5.64093">
        <ele>479.84</ele>
        <time>2016-06-07T08:47:30Z</time>
      </trkpt>
      <trkpt lat="46.76869" lon="5.64095">
        <ele>481.28</ele>
        <time>2016-06-07T08:47:38Z</time>
      </trkpt>
      <trkpt lat="46.76861" lon="5.64095">
        <ele>482.24</ele>
        <time>2016-06-07T08:47:46Z</time>
      </trkpt>
      <trkpt lat="46.76845" lon="5.64098">
        <ele>485.12</ele>
        <time>2016-06-07T08:47:59Z</time>
      </trkpt>
      <trkpt lat="46.76835" lon="5.64099">
        <ele>484.64</ele>
        <time>2016-06-07T08:48:09Z</time>
      </trkpt>
      <trkpt lat="46.76822" lon="5.64101">
        <ele>485.12</ele>
        <time>2016-06-07T08:48:20Z</time>
      </trkpt>
      <trkpt lat="46.7681" lon="5.64104">
        <ele>488.01</ele>
        <time>2016-06-07T08:48:31Z</time>
      </trkpt>
      <trkpt lat="46.76801" lon="5.64103">
        <ele>489.45</ele>
        <time>2016-06-07T08:48:41Z</time>
      </trkpt>
      <trkpt lat="46.76791" lon="5.64103">
        <ele>489.45</ele>
        <time>2016-06-07T08:48:56Z</time>
      </trkpt>
      <trkpt lat="46.76778" lon="5.64102">
        <ele>489.93</ele>
        <time>2016-06-07T08:49:08Z</time>
      </trkpt>
      <trkpt lat="46.76765" lon="5.641">
        <ele>491.85</ele>
        <time>2016-06-07T08:49:19Z</time>
      </trkpt>
      <trkpt lat="46.76757" lon="5.64096">
        <ele>493.29</ele>
        <time>2016-06-07T08:49:27Z</time>
      </trkpt>
      <trkpt lat="46.76745" lon="5.64092">
        <ele>494.26</ele>
        <time>2016-06-07T08:49:38Z</time>
      </trkpt>
      <trkpt lat="46.76734" lon="5.64086">
        <ele>495.7</ele>
        <time>2016-06-07T08:49:49Z</time>
      </trkpt>
      <trkpt lat="46.7673" lon="5.64084">
        <ele>495.22</ele>
        <time>2016-06-07T08:49:53Z</time>
      </trkpt>
      <trkpt lat="46.76717" lon="5.64079">
        <ele>495.7</ele>
        <time>2016-06-07T08:50:06Z</time>
      </trkpt>
      <trkpt lat="46.76706" lon="5.64073">
        <ele>497.14</ele>
        <time>2016-06-07T08:50:16Z</time>
      </trkpt>
      <trkpt lat="46.76696" lon="5.64068">
        <ele>497.62</ele>
        <time>2016-06-07T08:50:27Z</time>
      </trkpt>
      <trkpt lat="46.76689" lon="5.64064">
        <ele>498.58</ele>
        <time>2016-06-07T08:50:35Z</time>
      </trkpt>
      <trkpt lat="46.76675" lon="5.64057">
        <ele>497.14</ele>
        <time>2016-06-07T08:50:50Z</time>
      </trkpt>
      <trkpt lat="46.76665" lon="5.64052">
        <ele>498.1</ele>
        <time>2016-06-07T08:51:01Z</time>
      </trkpt>
      <trkpt lat="46.76653" lon="5.64048">
        <ele>499.06</ele>
        <time>2016-06-07T08:51:13Z</time>
      </trkpt>
      <trkpt lat="46.76641" lon="5.64045">
        <ele>497.14</ele>
        <time>2016-06-07T08:51:25Z</time>
      </trkpt>
      <trkpt lat="46.76628" lon="5.64044">
        <ele>495.7</ele>
        <time>2016-06-07T08:51:37Z</time>
      </trkpt>
      <trkpt lat="46.76614" lon="5.64042">
        <ele>497.62</ele>
        <time>2016-06-07T08:51:50Z</time>
      </trkpt>
      <trkpt lat="46.76609" lon="5.64041">
        <ele>497.62</ele>
        <time>2016-06-07T08:52:00Z</time>
      </trkpt>
      <trkpt lat="46.76595" lon="5.64038">
        <ele>497.62</ele>
        <time>2016-06-07T08:52:13Z</time>
      </trkpt>
      <trkpt lat="46.76579" lon="5.64033">
        <ele>496.66</ele>
        <time>2016-06-07T08:52:27Z</time>
      </trkpt>
      <trkpt lat="46.76566" lon="5.64028">
        <ele>496.18</ele>
        <time>2016-06-07T08:52:39Z</time>
      </trkpt>
      <trkpt lat="46.76552" lon="5.64023">
        <ele>494.74</ele>
        <time>2016-06-07T08:52:52Z</time>
      </trkpt>
      <trkpt lat="46.76542" lon="5.64019">
        <ele>490.41</ele>
        <time>2016-06-07T08:53:02Z</time>
      </trkpt>
      <trkpt lat="46.76526" lon="5.64015">
        <ele>488.49</ele>
        <time>2016-06-07T08:53:17Z</time>
      </trkpt>
      <trkpt lat="46.76518" lon="5.64013">
        <ele>487.53</ele>
        <time>2016-06-07T08:53:25Z</time>
      </trkpt>
      <trkpt lat="46.76502" lon="5.64007">
        <ele>485.6</ele>
        <time>2016-06-07T08:53:39Z</time>
      </trkpt>
      <trkpt lat="46.76487" lon="5.64003">
        <ele>487.05</ele>
        <time>2016-06-07T08:53:53Z</time>
      </trkpt>
      <trkpt lat="46.76472" lon="5.64">
        <ele>489.45</ele>
        <time>2016-06-07T08:54:06Z</time>
      </trkpt>
      <trkpt lat="46.76459" lon="5.63998">
        <ele>486.08</ele>
        <time>2016-06-07T08:54:17Z</time>
      </trkpt>
      <trkpt lat="46.76449" lon="5.64">
        <ele>485.6</ele>
        <time>2016-06-07T08:54:26Z</time>
      </trkpt>
      <trkpt lat="46.76434" lon="5.64001">
        <ele>486.08</ele>
        <time>2016-06-07T08:54:40Z</time>
      </trkpt>
      <trkpt lat="46.76419" lon="5.64004">
        <ele>487.05</ele>
        <time>2016-06-07T08:54:53Z</time>
      </trkpt>
      <trkpt lat="46.76402" lon="5.64008">
        <ele>487.05</ele>
        <time>2016-06-07T08:55:07Z</time>
      </trkpt>
      <trkpt lat="46.76386" lon="5.64013">
        <ele>486.56</ele>
        <time>2016-06-07T08:55:21Z</time>
      </trkpt>
      <trkpt lat="46.76384" lon="5.64015">
        <ele>486.08</ele>
        <time>2016-06-07T08:55:23Z</time>
      </trkpt>
      <trkpt lat="46.76367" lon="5.64024">
        <ele>485.12</ele>
        <time>2016-06-07T08:55:37Z</time>
      </trkpt>
      <trkpt lat="46.76355" lon="5.64031">
        <ele>486.08</ele>
        <time>2016-06-07T08:55:49Z</time>
      </trkpt>
      <trkpt lat="46.76341" lon="5.6404">
        <ele>484.16</ele>
        <time>2016-06-07T08:56:03Z</time>
      </trkpt>
      <trkpt lat="46.76326" lon="5.64048">
        <ele>483.2</ele>
        <time>2016-06-07T08:56:16Z</time>
      </trkpt>
      <trkpt lat="46.76313" lon="5.64055">
        <ele>482.72</ele>
        <time>2016-06-07T08:56:28Z</time>
      </trkpt>
      <trkpt lat="46.76311" lon="5.64057">
        <ele>483.2</ele>
        <time>2016-06-07T08:56:30Z</time>
      </trkpt>
      <trkpt lat="46.763" lon="5.64066">
        <ele>480.32</ele>
        <time>2016-06-07T08:56:43Z</time>
      </trkpt>
      <trkpt lat="46.76292" lon="5.64067">
        <ele>479.84</ele>
        <time>2016-06-07T08:56:55Z</time>
      </trkpt>
      <trkpt lat="46.76291" lon="5.64067">
        <ele>480.32</ele>
        <time>2016-06-07T08:57:13Z</time>
      </trkpt>
      <trkpt lat="46.76292" lon="5.64067">
        <ele>479.84</ele>
        <time>2016-06-07T08:57:31Z</time>
      </trkpt>
      <trkpt lat="46.7629" lon="5.64065">
        <ele>479.35</ele>
        <time>2016-06-07T08:57:45Z</time>
      </trkpt>
      <trkpt lat="46.76288" lon="5.64062">
        <ele>479.35</ele>
        <time>2016-06-07T08:57:54Z</time>
      </trkpt>
      <trkpt lat="46.76285" lon="5.64057">
        <ele>478.87</ele>
        <time>2016-06-07T08:57:58Z</time>
      </trkpt>
      <trkpt lat="46.76282" lon="5.64054">
        <ele>478.39</ele>
        <time>2016-06-07T08:58:01Z</time>
      </trkpt>
      <trkpt lat="46.76277" lon="5.64047">
        <ele>478.39</ele>
        <time>2016-06-07T08:58:06Z</time>
      </trkpt>
      <trkpt lat="46.76271" lon="5.64037">
        <ele>477.91</ele>
        <time>2016-06-07T08:58:14Z</time>
      </trkpt>
      <trkpt lat="46.76259" lon="5.64021">
        <ele>478.39</ele>
        <time>2016-06-07T08:58:29Z</time>
      </trkpt>
      <trkpt lat="46.76249" lon="5.64006">
        <ele>478.39</ele>
        <time>2016-06-07T08:58:41Z</time>
      </trkpt>
      <trkpt lat="46.76243" lon="5.63998">
        <ele>477.43</ele>
        <time>2016-06-07T08:58:48Z</time>
      </trkpt>
      <trkpt lat="46.7624" lon="5.63993">
        <ele>476.95</ele>
        <time>2016-06-07T08:58:53Z</time>
      </trkpt>
      <trkpt lat="46.76233" lon="5.63978">
        <ele>476.47</ele>
        <time>2016-06-07T08:59:05Z</time>
      </trkpt>
      <trkpt lat="46.76226" lon="5.63963">
        <ele>476.47</ele>
        <time>2016-06-07T08:59:16Z</time>
      </trkpt>
      <trkpt lat="46.76222" lon="5.63943">
        <ele>476.47</ele>
        <time>2016-06-07T08:59:29Z</time>
      </trkpt>
      <trkpt lat="46.76219" lon="5.63927">
        <ele>474.07</ele>
        <time>2016-06-07T08:59:41Z</time>
      </trkpt>
      <trkpt lat="46.76216" lon="5.63915">
        <ele>470.22</ele>
        <time>2016-06-07T08:59:51Z</time>
      </trkpt>
      <trkpt lat="46.76217" lon="5.63896">
        <ele>466.38</ele>
        <time>2016-06-07T09:00:06Z</time>
      </trkpt>
      <trkpt lat="46.76214" lon="5.63872">
        <ele>463.97</ele>
        <time>2016-06-07T09:00:21Z</time>
      </trkpt>
      <trkpt lat="46.76212" lon="5.63853">
        <ele>462.53</ele>
        <time>2016-06-07T09:00:32Z</time>
      </trkpt>
      <trkpt lat="46.7621" lon="5.63843">
        <ele>460.13</ele>
        <time>2016-06-07T09:00:41Z</time>
      </trkpt>
      <trkpt lat="46.76202" lon="5.63827">
        <ele>461.09</ele>
        <time>2016-06-07T09:00:51Z</time>
      </trkpt>
      <trkpt lat="46.76194" lon="5.63812">
        <ele>462.53</ele>
        <time>2016-06-07T09:00:59Z</time>
      </trkpt>
      <trkpt lat="46.76184" lon="5.63798">
        <ele>463.49</ele>
        <time>2016-06-07T09:01:12Z</time>
      </trkpt>
      <trkpt lat="46.76179" lon="5.63793">
        <ele>463.97</ele>
        <time>2016-06-07T09:01:20Z</time>
      </trkpt>
      <trkpt lat="46.76178" lon="5.63787">
        <ele>463.49</ele>
        <time>2016-06-07T09:01:39Z</time>
      </trkpt>
      <trkpt lat="46.76172" lon="5.63777">
        <ele>462.05</ele>
        <time>2016-06-07T09:01:47Z</time>
      </trkpt>
      <trkpt lat="46.76162" lon="5.63762">
        <ele>462.05</ele>
        <time>2016-06-07T09:01:59Z</time>
      </trkpt>
      <trkpt lat="46.76159" lon="5.63758">
        <ele>460.13</ele>
        <time>2016-06-07T09:02:04Z</time>
      </trkpt>
      <trkpt lat="46.76151" lon="5.63742">
        <ele>458.69</ele>
        <time>2016-06-07T09:02:17Z</time>
      </trkpt>
      <trkpt lat="46.76145" lon="5.63729">
        <ele>456.76</ele>
        <time>2016-06-07T09:02:27Z</time>
      </trkpt>
      <trkpt lat="46.7614" lon="5.63718">
        <ele>455.32</ele>
        <time>2016-06-07T09:02:39Z</time>
      </trkpt>
      <trkpt lat="46.76131" lon="5.63701">
        <ele>454.84</ele>
        <time>2016-06-07T09:02:50Z</time>
      </trkpt>
      <trkpt lat="46.76122" lon="5.63688">
        <ele>456.76</ele>
        <time>2016-06-07T09:02:59Z</time>
      </trkpt>
      <trkpt lat="46.76119" lon="5.63684">
        <ele>457.24</ele>
        <time>2016-06-07T09:03:02Z</time>
      </trkpt>
      <trkpt lat="46.76111" lon="5.63675">
        <ele>456.28</ele>
        <time>2016-06-07T09:03:12Z</time>
      </trkpt>
      <trkpt lat="46.76102" lon="5.63663">
        <ele>458.21</ele>
        <time>2016-06-07T09:03:23Z</time>
      </trkpt>
      <trkpt lat="46.76086" lon="5.63649">
        <ele>461.57</ele>
        <time>2016-06-07T09:03:35Z</time>
      </trkpt>
      <trkpt lat="46.76074" lon="5.63629">
        <ele>462.53</ele>
        <time>2016-06-07T09:03:49Z</time>
      </trkpt>
      <trkpt lat="46.76063" lon="5.63615">
        <ele>463.97</ele>
        <time>2016-06-07T09:04:02Z</time>
      </trkpt>
      <trkpt lat="46.76057" lon="5.6361">
        <ele>462.05</ele>
        <time>2016-06-07T09:04:10Z</time>
      </trkpt>
      <trkpt lat="46.76046" lon="5.63603">
        <ele>461.09</ele>
        <time>2016-06-07T09:04:21Z</time>
      </trkpt>
      <trkpt lat="46.76036" lon="5.63593">
        <ele>458.69</ele>
        <time>2016-06-07T09:04:32Z</time>
      </trkpt>
      <trkpt lat="46.76024" lon="5.6358">
        <ele>460.13</ele>
        <time>2016-06-07T09:04:43Z</time>
      </trkpt>
      <trkpt lat="46.76016" lon="5.63568">
        <ele>457.24</ele>
        <time>2016-06-07T09:04:56Z</time>
      </trkpt>
      <trkpt lat="46.76009" lon="5.63562">
        <ele>455.32</ele>
        <time>2016-06-07T09:05:05Z</time>
      </trkpt>
      <trkpt lat="46.75998" lon="5.63549">
        <ele>455.32</ele>
        <time>2016-06-07T09:05:16Z</time>
      </trkpt>
      <trkpt lat="46.75986" lon="5.63535">
        <ele>458.69</ele>
        <time>2016-06-07T09:05:28Z</time>
      </trkpt>
      <trkpt lat="46.75975" lon="5.63522">
        <ele>459.65</ele>
        <time>2016-06-07T09:05:39Z</time>
      </trkpt>
      <trkpt lat="46.7596" lon="5.63505">
        <ele>456.76</ele>
        <time>2016-06-07T09:05:54Z</time>
      </trkpt>
      <trkpt lat="46.75954" lon="5.63498">
        <ele>454.36</ele>
        <time>2016-06-07T09:06:08Z</time>
      </trkpt>
      <trkpt lat="46.75949" lon="5.63492">
        <ele>453.4</ele>
        <time>2016-06-07T09:06:21Z</time>
      </trkpt>
      <trkpt lat="46.75938" lon="5.63483">
        <ele>452.92</ele>
        <time>2016-06-07T09:06:33Z</time>
      </trkpt>
      <trkpt lat="46.75934" lon="5.63478">
        <ele>453.4</ele>
        <time>2016-06-07T09:06:37Z</time>
      </trkpt>
      <trkpt lat="46.75928" lon="5.63473">
        <ele>453.88</ele>
        <time>2016-06-07T09:06:43Z</time>
      </trkpt>
      <trkpt lat="46.75916" lon="5.63459">
        <ele>451.48</ele>
        <time>2016-06-07T09:06:56Z</time>
      </trkpt>
      <trkpt lat="46.75912" lon="5.63455">
        <ele>448.59</ele>
        <time>2016-06-07T09:07:15Z</time>
      </trkpt>
      <trkpt lat="46.75906" lon="5.63447">
        <ele>447.15</ele>
        <time>2016-06-07T09:07:32Z</time>
      </trkpt>
      <trkpt lat="46.75898" lon="5.63439">
        <ele>444.75</ele>
        <time>2016-06-07T09:07:42Z</time>
      </trkpt>
      <trkpt lat="46.75889" lon="5.63429">
        <ele>445.23</ele>
        <time>2016-06-07T09:07:52Z</time>
      </trkpt>
      <trkpt lat="46.75882" lon="5.63411">
        <ele>443.31</ele>
        <time>2016-06-07T09:08:03Z</time>
      </trkpt>
      <trkpt lat="46.75878" lon="5.63405">
        <ele>442.82</ele>
        <time>2016-06-07T09:08:11Z</time>
      </trkpt>
      <trkpt lat="46.75871" lon="5.63395">
        <ele>439.94</ele>
        <time>2016-06-07T09:08:25Z</time>
      </trkpt>
      <trkpt lat="46.75869" lon="5.63392">
        <ele>439.46</ele>
        <time>2016-06-07T09:08:46Z</time>
      </trkpt>
      <trkpt lat="46.75866" lon="5.63386">
        <ele>438.02</ele>
        <time>2016-06-07T09:09:01Z</time>
      </trkpt>
      <trkpt lat="46.75861" lon="5.63378">
        <ele>436.1</ele>
        <time>2016-06-07T09:09:17Z</time>
      </trkpt>
      <trkpt lat="46.75851" lon="5.63361">
        <ele>432.73</ele>
        <time>2016-06-07T09:09:34Z</time>
      </trkpt>
      <trkpt lat="46.75842" lon="5.63342">
        <ele>431.29</ele>
        <time>2016-06-07T09:09:45Z</time>
      </trkpt>
      <trkpt lat="46.75828" lon="5.63324">
        <ele>433.21</ele>
        <time>2016-06-07T09:09:58Z</time>
      </trkpt>
      <trkpt lat="46.75814" lon="5.63305">
        <ele>438.02</ele>
        <time>2016-06-07T09:10:10Z</time>
      </trkpt>
      <trkpt lat="46.7581" lon="5.633">
        <ele>438.5</ele>
        <time>2016-06-07T09:10:14Z</time>
      </trkpt>
      <trkpt lat="46.75796" lon="5.63291">
        <ele>438.02</ele>
        <time>2016-06-07T09:10:26Z</time>
      </trkpt>
      <trkpt lat="46.75789" lon="5.63285">
        <ele>439.46</ele>
        <time>2016-06-07T09:10:36Z</time>
      </trkpt>
      <trkpt lat="46.75786" lon="5.63281">
        <ele>438.98</ele>
        <time>2016-06-07T09:10:39Z</time>
      </trkpt>
      <trkpt lat="46.75766" lon="5.63266">
        <ele>440.42</ele>
        <time>2016-06-07T09:10:52Z</time>
      </trkpt>
      <trkpt lat="46.75758" lon="5.63259">
        <ele>440.9</ele>
        <time>2016-06-07T09:11:01Z</time>
      </trkpt>
      <trkpt lat="46.75749" lon="5.63248">
        <ele>441.86</ele>
        <time>2016-06-07T09:11:14Z</time>
      </trkpt>
      <trkpt lat="46.75744" lon="5.63241">
        <ele>441.38</ele>
        <time>2016-06-07T09:11:25Z</time>
      </trkpt>
      <trkpt lat="46.75733" lon="5.63226">
        <ele>441.38</ele>
        <time>2016-06-07T09:11:38Z</time>
      </trkpt>
      <trkpt lat="46.75724" lon="5.63204">
        <ele>442.34</ele>
        <time>2016-06-07T09:11:51Z</time>
      </trkpt>
      <trkpt lat="46.75722" lon="5.63193">
        <ele>440.9</ele>
        <time>2016-06-07T09:12:01Z</time>
      </trkpt>
      <trkpt lat="46.75718" lon="5.6318">
        <ele>440.42</ele>
        <time>2016-06-07T09:12:14Z</time>
      </trkpt>
      <trkpt lat="46.75713" lon="5.63172">
        <ele>438.98</ele>
        <time>2016-06-07T09:12:23Z</time>
      </trkpt>
      <trkpt lat="46.75707" lon="5.63155">
        <ele>437.06</ele>
        <time>2016-06-07T09:12:38Z</time>
      </trkpt>
      <trkpt lat="46.75704" lon="5.63148">
        <ele>436.58</ele>
        <time>2016-06-07T09:12:42Z</time>
      </trkpt>
      <trkpt lat="46.75691" lon="5.63119">
        <ele>436.58</ele>
        <time>2016-06-07T09:12:59Z</time>
      </trkpt>
      <trkpt lat="46.75685" lon="5.63097">
        <ele>434.65</ele>
        <time>2016-06-07T09:13:09Z</time>
      </trkpt>
      <trkpt lat="46.7568" lon="5.63079">
        <ele>433.21</ele>
        <time>2016-06-07T09:13:23Z</time>
      </trkpt>
      <trkpt lat="46.75678" lon="5.6307">
        <ele>436.1</ele>
        <time>2016-06-07T09:13:38Z</time>
      </trkpt>
      <trkpt lat="46.75673" lon="5.63062">
        <ele>433.69</ele>
        <time>2016-06-07T09:13:54Z</time>
      </trkpt>
      <trkpt lat="46.75669" lon="5.63046">
        <ele>428.89</ele>
        <time>2016-06-07T09:14:07Z</time>
      </trkpt>
      <trkpt lat="46.75663" lon="5.63011">
        <ele>425.04</ele>
        <time>2016-06-07T09:14:22Z</time>
      </trkpt>
      <trkpt lat="46.75657" lon="5.62999">
        <ele>422.64</ele>
        <time>2016-06-07T09:14:31Z</time>
      </trkpt>
      <trkpt lat="46.75651" lon="5.62988">
        <ele>417.83</ele>
        <time>2016-06-07T09:14:46Z</time>
      </trkpt>
      <trkpt lat="46.75642" lon="5.62972">
        <ele>413.02</ele>
        <time>2016-06-07T09:14:58Z</time>
      </trkpt>
      <trkpt lat="46.7564" lon="5.62968">
        <ele>413.02</ele>
        <time>2016-06-07T09:15:00Z</time>
      </trkpt>
      <trkpt lat="46.75632" lon="5.62947">
        <ele>414.47</ele>
        <time>2016-06-07T09:15:14Z</time>
      </trkpt>
      <trkpt lat="46.75632" lon="5.62947">
        <ele>413.98</ele>
        <time>2016-06-07T09:15:22Z</time>
      </trkpt>
      <trkpt lat="46.75621" lon="5.62934">
        <ele>414.95</ele>
        <time>2016-06-07T09:15:36Z</time>
      </trkpt>
      <trkpt lat="46.75614" lon="5.62917">
        <ele>416.39</ele>
        <time>2016-06-07T09:15:50Z</time>
      </trkpt>
      <trkpt lat="46.75612" lon="5.62903">
        <ele>418.31</ele>
        <time>2016-06-07T09:16:01Z</time>
      </trkpt>
      <trkpt lat="46.75609" lon="5.62891">
        <ele>414.95</ele>
        <time>2016-06-07T09:16:14Z</time>
      </trkpt>
      <trkpt lat="46.75609" lon="5.6289">
        <ele>414.95</ele>
        <time>2016-06-07T09:16:15Z</time>
      </trkpt>
      <trkpt lat="46.75607" lon="5.62885">
        <ele>414.47</ele>
        <time>2016-06-07T09:16:19Z</time>
      </trkpt>
      <trkpt lat="46.75604" lon="5.62874">
        <ele>413.5</ele>
        <time>2016-06-07T09:16:31Z</time>
      </trkpt>
      <trkpt lat="46.756" lon="5.62865">
        <ele>412.54</ele>
        <time>2016-06-07T09:16:39Z</time>
      </trkpt>
      <trkpt lat="46.75596" lon="5.62856">
        <ele>413.5</ele>
        <time>2016-06-07T09:16:49Z</time>
      </trkpt>
      <trkpt lat="46.75592" lon="5.62845">
        <ele>413.5</ele>
        <time>2016-06-07T09:17:00Z</time>
      </trkpt>
      <trkpt lat="46.75591" lon="5.62835">
        <ele>415.43</ele>
        <time>2016-06-07T09:17:11Z</time>
      </trkpt>
      <trkpt lat="46.75588" lon="5.62825">
        <ele>417.35</ele>
        <time>2016-06-07T09:17:24Z</time>
      </trkpt>
      <trkpt lat="46.75586" lon="5.62813">
        <ele>419.27</ele>
        <time>2016-06-07T09:17:35Z</time>
      </trkpt>
      <trkpt lat="46.75585" lon="5.62798">
        <ele>420.71</ele>
        <time>2016-06-07T09:17:46Z</time>
      </trkpt>
      <trkpt lat="46.75584" lon="5.62786">
        <ele>422.64</ele>
        <time>2016-06-07T09:17:58Z</time>
      </trkpt>
      <trkpt lat="46.75583" lon="5.62777">
        <ele>424.56</ele>
        <time>2016-06-07T09:18:09Z</time>
      </trkpt>
      <trkpt lat="46.75581" lon="5.62766">
        <ele>426.96</ele>
        <time>2016-06-07T09:18:23Z</time>
      </trkpt>
      <trkpt lat="46.75581" lon="5.62762">
        <ele>428.89</ele>
        <time>2016-06-07T09:18:37Z</time>
      </trkpt>
      <trkpt lat="46.7558" lon="5.62756">
        <ele>429.85</ele>
        <time>2016-06-07T09:18:49Z</time>
      </trkpt>
      <trkpt lat="46.75577" lon="5.62742">
        <ele>430.81</ele>
        <time>2016-06-07T09:19:03Z</time>
      </trkpt>
      <trkpt lat="46.75577" lon="5.6273">
        <ele>432.25</ele>
        <time>2016-06-07T09:19:18Z</time>
      </trkpt>
      <trkpt lat="46.75584" lon="5.62713">
        <ele>432.73</ele>
        <time>2016-06-07T09:19:33Z</time>
      </trkpt>
      <trkpt lat="46.75585" lon="5.62706">
        <ele>434.17</ele>
        <time>2016-06-07T09:19:47Z</time>
      </trkpt>
      <trkpt lat="46.75589" lon="5.62701">
        <ele>433.21</ele>
        <time>2016-06-07T09:19:56Z</time>
      </trkpt>
      <trkpt lat="46.756" lon="5.62696">
        <ele>433.21</ele>
        <time>2016-06-07T09:20:05Z</time>
      </trkpt>
      <trkpt lat="46.75606" lon="5.62694">
        <ele>434.65</ele>
        <time>2016-06-07T09:20:12Z</time>
      </trkpt>
      <trkpt lat="46.75609" lon="5.62693">
        <ele>435.13</ele>
        <time>2016-06-07T09:20:15Z</time>
      </trkpt>
      <trkpt lat="46.75614" lon="5.62691">
        <ele>436.58</ele>
        <time>2016-06-07T09:20:21Z</time>
      </trkpt>
      <trkpt lat="46.75623" lon="5.62683">
        <ele>439.94</ele>
        <time>2016-06-07T09:20:32Z</time>
      </trkpt>
      <trkpt lat="46.75633" lon="5.62674">
        <ele>441.38</ele>
        <time>2016-06-07T09:20:41Z</time>
      </trkpt>
      <trkpt lat="46.75635" lon="5.62661">
        <ele>439.94</ele>
        <time>2016-06-07T09:20:52Z</time>
      </trkpt>
      <trkpt lat="46.75636" lon="5.62647">
        <ele>443.79</ele>
        <time>2016-06-07T09:21:04Z</time>
      </trkpt>
      <trkpt lat="46.75638" lon="5.62632">
        <ele>446.19</ele>
        <time>2016-06-07T09:21:19Z</time>
      </trkpt>
      <trkpt lat="46.75637" lon="5.62624">
        <ele>448.59</ele>
        <time>2016-06-07T09:21:32Z</time>
      </trkpt>
      <trkpt lat="46.75636" lon="5.62621">
        <ele>448.59</ele>
        <time>2016-06-07T09:21:38Z</time>
      </trkpt>
      <trkpt lat="46.7563" lon="5.62608">
        <ele>449.55</ele>
        <time>2016-06-07T09:21:51Z</time>
      </trkpt>
      <trkpt lat="46.75632" lon="5.62608">
        <ele>449.07</ele>
        <time>2016-06-07T09:21:53Z</time>
      </trkpt>
      <trkpt lat="46.75643" lon="5.62609">
        <ele>448.59</ele>
        <time>2016-06-07T09:22:06Z</time>
      </trkpt>
      <trkpt lat="46.7565" lon="5.62597">
        <ele>448.11</ele>
        <time>2016-06-07T09:22:17Z</time>
      </trkpt>
      <trkpt lat="46.75652" lon="5.62594">
        <ele>448.59</ele>
        <time>2016-06-07T09:22:19Z</time>
      </trkpt>
      <trkpt lat="46.75656" lon="5.62577">
        <ele>451</ele>
        <time>2016-06-07T09:22:31Z</time>
      </trkpt>
      <trkpt lat="46.75658" lon="5.62572">
        <ele>451</ele>
        <time>2016-06-07T09:22:35Z</time>
      </trkpt>
      <trkpt lat="46.7566" lon="5.62556">
        <ele>449.07</ele>
        <time>2016-06-07T09:22:47Z</time>
      </trkpt>
      <trkpt lat="46.75659" lon="5.62552">
        <ele>448.59</ele>
        <time>2016-06-07T09:22:49Z</time>
      </trkpt>
      <trkpt lat="46.75659" lon="5.62532">
        <ele>449.55</ele>
        <time>2016-06-07T09:23:01Z</time>
      </trkpt>
      <trkpt lat="46.75659" lon="5.62529">
        <ele>449.07</ele>
        <time>2016-06-07T09:23:03Z</time>
      </trkpt>
      <trkpt lat="46.7566" lon="5.62526">
        <ele>448.11</ele>
        <time>2016-06-07T09:23:15Z</time>
      </trkpt>
      <trkpt lat="46.7566" lon="5.62525">
        <ele>448.11</ele>
        <time>2016-06-07T09:23:29Z</time>
      </trkpt>
      <trkpt lat="46.75659" lon="5.62524">
        <ele>448.59</ele>
        <time>2016-06-07T09:23:46Z</time>
      </trkpt>
      <trkpt lat="46.75658" lon="5.62522">
        <ele>449.07</ele>
        <time>2016-06-07T09:24:00Z</time>
      </trkpt>
      <trkpt lat="46.75657" lon="5.62521">
        <ele>448.59</ele>
        <time>2016-06-07T09:24:27Z</time>
      </trkpt>
      <trkpt lat="46.75657" lon="5.62521">
        <ele>449.07</ele>
        <time>2016-06-07T09:24:43Z</time>
      </trkpt>
      <trkpt lat="46.75657" lon="5.62521">
        <ele>448.59</ele>
        <time>2016-06-07T09:24:59Z</time>
      </trkpt>
      <trkpt lat="46.75658" lon="5.62522">
        <ele>448.59</ele>
        <time>2016-06-07T09:25:11Z</time>
      </trkpt>
      <trkpt lat="46.75658" lon="5.62522">
        <ele>448.59</ele>
        <time>2016-06-07T09:25:13Z</time>
      </trkpt>
      <trkpt lat="46.75659" lon="5.62524">
        <ele>448.59</ele>
        <time>2016-06-07T09:25:24Z</time>
      </trkpt>
      <trkpt lat="46.75659" lon="5.62523">
        <ele>448.11</ele>
        <time>2016-06-07T09:25:38Z</time>
      </trkpt>
      <trkpt lat="46.75659" lon="5.62523">
        <ele>448.11</ele>
        <time>2016-06-07T09:25:51Z</time>
      </trkpt>
      <trkpt lat="46.7566" lon="5.62523">
        <ele>448.11</ele>
        <time>2016-06-07T09:26:10Z</time>
      </trkpt>
      <trkpt lat="46.7566" lon="5.62524">
        <ele>448.11</ele>
        <time>2016-06-07T09:26:30Z</time>
      </trkpt>
      <trkpt lat="46.75661" lon="5.62524">
        <ele>448.11</ele>
        <time>2016-06-07T09:26:56Z</time>
      </trkpt>
      <trkpt lat="46.75661" lon="5.62524">
        <ele>449.07</ele>
        <time>2016-06-07T09:27:30Z</time>
      </trkpt>
      <trkpt lat="46.75661" lon="5.62524">
        <ele>449.55</ele>
        <time>2016-06-07T09:28:09Z</time>
      </trkpt>
      <trkpt lat="46.7566" lon="5.62524">
        <ele>450.03</ele>
        <time>2016-06-07T09:28:38Z</time>
      </trkpt>
      <trkpt lat="46.7566" lon="5.62524">
        <ele>451</ele>
        <time>2016-06-07T09:29:09Z</time>
      </trkpt>
      <trkpt lat="46.7566" lon="5.62525">
        <ele>451.48</ele>
        <time>2016-06-07T09:29:41Z</time>
      </trkpt>
      <trkpt lat="46.7566" lon="5.62525">
        <ele>451.96</ele>
        <time>2016-06-07T09:30:11Z</time>
      </trkpt>
      <trkpt lat="46.7566" lon="5.62524">
        <ele>452.44</ele>
        <time>2016-06-07T09:30:44Z</time>
      </trkpt>
      <trkpt lat="46.7566" lon="5.62524">
        <ele>451.96</ele>
        <time>2016-06-07T09:31:16Z</time>
      </trkpt>
      <trkpt lat="46.75661" lon="5.62524">
        <ele>451.96</ele>
        <time>2016-06-07T09:31:46Z</time>
      </trkpt>
      <trkpt lat="46.75661" lon="5.62523">
        <ele>451.96</ele>
        <time>2016-06-07T09:32:21Z</time>
      </trkpt>
      <trkpt lat="46.75661" lon="5.62523">
        <ele>451.96</ele>
        <time>2016-06-07T09:32:57Z</time>
      </trkpt>
      <trkpt lat="46.75661" lon="5.62523">
        <ele>451.48</ele>
        <time>2016-06-07T09:33:34Z</time>
      </trkpt>
      <trkpt lat="46.75662" lon="5.62524">
        <ele>451</ele>
        <time>2016-06-07T09:34:03Z</time>
      </trkpt>
      <trkpt lat="46.75668" lon="5.62515">
        <ele>454.36</ele>
        <time>2016-06-07T09:52:39Z</time>
      </trkpt>
      <trkpt lat="46.7566" lon="5.62525">
        <ele>450.52</ele>
        <time>2016-06-07T09:52:54Z</time>
      </trkpt>
      <trkpt lat="46.75658" lon="5.62522">
        <ele>450.52</ele>
        <time>2016-06-07T09:53:11Z</time>
      </trkpt>
      <trkpt lat="46.75659" lon="5.62522">
        <ele>452.44</ele>
        <time>2016-06-07T09:53:30Z</time>
      </trkpt>
      <trkpt lat="46.75659" lon="5.6252">
        <ele>452.44</ele>
        <time>2016-06-07T09:53:31Z</time>
      </trkpt>
      <trkpt lat="46.75651" lon="5.62504">
        <ele>451.48</ele>
        <time>2016-06-07T09:53:44Z</time>
      </trkpt>
      <trkpt lat="46.75648" lon="5.625">
        <ele>451</ele>
        <time>2016-06-07T09:53:47Z</time>
      </trkpt>
      <trkpt lat="46.75632" lon="5.62483">
        <ele>450.03</ele>
        <time>2016-06-07T09:54:04Z</time>
      </trkpt>
      <trkpt lat="46.7562" lon="5.62476">
        <ele>449.07</ele>
        <time>2016-06-07T09:54:16Z</time>
      </trkpt>
      <trkpt lat="46.75609" lon="5.62468">
        <ele>447.63</ele>
        <time>2016-06-07T09:54:27Z</time>
      </trkpt>
      <trkpt lat="46.75608" lon="5.62466">
        <ele>447.63</ele>
        <time>2016-06-07T09:54:29Z</time>
      </trkpt>
      <trkpt lat="46.75603" lon="5.62461">
        <ele>447.15</ele>
        <time>2016-06-07T09:54:33Z</time>
      </trkpt>
      <trkpt lat="46.7559" lon="5.62445">
        <ele>443.31</ele>
        <time>2016-06-07T09:54:49Z</time>
      </trkpt>
      <trkpt lat="46.75583" lon="5.6244">
        <ele>441.38</ele>
        <time>2016-06-07T09:54:56Z</time>
      </trkpt>
      <trkpt lat="46.75566" lon="5.62428">
        <ele>442.34</ele>
        <time>2016-06-07T09:55:13Z</time>
      </trkpt>
      <trkpt lat="46.75552" lon="5.62418">
        <ele>438.98</ele>
        <time>2016-06-07T09:55:26Z</time>
      </trkpt>
      <trkpt lat="46.75545" lon="5.62411">
        <ele>438.5</ele>
        <time>2016-06-07T09:55:32Z</time>
      </trkpt>
      <trkpt lat="46.75532" lon="5.62402">
        <ele>440.9</ele>
        <time>2016-06-07T09:55:44Z</time>
      </trkpt>
      <trkpt lat="46.75516" lon="5.62398">
        <ele>442.34</ele>
        <time>2016-06-07T09:55:56Z</time>
      </trkpt>
      <trkpt lat="46.755" lon="5.62389">
        <ele>441.86</ele>
        <time>2016-06-07T09:56:11Z</time>
      </trkpt>
      <trkpt lat="46.75488" lon="5.62386">
        <ele>437.54</ele>
        <time>2016-06-07T09:56:23Z</time>
      </trkpt>
      <trkpt lat="46.75471" lon="5.62379">
        <ele>433.21</ele>
        <time>2016-06-07T09:56:37Z</time>
      </trkpt>
      <trkpt lat="46.75461" lon="5.62385">
        <ele>432.73</ele>
        <time>2016-06-07T09:56:49Z</time>
      </trkpt>
      <trkpt lat="46.75453" lon="5.62398">
        <ele>431.29</ele>
        <time>2016-06-07T09:57:00Z</time>
      </trkpt>
      <trkpt lat="46.75444" lon="5.62409">
        <ele>429.85</ele>
        <time>2016-06-07T09:57:10Z</time>
      </trkpt>
      <trkpt lat="46.75431" lon="5.62425">
        <ele>426</ele>
        <time>2016-06-07T09:57:23Z</time>
      </trkpt>
      <trkpt lat="46.75427" lon="5.62433">
        <ele>425.04</ele>
        <time>2016-06-07T09:57:29Z</time>
      </trkpt>
      <trkpt lat="46.75421" lon="5.62435">
        <ele>419.75</ele>
        <time>2016-06-07T09:57:44Z</time>
      </trkpt>
      <trkpt lat="46.75415" lon="5.62449">
        <ele>420.23</ele>
        <time>2016-06-07T09:57:54Z</time>
      </trkpt>
      <trkpt lat="46.75419" lon="5.62461">
        <ele>425.04</ele>
        <time>2016-06-07T09:58:05Z</time>
      </trkpt>
      <trkpt lat="46.75424" lon="5.6247">
        <ele>427.44</ele>
        <time>2016-06-07T09:58:11Z</time>
      </trkpt>
      <trkpt lat="46.7543" lon="5.62485">
        <ele>431.29</ele>
        <time>2016-06-07T09:58:22Z</time>
      </trkpt>
      <trkpt lat="46.75435" lon="5.62504">
        <ele>427.92</ele>
        <time>2016-06-07T09:58:33Z</time>
      </trkpt>
      <trkpt lat="46.75429" lon="5.62526">
        <ele>420.23</ele>
        <time>2016-06-07T09:58:47Z</time>
      </trkpt>
      <trkpt lat="46.75428" lon="5.62542">
        <ele>411.58</ele>
        <time>2016-06-07T09:59:00Z</time>
      </trkpt>
      <trkpt lat="46.75428" lon="5.62546">
        <ele>412.06</ele>
        <time>2016-06-07T09:59:04Z</time>
      </trkpt>
      <trkpt lat="46.75428" lon="5.62555">
        <ele>412.06</ele>
        <time>2016-06-07T09:59:10Z</time>
      </trkpt>
      <trkpt lat="46.75429" lon="5.62569">
        <ele>413.02</ele>
        <time>2016-06-07T09:59:17Z</time>
      </trkpt>
      <trkpt lat="46.75434" lon="5.62579">
        <ele>413.98</ele>
        <time>2016-06-07T09:59:24Z</time>
      </trkpt>
      <trkpt lat="46.75445" lon="5.62593">
        <ele>422.16</ele>
        <time>2016-06-07T09:59:37Z</time>
      </trkpt>
      <trkpt lat="46.75447" lon="5.62597">
        <ele>424.56</ele>
        <time>2016-06-07T09:59:41Z</time>
      </trkpt>
      <trkpt lat="46.75436" lon="5.62611">
        <ele>428.4</ele>
        <time>2016-06-07T09:59:52Z</time>
      </trkpt>
      <trkpt lat="46.75434" lon="5.62626">
        <ele>433.69</ele>
        <time>2016-06-07T09:59:59Z</time>
      </trkpt>
      <trkpt lat="46.75444" lon="5.62629">
        <ele>442.82</ele>
        <time>2016-06-07T10:00:04Z</time>
      </trkpt>
      <trkpt lat="46.75441" lon="5.6264">
        <ele>448.11</ele>
        <time>2016-06-07T10:00:17Z</time>
      </trkpt>
      <trkpt lat="46.75438" lon="5.62643">
        <ele>449.07</ele>
        <time>2016-06-07T10:00:20Z</time>
      </trkpt>
      <trkpt lat="46.75435" lon="5.62649">
        <ele>450.03</ele>
        <time>2016-06-07T10:00:25Z</time>
      </trkpt>
      <trkpt lat="46.75422" lon="5.62661">
        <ele>454.36</ele>
        <time>2016-06-07T10:00:39Z</time>
      </trkpt>
      <trkpt lat="46.75409" lon="5.6267">
        <ele>455.32</ele>
        <time>2016-06-07T10:00:53Z</time>
      </trkpt>
      <trkpt lat="46.75406" lon="5.6267">
        <ele>457.24</ele>
        <time>2016-06-07T10:01:05Z</time>
      </trkpt>
      <trkpt lat="46.75405" lon="5.62666">
        <ele>457.72</ele>
        <time>2016-06-07T10:01:27Z</time>
      </trkpt>
      <trkpt lat="46.7541" lon="5.62662">
        <ele>454.84</ele>
        <time>2016-06-07T10:01:39Z</time>
      </trkpt>
      <trkpt lat="46.75407" lon="5.62665">
        <ele>455.32</ele>
        <time>2016-06-07T10:01:56Z</time>
      </trkpt>
      <trkpt lat="46.75406" lon="5.62667">
        <ele>455.8</ele>
        <time>2016-06-07T10:02:08Z</time>
      </trkpt>
      <trkpt lat="46.75404" lon="5.62669">
        <ele>456.28</ele>
        <time>2016-06-07T10:02:23Z</time>
      </trkpt>
      <trkpt lat="46.75394" lon="5.62679">
        <ele>458.21</ele>
        <time>2016-06-07T10:02:35Z</time>
      </trkpt>
      <trkpt lat="46.75388" lon="5.62688">
        <ele>459.65</ele>
        <time>2016-06-07T10:02:46Z</time>
      </trkpt>
      <trkpt lat="46.75381" lon="5.62698">
        <ele>460.13</ele>
        <time>2016-06-07T10:02:56Z</time>
      </trkpt>
      <trkpt lat="46.75373" lon="5.62712">
        <ele>461.57</ele>
        <time>2016-06-07T10:03:08Z</time>
      </trkpt>
      <trkpt lat="46.75369" lon="5.62724">
        <ele>462.53</ele>
        <time>2016-06-07T10:03:15Z</time>
      </trkpt>
      <trkpt lat="46.75368" lon="5.6274">
        <ele>461.09</ele>
        <time>2016-06-07T10:03:26Z</time>
      </trkpt>
      <trkpt lat="46.7537" lon="5.62748">
        <ele>462.05</ele>
        <time>2016-06-07T10:03:34Z</time>
      </trkpt>
      <trkpt lat="46.75372" lon="5.62768">
        <ele>463.97</ele>
        <time>2016-06-07T10:03:44Z</time>
      </trkpt>
      <trkpt lat="46.75373" lon="5.62775">
        <ele>464.93</ele>
        <time>2016-06-07T10:03:48Z</time>
      </trkpt>
      <trkpt lat="46.75375" lon="5.62785">
        <ele>465.42</ele>
        <time>2016-06-07T10:03:54Z</time>
      </trkpt>
      <trkpt lat="46.75377" lon="5.628">
        <ele>463.97</ele>
        <time>2016-06-07T10:04:04Z</time>
      </trkpt>
      <trkpt lat="46.75382" lon="5.62817">
        <ele>463.01</ele>
        <time>2016-06-07T10:04:16Z</time>
      </trkpt>
      <trkpt lat="46.75387" lon="5.62832">
        <ele>464.45</ele>
        <time>2016-06-07T10:04:25Z</time>
      </trkpt>
      <trkpt lat="46.75386" lon="5.62842">
        <ele>465.42</ele>
        <time>2016-06-07T10:04:30Z</time>
      </trkpt>
      <trkpt lat="46.75379" lon="5.62861">
        <ele>463.97</ele>
        <time>2016-06-07T10:04:44Z</time>
      </trkpt>
      <trkpt lat="46.7538" lon="5.62873">
        <ele>460.13</ele>
        <time>2016-06-07T10:04:54Z</time>
      </trkpt>
      <trkpt lat="46.75384" lon="5.62876">
        <ele>459.17</ele>
        <time>2016-06-07T10:04:58Z</time>
      </trkpt>
      <trkpt lat="46.75387" lon="5.62896">
        <ele>458.21</ele>
        <time>2016-06-07T10:05:08Z</time>
      </trkpt>
      <trkpt lat="46.75387" lon="5.62899">
        <ele>458.21</ele>
        <time>2016-06-07T10:05:10Z</time>
      </trkpt>
      <trkpt lat="46.75393" lon="5.62905">
        <ele>458.21</ele>
        <time>2016-06-07T10:05:23Z</time>
      </trkpt>
      <trkpt lat="46.75403" lon="5.62917">
        <ele>458.69</ele>
        <time>2016-06-07T10:05:36Z</time>
      </trkpt>
      <trkpt lat="46.75403" lon="5.62917">
        <ele>458.69</ele>
        <time>2016-06-07T10:05:37Z</time>
      </trkpt>
      <trkpt lat="46.754" lon="5.62917">
        <ele>459.17</ele>
        <time>2016-06-07T10:05:42Z</time>
      </trkpt>
      <trkpt lat="46.75398" lon="5.62919">
        <ele>459.17</ele>
        <time>2016-06-07T10:05:45Z</time>
      </trkpt>
      <trkpt lat="46.75397" lon="5.62928">
        <ele>458.21</ele>
        <time>2016-06-07T10:05:51Z</time>
      </trkpt>
      <trkpt lat="46.75399" lon="5.62936">
        <ele>458.21</ele>
        <time>2016-06-07T10:05:56Z</time>
      </trkpt>
      <trkpt lat="46.75402" lon="5.62939">
        <ele>457.72</ele>
        <time>2016-06-07T10:05:59Z</time>
      </trkpt>
      <trkpt lat="46.75407" lon="5.62956">
        <ele>457.72</ele>
        <time>2016-06-07T10:06:12Z</time>
      </trkpt>
      <trkpt lat="46.75409" lon="5.62965">
        <ele>457.72</ele>
        <time>2016-06-07T10:06:24Z</time>
      </trkpt>
      <trkpt lat="46.75414" lon="5.62982">
        <ele>454.84</ele>
        <time>2016-06-07T10:06:38Z</time>
      </trkpt>
      <trkpt lat="46.75418" lon="5.62995">
        <ele>454.36</ele>
        <time>2016-06-07T10:06:48Z</time>
      </trkpt>
      <trkpt lat="46.75418" lon="5.62999">
        <ele>454.36</ele>
        <time>2016-06-07T10:06:50Z</time>
      </trkpt>
      <trkpt lat="46.75421" lon="5.63017">
        <ele>454.36</ele>
        <time>2016-06-07T10:07:03Z</time>
      </trkpt>
      <trkpt lat="46.7542" lon="5.63027">
        <ele>454.36</ele>
        <time>2016-06-07T10:07:17Z</time>
      </trkpt>
      <trkpt lat="46.75419" lon="5.63036">
        <ele>453.88</ele>
        <time>2016-06-07T10:07:32Z</time>
      </trkpt>
      <trkpt lat="46.75421" lon="5.63068">
        <ele>449.07</ele>
        <time>2016-06-07T10:07:46Z</time>
      </trkpt>
      <trkpt lat="46.75421" lon="5.63073">
        <ele>448.59</ele>
        <time>2016-06-07T10:07:49Z</time>
      </trkpt>
      <trkpt lat="46.75424" lon="5.63097">
        <ele>445.23</ele>
        <time>2016-06-07T10:08:02Z</time>
      </trkpt>
      <trkpt lat="46.75429" lon="5.63117">
        <ele>443.31</ele>
        <time>2016-06-07T10:08:13Z</time>
      </trkpt>
      <trkpt lat="46.75431" lon="5.63138">
        <ele>443.79</ele>
        <time>2016-06-07T10:08:25Z</time>
      </trkpt>
      <trkpt lat="46.75435" lon="5.63154">
        <ele>442.34</ele>
        <time>2016-06-07T10:08:37Z</time>
      </trkpt>
      <trkpt lat="46.75431" lon="5.63195">
        <ele>443.79</ele>
        <time>2016-06-07T10:08:53Z</time>
      </trkpt>
      <trkpt lat="46.75433" lon="5.63223">
        <ele>445.71</ele>
        <time>2016-06-07T10:09:06Z</time>
      </trkpt>
      <trkpt lat="46.75431" lon="5.63247">
        <ele>445.71</ele>
        <time>2016-06-07T10:09:19Z</time>
      </trkpt>
      <trkpt lat="46.7543" lon="5.63255">
        <ele>446.67</ele>
        <time>2016-06-07T10:09:28Z</time>
      </trkpt>
      <trkpt lat="46.75425" lon="5.63273">
        <ele>447.15</ele>
        <time>2016-06-07T10:09:43Z</time>
      </trkpt>
      <trkpt lat="46.7542" lon="5.63292">
        <ele>448.11</ele>
        <time>2016-06-07T10:09:54Z</time>
      </trkpt>
      <trkpt lat="46.75414" lon="5.63306">
        <ele>448.11</ele>
        <time>2016-06-07T10:10:08Z</time>
      </trkpt>
      <trkpt lat="46.75408" lon="5.63321">
        <ele>446.19</ele>
        <time>2016-06-07T10:10:23Z</time>
      </trkpt>
      <trkpt lat="46.75399" lon="5.63344">
        <ele>444.75</ele>
        <time>2016-06-07T10:10:35Z</time>
      </trkpt>
      <trkpt lat="46.75388" lon="5.63371">
        <ele>446.19</ele>
        <time>2016-06-07T10:10:47Z</time>
      </trkpt>
      <trkpt lat="46.75384" lon="5.63385">
        <ele>446.67</ele>
        <time>2016-06-07T10:11:00Z</time>
      </trkpt>
      <trkpt lat="46.75381" lon="5.63404">
        <ele>446.67</ele>
        <time>2016-06-07T10:11:14Z</time>
      </trkpt>
      <trkpt lat="46.75379" lon="5.63433">
        <ele>448.59</ele>
        <time>2016-06-07T10:11:27Z</time>
      </trkpt>
      <trkpt lat="46.75381" lon="5.63452">
        <ele>451</ele>
        <time>2016-06-07T10:11:39Z</time>
      </trkpt>
      <trkpt lat="46.75378" lon="5.63461">
        <ele>450.52</ele>
        <time>2016-06-07T10:11:52Z</time>
      </trkpt>
      <trkpt lat="46.75381" lon="5.63469">
        <ele>450.52</ele>
        <time>2016-06-07T10:12:07Z</time>
      </trkpt>
      <trkpt lat="46.75382" lon="5.63472">
        <ele>451</ele>
        <time>2016-06-07T10:12:09Z</time>
      </trkpt>
      <trkpt lat="46.7539" lon="5.63485">
        <ele>449.55</ele>
        <time>2016-06-07T10:12:23Z</time>
      </trkpt>
      <trkpt lat="46.75393" lon="5.63492">
        <ele>448.59</ele>
        <time>2016-06-07T10:12:36Z</time>
      </trkpt>
      <trkpt lat="46.75402" lon="5.63499">
        <ele>449.07</ele>
        <time>2016-06-07T10:12:49Z</time>
      </trkpt>
      <trkpt lat="46.75413" lon="5.63508">
        <ele>452.92</ele>
        <time>2016-06-07T10:13:03Z</time>
      </trkpt>
      <trkpt lat="46.75424" lon="5.63515">
        <ele>457.72</ele>
        <time>2016-06-07T10:13:20Z</time>
      </trkpt>
      <trkpt lat="46.7543" lon="5.6352">
        <ele>458.21</ele>
        <time>2016-06-07T10:13:32Z</time>
      </trkpt>
      <trkpt lat="46.75438" lon="5.63528">
        <ele>458.21</ele>
        <time>2016-06-07T10:13:44Z</time>
      </trkpt>
      <trkpt lat="46.75457" lon="5.63548">
        <ele>460.61</ele>
        <time>2016-06-07T10:13:58Z</time>
      </trkpt>
      <trkpt lat="46.75466" lon="5.63555">
        <ele>462.05</ele>
        <time>2016-06-07T10:14:10Z</time>
      </trkpt>
      <trkpt lat="46.7548" lon="5.63568">
        <ele>464.93</ele>
        <time>2016-06-07T10:14:25Z</time>
      </trkpt>
      <trkpt lat="46.75491" lon="5.63573">
        <ele>466.86</ele>
        <time>2016-06-07T10:14:36Z</time>
      </trkpt>
      <trkpt lat="46.75505" lon="5.63578">
        <ele>465.9</ele>
        <time>2016-06-07T10:14:49Z</time>
      </trkpt>
      <trkpt lat="46.75514" lon="5.63579">
        <ele>466.38</ele>
        <time>2016-06-07T10:14:58Z</time>
      </trkpt>
      <trkpt lat="46.75527" lon="5.63588">
        <ele>468.3</ele>
        <time>2016-06-07T10:15:12Z</time>
      </trkpt>
      <trkpt lat="46.75534" lon="5.63604">
        <ele>469.26</ele>
        <time>2016-06-07T10:15:24Z</time>
      </trkpt>
      <trkpt lat="46.75538" lon="5.63622">
        <ele>469.26</ele>
        <time>2016-06-07T10:15:36Z</time>
      </trkpt>
      <trkpt lat="46.75539" lon="5.63629">
        <ele>468.3</ele>
        <time>2016-06-07T10:15:40Z</time>
      </trkpt>
      <trkpt lat="46.75542" lon="5.63648">
        <ele>467.82</ele>
        <time>2016-06-07T10:15:52Z</time>
      </trkpt>
      <trkpt lat="46.75543" lon="5.63654">
        <ele>467.82</ele>
        <time>2016-06-07T10:15:56Z</time>
      </trkpt>
      <trkpt lat="46.75544" lon="5.63667">
        <ele>467.82</ele>
        <time>2016-06-07T10:16:03Z</time>
      </trkpt>
      <trkpt lat="46.75546" lon="5.63678">
        <ele>467.82</ele>
        <time>2016-06-07T10:16:10Z</time>
      </trkpt>
      <trkpt lat="46.75549" lon="5.63694">
        <ele>466.86</ele>
        <time>2016-06-07T10:16:20Z</time>
      </trkpt>
      <trkpt lat="46.75554" lon="5.63716">
        <ele>466.86</ele>
        <time>2016-06-07T10:16:33Z</time>
      </trkpt>
      <trkpt lat="46.75556" lon="5.63728">
        <ele>466.86</ele>
        <time>2016-06-07T10:16:40Z</time>
      </trkpt>
      <trkpt lat="46.7556" lon="5.63749">
        <ele>468.3</ele>
        <time>2016-06-07T10:16:52Z</time>
      </trkpt>
      <trkpt lat="46.75565" lon="5.63771">
        <ele>466.86</ele>
        <time>2016-06-07T10:17:05Z</time>
      </trkpt>
      <trkpt lat="46.75565" lon="5.63778">
        <ele>467.34</ele>
        <time>2016-06-07T10:17:09Z</time>
      </trkpt>
      <trkpt lat="46.75567" lon="5.63788">
        <ele>467.82</ele>
        <time>2016-06-07T10:17:17Z</time>
      </trkpt>
      <trkpt lat="46.7557" lon="5.63813">
        <ele>468.3</ele>
        <time>2016-06-07T10:17:31Z</time>
      </trkpt>
      <trkpt lat="46.75571" lon="5.63821">
        <ele>468.78</ele>
        <time>2016-06-07T10:17:36Z</time>
      </trkpt>
      <trkpt lat="46.75572" lon="5.63824">
        <ele>468.78</ele>
        <time>2016-06-07T10:17:38Z</time>
      </trkpt>
      <trkpt lat="46.75575" lon="5.63846">
        <ele>468.3</ele>
        <time>2016-06-07T10:17:51Z</time>
      </trkpt>
      <trkpt lat="46.75579" lon="5.63871">
        <ele>469.74</ele>
        <time>2016-06-07T10:18:06Z</time>
      </trkpt>
      <trkpt lat="46.7558" lon="5.63891">
        <ele>470.7</ele>
        <time>2016-06-07T10:18:18Z</time>
      </trkpt>
      <trkpt lat="46.75581" lon="5.63908">
        <ele>470.22</ele>
        <time>2016-06-07T10:18:29Z</time>
      </trkpt>
      <trkpt lat="46.75578" lon="5.63933">
        <ele>470.7</ele>
        <time>2016-06-07T10:18:45Z</time>
      </trkpt>
      <trkpt lat="46.75576" lon="5.63951">
        <ele>471.18</ele>
        <time>2016-06-07T10:18:56Z</time>
      </trkpt>
      <trkpt lat="46.75575" lon="5.6396">
        <ele>471.18</ele>
        <time>2016-06-07T10:19:01Z</time>
      </trkpt>
      <trkpt lat="46.75573" lon="5.63973">
        <ele>472.14</ele>
        <time>2016-06-07T10:19:08Z</time>
      </trkpt>
      <trkpt lat="46.75572" lon="5.63982">
        <ele>472.14</ele>
        <time>2016-06-07T10:19:13Z</time>
      </trkpt>
      <trkpt lat="46.75572" lon="5.63986">
        <ele>472.63</ele>
        <time>2016-06-07T10:19:16Z</time>
      </trkpt>
      <trkpt lat="46.75571" lon="5.63993">
        <ele>472.14</ele>
        <time>2016-06-07T10:19:20Z</time>
      </trkpt>
      <trkpt lat="46.75568" lon="5.64013">
        <ele>471.18</ele>
        <time>2016-06-07T10:19:35Z</time>
      </trkpt>
      <trkpt lat="46.75567" lon="5.64038">
        <ele>471.18</ele>
        <time>2016-06-07T10:19:47Z</time>
      </trkpt>
      <trkpt lat="46.75567" lon="5.64055">
        <ele>471.66</ele>
        <time>2016-06-07T10:19:57Z</time>
      </trkpt>
      <trkpt lat="46.75566" lon="5.64077">
        <ele>472.63</ele>
        <time>2016-06-07T10:20:09Z</time>
      </trkpt>
      <trkpt lat="46.75566" lon="5.64095">
        <ele>473.59</ele>
        <time>2016-06-07T10:20:19Z</time>
      </trkpt>
      <trkpt lat="46.75566" lon="5.64103">
        <ele>474.07</ele>
        <time>2016-06-07T10:20:24Z</time>
      </trkpt>
      <trkpt lat="46.75568" lon="5.64127">
        <ele>473.59</ele>
        <time>2016-06-07T10:20:38Z</time>
      </trkpt>
      <trkpt lat="46.75571" lon="5.64149">
        <ele>474.07</ele>
        <time>2016-06-07T10:20:51Z</time>
      </trkpt>
      <trkpt lat="46.75574" lon="5.64159">
        <ele>474.07</ele>
        <time>2016-06-07T10:20:57Z</time>
      </trkpt>
      <trkpt lat="46.75574" lon="5.64163">
        <ele>474.07</ele>
        <time>2016-06-07T10:20:59Z</time>
      </trkpt>
      <trkpt lat="46.75575" lon="5.64165">
        <ele>474.55</ele>
        <time>2016-06-07T10:21:01Z</time>
      </trkpt>
      <trkpt lat="46.75576" lon="5.64185">
        <ele>475.51</ele>
        <time>2016-06-07T10:21:13Z</time>
      </trkpt>
      <trkpt lat="46.75575" lon="5.64188">
        <ele>475.51</ele>
        <time>2016-06-07T10:21:15Z</time>
      </trkpt>
      <trkpt lat="46.75573" lon="5.64208">
        <ele>475.51</ele>
        <time>2016-06-07T10:21:27Z</time>
      </trkpt>
      <trkpt lat="46.75573" lon="5.64215">
        <ele>475.99</ele>
        <time>2016-06-07T10:21:31Z</time>
      </trkpt>
      <trkpt lat="46.75572" lon="5.6424">
        <ele>476.47</ele>
        <time>2016-06-07T10:21:46Z</time>
      </trkpt>
      <trkpt lat="46.75572" lon="5.64258">
        <ele>476.47</ele>
        <time>2016-06-07T10:21:57Z</time>
      </trkpt>
      <trkpt lat="46.75573" lon="5.6428">
        <ele>473.59</ele>
        <time>2016-06-07T10:22:11Z</time>
      </trkpt>
      <trkpt lat="46.75573" lon="5.64306">
        <ele>474.55</ele>
        <time>2016-06-07T10:22:25Z</time>
      </trkpt>
      <trkpt lat="46.75575" lon="5.6433">
        <ele>475.03</ele>
        <time>2016-06-07T10:22:39Z</time>
      </trkpt>
      <trkpt lat="46.75576" lon="5.64349">
        <ele>475.03</ele>
        <time>2016-06-07T10:22:50Z</time>
      </trkpt>
      <trkpt lat="46.75576" lon="5.64364">
        <ele>474.55</ele>
        <time>2016-06-07T10:22:59Z</time>
      </trkpt>
      <trkpt lat="46.75575" lon="5.64376">
        <ele>474.07</ele>
        <time>2016-06-07T10:23:06Z</time>
      </trkpt>
      <trkpt lat="46.75575" lon="5.64388">
        <ele>474.55</ele>
        <time>2016-06-07T10:23:13Z</time>
      </trkpt>
      <trkpt lat="46.75573" lon="5.644">
        <ele>474.55</ele>
        <time>2016-06-07T10:23:20Z</time>
      </trkpt>
      <trkpt lat="46.75573" lon="5.64407">
        <ele>474.55</ele>
        <time>2016-06-07T10:23:24Z</time>
      </trkpt>
      <trkpt lat="46.75572" lon="5.64414">
        <ele>475.03</ele>
        <time>2016-06-07T10:23:28Z</time>
      </trkpt>
      <trkpt lat="46.7557" lon="5.64436">
        <ele>474.07</ele>
        <time>2016-06-07T10:23:40Z</time>
      </trkpt>
      <trkpt lat="46.75571" lon="5.64448">
        <ele>474.55</ele>
        <time>2016-06-07T10:23:47Z</time>
      </trkpt>
      <trkpt lat="46.75571" lon="5.64468">
        <ele>475.03</ele>
        <time>2016-06-07T10:24:00Z</time>
      </trkpt>
      <trkpt lat="46.75571" lon="5.64471">
        <ele>475.51</ele>
        <time>2016-06-07T10:24:02Z</time>
      </trkpt>
      <trkpt lat="46.75571" lon="5.64478">
        <ele>474.55</ele>
        <time>2016-06-07T10:24:06Z</time>
      </trkpt>
      <trkpt lat="46.7557" lon="5.64485">
        <ele>474.07</ele>
        <time>2016-06-07T10:24:10Z</time>
      </trkpt>
      <trkpt lat="46.7557" lon="5.64492">
        <ele>475.03</ele>
        <time>2016-06-07T10:24:14Z</time>
      </trkpt>
      <trkpt lat="46.75571" lon="5.64507">
        <ele>475.03</ele>
        <time>2016-06-07T10:24:24Z</time>
      </trkpt>
      <trkpt lat="46.7557" lon="5.64528">
        <ele>475.99</ele>
        <time>2016-06-07T10:24:37Z</time>
      </trkpt>
      <trkpt lat="46.75571" lon="5.6454">
        <ele>477.43</ele>
        <time>2016-06-07T10:24:48Z</time>
      </trkpt>
      <trkpt lat="46.75569" lon="5.64559">
        <ele>478.39</ele>
        <time>2016-06-07T10:25:00Z</time>
      </trkpt>
      <trkpt lat="46.75567" lon="5.64585">
        <ele>481.76</ele>
        <time>2016-06-07T10:25:14Z</time>
      </trkpt>
      <trkpt lat="46.7557" lon="5.64614">
        <ele>482.24</ele>
        <time>2016-06-07T10:25:31Z</time>
      </trkpt>
      <trkpt lat="46.7557" lon="5.64634">
        <ele>481.76</ele>
        <time>2016-06-07T10:25:44Z</time>
      </trkpt>
      <trkpt lat="46.75569" lon="5.64656">
        <ele>481.76</ele>
        <time>2016-06-07T10:25:56Z</time>
      </trkpt>
      <trkpt lat="46.75568" lon="5.64666">
        <ele>481.76</ele>
        <time>2016-06-07T10:26:02Z</time>
      </trkpt>
      <trkpt lat="46.75564" lon="5.64677">
        <ele>481.28</ele>
        <time>2016-06-07T10:26:10Z</time>
      </trkpt>
      <trkpt lat="46.75562" lon="5.64683">
        <ele>481.76</ele>
        <time>2016-06-07T10:26:14Z</time>
      </trkpt>
      <trkpt lat="46.75556" lon="5.64697">
        <ele>481.76</ele>
        <time>2016-06-07T10:26:25Z</time>
      </trkpt>
      <trkpt lat="46.75552" lon="5.64718">
        <ele>481.28</ele>
        <time>2016-06-07T10:26:38Z</time>
      </trkpt>
      <trkpt lat="46.7555" lon="5.64738">
        <ele>484.16</ele>
        <time>2016-06-07T10:26:50Z</time>
      </trkpt>
      <trkpt lat="46.7555" lon="5.64743">
        <ele>485.12</ele>
        <time>2016-06-07T10:26:53Z</time>
      </trkpt>
      <trkpt lat="46.75549" lon="5.64745">
        <ele>485.12</ele>
        <time>2016-06-07T10:26:55Z</time>
      </trkpt>
      <trkpt lat="46.75544" lon="5.64769">
        <ele>484.16</ele>
        <time>2016-06-07T10:27:10Z</time>
      </trkpt>
      <trkpt lat="46.75542" lon="5.64778">
        <ele>484.16</ele>
        <time>2016-06-07T10:27:16Z</time>
      </trkpt>
      <trkpt lat="46.75538" lon="5.64791">
        <ele>483.2</ele>
        <time>2016-06-07T10:27:25Z</time>
      </trkpt>
      <trkpt lat="46.75534" lon="5.64798">
        <ele>484.16</ele>
        <time>2016-06-07T10:27:30Z</time>
      </trkpt>
      <trkpt lat="46.75527" lon="5.64812">
        <ele>484.64</ele>
        <time>2016-06-07T10:27:40Z</time>
      </trkpt>
      <trkpt lat="46.75526" lon="5.64815">
        <ele>484.16</ele>
        <time>2016-06-07T10:27:42Z</time>
      </trkpt>
      <trkpt lat="46.75518" lon="5.64838">
        <ele>483.68</ele>
        <time>2016-06-07T10:27:57Z</time>
      </trkpt>
      <trkpt lat="46.75516" lon="5.64842">
        <ele>484.16</ele>
        <time>2016-06-07T10:28:00Z</time>
      </trkpt>
      <trkpt lat="46.75516" lon="5.64844">
        <ele>484.16</ele>
        <time>2016-06-07T10:28:02Z</time>
      </trkpt>
      <trkpt lat="46.75513" lon="5.64854">
        <ele>483.68</ele>
        <time>2016-06-07T10:28:08Z</time>
      </trkpt>
      <trkpt lat="46.75511" lon="5.64858">
        <ele>483.68</ele>
        <time>2016-06-07T10:28:11Z</time>
      </trkpt>
      <trkpt lat="46.75507" lon="5.64874">
        <ele>483.2</ele>
        <time>2016-06-07T10:28:20Z</time>
      </trkpt>
      <trkpt lat="46.75504" lon="5.64884">
        <ele>483.2</ele>
        <time>2016-06-07T10:28:27Z</time>
      </trkpt>
      <trkpt lat="46.75503" lon="5.64889">
        <ele>482.72</ele>
        <time>2016-06-07T10:28:30Z</time>
      </trkpt>
      <trkpt lat="46.755" lon="5.64901">
        <ele>483.68</ele>
        <time>2016-06-07T10:28:37Z</time>
      </trkpt>
      <trkpt lat="46.755" lon="5.64903">
        <ele>484.16</ele>
        <time>2016-06-07T10:28:39Z</time>
      </trkpt>
      <trkpt lat="46.75499" lon="5.64908">
        <ele>484.16</ele>
        <time>2016-06-07T10:28:42Z</time>
      </trkpt>
      <trkpt lat="46.75498" lon="5.64917">
        <ele>484.16</ele>
        <time>2016-06-07T10:28:48Z</time>
      </trkpt>
      <trkpt lat="46.75496" lon="5.64926">
        <ele>484.16</ele>
        <time>2016-06-07T10:28:54Z</time>
      </trkpt>
      <trkpt lat="46.75492" lon="5.64936">
        <ele>483.68</ele>
        <time>2016-06-07T10:29:00Z</time>
      </trkpt>
      <trkpt lat="46.75492" lon="5.64939">
        <ele>483.68</ele>
        <time>2016-06-07T10:29:02Z</time>
      </trkpt>
      <trkpt lat="46.7549" lon="5.64947">
        <ele>483.68</ele>
        <time>2016-06-07T10:29:07Z</time>
      </trkpt>
      <trkpt lat="46.75483" lon="5.6497">
        <ele>484.64</ele>
        <time>2016-06-07T10:29:22Z</time>
      </trkpt>
      <trkpt lat="46.75475" lon="5.64989">
        <ele>483.68</ele>
        <time>2016-06-07T10:29:37Z</time>
      </trkpt>
      <trkpt lat="46.75472" lon="5.64995">
        <ele>483.68</ele>
        <time>2016-06-07T10:29:42Z</time>
      </trkpt>
      <trkpt lat="46.75471" lon="5.64999">
        <ele>484.16</ele>
        <time>2016-06-07T10:29:45Z</time>
      </trkpt>
      <trkpt lat="46.75469" lon="5.65002">
        <ele>484.64</ele>
        <time>2016-06-07T10:29:48Z</time>
      </trkpt>
      <trkpt lat="46.75462" lon="5.6502">
        <ele>484.64</ele>
        <time>2016-06-07T10:30:00Z</time>
      </trkpt>
      <trkpt lat="46.75457" lon="5.65032">
        <ele>483.68</ele>
        <time>2016-06-07T10:30:10Z</time>
      </trkpt>
      <trkpt lat="46.75455" lon="5.65044">
        <ele>484.16</ele>
        <time>2016-06-07T10:30:24Z</time>
      </trkpt>
      <trkpt lat="46.75455" lon="5.65044">
        <ele>484.16</ele>
        <time>2016-06-07T10:30:45Z</time>
      </trkpt>
      <trkpt lat="46.75454" lon="5.65052">
        <ele>483.68</ele>
        <time>2016-06-07T10:31:07Z</time>
      </trkpt>
      <trkpt lat="46.75454" lon="5.65057">
        <ele>483.2</ele>
        <time>2016-06-07T10:31:11Z</time>
      </trkpt>
      <trkpt lat="46.75451" lon="5.65084">
        <ele>482.72</ele>
        <time>2016-06-07T10:31:25Z</time>
      </trkpt>
      <trkpt lat="46.75447" lon="5.65106">
        <ele>484.16</ele>
        <time>2016-06-07T10:31:37Z</time>
      </trkpt>
      <trkpt lat="46.75441" lon="5.65128">
        <ele>483.2</ele>
        <time>2016-06-07T10:31:51Z</time>
      </trkpt>
      <trkpt lat="46.75439" lon="5.65136">
        <ele>483.68</ele>
        <time>2016-06-07T10:31:57Z</time>
      </trkpt>
      <trkpt lat="46.75437" lon="5.65139">
        <ele>484.16</ele>
        <time>2016-06-07T10:31:59Z</time>
      </trkpt>
      <trkpt lat="46.75428" lon="5.65151">
        <ele>484.64</ele>
        <time>2016-06-07T10:32:12Z</time>
      </trkpt>
      <trkpt lat="46.75422" lon="5.65163">
        <ele>485.6</ele>
        <time>2016-06-07T10:32:24Z</time>
      </trkpt>
      <trkpt lat="46.75415" lon="5.65175">
        <ele>488.97</ele>
        <time>2016-06-07T10:32:36Z</time>
      </trkpt>
      <trkpt lat="46.7541" lon="5.65186">
        <ele>490.41</ele>
        <time>2016-06-07T10:32:47Z</time>
      </trkpt>
      <trkpt lat="46.754" lon="5.65196">
        <ele>491.37</ele>
        <time>2016-06-07T10:33:00Z</time>
      </trkpt>
      <trkpt lat="46.75394" lon="5.65204">
        <ele>491.85</ele>
        <time>2016-06-07T10:33:11Z</time>
      </trkpt>
      <trkpt lat="46.75387" lon="5.65215">
        <ele>492.81</ele>
        <time>2016-06-07T10:33:23Z</time>
      </trkpt>
      <trkpt lat="46.75385" lon="5.65217">
        <ele>493.29</ele>
        <time>2016-06-07T10:33:25Z</time>
      </trkpt>
      <trkpt lat="46.75381" lon="5.65228">
        <ele>494.74</ele>
        <time>2016-06-07T10:33:36Z</time>
      </trkpt>
      <trkpt lat="46.75378" lon="5.6524">
        <ele>495.22</ele>
        <time>2016-06-07T10:33:49Z</time>
      </trkpt>
      <trkpt lat="46.75379" lon="5.65253">
        <ele>496.66</ele>
        <time>2016-06-07T10:34:03Z</time>
      </trkpt>
      <trkpt lat="46.75386" lon="5.65259">
        <ele>498.1</ele>
        <time>2016-06-07T10:34:16Z</time>
      </trkpt>
      <trkpt lat="46.75389" lon="5.65261">
        <ele>499.54</ele>
        <time>2016-06-07T10:34:31Z</time>
      </trkpt>
      <trkpt lat="46.75396" lon="5.65271">
        <ele>498.1</ele>
        <time>2016-06-07T10:34:43Z</time>
      </trkpt>
      <trkpt lat="46.75401" lon="5.65285">
        <ele>495.22</ele>
        <time>2016-06-07T10:34:55Z</time>
      </trkpt>
      <trkpt lat="46.75404" lon="5.65296">
        <ele>489.45</ele>
        <time>2016-06-07T10:35:08Z</time>
      </trkpt>
      <trkpt lat="46.7541" lon="5.65311">
        <ele>487.53</ele>
        <time>2016-06-07T10:35:21Z</time>
      </trkpt>
      <trkpt lat="46.75418" lon="5.65325">
        <ele>486.56</ele>
        <time>2016-06-07T10:35:32Z</time>
      </trkpt>
      <trkpt lat="46.75426" lon="5.6534">
        <ele>485.6</ele>
        <time>2016-06-07T10:35:44Z</time>
      </trkpt>
      <trkpt lat="46.75432" lon="5.65353">
        <ele>487.05</ele>
        <time>2016-06-07T10:35:57Z</time>
      </trkpt>
      <trkpt lat="46.75438" lon="5.65362">
        <ele>489.45</ele>
        <time>2016-06-07T10:36:11Z</time>
      </trkpt>
      <trkpt lat="46.75447" lon="5.65371">
        <ele>491.37</ele>
        <time>2016-06-07T10:36:23Z</time>
      </trkpt>
      <trkpt lat="46.75457" lon="5.65385">
        <ele>492.81</ele>
        <time>2016-06-07T10:36:35Z</time>
      </trkpt>
      <trkpt lat="46.75462" lon="5.65396">
        <ele>487.53</ele>
        <time>2016-06-07T10:36:49Z</time>
      </trkpt>
      <trkpt lat="46.75468" lon="5.65404">
        <ele>487.05</ele>
        <time>2016-06-07T10:37:01Z</time>
      </trkpt>
      <trkpt lat="46.75471" lon="5.65411">
        <ele>485.6</ele>
        <time>2016-06-07T10:37:13Z</time>
      </trkpt>
      <trkpt lat="46.75473" lon="5.65415">
        <ele>486.08</ele>
        <time>2016-06-07T10:37:24Z</time>
      </trkpt>
      <trkpt lat="46.75479" lon="5.65424">
        <ele>484.16</ele>
        <time>2016-06-07T10:37:36Z</time>
      </trkpt>
      <trkpt lat="46.75497" lon="5.65439">
        <ele>489.93</ele>
        <time>2016-06-07T10:37:48Z</time>
      </trkpt>
      <trkpt lat="46.75505" lon="5.65445">
        <ele>493.29</ele>
        <time>2016-06-07T10:37:55Z</time>
      </trkpt>
      <trkpt lat="46.75519" lon="5.65453">
        <ele>499.06</ele>
        <time>2016-06-07T10:38:06Z</time>
      </trkpt>
      <trkpt lat="46.75521" lon="5.65461">
        <ele>499.54</ele>
        <time>2016-06-07T10:38:19Z</time>
      </trkpt>
      <trkpt lat="46.7552" lon="5.65473">
        <ele>498.58</ele>
        <time>2016-06-07T10:38:31Z</time>
      </trkpt>
      <trkpt lat="46.75517" lon="5.65479">
        <ele>498.1</ele>
        <time>2016-06-07T10:38:43Z</time>
      </trkpt>
      <trkpt lat="46.75515" lon="5.6548">
        <ele>500.98</ele>
        <time>2016-06-07T10:38:57Z</time>
      </trkpt>
      <trkpt lat="46.75509" lon="5.65479">
        <ele>498.58</ele>
        <time>2016-06-07T10:39:08Z</time>
      </trkpt>
      <trkpt lat="46.75501" lon="5.65478">
        <ele>501.95</ele>
        <time>2016-06-07T10:39:20Z</time>
      </trkpt>
      <trkpt lat="46.75486" lon="5.65469">
        <ele>506.27</ele>
        <time>2016-06-07T10:39:32Z</time>
      </trkpt>
      <trkpt lat="46.75478" lon="5.65466">
        <ele>508.67</ele>
        <time>2016-06-07T10:39:42Z</time>
      </trkpt>
      <trkpt lat="46.75468" lon="5.65465">
        <ele>510.6</ele>
        <time>2016-06-07T10:39:55Z</time>
      </trkpt>
      <trkpt lat="46.75459" lon="5.65467">
        <ele>511.56</ele>
        <time>2016-06-07T10:40:07Z</time>
      </trkpt>
      <trkpt lat="46.75458" lon="5.65467">
        <ele>512.04</ele>
        <time>2016-06-07T10:40:08Z</time>
      </trkpt>
      <trkpt lat="46.75447" lon="5.65469">
        <ele>514.92</ele>
        <time>2016-06-07T10:40:22Z</time>
      </trkpt>
      <trkpt lat="46.75431" lon="5.65471">
        <ele>520.69</ele>
        <time>2016-06-07T10:40:36Z</time>
      </trkpt>
      <trkpt lat="46.75424" lon="5.65472">
        <ele>517.81</ele>
        <time>2016-06-07T10:40:45Z</time>
      </trkpt>
      <trkpt lat="46.75405" lon="5.6548">
        <ele>516.85</ele>
        <time>2016-06-07T10:40:58Z</time>
      </trkpt>
      <trkpt lat="46.754" lon="5.65483">
        <ele>516.85</ele>
        <time>2016-06-07T10:41:01Z</time>
      </trkpt>
      <trkpt lat="46.75392" lon="5.65496">
        <ele>513.96</ele>
        <time>2016-06-07T10:41:14Z</time>
      </trkpt>
      <trkpt lat="46.75385" lon="5.65507">
        <ele>513</ele>
        <time>2016-06-07T10:41:27Z</time>
      </trkpt>
      <trkpt lat="46.75382" lon="5.65517">
        <ele>515.4</ele>
        <time>2016-06-07T10:41:38Z</time>
      </trkpt>
      <trkpt lat="46.75382" lon="5.65535">
        <ele>518.77</ele>
        <time>2016-06-07T10:41:49Z</time>
      </trkpt>
      <trkpt lat="46.75378" lon="5.65543">
        <ele>511.56</ele>
        <time>2016-06-07T10:42:01Z</time>
      </trkpt>
      <trkpt lat="46.75378" lon="5.65551">
        <ele>512.04</ele>
        <time>2016-06-07T10:42:15Z</time>
      </trkpt>
      <trkpt lat="46.75374" lon="5.65562">
        <ele>515.4</ele>
        <time>2016-06-07T10:42:27Z</time>
      </trkpt>
      <trkpt lat="46.75371" lon="5.65572">
        <ele>519.25</ele>
        <time>2016-06-07T10:42:39Z</time>
      </trkpt>
      <trkpt lat="46.75365" lon="5.65577">
        <ele>520.21</ele>
        <time>2016-06-07T10:42:50Z</time>
      </trkpt>
      <trkpt lat="46.75352" lon="5.65586">
        <ele>523.09</ele>
        <time>2016-06-07T10:43:02Z</time>
      </trkpt>
      <trkpt lat="46.75345" lon="5.65586">
        <ele>521.17</ele>
        <time>2016-06-07T10:43:14Z</time>
      </trkpt>
      <trkpt lat="46.75341" lon="5.65585">
        <ele>520.69</ele>
        <time>2016-06-07T10:43:17Z</time>
      </trkpt>
      <trkpt lat="46.75327" lon="5.6558">
        <ele>521.17</ele>
        <time>2016-06-07T10:43:30Z</time>
      </trkpt>
      <trkpt lat="46.75317" lon="5.65575">
        <ele>524.06</ele>
        <time>2016-06-07T10:43:44Z</time>
      </trkpt>
      <trkpt lat="46.7531" lon="5.65574">
        <ele>524.54</ele>
        <time>2016-06-07T10:43:50Z</time>
      </trkpt>
      <trkpt lat="46.75292" lon="5.65579">
        <ele>524.06</ele>
        <time>2016-06-07T10:44:04Z</time>
      </trkpt>
      <trkpt lat="46.75284" lon="5.65581">
        <ele>523.09</ele>
        <time>2016-06-07T10:44:22Z</time>
      </trkpt>
      <trkpt lat="46.75278" lon="5.65581">
        <ele>523.58</ele>
        <time>2016-06-07T10:44:30Z</time>
      </trkpt>
      <trkpt lat="46.75266" lon="5.65582">
        <ele>523.09</ele>
        <time>2016-06-07T10:44:41Z</time>
      </trkpt>
      <trkpt lat="46.75258" lon="5.65577">
        <ele>523.58</ele>
        <time>2016-06-07T10:44:51Z</time>
      </trkpt>
      <trkpt lat="46.75243" lon="5.65573">
        <ele>527.42</ele>
        <time>2016-06-07T10:45:00Z</time>
      </trkpt>
      <trkpt lat="46.75238" lon="5.65571">
        <ele>527.42</ele>
        <time>2016-06-07T10:45:04Z</time>
      </trkpt>
      <trkpt lat="46.75228" lon="5.65565">
        <ele>527.9</ele>
        <time>2016-06-07T10:45:14Z</time>
      </trkpt>
      <trkpt lat="46.75224" lon="5.65563">
        <ele>528.86</ele>
        <time>2016-06-07T10:45:18Z</time>
      </trkpt>
      <trkpt lat="46.75212" lon="5.65557">
        <ele>532.71</ele>
        <time>2016-06-07T10:45:28Z</time>
      </trkpt>
      <trkpt lat="46.75203" lon="5.65553">
        <ele>532.71</ele>
        <time>2016-06-07T10:45:40Z</time>
      </trkpt>
      <trkpt lat="46.75196" lon="5.6555">
        <ele>534.15</ele>
        <time>2016-06-07T10:45:50Z</time>
      </trkpt>
      <trkpt lat="46.7518" lon="5.65546">
        <ele>534.63</ele>
        <time>2016-06-07T10:46:02Z</time>
      </trkpt>
      <trkpt lat="46.7517" lon="5.65545">
        <ele>534.15</ele>
        <time>2016-06-07T10:46:12Z</time>
      </trkpt>
      <trkpt lat="46.75158" lon="5.65541">
        <ele>534.63</ele>
        <time>2016-06-07T10:46:25Z</time>
      </trkpt>
      <trkpt lat="46.75149" lon="5.65541">
        <ele>533.67</ele>
        <time>2016-06-07T10:46:34Z</time>
      </trkpt>
      <trkpt lat="46.75144" lon="5.65539">
        <ele>532.23</ele>
        <time>2016-06-07T10:46:43Z</time>
      </trkpt>
      <trkpt lat="46.75136" lon="5.65531">
        <ele>528.38</ele>
        <time>2016-06-07T10:46:57Z</time>
      </trkpt>
      <trkpt lat="46.75132" lon="5.65527">
        <ele>526.94</ele>
        <time>2016-06-07T10:47:07Z</time>
      </trkpt>
      <trkpt lat="46.75121" lon="5.65524">
        <ele>526.46</ele>
        <time>2016-06-07T10:47:18Z</time>
      </trkpt>
      <trkpt lat="46.75109" lon="5.6552">
        <ele>527.9</ele>
        <time>2016-06-07T10:47:29Z</time>
      </trkpt>
      <trkpt lat="46.75093" lon="5.65521">
        <ele>529.34</ele>
        <time>2016-06-07T10:47:41Z</time>
      </trkpt>
      <trkpt lat="46.75077" lon="5.65513">
        <ele>530.3</ele>
        <time>2016-06-07T10:47:53Z</time>
      </trkpt>
      <trkpt lat="46.75069" lon="5.65509">
        <ele>530.79</ele>
        <time>2016-06-07T10:48:04Z</time>
      </trkpt>
      <trkpt lat="46.75057" lon="5.65501">
        <ele>531.75</ele>
        <time>2016-06-07T10:48:14Z</time>
      </trkpt>
      <trkpt lat="46.75043" lon="5.65492">
        <ele>531.75</ele>
        <time>2016-06-07T10:48:27Z</time>
      </trkpt>
      <trkpt lat="46.75029" lon="5.65484">
        <ele>534.63</ele>
        <time>2016-06-07T10:48:36Z</time>
      </trkpt>
      <trkpt lat="46.75022" lon="5.65482">
        <ele>532.71</ele>
        <time>2016-06-07T10:48:46Z</time>
      </trkpt>
      <trkpt lat="46.75013" lon="5.65475">
        <ele>531.27</ele>
        <time>2016-06-07T10:48:57Z</time>
      </trkpt>
      <trkpt lat="46.75" lon="5.65464">
        <ele>529.82</ele>
        <time>2016-06-07T10:49:07Z</time>
      </trkpt>
      <trkpt lat="46.74987" lon="5.65451">
        <ele>528.86</ele>
        <time>2016-06-07T10:49:20Z</time>
      </trkpt>
      <trkpt lat="46.74984" lon="5.65447">
        <ele>527.42</ele>
        <time>2016-06-07T10:49:29Z</time>
      </trkpt>
      <trkpt lat="46.74973" lon="5.6544">
        <ele>525.98</ele>
        <time>2016-06-07T10:49:42Z</time>
      </trkpt>
      <trkpt lat="46.74958" lon="5.65431">
        <ele>527.42</ele>
        <time>2016-06-07T10:49:55Z</time>
      </trkpt>
      <trkpt lat="46.74951" lon="5.65426">
        <ele>526.94</ele>
        <time>2016-06-07T10:50:04Z</time>
      </trkpt>
      <trkpt lat="46.7494" lon="5.65418">
        <ele>523.58</ele>
        <time>2016-06-07T10:50:16Z</time>
      </trkpt>
      <trkpt lat="46.74929" lon="5.65412">
        <ele>522.13</ele>
        <time>2016-06-07T10:50:28Z</time>
      </trkpt>
      <trkpt lat="46.74922" lon="5.65409">
        <ele>521.17</ele>
        <time>2016-06-07T10:50:39Z</time>
      </trkpt>
      <trkpt lat="46.74913" lon="5.65406">
        <ele>517.81</ele>
        <time>2016-06-07T10:50:53Z</time>
      </trkpt>
      <trkpt lat="46.74895" lon="5.65399">
        <ele>515.4</ele>
        <time>2016-06-07T10:51:06Z</time>
      </trkpt>
      <trkpt lat="46.74885" lon="5.65389">
        <ele>516.37</ele>
        <time>2016-06-07T10:51:15Z</time>
      </trkpt>
      <trkpt lat="46.74875" lon="5.65377">
        <ele>514.92</ele>
        <time>2016-06-07T10:51:26Z</time>
      </trkpt>
      <trkpt lat="46.74866" lon="5.65353">
        <ele>514.44</ele>
        <time>2016-06-07T10:51:38Z</time>
      </trkpt>
      <trkpt lat="46.74855" lon="5.65334">
        <ele>517.33</ele>
        <time>2016-06-07T10:51:49Z</time>
      </trkpt>
      <trkpt lat="46.74854" lon="5.65332">
        <ele>517.33</ele>
        <time>2016-06-07T10:51:51Z</time>
      </trkpt>
      <trkpt lat="46.74851" lon="5.65323">
        <ele>517.81</ele>
        <time>2016-06-07T10:51:56Z</time>
      </trkpt>
      <trkpt lat="46.74845" lon="5.65304">
        <ele>519.25</ele>
        <time>2016-06-07T10:52:09Z</time>
      </trkpt>
      <trkpt lat="46.74837" lon="5.65293">
        <ele>516.37</ele>
        <time>2016-06-07T10:52:22Z</time>
      </trkpt>
      <trkpt lat="46.74836" lon="5.6529">
        <ele>515.4</ele>
        <time>2016-06-07T10:52:26Z</time>
      </trkpt>
      <trkpt lat="46.74832" lon="5.65276">
        <ele>513.48</ele>
        <time>2016-06-07T10:52:36Z</time>
      </trkpt>
      <trkpt lat="46.74828" lon="5.65262">
        <ele>513</ele>
        <time>2016-06-07T10:52:48Z</time>
      </trkpt>
      <trkpt lat="46.74826" lon="5.6526">
        <ele>512.52</ele>
        <time>2016-06-07T10:52:50Z</time>
      </trkpt>
      <trkpt lat="46.74826" lon="5.65239">
        <ele>512.04</ele>
        <time>2016-06-07T10:53:01Z</time>
      </trkpt>
      <trkpt lat="46.74824" lon="5.6522">
        <ele>512.04</ele>
        <time>2016-06-07T10:53:11Z</time>
      </trkpt>
      <trkpt lat="46.74825" lon="5.65207">
        <ele>511.08</ele>
        <time>2016-06-07T10:53:18Z</time>
      </trkpt>
      <trkpt lat="46.74829" lon="5.6519">
        <ele>506.75</ele>
        <time>2016-06-07T10:53:28Z</time>
      </trkpt>
      <trkpt lat="46.74829" lon="5.65173">
        <ele>504.35</ele>
        <time>2016-06-07T10:53:38Z</time>
      </trkpt>
      <trkpt lat="46.74825" lon="5.65155">
        <ele>502.43</ele>
        <time>2016-06-07T10:53:50Z</time>
      </trkpt>
      <trkpt lat="46.74822" lon="5.65145">
        <ele>502.91</ele>
        <time>2016-06-07T10:53:55Z</time>
      </trkpt>
      <trkpt lat="46.74816" lon="5.65132">
        <ele>504.35</ele>
        <time>2016-06-07T10:54:07Z</time>
      </trkpt>
      <trkpt lat="46.74812" lon="5.65121">
        <ele>503.87</ele>
        <time>2016-06-07T10:54:17Z</time>
      </trkpt>
      <trkpt lat="46.74807" lon="5.65108">
        <ele>504.35</ele>
        <time>2016-06-07T10:54:28Z</time>
      </trkpt>
      <trkpt lat="46.74805" lon="5.65102">
        <ele>504.83</ele>
        <time>2016-06-07T10:54:33Z</time>
      </trkpt>
      <trkpt lat="46.74803" lon="5.65089">
        <ele>503.39</ele>
        <time>2016-06-07T10:54:42Z</time>
      </trkpt>
      <trkpt lat="46.748" lon="5.65075">
        <ele>501.46</ele>
        <time>2016-06-07T10:54:52Z</time>
      </trkpt>
      <trkpt lat="46.74799" lon="5.65069">
        <ele>500.02</ele>
        <time>2016-06-07T10:55:05Z</time>
      </trkpt>
      <trkpt lat="46.74794" lon="5.65065">
        <ele>494.26</ele>
        <time>2016-06-07T10:55:16Z</time>
      </trkpt>
      <trkpt lat="46.74782" lon="5.65065">
        <ele>489.93</ele>
        <time>2016-06-07T10:55:29Z</time>
      </trkpt>
      <trkpt lat="46.74775" lon="5.65066">
        <ele>483.68</ele>
        <time>2016-06-07T10:55:39Z</time>
      </trkpt>
      <trkpt lat="46.74764" lon="5.65059">
        <ele>480.32</ele>
        <time>2016-06-07T10:55:49Z</time>
      </trkpt>
      <trkpt lat="46.74751" lon="5.65054">
        <ele>480.8</ele>
        <time>2016-06-07T10:56:00Z</time>
      </trkpt>
      <trkpt lat="46.74741" lon="5.65043">
        <ele>483.2</ele>
        <time>2016-06-07T10:56:11Z</time>
      </trkpt>
      <trkpt lat="46.7473" lon="5.65036">
        <ele>488.49</ele>
        <time>2016-06-07T10:56:21Z</time>
      </trkpt>
      <trkpt lat="46.74723" lon="5.65029">
        <ele>490.89</ele>
        <time>2016-06-07T10:56:26Z</time>
      </trkpt>
      <trkpt lat="46.74711" lon="5.65016">
        <ele>489.45</ele>
        <time>2016-06-07T10:56:40Z</time>
      </trkpt>
      <trkpt lat="46.74706" lon="5.6501">
        <ele>489.93</ele>
        <time>2016-06-07T10:56:51Z</time>
      </trkpt>
      <trkpt lat="46.74696" lon="5.64999">
        <ele>489.93</ele>
        <time>2016-06-07T10:57:03Z</time>
      </trkpt>
      <trkpt lat="46.74691" lon="5.64994">
        <ele>490.89</ele>
        <time>2016-06-07T10:57:16Z</time>
      </trkpt>
      <trkpt lat="46.7469" lon="5.64986">
        <ele>492.81</ele>
        <time>2016-06-07T10:57:37Z</time>
      </trkpt>
      <trkpt lat="46.74686" lon="5.64982">
        <ele>494.74</ele>
        <time>2016-06-07T10:57:49Z</time>
      </trkpt>
      <trkpt lat="46.74685" lon="5.64983">
        <ele>496.18</ele>
        <time>2016-06-07T10:58:15Z</time>
      </trkpt>
      <trkpt lat="46.74685" lon="5.64984">
        <ele>497.14</ele>
        <time>2016-06-07T10:58:32Z</time>
      </trkpt>
      <trkpt lat="46.74684" lon="5.64984">
        <ele>498.1</ele>
        <time>2016-06-07T10:58:47Z</time>
      </trkpt>
      <trkpt lat="46.74684" lon="5.64984">
        <ele>498.58</ele>
        <time>2016-06-07T10:59:12Z</time>
      </trkpt>
      <trkpt lat="46.74684" lon="5.64985">
        <ele>498.1</ele>
        <time>2016-06-07T10:59:33Z</time>
      </trkpt>
      <trkpt lat="46.74684" lon="5.64985">
        <ele>498.1</ele>
        <time>2016-06-07T11:00:01Z</time>
      </trkpt>
      <trkpt lat="46.74683" lon="5.64985">
        <ele>498.1</ele>
        <time>2016-06-07T11:00:30Z</time>
      </trkpt>
      <trkpt lat="46.74683" lon="5.64985">
        <ele>497.62</ele>
        <time>2016-06-07T11:00:58Z</time>
      </trkpt>
      <trkpt lat="46.74683" lon="5.64984">
        <ele>496.66</ele>
        <time>2016-06-07T11:01:21Z</time>
      </trkpt>
      <trkpt lat="46.74687" lon="5.6499">
        <ele>494.74</ele>
        <time>2016-06-07T11:01:32Z</time>
      </trkpt>
      <trkpt lat="46.74689" lon="5.64992">
        <ele>493.77</ele>
        <time>2016-06-07T11:01:35Z</time>
      </trkpt>
      <trkpt lat="46.74697" lon="5.65001">
        <ele>488.97</ele>
        <time>2016-06-07T11:01:49Z</time>
      </trkpt>
      <trkpt lat="46.74702" lon="5.65009">
        <ele>487.53</ele>
        <time>2016-06-07T11:01:59Z</time>
      </trkpt>
      <trkpt lat="46.74704" lon="5.65011">
        <ele>487.05</ele>
        <time>2016-06-07T11:02:01Z</time>
      </trkpt>
      <trkpt lat="46.74714" lon="5.65019">
        <ele>486.08</ele>
        <time>2016-06-07T11:02:14Z</time>
      </trkpt>
      <trkpt lat="46.7472" lon="5.65024">
        <ele>488.49</ele>
        <time>2016-06-07T11:02:25Z</time>
      </trkpt>
      <trkpt lat="46.7473" lon="5.65034">
        <ele>493.77</ele>
        <time>2016-06-07T11:02:35Z</time>
      </trkpt>
      <trkpt lat="46.74737" lon="5.65037">
        <ele>496.18</ele>
        <time>2016-06-07T11:02:41Z</time>
      </trkpt>
      <trkpt lat="46.74742" lon="5.6504">
        <ele>496.66</ele>
        <time>2016-06-07T11:02:45Z</time>
      </trkpt>
      <trkpt lat="46.74751" lon="5.65044">
        <ele>499.06</ele>
        <time>2016-06-07T11:02:57Z</time>
      </trkpt>
      <trkpt lat="46.74762" lon="5.65049">
        <ele>499.06</ele>
        <time>2016-06-07T11:03:08Z</time>
      </trkpt>
      <trkpt lat="46.74766" lon="5.6505">
        <ele>499.54</ele>
        <time>2016-06-07T11:03:15Z</time>
      </trkpt>
      <trkpt lat="46.7478" lon="5.65055">
        <ele>498.58</ele>
        <time>2016-06-07T11:03:25Z</time>
      </trkpt>
      <trkpt lat="46.74786" lon="5.65056">
        <ele>498.58</ele>
        <time>2016-06-07T11:03:37Z</time>
      </trkpt>
      <trkpt lat="46.74795" lon="5.65061">
        <ele>499.54</ele>
        <time>2016-06-07T11:03:48Z</time>
      </trkpt>
      <trkpt lat="46.74797" lon="5.65068">
        <ele>500.5</ele>
        <time>2016-06-07T11:03:57Z</time>
      </trkpt>
      <trkpt lat="46.74805" lon="5.65087">
        <ele>503.39</ele>
        <time>2016-06-07T11:04:11Z</time>
      </trkpt>
      <trkpt lat="46.74808" lon="5.65104">
        <ele>502.91</ele>
        <time>2016-06-07T11:04:23Z</time>
      </trkpt>
      <trkpt lat="46.74813" lon="5.65116">
        <ele>501.46</ele>
        <time>2016-06-07T11:04:30Z</time>
      </trkpt>
      <trkpt lat="46.74823" lon="5.65129">
        <ele>500.98</ele>
        <time>2016-06-07T11:04:42Z</time>
      </trkpt>
      <trkpt lat="46.74825" lon="5.65137">
        <ele>500.5</ele>
        <time>2016-06-07T11:04:51Z</time>
      </trkpt>
      <trkpt lat="46.74827" lon="5.65153">
        <ele>500.5</ele>
        <time>2016-06-07T11:05:02Z</time>
      </trkpt>
      <trkpt lat="46.74829" lon="5.65174">
        <ele>501.95</ele>
        <time>2016-06-07T11:05:15Z</time>
      </trkpt>
      <trkpt lat="46.74826" lon="5.65197">
        <ele>503.39</ele>
        <time>2016-06-07T11:05:29Z</time>
      </trkpt>
      <trkpt lat="46.74826" lon="5.65205">
        <ele>504.35</ele>
        <time>2016-06-07T11:05:33Z</time>
      </trkpt>
      <trkpt lat="46.74821" lon="5.65221">
        <ele>502.43</ele>
        <time>2016-06-07T11:05:46Z</time>
      </trkpt>
      <trkpt lat="46.74828" lon="5.6524">
        <ele>504.35</ele>
        <time>2016-06-07T11:06:00Z</time>
      </trkpt>
      <trkpt lat="46.74833" lon="5.65263">
        <ele>505.79</ele>
        <time>2016-06-07T11:06:13Z</time>
      </trkpt>
      <trkpt lat="46.74839" lon="5.65282">
        <ele>506.27</ele>
        <time>2016-06-07T11:06:28Z</time>
      </trkpt>
      <trkpt lat="46.74843" lon="5.65292">
        <ele>508.67</ele>
        <time>2016-06-07T11:06:33Z</time>
      </trkpt>
      <trkpt lat="46.74847" lon="5.65307">
        <ele>511.08</ele>
        <time>2016-06-07T11:06:44Z</time>
      </trkpt>
      <trkpt lat="46.74849" lon="5.65319">
        <ele>509.64</ele>
        <time>2016-06-07T11:06:55Z</time>
      </trkpt>
      <trkpt lat="46.74851" lon="5.65324">
        <ele>508.19</ele>
        <time>2016-06-07T11:07:00Z</time>
      </trkpt>
      <trkpt lat="46.74854" lon="5.65329">
        <ele>507.71</ele>
        <time>2016-06-07T11:07:04Z</time>
      </trkpt>
      <trkpt lat="46.74861" lon="5.65348">
        <ele>504.83</ele>
        <time>2016-06-07T11:07:18Z</time>
      </trkpt>
      <trkpt lat="46.74865" lon="5.65361">
        <ele>505.31</ele>
        <time>2016-06-07T11:07:27Z</time>
      </trkpt>
      <trkpt lat="46.7487" lon="5.6537">
        <ele>505.79</ele>
        <time>2016-06-07T11:07:36Z</time>
      </trkpt>
      <trkpt lat="46.74876" lon="5.65378">
        <ele>508.19</ele>
        <time>2016-06-07T11:07:45Z</time>
      </trkpt>
      <trkpt lat="46.74887" lon="5.65387">
        <ele>511.56</ele>
        <time>2016-06-07T11:07:58Z</time>
      </trkpt>
      <trkpt lat="46.7489" lon="5.6539">
        <ele>511.08</ele>
        <time>2016-06-07T11:08:08Z</time>
      </trkpt>
      <trkpt lat="46.74901" lon="5.65393">
        <ele>512.04</ele>
        <time>2016-06-07T11:08:19Z</time>
      </trkpt>
      <trkpt lat="46.74913" lon="5.65399">
        <ele>513.96</ele>
        <time>2016-06-07T11:08:32Z</time>
      </trkpt>
      <trkpt lat="46.74915" lon="5.654">
        <ele>514.44</ele>
        <time>2016-06-07T11:08:34Z</time>
      </trkpt>
      <trkpt lat="46.74923" lon="5.65405">
        <ele>514.92</ele>
        <time>2016-06-07T11:08:45Z</time>
      </trkpt>
      <trkpt lat="46.74932" lon="5.65412">
        <ele>517.33</ele>
        <time>2016-06-07T11:08:55Z</time>
      </trkpt>
      <trkpt lat="46.74942" lon="5.6542">
        <ele>519.73</ele>
        <time>2016-06-07T11:09:06Z</time>
      </trkpt>
      <trkpt lat="46.74948" lon="5.65424">
        <ele>519.73</ele>
        <time>2016-06-07T11:09:17Z</time>
      </trkpt>
      <trkpt lat="46.74949" lon="5.65425">
        <ele>519.73</ele>
        <time>2016-06-07T11:09:20Z</time>
      </trkpt>
      <trkpt lat="46.74966" lon="5.65433">
        <ele>520.69</ele>
        <time>2016-06-07T11:09:33Z</time>
      </trkpt>
      <trkpt lat="46.7499" lon="5.65448">
        <ele>526.46</ele>
        <time>2016-06-07T11:09:49Z</time>
      </trkpt>
      <trkpt lat="46.75001" lon="5.6546">
        <ele>525.02</ele>
        <time>2016-06-07T11:10:02Z</time>
      </trkpt>
      <trkpt lat="46.7501" lon="5.65468">
        <ele>529.34</ele>
        <time>2016-06-07T11:10:13Z</time>
      </trkpt>
      <trkpt lat="46.75019" lon="5.65477">
        <ele>532.23</ele>
        <time>2016-06-07T11:10:26Z</time>
      </trkpt>
      <trkpt lat="46.75026" lon="5.65481">
        <ele>533.19</ele>
        <time>2016-06-07T11:10:36Z</time>
      </trkpt>
      <trkpt lat="46.75035" lon="5.65485">
        <ele>534.63</ele>
        <time>2016-06-07T11:10:47Z</time>
      </trkpt>
      <trkpt lat="46.75042" lon="5.6549">
        <ele>533.19</ele>
        <time>2016-06-07T11:11:00Z</time>
      </trkpt>
      <trkpt lat="46.75055" lon="5.65498">
        <ele>532.23</ele>
        <time>2016-06-07T11:11:10Z</time>
      </trkpt>
      <trkpt lat="46.75072" lon="5.65505">
        <ele>530.79</ele>
        <time>2016-06-07T11:11:24Z</time>
      </trkpt>
      <trkpt lat="46.75083" lon="5.65507">
        <ele>530.79</ele>
        <time>2016-06-07T11:11:39Z</time>
      </trkpt>
      <trkpt lat="46.751" lon="5.65506">
        <ele>532.71</ele>
        <time>2016-06-07T11:11:52Z</time>
      </trkpt>
      <trkpt lat="46.7511" lon="5.65509">
        <ele>534.15</ele>
        <time>2016-06-07T11:12:03Z</time>
      </trkpt>
      <trkpt lat="46.75121" lon="5.65517">
        <ele>535.59</ele>
        <time>2016-06-07T11:12:15Z</time>
      </trkpt>
      <trkpt lat="46.75132" lon="5.65528">
        <ele>531.75</ele>
        <time>2016-06-07T11:12:28Z</time>
      </trkpt>
      <trkpt lat="46.75136" lon="5.65532">
        <ele>531.27</ele>
        <time>2016-06-07T11:12:33Z</time>
      </trkpt>
      <trkpt lat="46.75145" lon="5.65535">
        <ele>528.86</ele>
        <time>2016-06-07T11:12:44Z</time>
      </trkpt>
      <trkpt lat="46.75154" lon="5.65535">
        <ele>527.42</ele>
        <time>2016-06-07T11:12:52Z</time>
      </trkpt>
      <trkpt lat="46.75165" lon="5.65537">
        <ele>526.46</ele>
        <time>2016-06-07T11:13:04Z</time>
      </trkpt>
      <trkpt lat="46.75166" lon="5.65537">
        <ele>526.46</ele>
        <time>2016-06-07T11:13:05Z</time>
      </trkpt>
      <trkpt lat="46.75181" lon="5.65539">
        <ele>525.98</ele>
        <time>2016-06-07T11:13:16Z</time>
      </trkpt>
      <trkpt lat="46.75188" lon="5.65548">
        <ele>525.5</ele>
        <time>2016-06-07T11:13:28Z</time>
      </trkpt>
      <trkpt lat="46.75195" lon="5.65552">
        <ele>525.02</ele>
        <time>2016-06-07T11:13:36Z</time>
      </trkpt>
      <trkpt lat="46.75213" lon="5.65558">
        <ele>524.06</ele>
        <time>2016-06-07T11:13:48Z</time>
      </trkpt>
      <trkpt lat="46.75224" lon="5.65566">
        <ele>523.09</ele>
        <time>2016-06-07T11:13:59Z</time>
      </trkpt>
      <trkpt lat="46.75228" lon="5.65567">
        <ele>522.13</ele>
        <time>2016-06-07T11:14:04Z</time>
      </trkpt>
      <trkpt lat="46.7524" lon="5.65575">
        <ele>519.73</ele>
        <time>2016-06-07T11:14:16Z</time>
      </trkpt>
      <trkpt lat="46.75251" lon="5.65579">
        <ele>520.21</ele>
        <time>2016-06-07T11:14:26Z</time>
      </trkpt>
      <trkpt lat="46.75267" lon="5.65579">
        <ele>521.65</ele>
        <time>2016-06-07T11:14:38Z</time>
      </trkpt>
      <trkpt lat="46.75281" lon="5.65573">
        <ele>524.54</ele>
        <time>2016-06-07T11:14:48Z</time>
      </trkpt>
      <trkpt lat="46.7529" lon="5.65567">
        <ele>526.46</ele>
        <time>2016-06-07T11:14:55Z</time>
      </trkpt>
      <trkpt lat="46.75304" lon="5.65565">
        <ele>528.38</ele>
        <time>2016-06-07T11:15:07Z</time>
      </trkpt>
      <trkpt lat="46.75313" lon="5.65568">
        <ele>528.86</ele>
        <time>2016-06-07T11:15:17Z</time>
      </trkpt>
      <trkpt lat="46.75324" lon="5.65573">
        <ele>528.38</ele>
        <time>2016-06-07T11:15:28Z</time>
      </trkpt>
      <trkpt lat="46.75334" lon="5.65579">
        <ele>527.42</ele>
        <time>2016-06-07T11:15:40Z</time>
      </trkpt>
      <trkpt lat="46.7535" lon="5.6558">
        <ele>526.46</ele>
        <time>2016-06-07T11:15:52Z</time>
      </trkpt>
      <trkpt lat="46.7536" lon="5.65578">
        <ele>526.94</ele>
        <time>2016-06-07T11:16:02Z</time>
      </trkpt>
      <trkpt lat="46.75368" lon="5.65572">
        <ele>525.5</ele>
        <time>2016-06-07T11:16:14Z</time>
      </trkpt>
      <trkpt lat="46.7537" lon="5.65566">
        <ele>522.13</ele>
        <time>2016-06-07T11:16:24Z</time>
      </trkpt>
      <trkpt lat="46.7538" lon="5.65566">
        <ele>523.58</ele>
        <time>2016-06-07T11:16:36Z</time>
      </trkpt>
      <trkpt lat="46.75391" lon="5.65576">
        <ele>524.06</ele>
        <time>2016-06-07T11:16:48Z</time>
      </trkpt>
      <trkpt lat="46.75397" lon="5.65593">
        <ele>523.58</ele>
        <time>2016-06-07T11:16:59Z</time>
      </trkpt>
      <trkpt lat="46.754" lon="5.6561">
        <ele>524.54</ele>
        <time>2016-06-07T11:17:11Z</time>
      </trkpt>
      <trkpt lat="46.75405" lon="5.65634">
        <ele>529.82</ele>
        <time>2016-06-07T11:17:24Z</time>
      </trkpt>
      <trkpt lat="46.75409" lon="5.65646">
        <ele>532.23</ele>
        <time>2016-06-07T11:17:34Z</time>
      </trkpt>
      <trkpt lat="46.75412" lon="5.65659">
        <ele>530.79</ele>
        <time>2016-06-07T11:17:46Z</time>
      </trkpt>
      <trkpt lat="46.75413" lon="5.65671">
        <ele>530.3</ele>
        <time>2016-06-07T11:17:53Z</time>
      </trkpt>
      <trkpt lat="46.75414" lon="5.65677">
        <ele>530.79</ele>
        <time>2016-06-07T11:17:55Z</time>
      </trkpt>
      <trkpt lat="46.75411" lon="5.65701">
        <ele>529.82</ele>
        <time>2016-06-07T11:18:08Z</time>
      </trkpt>
      <trkpt lat="46.75411" lon="5.65724">
        <ele>531.75</ele>
        <time>2016-06-07T11:18:20Z</time>
      </trkpt>
      <trkpt lat="46.7541" lon="5.65727">
        <ele>531.75</ele>
        <time>2016-06-07T11:18:22Z</time>
      </trkpt>
      <trkpt lat="46.75409" lon="5.65751">
        <ele>532.71</ele>
        <time>2016-06-07T11:18:35Z</time>
      </trkpt>
      <trkpt lat="46.75407" lon="5.65761">
        <ele>533.19</ele>
        <time>2016-06-07T11:18:41Z</time>
      </trkpt>
      <trkpt lat="46.754" lon="5.65781">
        <ele>532.71</ele>
        <time>2016-06-07T11:18:54Z</time>
      </trkpt>
      <trkpt lat="46.754" lon="5.65783">
        <ele>533.67</ele>
        <time>2016-06-07T11:18:56Z</time>
      </trkpt>
      <trkpt lat="46.75395" lon="5.65804">
        <ele>532.71</ele>
        <time>2016-06-07T11:19:09Z</time>
      </trkpt>
      <trkpt lat="46.75392" lon="5.65819">
        <ele>529.82</ele>
        <time>2016-06-07T11:19:19Z</time>
      </trkpt>
      <trkpt lat="46.75391" lon="5.65828">
        <ele>530.3</ele>
        <time>2016-06-07T11:19:25Z</time>
      </trkpt>
      <trkpt lat="46.75389" lon="5.65852">
        <ele>528.86</ele>
        <time>2016-06-07T11:19:38Z</time>
      </trkpt>
      <trkpt lat="46.7539" lon="5.6587">
        <ele>528.38</ele>
        <time>2016-06-07T11:19:50Z</time>
      </trkpt>
      <trkpt lat="46.75389" lon="5.65883">
        <ele>528.38</ele>
        <time>2016-06-07T11:20:00Z</time>
      </trkpt>
      <trkpt lat="46.7539" lon="5.65898">
        <ele>526.94</ele>
        <time>2016-06-07T11:20:11Z</time>
      </trkpt>
      <trkpt lat="46.75384" lon="5.65918">
        <ele>525.5</ele>
        <time>2016-06-07T11:20:23Z</time>
      </trkpt>
      <trkpt lat="46.75382" lon="5.65929">
        <ele>522.13</ele>
        <time>2016-06-07T11:20:35Z</time>
      </trkpt>
      <trkpt lat="46.75383" lon="5.65934">
        <ele>522.13</ele>
        <time>2016-06-07T11:20:38Z</time>
      </trkpt>
      <trkpt lat="46.75383" lon="5.65956">
        <ele>524.54</ele>
        <time>2016-06-07T11:20:52Z</time>
      </trkpt>
      <trkpt lat="46.75382" lon="5.65968">
        <ele>524.54</ele>
        <time>2016-06-07T11:20:57Z</time>
      </trkpt>
      <trkpt lat="46.75384" lon="5.66001">
        <ele>526.94</ele>
        <time>2016-06-07T11:21:13Z</time>
      </trkpt>
      <trkpt lat="46.75385" lon="5.66003">
        <ele>526.94</ele>
        <time>2016-06-07T11:21:14Z</time>
      </trkpt>
      <trkpt lat="46.75385" lon="5.66022">
        <ele>526.94</ele>
        <time>2016-06-07T11:21:26Z</time>
      </trkpt>
      <trkpt lat="46.75378" lon="5.66049">
        <ele>524.06</ele>
        <time>2016-06-07T11:21:43Z</time>
      </trkpt>
      <trkpt lat="46.75378" lon="5.6605">
        <ele>524.06</ele>
        <time>2016-06-07T11:21:44Z</time>
      </trkpt>
      <trkpt lat="46.75377" lon="5.66053">
        <ele>524.06</ele>
        <time>2016-06-07T11:21:46Z</time>
      </trkpt>
      <trkpt lat="46.75371" lon="5.66083">
        <ele>523.09</ele>
        <time>2016-06-07T11:22:00Z</time>
      </trkpt>
      <trkpt lat="46.75367" lon="5.66091">
        <ele>523.09</ele>
        <time>2016-06-07T11:22:08Z</time>
      </trkpt>
      <trkpt lat="46.75359" lon="5.66106">
        <ele>523.58</ele>
        <time>2016-06-07T11:22:19Z</time>
      </trkpt>
      <trkpt lat="46.7535" lon="5.6612">
        <ele>523.09</ele>
        <time>2016-06-07T11:22:32Z</time>
      </trkpt>
      <trkpt lat="46.75356" lon="5.66136">
        <ele>516.85</ele>
        <time>2016-06-07T11:22:44Z</time>
      </trkpt>
      <trkpt lat="46.75361" lon="5.66145">
        <ele>513.96</ele>
        <time>2016-06-07T11:22:56Z</time>
      </trkpt>
      <trkpt lat="46.75365" lon="5.66159">
        <ele>509.16</ele>
        <time>2016-06-07T11:23:10Z</time>
      </trkpt>
      <trkpt lat="46.75368" lon="5.66168">
        <ele>507.23</ele>
        <time>2016-06-07T11:23:24Z</time>
      </trkpt>
      <trkpt lat="46.75368" lon="5.66172">
        <ele>505.31</ele>
        <time>2016-06-07T11:23:30Z</time>
      </trkpt>
      <trkpt lat="46.75369" lon="5.66188">
        <ele>501.46</ele>
        <time>2016-06-07T11:23:42Z</time>
      </trkpt>
      <trkpt lat="46.7537" lon="5.66195">
        <ele>499.54</ele>
        <time>2016-06-07T11:23:54Z</time>
      </trkpt>
      <trkpt lat="46.75369" lon="5.66204">
        <ele>496.66</ele>
        <time>2016-06-07T11:24:04Z</time>
      </trkpt>
      <trkpt lat="46.75369" lon="5.66212">
        <ele>493.29</ele>
        <time>2016-06-07T11:24:13Z</time>
      </trkpt>
      <trkpt lat="46.75371" lon="5.66232">
        <ele>495.22</ele>
        <time>2016-06-07T11:24:24Z</time>
      </trkpt>
      <trkpt lat="46.75368" lon="5.66244">
        <ele>495.22</ele>
        <time>2016-06-07T11:24:35Z</time>
      </trkpt>
      <trkpt lat="46.75362" lon="5.66242">
        <ele>492.33</ele>
        <time>2016-06-07T11:24:48Z</time>
      </trkpt>
      <trkpt lat="46.75356" lon="5.66235">
        <ele>490.41</ele>
        <time>2016-06-07T11:24:59Z</time>
      </trkpt>
      <trkpt lat="46.75343" lon="5.66223">
        <ele>489.45</ele>
        <time>2016-06-07T11:25:14Z</time>
      </trkpt>
      <trkpt lat="46.75337" lon="5.6622">
        <ele>487.05</ele>
        <time>2016-06-07T11:25:27Z</time>
      </trkpt>
      <trkpt lat="46.75327" lon="5.66219">
        <ele>484.64</ele>
        <time>2016-06-07T11:25:40Z</time>
      </trkpt>
      <trkpt lat="46.75319" lon="5.66222">
        <ele>484.64</ele>
        <time>2016-06-07T11:25:51Z</time>
      </trkpt>
      <trkpt lat="46.75309" lon="5.6623">
        <ele>485.6</ele>
        <time>2016-06-07T11:26:07Z</time>
      </trkpt>
      <trkpt lat="46.75304" lon="5.66238">
        <ele>486.56</ele>
        <time>2016-06-07T11:26:19Z</time>
      </trkpt>
      <trkpt lat="46.75299" lon="5.66244">
        <ele>485.6</ele>
        <time>2016-06-07T11:26:34Z</time>
      </trkpt>
      <trkpt lat="46.75293" lon="5.66251">
        <ele>483.2</ele>
        <time>2016-06-07T11:26:46Z</time>
      </trkpt>
      <trkpt lat="46.75286" lon="5.66259">
        <ele>479.35</ele>
        <time>2016-06-07T11:26:56Z</time>
      </trkpt>
      <trkpt lat="46.75281" lon="5.66267">
        <ele>476.95</ele>
        <time>2016-06-07T11:27:05Z</time>
      </trkpt>
      <trkpt lat="46.75276" lon="5.66273">
        <ele>474.55</ele>
        <time>2016-06-07T11:27:16Z</time>
      </trkpt>
      <trkpt lat="46.75272" lon="5.66284">
        <ele>469.26</ele>
        <time>2016-06-07T11:27:27Z</time>
      </trkpt>
      <trkpt lat="46.7527" lon="5.66286">
        <ele>468.3</ele>
        <time>2016-06-07T11:27:29Z</time>
      </trkpt>
      <trkpt lat="46.75263" lon="5.66304">
        <ele>459.17</ele>
        <time>2016-06-07T11:27:41Z</time>
      </trkpt>
      <trkpt lat="46.75257" lon="5.66316">
        <ele>459.17</ele>
        <time>2016-06-07T11:27:51Z</time>
      </trkpt>
      <trkpt lat="46.75249" lon="5.66333">
        <ele>457.24</ele>
        <time>2016-06-07T11:28:05Z</time>
      </trkpt>
      <trkpt lat="46.75239" lon="5.66352">
        <ele>456.76</ele>
        <time>2016-06-07T11:28:21Z</time>
      </trkpt>
      <trkpt lat="46.75238" lon="5.66355">
        <ele>456.28</ele>
        <time>2016-06-07T11:28:25Z</time>
      </trkpt>
      <trkpt lat="46.75228" lon="5.66367">
        <ele>460.13</ele>
        <time>2016-06-07T11:28:38Z</time>
      </trkpt>
      <trkpt lat="46.7522" lon="5.66375">
        <ele>462.05</ele>
        <time>2016-06-07T11:28:54Z</time>
      </trkpt>
      <trkpt lat="46.7521" lon="5.66382">
        <ele>462.53</ele>
        <time>2016-06-07T11:29:08Z</time>
      </trkpt>
      <trkpt lat="46.75198" lon="5.66395">
        <ele>460.13</ele>
        <time>2016-06-07T11:29:22Z</time>
      </trkpt>
      <trkpt lat="46.7519" lon="5.66402">
        <ele>454.36</ele>
        <time>2016-06-07T11:29:36Z</time>
      </trkpt>
      <trkpt lat="46.75182" lon="5.66412">
        <ele>443.79</ele>
        <time>2016-06-07T11:29:50Z</time>
      </trkpt>
      <trkpt lat="46.75178" lon="5.66418">
        <ele>435.13</ele>
        <time>2016-06-07T11:30:02Z</time>
      </trkpt>
      <trkpt lat="46.75168" lon="5.66425">
        <ele>425.52</ele>
        <time>2016-06-07T11:30:16Z</time>
      </trkpt>
      <trkpt lat="46.75159" lon="5.6643">
        <ele>418.31</ele>
        <time>2016-06-07T11:30:28Z</time>
      </trkpt>
      <trkpt lat="46.75149" lon="5.66432">
        <ele>414.47</ele>
        <time>2016-06-07T11:30:42Z</time>
      </trkpt>
      <trkpt lat="46.75141" lon="5.66433">
        <ele>411.58</ele>
        <time>2016-06-07T11:30:54Z</time>
      </trkpt>
      <trkpt lat="46.75128" lon="5.66433">
        <ele>410.14</ele>
        <time>2016-06-07T11:31:05Z</time>
      </trkpt>
      <trkpt lat="46.75116" lon="5.66431">
        <ele>412.06</ele>
        <time>2016-06-07T11:31:17Z</time>
      </trkpt>
      <trkpt lat="46.75103" lon="5.66431">
        <ele>413.5</ele>
        <time>2016-06-07T11:31:32Z</time>
      </trkpt>
      <trkpt lat="46.75094" lon="5.66431">
        <ele>410.62</ele>
        <time>2016-06-07T11:31:42Z</time>
      </trkpt>
      <trkpt lat="46.75081" lon="5.66437">
        <ele>408.7</ele>
        <time>2016-06-07T11:31:55Z</time>
      </trkpt>
      <trkpt lat="46.75073" lon="5.6644">
        <ele>409.18</ele>
        <time>2016-06-07T11:32:08Z</time>
      </trkpt>
      <trkpt lat="46.75063" lon="5.66441">
        <ele>406.29</ele>
        <time>2016-06-07T11:32:22Z</time>
      </trkpt>
      <trkpt lat="46.75052" lon="5.66441">
        <ele>405.33</ele>
        <time>2016-06-07T11:32:35Z</time>
      </trkpt>
      <trkpt lat="46.75047" lon="5.66446">
        <ele>403.41</ele>
        <time>2016-06-07T11:32:49Z</time>
      </trkpt>
      <trkpt lat="46.75046" lon="5.66447">
        <ele>401.97</ele>
        <time>2016-06-07T11:32:58Z</time>
      </trkpt>
      <trkpt lat="46.75037" lon="5.66448">
        <ele>400.05</ele>
        <time>2016-06-07T11:33:10Z</time>
      </trkpt>
      <trkpt lat="46.75026" lon="5.66447">
        <ele>396.2</ele>
        <time>2016-06-07T11:33:24Z</time>
      </trkpt>
      <trkpt lat="46.75017" lon="5.66447">
        <ele>394.28</ele>
        <time>2016-06-07T11:33:37Z</time>
      </trkpt>
      <trkpt lat="46.75012" lon="5.66445">
        <ele>393.32</ele>
        <time>2016-06-07T11:33:46Z</time>
      </trkpt>
      <trkpt lat="46.75005" lon="5.66441">
        <ele>390.91</ele>
        <time>2016-06-07T11:33:59Z</time>
      </trkpt>
      <trkpt lat="46.74999" lon="5.66436">
        <ele>389.95</ele>
        <time>2016-06-07T11:34:13Z</time>
      </trkpt>
      <trkpt lat="46.74996" lon="5.66431">
        <ele>388.51</ele>
        <time>2016-06-07T11:34:27Z</time>
      </trkpt>
      <trkpt lat="46.74995" lon="5.66414">
        <ele>385.63</ele>
        <time>2016-06-07T11:34:40Z</time>
      </trkpt>
      <trkpt lat="46.74997" lon="5.66408">
        <ele>384.18</ele>
        <time>2016-06-07T11:34:46Z</time>
      </trkpt>
      <trkpt lat="46.75001" lon="5.66398">
        <ele>379.38</ele>
        <time>2016-06-07T11:34:56Z</time>
      </trkpt>
      <trkpt lat="46.75003" lon="5.66379">
        <ele>372.65</ele>
        <time>2016-06-07T11:35:09Z</time>
      </trkpt>
      <trkpt lat="46.75003" lon="5.66375">
        <ele>372.65</ele>
        <time>2016-06-07T11:35:12Z</time>
      </trkpt>
      <trkpt lat="46.75002" lon="5.66363">
        <ele>370.24</ele>
        <time>2016-06-07T11:35:24Z</time>
      </trkpt>
      <trkpt lat="46.74997" lon="5.66352">
        <ele>368.32</ele>
        <time>2016-06-07T11:35:36Z</time>
      </trkpt>
      <trkpt lat="46.74987" lon="5.66339">
        <ele>368.8</ele>
        <time>2016-06-07T11:35:52Z</time>
      </trkpt>
      <trkpt lat="46.74979" lon="5.66333">
        <ele>367.84</ele>
        <time>2016-06-07T11:36:07Z</time>
      </trkpt>
      <trkpt lat="46.74978" lon="5.66333">
        <ele>367.84</ele>
        <time>2016-06-07T11:36:08Z</time>
      </trkpt>
      <trkpt lat="46.74968" lon="5.66327">
        <ele>366.88</ele>
        <time>2016-06-07T11:36:22Z</time>
      </trkpt>
      <trkpt lat="46.74954" lon="5.66325">
        <ele>365.44</ele>
        <time>2016-06-07T11:36:36Z</time>
      </trkpt>
      <trkpt lat="46.74943" lon="5.6632">
        <ele>364.48</ele>
        <time>2016-06-07T11:36:50Z</time>
      </trkpt>
      <trkpt lat="46.74935" lon="5.66316">
        <ele>363.04</ele>
        <time>2016-06-07T11:37:02Z</time>
      </trkpt>
      <trkpt lat="46.74925" lon="5.66314">
        <ele>360.63</ele>
        <time>2016-06-07T11:37:17Z</time>
      </trkpt>
      <trkpt lat="46.74916" lon="5.66313">
        <ele>357.27</ele>
        <time>2016-06-07T11:37:32Z</time>
      </trkpt>
      <trkpt lat="46.74905" lon="5.66314">
        <ele>354.38</ele>
        <time>2016-06-07T11:37:45Z</time>
      </trkpt>
      <trkpt lat="46.74891" lon="5.66318">
        <ele>353.42</ele>
        <time>2016-06-07T11:37:58Z</time>
      </trkpt>
      <trkpt lat="46.74883" lon="5.66325">
        <ele>349.58</ele>
        <time>2016-06-07T11:38:10Z</time>
      </trkpt>
      <trkpt lat="46.74874" lon="5.66329">
        <ele>346.69</ele>
        <time>2016-06-07T11:38:20Z</time>
      </trkpt>
      <trkpt lat="46.74861" lon="5.66333">
        <ele>342.37</ele>
        <time>2016-06-07T11:38:33Z</time>
      </trkpt>
      <trkpt lat="46.74848" lon="5.66328">
        <ele>337.56</ele>
        <time>2016-06-07T11:38:45Z</time>
      </trkpt>
      <trkpt lat="46.74842" lon="5.66326">
        <ele>336.6</ele>
        <time>2016-06-07T11:38:51Z</time>
      </trkpt>
      <trkpt lat="46.74828" lon="5.66316">
        <ele>331.79</ele>
        <time>2016-06-07T11:39:06Z</time>
      </trkpt>
      <trkpt lat="46.74811" lon="5.66318">
        <ele>332.75</ele>
        <time>2016-06-07T11:39:22Z</time>
      </trkpt>
      <trkpt lat="46.74804" lon="5.66324">
        <ele>331.31</ele>
        <time>2016-06-07T11:39:33Z</time>
      </trkpt>
      <trkpt lat="46.74798" lon="5.66335">
        <ele>330.35</ele>
        <time>2016-06-07T11:39:42Z</time>
      </trkpt>
      <trkpt lat="46.74795" lon="5.6634">
        <ele>329.39</ele>
        <time>2016-06-07T11:39:46Z</time>
      </trkpt>
      <trkpt lat="46.74788" lon="5.66358">
        <ele>324.1</ele>
        <time>2016-06-07T11:39:59Z</time>
      </trkpt>
      <trkpt lat="46.74786" lon="5.66369">
        <ele>315.93</ele>
        <time>2016-06-07T11:40:10Z</time>
      </trkpt>
      <trkpt lat="46.74781" lon="5.6639">
        <ele>312.57</ele>
        <time>2016-06-07T11:40:24Z</time>
      </trkpt>
      <trkpt lat="46.74777" lon="5.66404">
        <ele>310.64</ele>
        <time>2016-06-07T11:40:36Z</time>
      </trkpt>
      <trkpt lat="46.74775" lon="5.66413">
        <ele>311.12</ele>
        <time>2016-06-07T11:40:42Z</time>
      </trkpt>
      <trkpt lat="46.7477" lon="5.66438">
        <ele>312.09</ele>
        <time>2016-06-07T11:40:57Z</time>
      </trkpt>
      <trkpt lat="46.74769" lon="5.66441">
        <ele>312.09</ele>
        <time>2016-06-07T11:40:59Z</time>
      </trkpt>
      <trkpt lat="46.74769" lon="5.66446">
        <ele>312.09</ele>
        <time>2016-06-07T11:41:02Z</time>
      </trkpt>
      <trkpt lat="46.74769" lon="5.66471">
        <ele>313.05</ele>
        <time>2016-06-07T11:41:17Z</time>
      </trkpt>
      <trkpt lat="46.74766" lon="5.66492">
        <ele>314.01</ele>
        <time>2016-06-07T11:41:31Z</time>
      </trkpt>
      <trkpt lat="46.74763" lon="5.66499">
        <ele>314.49</ele>
        <time>2016-06-07T11:41:36Z</time>
      </trkpt>
      <trkpt lat="46.74758" lon="5.66512">
        <ele>314.49</ele>
        <time>2016-06-07T11:41:45Z</time>
      </trkpt>
      <trkpt lat="46.74755" lon="5.66517">
        <ele>314.01</ele>
        <time>2016-06-07T11:41:49Z</time>
      </trkpt>
      <trkpt lat="46.74748" lon="5.66531">
        <ele>313.05</ele>
        <time>2016-06-07T11:42:01Z</time>
      </trkpt>
      <trkpt lat="46.74742" lon="5.66546">
        <ele>313.53</ele>
        <time>2016-06-07T11:42:12Z</time>
      </trkpt>
      <trkpt lat="46.74737" lon="5.66549">
        <ele>314.01</ele>
        <time>2016-06-07T11:42:24Z</time>
      </trkpt>
      <trkpt lat="46.74736" lon="5.66546">
        <ele>314.01</ele>
        <time>2016-06-07T11:42:37Z</time>
      </trkpt>
      <trkpt lat="46.74736" lon="5.66545">
        <ele>314.01</ele>
        <time>2016-06-07T11:42:51Z</time>
      </trkpt>
      <trkpt lat="46.74732" lon="5.66543">
        <ele>314.01</ele>
        <time>2016-06-07T11:43:07Z</time>
      </trkpt>
      <trkpt lat="46.74733" lon="5.66537">
        <ele>314.01</ele>
        <time>2016-06-07T11:43:16Z</time>
      </trkpt>
      <trkpt lat="46.74732" lon="5.66537">
        <ele>314.01</ele>
        <time>2016-06-07T11:43:47Z</time>
      </trkpt>
      <trkpt lat="46.74732" lon="5.66537">
        <ele>314.01</ele>
        <time>2016-06-07T11:43:48Z</time>
      </trkpt>
      <trkpt lat="46.74735" lon="5.66548">
        <ele>313.53</ele>
        <time>2016-06-07T11:43:59Z</time>
      </trkpt>
      <trkpt lat="46.74736" lon="5.66545">
        <ele>312.57</ele>
        <time>2016-06-07T11:44:07Z</time>
      </trkpt>
      <trkpt lat="46.74735" lon="5.66538">
        <ele>311.6</ele>
        <time>2016-06-07T11:44:18Z</time>
      </trkpt>
      <trkpt lat="46.74735" lon="5.66538">
        <ele>311.6</ele>
        <time>2016-06-07T11:44:37Z</time>
      </trkpt>
      <trkpt lat="46.74735" lon="5.6654">
        <ele>311.12</ele>
        <time>2016-06-07T11:44:59Z</time>
      </trkpt>
      <trkpt lat="46.74734" lon="5.6654">
        <ele>311.6</ele>
        <time>2016-06-07T11:45:14Z</time>
      </trkpt>
      <trkpt lat="46.74734" lon="5.6654">
        <ele>311.6</ele>
        <time>2016-06-07T11:45:34Z</time>
      </trkpt>
      <trkpt lat="46.74734" lon="5.6654">
        <ele>311.6</ele>
        <time>2016-06-07T11:46:00Z</time>
      </trkpt>
      <trkpt lat="46.74734" lon="5.66541">
        <ele>312.09</ele>
        <time>2016-06-07T11:46:27Z</time>
      </trkpt>
      <trkpt lat="46.74733" lon="5.66541">
        <ele>312.09</ele>
        <time>2016-06-07T11:46:55Z</time>
      </trkpt>
      <trkpt lat="46.74734" lon="5.66541">
        <ele>312.57</ele>
        <time>2016-06-07T11:47:18Z</time>
      </trkpt>
      <trkpt lat="46.74734" lon="5.66541">
        <ele>312.57</ele>
        <time>2016-06-07T11:47:30Z</time>
      </trkpt>
      <trkpt lat="46.74736" lon="5.66542">
        <ele>311.6</ele>
        <time>2016-06-07T11:47:47Z</time>
      </trkpt>
      <trkpt lat="46.74735" lon="5.6654">
        <ele>310.16</ele>
        <time>2016-06-07T11:47:57Z</time>
      </trkpt>
      <trkpt lat="46.74736" lon="5.6654">
        <ele>310.16</ele>
        <time>2016-06-07T11:48:16Z</time>
      </trkpt>
      <trkpt lat="46.74735" lon="5.66549">
        <ele>309.2</ele>
        <time>2016-06-07T11:48:29Z</time>
      </trkpt>
      <trkpt lat="46.74733" lon="5.66548">
        <ele>309.2</ele>
        <time>2016-06-07T11:48:48Z</time>
      </trkpt>
      <trkpt lat="46.74734" lon="5.66539">
        <ele>309.2</ele>
        <time>2016-06-07T11:48:59Z</time>
      </trkpt>
      <trkpt lat="46.74733" lon="5.66539">
        <ele>308.72</ele>
        <time>2016-06-07T11:49:15Z</time>
      </trkpt>
      <trkpt lat="46.74734" lon="5.66544">
        <ele>310.64</ele>
        <time>2016-06-07T11:49:27Z</time>
      </trkpt>
      <trkpt lat="46.74734" lon="5.66542">
        <ele>310.64</ele>
        <time>2016-06-07T11:49:41Z</time>
      </trkpt>
      <trkpt lat="46.74735" lon="5.66542">
        <ele>308.24</ele>
        <time>2016-06-07T11:49:53Z</time>
      </trkpt>
      <trkpt lat="46.74735" lon="5.66543">
        <ele>308.24</ele>
        <time>2016-06-07T11:50:09Z</time>
      </trkpt>
      <trkpt lat="46.74734" lon="5.66541">
        <ele>309.2</ele>
        <time>2016-06-07T11:50:20Z</time>
      </trkpt>
      <trkpt lat="46.74735" lon="5.66541">
        <ele>309.2</ele>
        <time>2016-06-07T11:50:32Z</time>
      </trkpt>
      <trkpt lat="46.74735" lon="5.6654">
        <ele>310.16</ele>
        <time>2016-06-07T11:50:47Z</time>
      </trkpt>
      <trkpt lat="46.74736" lon="5.6654">
        <ele>309.2</ele>
        <time>2016-06-07T11:51:01Z</time>
      </trkpt>
      <trkpt lat="46.74737" lon="5.66538">
        <ele>309.2</ele>
        <time>2016-06-07T11:51:17Z</time>
      </trkpt>
      <trkpt lat="46.74737" lon="5.66539">
        <ele>309.68</ele>
        <time>2016-06-07T11:51:28Z</time>
      </trkpt>
      <trkpt lat="46.74736" lon="5.66538">
        <ele>309.68</ele>
        <time>2016-06-07T11:51:41Z</time>
      </trkpt>
      <trkpt lat="46.74738" lon="5.66541">
        <ele>310.16</ele>
        <time>2016-06-07T11:51:54Z</time>
      </trkpt>
      <trkpt lat="46.74737" lon="5.6654">
        <ele>311.12</ele>
        <time>2016-06-07T11:52:04Z</time>
      </trkpt>
      <trkpt lat="46.74736" lon="5.66541">
        <ele>311.12</ele>
        <time>2016-06-07T11:52:18Z</time>
      </trkpt>
      <trkpt lat="46.74736" lon="5.66539">
        <ele>309.2</ele>
        <time>2016-06-07T11:52:38Z</time>
      </trkpt>
      <trkpt lat="46.74734" lon="5.66538">
        <ele>309.68</ele>
        <time>2016-06-07T11:52:49Z</time>
      </trkpt>
      <trkpt lat="46.74734" lon="5.66539">
        <ele>309.68</ele>
        <time>2016-06-07T11:53:05Z</time>
      </trkpt>
      <trkpt lat="46.74734" lon="5.66539">
        <ele>309.68</ele>
        <time>2016-06-07T11:53:25Z</time>
      </trkpt>
      <trkpt lat="46.74734" lon="5.66539">
        <ele>309.68</ele>
        <time>2016-06-07T11:53:46Z</time>
      </trkpt>
      <trkpt lat="46.7474" lon="5.66544">
        <ele>309.68</ele>
        <time>2016-06-07T11:53:57Z</time>
      </trkpt>
      <trkpt lat="46.74742" lon="5.66549">
        <ele>310.16</ele>
        <time>2016-06-07T11:54:01Z</time>
      </trkpt>
      <trkpt lat="46.74745" lon="5.66558">
        <ele>310.16</ele>
        <time>2016-06-07T11:54:07Z</time>
      </trkpt>
      <trkpt lat="46.74746" lon="5.66565">
        <ele>310.64</ele>
        <time>2016-06-07T11:54:12Z</time>
      </trkpt>
      <trkpt lat="46.74746" lon="5.66568">
        <ele>310.64</ele>
        <time>2016-06-07T11:54:14Z</time>
      </trkpt>
      <trkpt lat="46.74749" lon="5.66587">
        <ele>314.49</ele>
        <time>2016-06-07T11:54:26Z</time>
      </trkpt>
      <trkpt lat="46.74748" lon="5.66599">
        <ele>314.49</ele>
        <time>2016-06-07T11:54:33Z</time>
      </trkpt>
      <trkpt lat="46.74747" lon="5.66611">
        <ele>314.49</ele>
        <time>2016-06-07T11:54:42Z</time>
      </trkpt>
      <trkpt lat="46.74743" lon="5.66629">
        <ele>314.01</ele>
        <time>2016-06-07T11:54:55Z</time>
      </trkpt>
      <trkpt lat="46.74742" lon="5.66642">
        <ele>313.05</ele>
        <time>2016-06-07T11:55:05Z</time>
      </trkpt>
      <trkpt lat="46.74743" lon="5.66645">
        <ele>312.57</ele>
        <time>2016-06-07T11:55:08Z</time>
      </trkpt>
      <trkpt lat="46.74744" lon="5.66659">
        <ele>313.05</ele>
        <time>2016-06-07T11:55:16Z</time>
      </trkpt>
      <trkpt lat="46.74748" lon="5.66679">
        <ele>314.97</ele>
        <time>2016-06-07T11:55:28Z</time>
      </trkpt>
      <trkpt lat="46.74749" lon="5.66683">
        <ele>314.49</ele>
        <time>2016-06-07T11:55:30Z</time>
      </trkpt>
      <trkpt lat="46.74753" lon="5.66703">
        <ele>311.6</ele>
        <time>2016-06-07T11:55:43Z</time>
      </trkpt>
      <trkpt lat="46.74758" lon="5.6672">
        <ele>311.6</ele>
        <time>2016-06-07T11:55:55Z</time>
      </trkpt>
      <trkpt lat="46.74762" lon="5.66737">
        <ele>312.09</ele>
        <time>2016-06-07T11:56:07Z</time>
      </trkpt>
      <trkpt lat="46.74766" lon="5.66756">
        <ele>313.05</ele>
        <time>2016-06-07T11:56:19Z</time>
      </trkpt>
      <trkpt lat="46.7477" lon="5.66774">
        <ele>312.57</ele>
        <time>2016-06-07T11:56:32Z</time>
      </trkpt>
      <trkpt lat="46.74774" lon="5.66793">
        <ele>312.09</ele>
        <time>2016-06-07T11:56:44Z</time>
      </trkpt>
      <trkpt lat="46.74777" lon="5.66813">
        <ele>313.05</ele>
        <time>2016-06-07T11:56:56Z</time>
      </trkpt>
      <trkpt lat="46.74782" lon="5.66835">
        <ele>315.93</ele>
        <time>2016-06-07T11:57:09Z</time>
      </trkpt>
      <trkpt lat="46.74782" lon="5.66837">
        <ele>315.93</ele>
        <time>2016-06-07T11:57:10Z</time>
      </trkpt>
      <trkpt lat="46.74784" lon="5.66845">
        <ele>317.37</ele>
        <time>2016-06-07T11:57:15Z</time>
      </trkpt>
      <trkpt lat="46.74793" lon="5.66859">
        <ele>317.85</ele>
        <time>2016-06-07T11:57:27Z</time>
      </trkpt>
      <trkpt lat="46.74802" lon="5.66877">
        <ele>320.74</ele>
        <time>2016-06-07T11:57:41Z</time>
      </trkpt>
      <trkpt lat="46.74811" lon="5.66895">
        <ele>319.3</ele>
        <time>2016-06-07T11:57:55Z</time>
      </trkpt>
      <trkpt lat="46.74815" lon="5.66899">
        <ele>318.81</ele>
        <time>2016-06-07T11:58:01Z</time>
      </trkpt>
      <trkpt lat="46.74818" lon="5.66903">
        <ele>318.81</ele>
        <time>2016-06-07T11:58:04Z</time>
      </trkpt>
      <trkpt lat="46.74826" lon="5.66913">
        <ele>316.89</ele>
        <time>2016-06-07T11:58:14Z</time>
      </trkpt>
      <trkpt lat="46.74831" lon="5.66918">
        <ele>316.89</ele>
        <time>2016-06-07T11:58:20Z</time>
      </trkpt>
      <trkpt lat="46.74839" lon="5.66939">
        <ele>317.85</ele>
        <time>2016-06-07T11:58:34Z</time>
      </trkpt>
      <trkpt lat="46.74846" lon="5.66961">
        <ele>316.41</ele>
        <time>2016-06-07T11:58:49Z</time>
      </trkpt>
      <trkpt lat="46.74852" lon="5.66978">
        <ele>317.37</ele>
        <time>2016-06-07T11:59:01Z</time>
      </trkpt>
      <trkpt lat="46.74855" lon="5.66989">
        <ele>317.85</ele>
        <time>2016-06-07T11:59:07Z</time>
      </trkpt>
      <trkpt lat="46.74858" lon="5.66995">
        <ele>317.85</ele>
        <time>2016-06-07T11:59:12Z</time>
      </trkpt>
      <trkpt lat="46.74859" lon="5.67002">
        <ele>318.33</ele>
        <time>2016-06-07T11:59:21Z</time>
      </trkpt>
      <trkpt lat="46.74855" lon="5.67022">
        <ele>319.3</ele>
        <time>2016-06-07T11:59:34Z</time>
      </trkpt>
      <trkpt lat="46.74853" lon="5.67038">
        <ele>319.3</ele>
        <time>2016-06-07T11:59:44Z</time>
      </trkpt>
      <trkpt lat="46.74855" lon="5.67046">
        <ele>319.78</ele>
        <time>2016-06-07T11:59:49Z</time>
      </trkpt>
      <trkpt lat="46.74856" lon="5.6705">
        <ele>319.78</ele>
        <time>2016-06-07T11:59:53Z</time>
      </trkpt>
      <trkpt lat="46.74859" lon="5.67065">
        <ele>319.3</ele>
        <time>2016-06-07T12:00:02Z</time>
      </trkpt>
      <trkpt lat="46.74859" lon="5.67074">
        <ele>319.3</ele>
        <time>2016-06-07T12:00:07Z</time>
      </trkpt>
      <trkpt lat="46.74858" lon="5.67094">
        <ele>319.78</ele>
        <time>2016-06-07T12:00:20Z</time>
      </trkpt>
      <trkpt lat="46.74857" lon="5.67112">
        <ele>321.7</ele>
        <time>2016-06-07T12:00:31Z</time>
      </trkpt>
      <trkpt lat="46.74857" lon="5.67131">
        <ele>321.7</ele>
        <time>2016-06-07T12:00:44Z</time>
      </trkpt>
      <trkpt lat="46.74858" lon="5.67145">
        <ele>319.78</ele>
        <time>2016-06-07T12:00:55Z</time>
      </trkpt>
      <trkpt lat="46.74856" lon="5.67154">
        <ele>318.33</ele>
        <time>2016-06-07T12:01:03Z</time>
      </trkpt>
      <trkpt lat="46.74852" lon="5.67164">
        <ele>318.33</ele>
        <time>2016-06-07T12:01:16Z</time>
      </trkpt>
      <trkpt lat="46.74852" lon="5.67167">
        <ele>319.78</ele>
        <time>2016-06-07T12:01:26Z</time>
      </trkpt>
      <trkpt lat="46.74847" lon="5.67181">
        <ele>324.58</ele>
        <time>2016-06-07T12:01:36Z</time>
      </trkpt>
      <trkpt lat="46.74847" lon="5.67184">
        <ele>324.58</ele>
        <time>2016-06-07T12:01:38Z</time>
      </trkpt>
      <trkpt lat="46.74844" lon="5.67195">
        <ele>327.95</ele>
        <time>2016-06-07T12:01:46Z</time>
      </trkpt>
      <trkpt lat="46.7484" lon="5.67205">
        <ele>331.79</ele>
        <time>2016-06-07T12:01:55Z</time>
      </trkpt>
      <trkpt lat="46.74839" lon="5.67207">
        <ele>332.75</ele>
        <time>2016-06-07T12:01:57Z</time>
      </trkpt>
      <trkpt lat="46.74833" lon="5.67216">
        <ele>333.71</ele>
        <time>2016-06-07T12:02:08Z</time>
      </trkpt>
      <trkpt lat="46.74832" lon="5.67219">
        <ele>333.23</ele>
        <time>2016-06-07T12:02:13Z</time>
      </trkpt>
      <trkpt lat="46.74832" lon="5.67226">
        <ele>333.71</ele>
        <time>2016-06-07T12:02:21Z</time>
      </trkpt>
      <trkpt lat="46.74831" lon="5.67227">
        <ele>333.71</ele>
        <time>2016-06-07T12:02:22Z</time>
      </trkpt>
      <trkpt lat="46.7483" lon="5.67237">
        <ele>335.16</ele>
        <time>2016-06-07T12:02:34Z</time>
      </trkpt>
      <trkpt lat="46.74829" lon="5.67237">
        <ele>335.16</ele>
        <time>2016-06-07T12:02:46Z</time>
      </trkpt>
      <trkpt lat="46.74829" lon="5.67238">
        <ele>335.16</ele>
        <time>2016-06-07T12:02:49Z</time>
      </trkpt>
      <trkpt lat="46.74828" lon="5.67242">
        <ele>335.64</ele>
        <time>2016-06-07T12:02:56Z</time>
      </trkpt>
      <trkpt lat="46.74825" lon="5.67251">
        <ele>333.71</ele>
        <time>2016-06-07T12:03:08Z</time>
      </trkpt>
      <trkpt lat="46.74823" lon="5.67258">
        <ele>332.75</ele>
        <time>2016-06-07T12:03:20Z</time>
      </trkpt>
      <trkpt lat="46.74822" lon="5.67262">
        <ele>332.27</ele>
        <time>2016-06-07T12:03:33Z</time>
      </trkpt>
      <trkpt lat="46.74816" lon="5.67272">
        <ele>335.16</ele>
        <time>2016-06-07T12:03:46Z</time>
      </trkpt>
      <trkpt lat="46.74813" lon="5.67282">
        <ele>339</ele>
        <time>2016-06-07T12:03:57Z</time>
      </trkpt>
      <trkpt lat="46.7481" lon="5.67287">
        <ele>341.89</ele>
        <time>2016-06-07T12:04:07Z</time>
      </trkpt>
      <trkpt lat="46.74806" lon="5.67289">
        <ele>343.33</ele>
        <time>2016-06-07T12:04:18Z</time>
      </trkpt>
      <trkpt lat="46.74799" lon="5.67286">
        <ele>342.85</ele>
        <time>2016-06-07T12:04:32Z</time>
      </trkpt>
      <trkpt lat="46.74797" lon="5.67284">
        <ele>342.37</ele>
        <time>2016-06-07T12:04:44Z</time>
      </trkpt>
      <trkpt lat="46.74794" lon="5.67279">
        <ele>341.89</ele>
        <time>2016-06-07T12:04:56Z</time>
      </trkpt>
      <trkpt lat="46.74793" lon="5.67277">
        <ele>342.85</ele>
        <time>2016-06-07T12:05:07Z</time>
      </trkpt>
      <trkpt lat="46.74789" lon="5.67271">
        <ele>343.33</ele>
        <time>2016-06-07T12:05:21Z</time>
      </trkpt>
      <trkpt lat="46.74784" lon="5.67266">
        <ele>344.29</ele>
        <time>2016-06-07T12:05:33Z</time>
      </trkpt>
      <trkpt lat="46.74782" lon="5.67261">
        <ele>345.73</ele>
        <time>2016-06-07T12:05:47Z</time>
      </trkpt>
      <trkpt lat="46.74778" lon="5.67258">
        <ele>347.17</ele>
        <time>2016-06-07T12:06:03Z</time>
      </trkpt>
      <trkpt lat="46.74772" lon="5.67244">
        <ele>351.98</ele>
        <time>2016-06-07T12:06:17Z</time>
      </trkpt>
      <trkpt lat="46.74769" lon="5.67235">
        <ele>352.94</ele>
        <time>2016-06-07T12:06:33Z</time>
      </trkpt>
      <trkpt lat="46.74769" lon="5.67226">
        <ele>356.31</ele>
        <time>2016-06-07T12:06:45Z</time>
      </trkpt>
      <trkpt lat="46.74768" lon="5.6722">
        <ele>357.27</ele>
        <time>2016-06-07T12:07:01Z</time>
      </trkpt>
      <trkpt lat="46.74766" lon="5.67217">
        <ele>356.79</ele>
        <time>2016-06-07T12:07:16Z</time>
      </trkpt>
      <trkpt lat="46.7476" lon="5.67211">
        <ele>355.83</ele>
        <time>2016-06-07T12:07:32Z</time>
      </trkpt>
      <trkpt lat="46.74758" lon="5.6721">
        <ele>356.79</ele>
        <time>2016-06-07T12:07:47Z</time>
      </trkpt>
      <trkpt lat="46.74749" lon="5.67212">
        <ele>357.27</ele>
        <time>2016-06-07T12:08:01Z</time>
      </trkpt>
      <trkpt lat="46.74747" lon="5.67216">
        <ele>360.15</ele>
        <time>2016-06-07T12:08:22Z</time>
      </trkpt>
      <trkpt lat="46.74743" lon="5.67222">
        <ele>361.11</ele>
        <time>2016-06-07T12:08:32Z</time>
      </trkpt>
      <trkpt lat="46.74742" lon="5.67225">
        <ele>362.07</ele>
        <time>2016-06-07T12:08:47Z</time>
      </trkpt>
      <trkpt lat="46.7474" lon="5.67231">
        <ele>363.52</ele>
        <time>2016-06-07T12:09:01Z</time>
      </trkpt>
      <trkpt lat="46.74738" lon="5.67236">
        <ele>366.4</ele>
        <time>2016-06-07T12:09:12Z</time>
      </trkpt>
      <trkpt lat="46.7473" lon="5.67241">
        <ele>369.28</ele>
        <time>2016-06-07T12:09:26Z</time>
      </trkpt>
      <trkpt lat="46.74722" lon="5.67244">
        <ele>371.21</ele>
        <time>2016-06-07T12:09:40Z</time>
      </trkpt>
      <trkpt lat="46.74717" lon="5.67238">
        <ele>373.13</ele>
        <time>2016-06-07T12:09:54Z</time>
      </trkpt>
      <trkpt lat="46.74714" lon="5.67233">
        <ele>373.61</ele>
        <time>2016-06-07T12:10:10Z</time>
      </trkpt>
      <trkpt lat="46.74711" lon="5.6723">
        <ele>373.61</ele>
        <time>2016-06-07T12:10:21Z</time>
      </trkpt>
      <trkpt lat="46.74708" lon="5.67223">
        <ele>374.09</ele>
        <time>2016-06-07T12:10:35Z</time>
      </trkpt>
      <trkpt lat="46.74702" lon="5.67217">
        <ele>376.49</ele>
        <time>2016-06-07T12:10:47Z</time>
      </trkpt>
      <trkpt lat="46.74695" lon="5.67213">
        <ele>379.86</ele>
        <time>2016-06-07T12:10:59Z</time>
      </trkpt>
      <trkpt lat="46.74693" lon="5.67211">
        <ele>379.38</ele>
        <time>2016-06-07T12:11:13Z</time>
      </trkpt>
      <trkpt lat="46.7469" lon="5.6721">
        <ele>378.42</ele>
        <time>2016-06-07T12:11:27Z</time>
      </trkpt>
      <trkpt lat="46.74681" lon="5.67211">
        <ele>377.94</ele>
        <time>2016-06-07T12:11:38Z</time>
      </trkpt>
      <trkpt lat="46.74672" lon="5.67208">
        <ele>380.82</ele>
        <time>2016-06-07T12:11:50Z</time>
      </trkpt>
      <trkpt lat="46.74667" lon="5.67208">
        <ele>380.82</ele>
        <time>2016-06-07T12:11:59Z</time>
      </trkpt>
      <trkpt lat="46.74659" lon="5.67209">
        <ele>381.78</ele>
        <time>2016-06-07T12:12:13Z</time>
      </trkpt>
      <trkpt lat="46.74655" lon="5.6721">
        <ele>382.26</ele>
        <time>2016-06-07T12:12:29Z</time>
      </trkpt>
      <trkpt lat="46.7465" lon="5.6721">
        <ele>382.26</ele>
        <time>2016-06-07T12:12:37Z</time>
      </trkpt>
      <trkpt lat="46.74644" lon="5.67211">
        <ele>380.34</ele>
        <time>2016-06-07T12:12:52Z</time>
      </trkpt>
      <trkpt lat="46.74637" lon="5.67211">
        <ele>382.26</ele>
        <time>2016-06-07T12:13:04Z</time>
      </trkpt>
      <trkpt lat="46.74632" lon="5.6721">
        <ele>383.7</ele>
        <time>2016-06-07T12:13:18Z</time>
      </trkpt>
      <trkpt lat="46.74626" lon="5.6721">
        <ele>387.07</ele>
        <time>2016-06-07T12:13:32Z</time>
      </trkpt>
      <trkpt lat="46.74622" lon="5.67208">
        <ele>389.95</ele>
        <time>2016-06-07T12:13:48Z</time>
      </trkpt>
      <trkpt lat="46.74617" lon="5.67205">
        <ele>390.91</ele>
        <time>2016-06-07T12:14:02Z</time>
      </trkpt>
      <trkpt lat="46.74611" lon="5.67202">
        <ele>391.39</ele>
        <time>2016-06-07T12:14:15Z</time>
      </trkpt>
      <trkpt lat="46.74604" lon="5.67201">
        <ele>390.43</ele>
        <time>2016-06-07T12:14:25Z</time>
      </trkpt>
      <trkpt lat="46.74596" lon="5.6719">
        <ele>392.36</ele>
        <time>2016-06-07T12:14:37Z</time>
      </trkpt>
      <trkpt lat="46.74593" lon="5.67186">
        <ele>393.32</ele>
        <time>2016-06-07T12:14:41Z</time>
      </trkpt>
      <trkpt lat="46.74585" lon="5.67175">
        <ele>395.24</ele>
        <time>2016-06-07T12:14:54Z</time>
      </trkpt>
      <trkpt lat="46.74579" lon="5.67167">
        <ele>396.68</ele>
        <time>2016-06-07T12:15:08Z</time>
      </trkpt>
      <trkpt lat="46.74575" lon="5.67163">
        <ele>395.72</ele>
        <time>2016-06-07T12:15:18Z</time>
      </trkpt>
      <trkpt lat="46.74571" lon="5.67158">
        <ele>394.76</ele>
        <time>2016-06-07T12:15:32Z</time>
      </trkpt>
      <trkpt lat="46.74566" lon="5.67151">
        <ele>396.68</ele>
        <time>2016-06-07T12:15:41Z</time>
      </trkpt>
      <trkpt lat="46.74564" lon="5.67142">
        <ele>401.49</ele>
        <time>2016-06-07T12:15:50Z</time>
      </trkpt>
      <trkpt lat="46.74561" lon="5.67136">
        <ele>406.77</ele>
        <time>2016-06-07T12:16:03Z</time>
      </trkpt>
      <trkpt lat="46.74554" lon="5.67129">
        <ele>413.5</ele>
        <time>2016-06-07T12:16:15Z</time>
      </trkpt>
      <trkpt lat="46.74551" lon="5.67125">
        <ele>417.83</ele>
        <time>2016-06-07T12:16:29Z</time>
      </trkpt>
      <trkpt lat="46.7455" lon="5.67122">
        <ele>418.79</ele>
        <time>2016-06-07T12:16:44Z</time>
      </trkpt>
      <trkpt lat="46.74547" lon="5.6712">
        <ele>421.19</ele>
        <time>2016-06-07T12:16:59Z</time>
      </trkpt>
      <trkpt lat="46.74547" lon="5.6712">
        <ele>422.64</ele>
        <time>2016-06-07T12:17:21Z</time>
      </trkpt>
      <trkpt lat="46.74543" lon="5.67121">
        <ele>424.56</ele>
        <time>2016-06-07T12:17:36Z</time>
      </trkpt>
      <trkpt lat="46.74542" lon="5.67126">
        <ele>427.92</ele>
        <time>2016-06-07T12:17:45Z</time>
      </trkpt>
      <trkpt lat="46.74541" lon="5.67136">
        <ele>432.73</ele>
        <time>2016-06-07T12:17:59Z</time>
      </trkpt>
      <trkpt lat="46.74543" lon="5.67138">
        <ele>435.61</ele>
        <time>2016-06-07T12:18:16Z</time>
      </trkpt>
      <trkpt lat="46.74547" lon="5.67146">
        <ele>435.61</ele>
        <time>2016-06-07T12:18:29Z</time>
      </trkpt>
      <trkpt lat="46.74551" lon="5.67154">
        <ele>435.13</ele>
        <time>2016-06-07T12:18:47Z</time>
      </trkpt>
      <trkpt lat="46.74553" lon="5.6716">
        <ele>437.54</ele>
        <time>2016-06-07T12:19:02Z</time>
      </trkpt>
      <trkpt lat="46.74555" lon="5.67168">
        <ele>438.02</ele>
        <time>2016-06-07T12:19:15Z</time>
      </trkpt>
      <trkpt lat="46.74552" lon="5.67179">
        <ele>438.5</ele>
        <time>2016-06-07T12:19:32Z</time>
      </trkpt>
      <trkpt lat="46.74549" lon="5.67191">
        <ele>440.42</ele>
        <time>2016-06-07T12:19:46Z</time>
      </trkpt>
      <trkpt lat="46.74548" lon="5.67208">
        <ele>444.27</ele>
        <time>2016-06-07T12:19:59Z</time>
      </trkpt>
      <trkpt lat="46.74549" lon="5.67211">
        <ele>444.75</ele>
        <time>2016-06-07T12:20:16Z</time>
      </trkpt>
      <trkpt lat="46.7455" lon="5.67217">
        <ele>445.71</ele>
        <time>2016-06-07T12:20:27Z</time>
      </trkpt>
      <trkpt lat="46.7455" lon="5.67221">
        <ele>447.15</ele>
        <time>2016-06-07T12:20:40Z</time>
      </trkpt>
      <trkpt lat="46.74555" lon="5.67233">
        <ele>448.11</ele>
        <time>2016-06-07T12:20:59Z</time>
      </trkpt>
      <trkpt lat="46.74557" lon="5.67237">
        <ele>448.59</ele>
        <time>2016-06-07T12:21:18Z</time>
      </trkpt>
      <trkpt lat="46.74558" lon="5.67241">
        <ele>449.55</ele>
        <time>2016-06-07T12:21:29Z</time>
      </trkpt>
      <trkpt lat="46.74563" lon="5.67249">
        <ele>451</ele>
        <time>2016-06-07T12:21:44Z</time>
      </trkpt>
      <trkpt lat="46.74569" lon="5.67262">
        <ele>453.4</ele>
        <time>2016-06-07T12:21:58Z</time>
      </trkpt>
      <trkpt lat="46.74572" lon="5.6727">
        <ele>454.84</ele>
        <time>2016-06-07T12:22:11Z</time>
      </trkpt>
      <trkpt lat="46.74575" lon="5.67284">
        <ele>454.84</ele>
        <time>2016-06-07T12:22:27Z</time>
      </trkpt>
      <trkpt lat="46.74579" lon="5.67292">
        <ele>453.4</ele>
        <time>2016-06-07T12:22:43Z</time>
      </trkpt>
      <trkpt lat="46.74581" lon="5.67303">
        <ele>452.44</ele>
        <time>2016-06-07T12:22:57Z</time>
      </trkpt>
      <trkpt lat="46.74583" lon="5.67309">
        <ele>450.52</ele>
        <time>2016-06-07T12:23:10Z</time>
      </trkpt>
      <trkpt lat="46.7459" lon="5.67315">
        <ele>449.55</ele>
        <time>2016-06-07T12:23:23Z</time>
      </trkpt>
      <trkpt lat="46.74594" lon="5.6732">
        <ele>448.59</ele>
        <time>2016-06-07T12:23:33Z</time>
      </trkpt>
      <trkpt lat="46.74598" lon="5.67329">
        <ele>450.03</ele>
        <time>2016-06-07T12:23:47Z</time>
      </trkpt>
      <trkpt lat="46.74603" lon="5.6734">
        <ele>454.84</ele>
        <time>2016-06-07T12:24:00Z</time>
      </trkpt>
      <trkpt lat="46.74606" lon="5.67349">
        <ele>460.61</ele>
        <time>2016-06-07T12:24:17Z</time>
      </trkpt>
      <trkpt lat="46.7461" lon="5.67351">
        <ele>461.57</ele>
        <time>2016-06-07T12:24:29Z</time>
      </trkpt>
      <trkpt lat="46.74616" lon="5.67361">
        <ele>465.9</ele>
        <time>2016-06-07T12:24:45Z</time>
      </trkpt>
      <trkpt lat="46.7462" lon="5.67364">
        <ele>465.42</ele>
        <time>2016-06-07T12:24:56Z</time>
      </trkpt>
      <trkpt lat="46.74622" lon="5.6737">
        <ele>464.45</ele>
        <time>2016-06-07T12:25:08Z</time>
      </trkpt>
      <trkpt lat="46.74622" lon="5.67378">
        <ele>469.26</ele>
        <time>2016-06-07T12:25:27Z</time>
      </trkpt>
      <trkpt lat="46.74621" lon="5.67379">
        <ele>470.7</ele>
        <time>2016-06-07T12:25:47Z</time>
      </trkpt>
      <trkpt lat="46.74623" lon="5.6738">
        <ele>470.22</ele>
        <time>2016-06-07T12:26:05Z</time>
      </trkpt>
      <trkpt lat="46.74613" lon="5.67382">
        <ele>472.14</ele>
        <time>2016-06-07T12:26:19Z</time>
      </trkpt>
      <trkpt lat="46.74606" lon="5.67381">
        <ele>474.55</ele>
        <time>2016-06-07T12:26:33Z</time>
      </trkpt>
      <trkpt lat="46.74598" lon="5.67376">
        <ele>476.95</ele>
        <time>2016-06-07T12:26:46Z</time>
      </trkpt>
      <trkpt lat="46.74589" lon="5.67373">
        <ele>476.47</ele>
        <time>2016-06-07T12:26:58Z</time>
      </trkpt>
      <trkpt lat="46.7458" lon="5.6737">
        <ele>476.95</ele>
        <time>2016-06-07T12:27:10Z</time>
      </trkpt>
      <trkpt lat="46.74576" lon="5.6737">
        <ele>477.91</ele>
        <time>2016-06-07T12:27:22Z</time>
      </trkpt>
      <trkpt lat="46.74576" lon="5.6737">
        <ele>477.91</ele>
        <time>2016-06-07T12:27:23Z</time>
      </trkpt>
      <trkpt lat="46.74571" lon="5.67368">
        <ele>478.39</ele>
        <time>2016-06-07T12:27:36Z</time>
      </trkpt>
      <trkpt lat="46.74566" lon="5.67362">
        <ele>479.35</ele>
        <time>2016-06-07T12:27:48Z</time>
      </trkpt>
      <trkpt lat="46.7456" lon="5.67361">
        <ele>480.32</ele>
        <time>2016-06-07T12:28:00Z</time>
      </trkpt>
      <trkpt lat="46.74552" lon="5.67353">
        <ele>479.84</ele>
        <time>2016-06-07T12:28:12Z</time>
      </trkpt>
      <trkpt lat="46.74545" lon="5.67347">
        <ele>478.87</ele>
        <time>2016-06-07T12:28:22Z</time>
      </trkpt>
      <trkpt lat="46.74538" lon="5.6734">
        <ele>478.87</ele>
        <time>2016-06-07T12:28:36Z</time>
      </trkpt>
      <trkpt lat="46.74529" lon="5.67331">
        <ele>481.28</ele>
        <time>2016-06-07T12:28:49Z</time>
      </trkpt>
      <trkpt lat="46.74526" lon="5.67324">
        <ele>482.72</ele>
        <time>2016-06-07T12:29:00Z</time>
      </trkpt>
      <trkpt lat="46.7452" lon="5.67315">
        <ele>483.68</ele>
        <time>2016-06-07T12:29:15Z</time>
      </trkpt>
      <trkpt lat="46.74516" lon="5.67309">
        <ele>485.12</ele>
        <time>2016-06-07T12:29:29Z</time>
      </trkpt>
      <trkpt lat="46.74512" lon="5.67303">
        <ele>487.05</ele>
        <time>2016-06-07T12:29:46Z</time>
      </trkpt>
      <trkpt lat="46.74506" lon="5.67298">
        <ele>488.01</ele>
        <time>2016-06-07T12:29:58Z</time>
      </trkpt>
      <trkpt lat="46.74501" lon="5.67295">
        <ele>488.01</ele>
        <time>2016-06-07T12:30:06Z</time>
      </trkpt>
      <trkpt lat="46.74492" lon="5.67286">
        <ele>489.45</ele>
        <time>2016-06-07T12:30:19Z</time>
      </trkpt>
      <trkpt lat="46.74488" lon="5.67281">
        <ele>490.41</ele>
        <time>2016-06-07T12:30:29Z</time>
      </trkpt>
      <trkpt lat="46.74483" lon="5.67276">
        <ele>490.89</ele>
        <time>2016-06-07T12:30:41Z</time>
      </trkpt>
      <trkpt lat="46.74479" lon="5.67272">
        <ele>490.89</ele>
        <time>2016-06-07T12:30:52Z</time>
      </trkpt>
      <trkpt lat="46.74475" lon="5.6727">
        <ele>492.33</ele>
        <time>2016-06-07T12:31:14Z</time>
      </trkpt>
      <trkpt lat="46.7447" lon="5.67264">
        <ele>493.77</ele>
        <time>2016-06-07T12:31:23Z</time>
      </trkpt>
      <trkpt lat="46.74466" lon="5.67257">
        <ele>495.22</ele>
        <time>2016-06-07T12:31:32Z</time>
      </trkpt>
      <trkpt lat="46.74464" lon="5.67247">
        <ele>497.62</ele>
        <time>2016-06-07T12:31:42Z</time>
      </trkpt>
      <trkpt lat="46.74462" lon="5.67245">
        <ele>498.1</ele>
        <time>2016-06-07T12:31:44Z</time>
      </trkpt>
      <trkpt lat="46.74456" lon="5.67238">
        <ele>499.54</ele>
        <time>2016-06-07T12:31:57Z</time>
      </trkpt>
      <trkpt lat="46.74453" lon="5.67232">
        <ele>501.95</ele>
        <time>2016-06-07T12:32:11Z</time>
      </trkpt>
      <trkpt lat="46.7445" lon="5.67227">
        <ele>503.87</ele>
        <time>2016-06-07T12:32:22Z</time>
      </trkpt>
      <trkpt lat="46.74451" lon="5.67225">
        <ele>504.83</ele>
        <time>2016-06-07T12:32:37Z</time>
      </trkpt>
      <trkpt lat="46.7445" lon="5.67226">
        <ele>505.79</ele>
        <time>2016-06-07T12:32:53Z</time>
      </trkpt>
      <trkpt lat="46.74449" lon="5.67227">
        <ele>506.27</ele>
        <time>2016-06-07T12:33:07Z</time>
      </trkpt>
      <trkpt lat="46.74446" lon="5.67231">
        <ele>509.16</ele>
        <time>2016-06-07T12:33:23Z</time>
      </trkpt>
      <trkpt lat="46.74442" lon="5.67235">
        <ele>509.64</ele>
        <time>2016-06-07T12:33:37Z</time>
      </trkpt>
      <trkpt lat="46.74437" lon="5.6724">
        <ele>508.67</ele>
        <time>2016-06-07T12:33:47Z</time>
      </trkpt>
      <trkpt lat="46.74432" lon="5.67254">
        <ele>507.23</ele>
        <time>2016-06-07T12:34:00Z</time>
      </trkpt>
      <trkpt lat="46.74428" lon="5.67268">
        <ele>508.67</ele>
        <time>2016-06-07T12:34:10Z</time>
      </trkpt>
      <trkpt lat="46.74424" lon="5.67281">
        <ele>506.27</ele>
        <time>2016-06-07T12:34:23Z</time>
      </trkpt>
      <trkpt lat="46.74415" lon="5.67296">
        <ele>507.23</ele>
        <time>2016-06-07T12:34:37Z</time>
      </trkpt>
      <trkpt lat="46.74406" lon="5.67305">
        <ele>509.64</ele>
        <time>2016-06-07T12:34:49Z</time>
      </trkpt>
      <trkpt lat="46.74397" lon="5.67318">
        <ele>511.08</ele>
        <time>2016-06-07T12:35:02Z</time>
      </trkpt>
      <trkpt lat="46.7439" lon="5.67326">
        <ele>509.64</ele>
        <time>2016-06-07T12:35:12Z</time>
      </trkpt>
      <trkpt lat="46.74389" lon="5.67327">
        <ele>509.64</ele>
        <time>2016-06-07T12:35:13Z</time>
      </trkpt>
      <trkpt lat="46.74385" lon="5.67335">
        <ele>511.08</ele>
        <time>2016-06-07T12:35:20Z</time>
      </trkpt>
      <trkpt lat="46.74373" lon="5.67339">
        <ele>507.71</ele>
        <time>2016-06-07T12:35:33Z</time>
      </trkpt>
      <trkpt lat="46.74367" lon="5.67335">
        <ele>508.19</ele>
        <time>2016-06-07T12:35:45Z</time>
      </trkpt>
      <trkpt lat="46.74366" lon="5.67333">
        <ele>507.71</ele>
        <time>2016-06-07T12:35:57Z</time>
      </trkpt>
      <trkpt lat="46.74362" lon="5.67332">
        <ele>504.35</ele>
        <time>2016-06-07T12:36:11Z</time>
      </trkpt>
      <trkpt lat="46.74358" lon="5.67323">
        <ele>504.35</ele>
        <time>2016-06-07T12:36:20Z</time>
      </trkpt>
      <trkpt lat="46.74347" lon="5.67306">
        <ele>507.71</ele>
        <time>2016-06-07T12:36:33Z</time>
      </trkpt>
      <trkpt lat="46.74338" lon="5.67293">
        <ele>508.67</ele>
        <time>2016-06-07T12:36:45Z</time>
      </trkpt>
      <trkpt lat="46.7433" lon="5.67276">
        <ele>508.19</ele>
        <time>2016-06-07T12:36:59Z</time>
      </trkpt>
      <trkpt lat="46.74329" lon="5.67275">
        <ele>507.71</ele>
        <time>2016-06-07T12:37:01Z</time>
      </trkpt>
      <trkpt lat="46.74329" lon="5.67273">
        <ele>507.71</ele>
        <time>2016-06-07T12:37:03Z</time>
      </trkpt>
      <trkpt lat="46.74322" lon="5.67257">
        <ele>509.16</ele>
        <time>2016-06-07T12:37:17Z</time>
      </trkpt>
      <trkpt lat="46.74316" lon="5.67243">
        <ele>510.6</ele>
        <time>2016-06-07T12:37:29Z</time>
      </trkpt>
      <trkpt lat="46.7431" lon="5.67229">
        <ele>513.48</ele>
        <time>2016-06-07T12:37:39Z</time>
      </trkpt>
      <trkpt lat="46.74307" lon="5.6722">
        <ele>514.92</ele>
        <time>2016-06-07T12:37:48Z</time>
      </trkpt>
      <trkpt lat="46.74304" lon="5.67205">
        <ele>516.37</ele>
        <time>2016-06-07T12:37:59Z</time>
      </trkpt>
      <trkpt lat="46.74298" lon="5.6719">
        <ele>516.85</ele>
        <time>2016-06-07T12:38:13Z</time>
      </trkpt>
      <trkpt lat="46.74293" lon="5.67186">
        <ele>518.77</ele>
        <time>2016-06-07T12:38:24Z</time>
      </trkpt>
      <trkpt lat="46.7429" lon="5.67184">
        <ele>520.69</ele>
        <time>2016-06-07T12:38:29Z</time>
      </trkpt>
      <trkpt lat="46.74284" lon="5.67178">
        <ele>522.13</ele>
        <time>2016-06-07T12:38:36Z</time>
      </trkpt>
      <trkpt lat="46.74276" lon="5.67172">
        <ele>521.65</ele>
        <time>2016-06-07T12:38:45Z</time>
      </trkpt>
      <trkpt lat="46.7427" lon="5.67159">
        <ele>519.25</ele>
        <time>2016-06-07T12:38:57Z</time>
      </trkpt>
      <trkpt lat="46.7426" lon="5.67147">
        <ele>518.29</ele>
        <time>2016-06-07T12:39:10Z</time>
      </trkpt>
      <trkpt lat="46.74252" lon="5.67136">
        <ele>516.37</ele>
        <time>2016-06-07T12:39:23Z</time>
      </trkpt>
      <trkpt lat="46.74249" lon="5.67127">
        <ele>513.96</ele>
        <time>2016-06-07T12:39:32Z</time>
      </trkpt>
      <trkpt lat="46.74248" lon="5.6712">
        <ele>513</ele>
        <time>2016-06-07T12:39:37Z</time>
      </trkpt>
      <trkpt lat="46.74247" lon="5.6711">
        <ele>513</ele>
        <time>2016-06-07T12:39:43Z</time>
      </trkpt>
      <trkpt lat="46.74247" lon="5.67108">
        <ele>513</ele>
        <time>2016-06-07T12:39:45Z</time>
      </trkpt>
      <trkpt lat="46.74247" lon="5.67091">
        <ele>514.92</ele>
        <time>2016-06-07T12:39:56Z</time>
      </trkpt>
      <trkpt lat="46.74249" lon="5.67074">
        <ele>513</ele>
        <time>2016-06-07T12:40:08Z</time>
      </trkpt>
      <trkpt lat="46.74251" lon="5.67057">
        <ele>511.56</ele>
        <time>2016-06-07T12:40:20Z</time>
      </trkpt>
      <trkpt lat="46.74252" lon="5.67037">
        <ele>513</ele>
        <time>2016-06-07T12:40:33Z</time>
      </trkpt>
      <trkpt lat="46.74254" lon="5.67021">
        <ele>512.52</ele>
        <time>2016-06-07T12:40:44Z</time>
      </trkpt>
      <trkpt lat="46.74249" lon="5.67003">
        <ele>507.71</ele>
        <time>2016-06-07T12:40:58Z</time>
      </trkpt>
      <trkpt lat="46.74248" lon="5.67">
        <ele>507.23</ele>
        <time>2016-06-07T12:41:00Z</time>
      </trkpt>
      <trkpt lat="46.74247" lon="5.66995">
        <ele>506.75</ele>
        <time>2016-06-07T12:41:04Z</time>
      </trkpt>
      <trkpt lat="46.74239" lon="5.66986">
        <ele>503.87</ele>
        <time>2016-06-07T12:41:15Z</time>
      </trkpt>
      <trkpt lat="46.74234" lon="5.66984">
        <ele>504.35</ele>
        <time>2016-06-07T12:41:31Z</time>
      </trkpt>
      <trkpt lat="46.74233" lon="5.66983">
        <ele>504.83</ele>
        <time>2016-06-07T12:41:33Z</time>
      </trkpt>
      <trkpt lat="46.74218" lon="5.66978">
        <ele>505.79</ele>
        <time>2016-06-07T12:41:48Z</time>
      </trkpt>
      <trkpt lat="46.74205" lon="5.66976">
        <ele>503.87</ele>
        <time>2016-06-07T12:42:00Z</time>
      </trkpt>
      <trkpt lat="46.7419" lon="5.66975">
        <ele>504.35</ele>
        <time>2016-06-07T12:42:12Z</time>
      </trkpt>
      <trkpt lat="46.74185" lon="5.66974">
        <ele>504.35</ele>
        <time>2016-06-07T12:42:16Z</time>
      </trkpt>
      <trkpt lat="46.7417" lon="5.66976">
        <ele>507.71</ele>
        <time>2016-06-07T12:42:32Z</time>
      </trkpt>
      <trkpt lat="46.74165" lon="5.66976">
        <ele>510.12</ele>
        <time>2016-06-07T12:42:41Z</time>
      </trkpt>
      <trkpt lat="46.74162" lon="5.66976">
        <ele>510.6</ele>
        <time>2016-06-07T12:42:44Z</time>
      </trkpt>
      <trkpt lat="46.7415" lon="5.66977">
        <ele>512.04</ele>
        <time>2016-06-07T12:42:57Z</time>
      </trkpt>
      <trkpt lat="46.74136" lon="5.66979">
        <ele>513</ele>
        <time>2016-06-07T12:43:10Z</time>
      </trkpt>
      <trkpt lat="46.7413" lon="5.66982">
        <ele>512.04</ele>
        <time>2016-06-07T12:43:16Z</time>
      </trkpt>
      <trkpt lat="46.74112" lon="5.66984">
        <ele>511.56</ele>
        <time>2016-06-07T12:43:32Z</time>
      </trkpt>
      <trkpt lat="46.74106" lon="5.66984">
        <ele>512.04</ele>
        <time>2016-06-07T12:43:39Z</time>
      </trkpt>
      <trkpt lat="46.74103" lon="5.66984">
        <ele>512.04</ele>
        <time>2016-06-07T12:43:41Z</time>
      </trkpt>
      <trkpt lat="46.74091" lon="5.66988">
        <ele>511.56</ele>
        <time>2016-06-07T12:43:52Z</time>
      </trkpt>
      <trkpt lat="46.74077" lon="5.66991">
        <ele>511.08</ele>
        <time>2016-06-07T12:44:06Z</time>
      </trkpt>
      <trkpt lat="46.74064" lon="5.66993">
        <ele>511.56</ele>
        <time>2016-06-07T12:44:21Z</time>
      </trkpt>
      <trkpt lat="46.74064" lon="5.66993">
        <ele>511.56</ele>
        <time>2016-06-07T12:44:22Z</time>
      </trkpt>
      <trkpt lat="46.74048" lon="5.66989">
        <ele>511.08</ele>
        <time>2016-06-07T12:44:36Z</time>
      </trkpt>
      <trkpt lat="46.74033" lon="5.66982">
        <ele>510.12</ele>
        <time>2016-06-07T12:44:50Z</time>
      </trkpt>
      <trkpt lat="46.74018" lon="5.66975">
        <ele>508.67</ele>
        <time>2016-06-07T12:45:05Z</time>
      </trkpt>
      <trkpt lat="46.74005" lon="5.66968">
        <ele>507.23</ele>
        <time>2016-06-07T12:45:18Z</time>
      </trkpt>
      <trkpt lat="46.73997" lon="5.66965">
        <ele>506.75</ele>
        <time>2016-06-07T12:45:27Z</time>
      </trkpt>
      <trkpt lat="46.73988" lon="5.66962">
        <ele>505.79</ele>
        <time>2016-06-07T12:45:37Z</time>
      </trkpt>
      <trkpt lat="46.73981" lon="5.66958">
        <ele>503.87</ele>
        <time>2016-06-07T12:45:45Z</time>
      </trkpt>
      <trkpt lat="46.73971" lon="5.66942">
        <ele>507.23</ele>
        <time>2016-06-07T12:45:58Z</time>
      </trkpt>
      <trkpt lat="46.73968" lon="5.66936">
        <ele>507.71</ele>
        <time>2016-06-07T12:46:03Z</time>
      </trkpt>
      <trkpt lat="46.7396" lon="5.66927">
        <ele>507.71</ele>
        <time>2016-06-07T12:46:12Z</time>
      </trkpt>
      <trkpt lat="46.73949" lon="5.66913">
        <ele>507.71</ele>
        <time>2016-06-07T12:46:27Z</time>
      </trkpt>
      <trkpt lat="46.73939" lon="5.669">
        <ele>506.75</ele>
        <time>2016-06-07T12:46:40Z</time>
      </trkpt>
      <trkpt lat="46.73935" lon="5.66895">
        <ele>507.23</ele>
        <time>2016-06-07T12:46:45Z</time>
      </trkpt>
      <trkpt lat="46.73926" lon="5.66882">
        <ele>506.27</ele>
        <time>2016-06-07T12:46:58Z</time>
      </trkpt>
      <trkpt lat="46.73926" lon="5.66881">
        <ele>506.75</ele>
        <time>2016-06-07T12:46:59Z</time>
      </trkpt>
      <trkpt lat="46.73923" lon="5.66876">
        <ele>506.75</ele>
        <time>2016-06-07T12:47:03Z</time>
      </trkpt>
      <trkpt lat="46.73921" lon="5.66872">
        <ele>506.27</ele>
        <time>2016-06-07T12:47:07Z</time>
      </trkpt>
      <trkpt lat="46.7392" lon="5.66869">
        <ele>506.75</ele>
        <time>2016-06-07T12:47:09Z</time>
      </trkpt>
      <trkpt lat="46.73918" lon="5.66867">
        <ele>506.75</ele>
        <time>2016-06-07T12:47:11Z</time>
      </trkpt>
      <trkpt lat="46.73918" lon="5.66864">
        <ele>506.75</ele>
        <time>2016-06-07T12:47:13Z</time>
      </trkpt>
      <trkpt lat="46.73916" lon="5.66862">
        <ele>506.75</ele>
        <time>2016-06-07T12:47:15Z</time>
      </trkpt>
      <trkpt lat="46.73915" lon="5.66859">
        <ele>507.23</ele>
        <time>2016-06-07T12:47:17Z</time>
      </trkpt>
      <trkpt lat="46.73913" lon="5.66857">
        <ele>507.23</ele>
        <time>2016-06-07T12:47:19Z</time>
      </trkpt>
      <trkpt lat="46.73912" lon="5.66854">
        <ele>507.23</ele>
        <time>2016-06-07T12:47:21Z</time>
      </trkpt>
      <trkpt lat="46.73908" lon="5.66846">
        <ele>506.75</ele>
        <time>2016-06-07T12:47:27Z</time>
      </trkpt>
      <trkpt lat="46.73906" lon="5.66841">
        <ele>506.27</ele>
        <time>2016-06-07T12:47:31Z</time>
      </trkpt>
      <trkpt lat="46.73904" lon="5.66836">
        <ele>505.31</ele>
        <time>2016-06-07T12:47:35Z</time>
      </trkpt>
      <trkpt lat="46.73898" lon="5.66819">
        <ele>501.95</ele>
        <time>2016-06-07T12:47:49Z</time>
      </trkpt>
      <trkpt lat="46.73895" lon="5.66804">
        <ele>502.91</ele>
        <time>2016-06-07T12:48:01Z</time>
      </trkpt>
      <trkpt lat="46.73895" lon="5.66802">
        <ele>502.91</ele>
        <time>2016-06-07T12:48:02Z</time>
      </trkpt>
      <trkpt lat="46.7389" lon="5.66792">
        <ele>502.91</ele>
        <time>2016-06-07T12:48:10Z</time>
      </trkpt>
      <trkpt lat="46.73887" lon="5.66782">
        <ele>503.87</ele>
        <time>2016-06-07T12:48:18Z</time>
      </trkpt>
      <trkpt lat="46.73886" lon="5.66779">
        <ele>503.87</ele>
        <time>2016-06-07T12:48:20Z</time>
      </trkpt>
      <trkpt lat="46.73884" lon="5.66776">
        <ele>503.87</ele>
        <time>2016-06-07T12:48:23Z</time>
      </trkpt>
      <trkpt lat="46.73882" lon="5.66769">
        <ele>505.31</ele>
        <time>2016-06-07T12:48:28Z</time>
      </trkpt>
      <trkpt lat="46.73873" lon="5.66754">
        <ele>506.75</ele>
        <time>2016-06-07T12:48:41Z</time>
      </trkpt>
      <trkpt lat="46.73865" lon="5.66739">
        <ele>506.27</ele>
        <time>2016-06-07T12:48:55Z</time>
      </trkpt>
      <trkpt lat="46.73865" lon="5.66738">
        <ele>505.79</ele>
        <time>2016-06-07T12:48:56Z</time>
      </trkpt>
      <trkpt lat="46.73859" lon="5.66729">
        <ele>504.35</ele>
        <time>2016-06-07T12:49:05Z</time>
      </trkpt>
      <trkpt lat="46.73849" lon="5.66723">
        <ele>504.83</ele>
        <time>2016-06-07T12:49:17Z</time>
      </trkpt>
      <trkpt lat="46.73833" lon="5.66712">
        <ele>505.79</ele>
        <time>2016-06-07T12:49:33Z</time>
      </trkpt>
      <trkpt lat="46.73819" lon="5.66705">
        <ele>507.23</ele>
        <time>2016-06-07T12:49:47Z</time>
      </trkpt>
      <trkpt lat="46.73806" lon="5.66701">
        <ele>507.71</ele>
        <time>2016-06-07T12:50:00Z</time>
      </trkpt>
      <trkpt lat="46.73792" lon="5.66698">
        <ele>506.75</ele>
        <time>2016-06-07T12:50:15Z</time>
      </trkpt>
      <trkpt lat="46.73781" lon="5.66692">
        <ele>508.19</ele>
        <time>2016-06-07T12:50:26Z</time>
      </trkpt>
      <trkpt lat="46.73767" lon="5.6669">
        <ele>507.23</ele>
        <time>2016-06-07T12:50:40Z</time>
      </trkpt>
      <trkpt lat="46.73755" lon="5.66687">
        <ele>506.27</ele>
        <time>2016-06-07T12:50:51Z</time>
      </trkpt>
      <trkpt lat="46.7374" lon="5.66685">
        <ele>505.79</ele>
        <time>2016-06-07T12:51:05Z</time>
      </trkpt>
      <trkpt lat="46.73728" lon="5.66681">
        <ele>505.79</ele>
        <time>2016-06-07T12:51:17Z</time>
      </trkpt>
      <trkpt lat="46.73726" lon="5.66682">
        <ele>505.79</ele>
        <time>2016-06-07T12:51:19Z</time>
      </trkpt>
      <trkpt lat="46.73719" lon="5.6668">
        <ele>505.79</ele>
        <time>2016-06-07T12:51:27Z</time>
      </trkpt>
      <trkpt lat="46.73707" lon="5.66681">
        <ele>505.79</ele>
        <time>2016-06-07T12:51:39Z</time>
      </trkpt>
      <trkpt lat="46.73697" lon="5.66682">
        <ele>505.31</ele>
        <time>2016-06-07T12:51:49Z</time>
      </trkpt>
      <trkpt lat="46.73681" lon="5.66681">
        <ele>503.87</ele>
        <time>2016-06-07T12:52:04Z</time>
      </trkpt>
      <trkpt lat="46.7367" lon="5.6668">
        <ele>504.83</ele>
        <time>2016-06-07T12:52:16Z</time>
      </trkpt>
      <trkpt lat="46.73663" lon="5.6668">
        <ele>506.27</ele>
        <time>2016-06-07T12:52:26Z</time>
      </trkpt>
      <trkpt lat="46.7365" lon="5.66678">
        <ele>508.19</ele>
        <time>2016-06-07T12:52:38Z</time>
      </trkpt>
      <trkpt lat="46.73644" lon="5.66678">
        <ele>508.67</ele>
        <time>2016-06-07T12:52:45Z</time>
      </trkpt>
      <trkpt lat="46.73633" lon="5.6668">
        <ele>512.04</ele>
        <time>2016-06-07T12:52:56Z</time>
      </trkpt>
      <trkpt lat="46.73622" lon="5.66679">
        <ele>509.64</ele>
        <time>2016-06-07T12:53:07Z</time>
      </trkpt>
      <trkpt lat="46.73615" lon="5.66675">
        <ele>509.64</ele>
        <time>2016-06-07T12:53:18Z</time>
      </trkpt>
      <trkpt lat="46.73607" lon="5.66672">
        <ele>511.56</ele>
        <time>2016-06-07T12:53:27Z</time>
      </trkpt>
      <trkpt lat="46.73597" lon="5.66671">
        <ele>513</ele>
        <time>2016-06-07T12:53:39Z</time>
      </trkpt>
      <trkpt lat="46.7359" lon="5.66671">
        <ele>513</ele>
        <time>2016-06-07T12:53:49Z</time>
      </trkpt>
      <trkpt lat="46.73581" lon="5.66669">
        <ele>510.6</ele>
        <time>2016-06-07T12:53:58Z</time>
      </trkpt>
      <trkpt lat="46.73568" lon="5.66664">
        <ele>507.23</ele>
        <time>2016-06-07T12:54:09Z</time>
      </trkpt>
      <trkpt lat="46.7356" lon="5.66662">
        <ele>506.75</ele>
        <time>2016-06-07T12:54:13Z</time>
      </trkpt>
      <trkpt lat="46.73548" lon="5.66656">
        <ele>507.71</ele>
        <time>2016-06-07T12:54:24Z</time>
      </trkpt>
      <trkpt lat="46.7354" lon="5.66649">
        <ele>506.27</ele>
        <time>2016-06-07T12:54:35Z</time>
      </trkpt>
      <trkpt lat="46.7354" lon="5.66634">
        <ele>505.79</ele>
        <time>2016-06-07T12:54:45Z</time>
      </trkpt>
      <trkpt lat="46.7354" lon="5.66627">
        <ele>504.35</ele>
        <time>2016-06-07T12:54:51Z</time>
      </trkpt>
      <trkpt lat="46.73543" lon="5.66609">
        <ele>500.02</ele>
        <time>2016-06-07T12:55:02Z</time>
      </trkpt>
      <trkpt lat="46.73545" lon="5.66597">
        <ele>498.1</ele>
        <time>2016-06-07T12:55:13Z</time>
      </trkpt>
      <trkpt lat="46.73548" lon="5.6658">
        <ele>494.74</ele>
        <time>2016-06-07T12:55:26Z</time>
      </trkpt>
      <trkpt lat="46.73548" lon="5.66578">
        <ele>494.74</ele>
        <time>2016-06-07T12:55:27Z</time>
      </trkpt>
      <trkpt lat="46.73549" lon="5.66566">
        <ele>497.62</ele>
        <time>2016-06-07T12:55:38Z</time>
      </trkpt>
      <trkpt lat="46.73548" lon="5.66565">
        <ele>498.58</ele>
        <time>2016-06-07T12:55:39Z</time>
      </trkpt>
      <trkpt lat="46.73542" lon="5.6656">
        <ele>502.43</ele>
        <time>2016-06-07T12:55:49Z</time>
      </trkpt>
      <trkpt lat="46.73538" lon="5.66557">
        <ele>504.83</ele>
        <time>2016-06-07T12:55:58Z</time>
      </trkpt>
      <trkpt lat="46.7352" lon="5.66556">
        <ele>511.08</ele>
        <time>2016-06-07T12:56:13Z</time>
      </trkpt>
      <trkpt lat="46.73512" lon="5.66556">
        <ele>515.88</ele>
        <time>2016-06-07T12:56:29Z</time>
      </trkpt>
      <trkpt lat="46.73495" lon="5.66553">
        <ele>515.88</ele>
        <time>2016-06-07T12:56:46Z</time>
      </trkpt>
      <trkpt lat="46.73486" lon="5.66549">
        <ele>517.81</ele>
        <time>2016-06-07T12:56:59Z</time>
      </trkpt>
      <trkpt lat="46.73465" lon="5.66543">
        <ele>516.37</ele>
        <time>2016-06-07T12:57:15Z</time>
      </trkpt>
      <trkpt lat="46.73449" lon="5.6654">
        <ele>514.44</ele>
        <time>2016-06-07T12:57:31Z</time>
      </trkpt>
      <trkpt lat="46.73433" lon="5.66524">
        <ele>512.04</ele>
        <time>2016-06-07T12:57:47Z</time>
      </trkpt>
      <trkpt lat="46.73423" lon="5.66511">
        <ele>513.96</ele>
        <time>2016-06-07T12:58:00Z</time>
      </trkpt>
      <trkpt lat="46.73417" lon="5.66498">
        <ele>515.4</ele>
        <time>2016-06-07T12:58:13Z</time>
      </trkpt>
      <trkpt lat="46.73412" lon="5.66493">
        <ele>514.92</ele>
        <time>2016-06-07T12:58:21Z</time>
      </trkpt>
      <trkpt lat="46.73405" lon="5.66483">
        <ele>514.92</ele>
        <time>2016-06-07T12:58:31Z</time>
      </trkpt>
      <trkpt lat="46.73398" lon="5.6648">
        <ele>514.44</ele>
        <time>2016-06-07T12:58:41Z</time>
      </trkpt>
      <trkpt lat="46.73385" lon="5.66474">
        <ele>513</ele>
        <time>2016-06-07T12:58:53Z</time>
      </trkpt>
      <trkpt lat="46.73379" lon="5.66468">
        <ele>513.48</ele>
        <time>2016-06-07T12:59:05Z</time>
      </trkpt>
      <trkpt lat="46.73353" lon="5.66471">
        <ele>514.92</ele>
        <time>2016-06-07T12:59:21Z</time>
      </trkpt>
      <trkpt lat="46.73343" lon="5.66473">
        <ele>516.37</ele>
        <time>2016-06-07T12:59:33Z</time>
      </trkpt>
      <trkpt lat="46.73335" lon="5.66476">
        <ele>515.88</ele>
        <time>2016-06-07T12:59:40Z</time>
      </trkpt>
      <trkpt lat="46.73326" lon="5.66478">
        <ele>514.92</ele>
        <time>2016-06-07T12:59:50Z</time>
      </trkpt>
      <trkpt lat="46.73314" lon="5.66481">
        <ele>510.12</ele>
        <time>2016-06-07T13:00:02Z</time>
      </trkpt>
      <trkpt lat="46.73301" lon="5.66486">
        <ele>509.16</ele>
        <time>2016-06-07T13:00:13Z</time>
      </trkpt>
      <trkpt lat="46.73284" lon="5.66494">
        <ele>508.19</ele>
        <time>2016-06-07T13:00:26Z</time>
      </trkpt>
      <trkpt lat="46.73274" lon="5.66499">
        <ele>510.6</ele>
        <time>2016-06-07T13:00:37Z</time>
      </trkpt>
      <trkpt lat="46.73266" lon="5.66501">
        <ele>513.96</ele>
        <time>2016-06-07T13:00:48Z</time>
      </trkpt>
      <trkpt lat="46.73257" lon="5.66504">
        <ele>512.04</ele>
        <time>2016-06-07T13:01:00Z</time>
      </trkpt>
      <trkpt lat="46.73249" lon="5.665">
        <ele>510.6</ele>
        <time>2016-06-07T13:01:06Z</time>
      </trkpt>
      <trkpt lat="46.73231" lon="5.66488">
        <ele>511.56</ele>
        <time>2016-06-07T13:01:22Z</time>
      </trkpt>
      <trkpt lat="46.73226" lon="5.66485">
        <ele>512.04</ele>
        <time>2016-06-07T13:01:26Z</time>
      </trkpt>
      <trkpt lat="46.73212" lon="5.66469">
        <ele>509.16</ele>
        <time>2016-06-07T13:01:39Z</time>
      </trkpt>
      <trkpt lat="46.73207" lon="5.66448">
        <ele>505.31</ele>
        <time>2016-06-07T13:01:52Z</time>
      </trkpt>
      <trkpt lat="46.73204" lon="5.6643">
        <ele>499.06</ele>
        <time>2016-06-07T13:02:06Z</time>
      </trkpt>
      <trkpt lat="46.73203" lon="5.66418">
        <ele>495.7</ele>
        <time>2016-06-07T13:02:18Z</time>
      </trkpt>
      <trkpt lat="46.732" lon="5.66412">
        <ele>495.7</ele>
        <time>2016-06-07T13:02:25Z</time>
      </trkpt>
      <trkpt lat="46.73198" lon="5.66405">
        <ele>495.7</ele>
        <time>2016-06-07T13:02:34Z</time>
      </trkpt>
      <trkpt lat="46.73196" lon="5.66398">
        <ele>496.18</ele>
        <time>2016-06-07T13:02:39Z</time>
      </trkpt>
      <trkpt lat="46.73193" lon="5.66389">
        <ele>497.14</ele>
        <time>2016-06-07T13:02:44Z</time>
      </trkpt>
      <trkpt lat="46.73188" lon="5.66374">
        <ele>499.06</ele>
        <time>2016-06-07T13:02:54Z</time>
      </trkpt>
      <trkpt lat="46.73187" lon="5.66371">
        <ele>499.06</ele>
        <time>2016-06-07T13:02:56Z</time>
      </trkpt>
      <trkpt lat="46.73186" lon="5.66368">
        <ele>498.58</ele>
        <time>2016-06-07T13:02:58Z</time>
      </trkpt>
      <trkpt lat="46.73186" lon="5.66366">
        <ele>498.58</ele>
        <time>2016-06-07T13:03:00Z</time>
      </trkpt>
      <trkpt lat="46.73184" lon="5.66363">
        <ele>498.58</ele>
        <time>2016-06-07T13:03:02Z</time>
      </trkpt>
      <trkpt lat="46.73182" lon="5.66356">
        <ele>500.5</ele>
        <time>2016-06-07T13:03:06Z</time>
      </trkpt>
      <trkpt lat="46.73181" lon="5.66353">
        <ele>500.98</ele>
        <time>2016-06-07T13:03:08Z</time>
      </trkpt>
      <trkpt lat="46.73178" lon="5.66347">
        <ele>501.95</ele>
        <time>2016-06-07T13:03:12Z</time>
      </trkpt>
      <trkpt lat="46.73176" lon="5.66345">
        <ele>502.43</ele>
        <time>2016-06-07T13:03:14Z</time>
      </trkpt>
      <trkpt lat="46.73175" lon="5.66342">
        <ele>502.43</ele>
        <time>2016-06-07T13:03:16Z</time>
      </trkpt>
      <trkpt lat="46.73173" lon="5.66339">
        <ele>502.91</ele>
        <time>2016-06-07T13:03:18Z</time>
      </trkpt>
      <trkpt lat="46.73172" lon="5.66336">
        <ele>502.91</ele>
        <time>2016-06-07T13:03:20Z</time>
      </trkpt>
      <trkpt lat="46.73161" lon="5.66324">
        <ele>502.91</ele>
        <time>2016-06-07T13:03:33Z</time>
      </trkpt>
      <trkpt lat="46.73159" lon="5.66321">
        <ele>502.91</ele>
        <time>2016-06-07T13:03:36Z</time>
      </trkpt>
      <trkpt lat="46.73157" lon="5.6632">
        <ele>503.39</ele>
        <time>2016-06-07T13:03:38Z</time>
      </trkpt>
      <trkpt lat="46.73153" lon="5.66316">
        <ele>503.87</ele>
        <time>2016-06-07T13:03:42Z</time>
      </trkpt>
      <trkpt lat="46.73152" lon="5.66314">
        <ele>503.39</ele>
        <time>2016-06-07T13:03:44Z</time>
      </trkpt>
      <trkpt lat="46.73151" lon="5.66313">
        <ele>503.39</ele>
        <time>2016-06-07T13:03:46Z</time>
      </trkpt>
      <trkpt lat="46.73139" lon="5.66307">
        <ele>503.87</ele>
        <time>2016-06-07T13:03:58Z</time>
      </trkpt>
      <trkpt lat="46.7313" lon="5.66291">
        <ele>503.87</ele>
        <time>2016-06-07T13:04:10Z</time>
      </trkpt>
      <trkpt lat="46.73128" lon="5.66291">
        <ele>503.87</ele>
        <time>2016-06-07T13:04:12Z</time>
      </trkpt>
      <trkpt lat="46.73126" lon="5.66295">
        <ele>504.35</ele>
        <time>2016-06-07T13:04:16Z</time>
      </trkpt>
      <trkpt lat="46.73117" lon="5.6631">
        <ele>505.31</ele>
        <time>2016-06-07T13:04:28Z</time>
      </trkpt>
      <trkpt lat="46.73112" lon="5.66318">
        <ele>505.79</ele>
        <time>2016-06-07T13:04:35Z</time>
      </trkpt>
      <trkpt lat="46.73104" lon="5.66329">
        <ele>506.27</ele>
        <time>2016-06-07T13:04:45Z</time>
      </trkpt>
      <trkpt lat="46.73103" lon="5.66331">
        <ele>506.27</ele>
        <time>2016-06-07T13:04:48Z</time>
      </trkpt>
      <trkpt lat="46.73098" lon="5.66331">
        <ele>506.75</ele>
        <time>2016-06-07T13:04:53Z</time>
      </trkpt>
      <trkpt lat="46.73083" lon="5.66328">
        <ele>506.27</ele>
        <time>2016-06-07T13:05:07Z</time>
      </trkpt>
      <trkpt lat="46.7308" lon="5.66327">
        <ele>506.27</ele>
        <time>2016-06-07T13:05:10Z</time>
      </trkpt>
      <trkpt lat="46.73076" lon="5.66326">
        <ele>506.27</ele>
        <time>2016-06-07T13:05:14Z</time>
      </trkpt>
      <trkpt lat="46.73068" lon="5.66325">
        <ele>505.31</ele>
        <time>2016-06-07T13:05:23Z</time>
      </trkpt>
      <trkpt lat="46.73056" lon="5.66324">
        <ele>504.35</ele>
        <time>2016-06-07T13:05:35Z</time>
      </trkpt>
      <trkpt lat="46.73053" lon="5.66325">
        <ele>504.35</ele>
        <time>2016-06-07T13:05:37Z</time>
      </trkpt>
      <trkpt lat="46.73048" lon="5.66326">
        <ele>504.83</ele>
        <time>2016-06-07T13:05:41Z</time>
      </trkpt>
      <trkpt lat="46.73036" lon="5.66328">
        <ele>503.87</ele>
        <time>2016-06-07T13:05:53Z</time>
      </trkpt>
      <trkpt lat="46.73023" lon="5.66322">
        <ele>502.91</ele>
        <time>2016-06-07T13:06:06Z</time>
      </trkpt>
      <trkpt lat="46.73012" lon="5.66311">
        <ele>501.95</ele>
        <time>2016-06-07T13:06:18Z</time>
      </trkpt>
      <trkpt lat="46.73004" lon="5.66298">
        <ele>500.5</ele>
        <time>2016-06-07T13:06:30Z</time>
      </trkpt>
      <trkpt lat="46.72993" lon="5.66284">
        <ele>500.5</ele>
        <time>2016-06-07T13:06:43Z</time>
      </trkpt>
      <trkpt lat="46.72979" lon="5.66268">
        <ele>499.54</ele>
        <time>2016-06-07T13:07:01Z</time>
      </trkpt>
      <trkpt lat="46.72966" lon="5.66255">
        <ele>500.02</ele>
        <time>2016-06-07T13:07:16Z</time>
      </trkpt>
      <trkpt lat="46.72957" lon="5.66243">
        <ele>498.58</ele>
        <time>2016-06-07T13:07:28Z</time>
      </trkpt>
      <trkpt lat="46.72945" lon="5.66231">
        <ele>498.1</ele>
        <time>2016-06-07T13:07:41Z</time>
      </trkpt>
      <trkpt lat="46.72942" lon="5.66227">
        <ele>498.58</ele>
        <time>2016-06-07T13:07:45Z</time>
      </trkpt>
      <trkpt lat="46.72936" lon="5.66221">
        <ele>497.14</ele>
        <time>2016-06-07T13:07:51Z</time>
      </trkpt>
      <trkpt lat="46.72925" lon="5.6621">
        <ele>497.14</ele>
        <time>2016-06-07T13:08:03Z</time>
      </trkpt>
      <trkpt lat="46.72913" lon="5.66201">
        <ele>496.66</ele>
        <time>2016-06-07T13:08:16Z</time>
      </trkpt>
      <trkpt lat="46.72902" lon="5.66195">
        <ele>497.14</ele>
        <time>2016-06-07T13:08:31Z</time>
      </trkpt>
      <trkpt lat="46.72897" lon="5.66196">
        <ele>496.66</ele>
        <time>2016-06-07T13:08:37Z</time>
      </trkpt>
      <trkpt lat="46.72883" lon="5.66205">
        <ele>498.1</ele>
        <time>2016-06-07T13:08:49Z</time>
      </trkpt>
      <trkpt lat="46.72872" lon="5.66219">
        <ele>500.02</ele>
        <time>2016-06-07T13:09:01Z</time>
      </trkpt>
      <trkpt lat="46.72863" lon="5.66231">
        <ele>501.46</ele>
        <time>2016-06-07T13:09:11Z</time>
      </trkpt>
      <trkpt lat="46.72855" lon="5.6624">
        <ele>500.98</ele>
        <time>2016-06-07T13:09:22Z</time>
      </trkpt>
      <trkpt lat="46.72846" lon="5.66247">
        <ele>500.02</ele>
        <time>2016-06-07T13:09:34Z</time>
      </trkpt>
      <trkpt lat="46.72837" lon="5.6625">
        <ele>500.5</ele>
        <time>2016-06-07T13:09:47Z</time>
      </trkpt>
      <trkpt lat="46.72832" lon="5.66252">
        <ele>500.02</ele>
        <time>2016-06-07T13:09:57Z</time>
      </trkpt>
      <trkpt lat="46.72816" lon="5.6626">
        <ele>499.54</ele>
        <time>2016-06-07T13:10:09Z</time>
      </trkpt>
      <trkpt lat="46.72798" lon="5.66269">
        <ele>500.02</ele>
        <time>2016-06-07T13:10:25Z</time>
      </trkpt>
      <trkpt lat="46.72787" lon="5.66272">
        <ele>500.98</ele>
        <time>2016-06-07T13:10:39Z</time>
      </trkpt>
      <trkpt lat="46.72782" lon="5.66276">
        <ele>498.58</ele>
        <time>2016-06-07T13:10:50Z</time>
      </trkpt>
      <trkpt lat="46.72768" lon="5.66286">
        <ele>496.66</ele>
        <time>2016-06-07T13:11:01Z</time>
      </trkpt>
      <trkpt lat="46.72759" lon="5.66296">
        <ele>496.66</ele>
        <time>2016-06-07T13:11:15Z</time>
      </trkpt>
      <trkpt lat="46.72748" lon="5.66312">
        <ele>498.1</ele>
        <time>2016-06-07T13:11:28Z</time>
      </trkpt>
      <trkpt lat="46.72737" lon="5.66327">
        <ele>497.62</ele>
        <time>2016-06-07T13:11:41Z</time>
      </trkpt>
      <trkpt lat="46.72733" lon="5.6633">
        <ele>497.62</ele>
        <time>2016-06-07T13:11:44Z</time>
      </trkpt>
      <trkpt lat="46.72731" lon="5.66332">
        <ele>497.62</ele>
        <time>2016-06-07T13:11:46Z</time>
      </trkpt>
      <trkpt lat="46.7272" lon="5.66343">
        <ele>498.58</ele>
        <time>2016-06-07T13:11:58Z</time>
      </trkpt>
      <trkpt lat="46.7271" lon="5.66353">
        <ele>500.02</ele>
        <time>2016-06-07T13:12:10Z</time>
      </trkpt>
      <trkpt lat="46.72703" lon="5.6636">
        <ele>500.5</ele>
        <time>2016-06-07T13:12:22Z</time>
      </trkpt>
      <trkpt lat="46.72695" lon="5.66375">
        <ele>501.46</ele>
        <time>2016-06-07T13:12:34Z</time>
      </trkpt>
      <trkpt lat="46.72683" lon="5.6639">
        <ele>501.95</ele>
        <time>2016-06-07T13:12:47Z</time>
      </trkpt>
      <trkpt lat="46.72674" lon="5.66399">
        <ele>500.02</ele>
        <time>2016-06-07T13:12:59Z</time>
      </trkpt>
      <trkpt lat="46.72665" lon="5.66404">
        <ele>500.02</ele>
        <time>2016-06-07T13:13:07Z</time>
      </trkpt>
      <trkpt lat="46.72653" lon="5.66407">
        <ele>500.02</ele>
        <time>2016-06-07T13:13:17Z</time>
      </trkpt>
      <trkpt lat="46.72646" lon="5.66404">
        <ele>500.5</ele>
        <time>2016-06-07T13:13:24Z</time>
      </trkpt>
      <trkpt lat="46.72632" lon="5.66395">
        <ele>499.54</ele>
        <time>2016-06-07T13:13:39Z</time>
      </trkpt>
      <trkpt lat="46.72626" lon="5.66391">
        <ele>497.62</ele>
        <time>2016-06-07T13:13:47Z</time>
      </trkpt>
      <trkpt lat="46.72613" lon="5.66382">
        <ele>496.66</ele>
        <time>2016-06-07T13:14:00Z</time>
      </trkpt>
      <trkpt lat="46.72603" lon="5.66365">
        <ele>493.77</ele>
        <time>2016-06-07T13:14:14Z</time>
      </trkpt>
      <trkpt lat="46.72598" lon="5.66349">
        <ele>489.93</ele>
        <time>2016-06-07T13:14:26Z</time>
      </trkpt>
      <trkpt lat="46.72593" lon="5.66334">
        <ele>486.56</ele>
        <time>2016-06-07T13:14:39Z</time>
      </trkpt>
      <trkpt lat="46.7259" lon="5.66325">
        <ele>486.08</ele>
        <time>2016-06-07T13:14:47Z</time>
      </trkpt>
      <trkpt lat="46.72583" lon="5.6631">
        <ele>491.37</ele>
        <time>2016-06-07T13:14:59Z</time>
      </trkpt>
      <trkpt lat="46.72583" lon="5.66307">
        <ele>490.41</ele>
        <time>2016-06-07T13:15:08Z</time>
      </trkpt>
      <trkpt lat="46.72579" lon="5.66295">
        <ele>487.05</ele>
        <time>2016-06-07T13:15:20Z</time>
      </trkpt>
      <trkpt lat="46.72579" lon="5.66289">
        <ele>486.56</ele>
        <time>2016-06-07T13:15:25Z</time>
      </trkpt>
      <trkpt lat="46.72578" lon="5.66274">
        <ele>486.56</ele>
        <time>2016-06-07T13:15:36Z</time>
      </trkpt>
      <trkpt lat="46.72579" lon="5.6625">
        <ele>487.53</ele>
        <time>2016-06-07T13:15:50Z</time>
      </trkpt>
      <trkpt lat="46.72578" lon="5.66245">
        <ele>488.01</ele>
        <time>2016-06-07T13:15:53Z</time>
      </trkpt>
      <trkpt lat="46.72577" lon="5.66243">
        <ele>488.49</ele>
        <time>2016-06-07T13:15:55Z</time>
      </trkpt>
      <trkpt lat="46.72577" lon="5.66238">
        <ele>488.49</ele>
        <time>2016-06-07T13:15:58Z</time>
      </trkpt>
      <trkpt lat="46.72572" lon="5.66221">
        <ele>489.45</ele>
        <time>2016-06-07T13:16:08Z</time>
      </trkpt>
      <trkpt lat="46.72568" lon="5.66203">
        <ele>489.93</ele>
        <time>2016-06-07T13:16:20Z</time>
      </trkpt>
      <trkpt lat="46.72557" lon="5.66186">
        <ele>493.29</ele>
        <time>2016-06-07T13:16:33Z</time>
      </trkpt>
      <trkpt lat="46.7255" lon="5.66176">
        <ele>496.66</ele>
        <time>2016-06-07T13:16:41Z</time>
      </trkpt>
      <trkpt lat="46.72536" lon="5.66163">
        <ele>499.06</ele>
        <time>2016-06-07T13:16:54Z</time>
      </trkpt>
      <trkpt lat="46.72526" lon="5.66154">
        <ele>499.06</ele>
        <time>2016-06-07T13:17:08Z</time>
      </trkpt>
      <trkpt lat="46.72525" lon="5.66146">
        <ele>500.5</ele>
        <time>2016-06-07T13:17:24Z</time>
      </trkpt>
      <trkpt lat="46.72525" lon="5.66143">
        <ele>499.54</ele>
        <time>2016-06-07T13:17:41Z</time>
      </trkpt>
      <trkpt lat="46.72527" lon="5.66137">
        <ele>498.58</ele>
        <time>2016-06-07T13:18:01Z</time>
      </trkpt>
      <trkpt lat="46.72527" lon="5.66125">
        <ele>497.62</ele>
        <time>2016-06-07T13:18:16Z</time>
      </trkpt>
      <trkpt lat="46.72527" lon="5.66113">
        <ele>496.18</ele>
        <time>2016-06-07T13:18:28Z</time>
      </trkpt>
      <trkpt lat="46.7253" lon="5.66093">
        <ele>493.29</ele>
        <time>2016-06-07T13:18:40Z</time>
      </trkpt>
      <trkpt lat="46.72529" lon="5.66081">
        <ele>491.37</ele>
        <time>2016-06-07T13:18:52Z</time>
      </trkpt>
      <trkpt lat="46.7253" lon="5.66063">
        <ele>487.53</ele>
        <time>2016-06-07T13:19:06Z</time>
      </trkpt>
      <trkpt lat="46.72532" lon="5.66055">
        <ele>485.12</ele>
        <time>2016-06-07T13:19:17Z</time>
      </trkpt>
      <trkpt lat="46.7253" lon="5.66037">
        <ele>484.16</ele>
        <time>2016-06-07T13:19:29Z</time>
      </trkpt>
      <trkpt lat="46.72526" lon="5.66019">
        <ele>484.16</ele>
        <time>2016-06-07T13:19:42Z</time>
      </trkpt>
      <trkpt lat="46.7252" lon="5.65996">
        <ele>485.12</ele>
        <time>2016-06-07T13:19:55Z</time>
      </trkpt>
      <trkpt lat="46.72519" lon="5.65976">
        <ele>485.12</ele>
        <time>2016-06-07T13:20:08Z</time>
      </trkpt>
      <trkpt lat="46.72519" lon="5.65958">
        <ele>487.05</ele>
        <time>2016-06-07T13:20:21Z</time>
      </trkpt>
      <trkpt lat="46.72519" lon="5.65951">
        <ele>487.53</ele>
        <time>2016-06-07T13:20:33Z</time>
      </trkpt>
      <trkpt lat="46.72514" lon="5.65933">
        <ele>489.45</ele>
        <time>2016-06-07T13:20:46Z</time>
      </trkpt>
      <trkpt lat="46.72513" lon="5.65918">
        <ele>489.93</ele>
        <time>2016-06-07T13:20:59Z</time>
      </trkpt>
      <trkpt lat="46.72514" lon="5.65902">
        <ele>488.97</ele>
        <time>2016-06-07T13:21:10Z</time>
      </trkpt>
      <trkpt lat="46.72514" lon="5.65887">
        <ele>488.97</ele>
        <time>2016-06-07T13:21:23Z</time>
      </trkpt>
      <trkpt lat="46.72514" lon="5.65869">
        <ele>486.56</ele>
        <time>2016-06-07T13:21:35Z</time>
      </trkpt>
      <trkpt lat="46.72517" lon="5.65853">
        <ele>484.64</ele>
        <time>2016-06-07T13:21:49Z</time>
      </trkpt>
      <trkpt lat="46.72517" lon="5.65849">
        <ele>485.12</ele>
        <time>2016-06-07T13:22:02Z</time>
      </trkpt>
      <trkpt lat="46.72518" lon="5.6585">
        <ele>483.68</ele>
        <time>2016-06-07T13:22:22Z</time>
      </trkpt>
      <trkpt lat="46.7252" lon="5.65837">
        <ele>480.32</ele>
        <time>2016-06-07T13:22:41Z</time>
      </trkpt>
      <trkpt lat="46.72524" lon="5.65823">
        <ele>480.32</ele>
        <time>2016-06-07T13:22:52Z</time>
      </trkpt>
      <trkpt lat="46.72527" lon="5.6581">
        <ele>482.24</ele>
        <time>2016-06-07T13:23:06Z</time>
      </trkpt>
      <trkpt lat="46.72529" lon="5.65806">
        <ele>482.72</ele>
        <time>2016-06-07T13:23:21Z</time>
      </trkpt>
      <trkpt lat="46.72526" lon="5.658">
        <ele>478.87</ele>
        <time>2016-06-07T13:23:35Z</time>
      </trkpt>
      <trkpt lat="46.72517" lon="5.65768">
        <ele>480.8</ele>
        <time>2016-06-07T13:23:50Z</time>
      </trkpt>
      <trkpt lat="46.72515" lon="5.65748">
        <ele>482.24</ele>
        <time>2016-06-07T13:24:02Z</time>
      </trkpt>
      <trkpt lat="46.7251" lon="5.65721">
        <ele>488.01</ele>
        <time>2016-06-07T13:24:14Z</time>
      </trkpt>
      <trkpt lat="46.72508" lon="5.65713">
        <ele>489.93</ele>
        <time>2016-06-07T13:24:18Z</time>
      </trkpt>
      <trkpt lat="46.72509" lon="5.65688">
        <ele>492.33</ele>
        <time>2016-06-07T13:24:29Z</time>
      </trkpt>
      <trkpt lat="46.72508" lon="5.65671">
        <ele>494.26</ele>
        <time>2016-06-07T13:24:42Z</time>
      </trkpt>
      <trkpt lat="46.72505" lon="5.65662">
        <ele>491.85</ele>
        <time>2016-06-07T13:24:58Z</time>
      </trkpt>
      <trkpt lat="46.72498" lon="5.65651">
        <ele>489.45</ele>
        <time>2016-06-07T13:25:05Z</time>
      </trkpt>
      <trkpt lat="46.72488" lon="5.65627">
        <ele>492.81</ele>
        <time>2016-06-07T13:25:19Z</time>
      </trkpt>
      <trkpt lat="46.72479" lon="5.65611">
        <ele>495.7</ele>
        <time>2016-06-07T13:25:31Z</time>
      </trkpt>
      <trkpt lat="46.72462" lon="5.65592">
        <ele>498.58</ele>
        <time>2016-06-07T13:25:46Z</time>
      </trkpt>
      <trkpt lat="46.72451" lon="5.6558">
        <ele>501.46</ele>
        <time>2016-06-07T13:25:59Z</time>
      </trkpt>
      <trkpt lat="46.72446" lon="5.65563">
        <ele>501.46</ele>
        <time>2016-06-07T13:26:15Z</time>
      </trkpt>
      <trkpt lat="46.72444" lon="5.65556">
        <ele>500.98</ele>
        <time>2016-06-07T13:26:22Z</time>
      </trkpt>
      <trkpt lat="46.7244" lon="5.6554">
        <ele>499.54</ele>
        <time>2016-06-07T13:26:35Z</time>
      </trkpt>
      <trkpt lat="46.72434" lon="5.65519">
        <ele>501.95</ele>
        <time>2016-06-07T13:26:47Z</time>
      </trkpt>
      <trkpt lat="46.72429" lon="5.65499">
        <ele>502.91</ele>
        <time>2016-06-07T13:26:59Z</time>
      </trkpt>
      <trkpt lat="46.72425" lon="5.65476">
        <ele>505.79</ele>
        <time>2016-06-07T13:27:13Z</time>
      </trkpt>
      <trkpt lat="46.72422" lon="5.65458">
        <ele>504.83</ele>
        <time>2016-06-07T13:27:27Z</time>
      </trkpt>
      <trkpt lat="46.72415" lon="5.65442">
        <ele>504.83</ele>
        <time>2016-06-07T13:27:41Z</time>
      </trkpt>
      <trkpt lat="46.72405" lon="5.65426">
        <ele>501.95</ele>
        <time>2016-06-07T13:27:58Z</time>
      </trkpt>
      <trkpt lat="46.72395" lon="5.65406">
        <ele>500.02</ele>
        <time>2016-06-07T13:28:12Z</time>
      </trkpt>
      <trkpt lat="46.72386" lon="5.65389">
        <ele>494.74</ele>
        <time>2016-06-07T13:28:28Z</time>
      </trkpt>
      <trkpt lat="46.72377" lon="5.65374">
        <ele>494.74</ele>
        <time>2016-06-07T13:28:41Z</time>
      </trkpt>
      <trkpt lat="46.72367" lon="5.6536">
        <ele>495.22</ele>
        <time>2016-06-07T13:28:55Z</time>
      </trkpt>
      <trkpt lat="46.72366" lon="5.65359">
        <ele>494.74</ele>
        <time>2016-06-07T13:28:56Z</time>
      </trkpt>
      <trkpt lat="46.72359" lon="5.65352">
        <ele>495.7</ele>
        <time>2016-06-07T13:29:04Z</time>
      </trkpt>
      <trkpt lat="46.72345" lon="5.65342">
        <ele>496.66</ele>
        <time>2016-06-07T13:29:18Z</time>
      </trkpt>
      <trkpt lat="46.72343" lon="5.65339">
        <ele>496.18</ele>
        <time>2016-06-07T13:29:21Z</time>
      </trkpt>
      <trkpt lat="46.72333" lon="5.65328">
        <ele>497.14</ele>
        <time>2016-06-07T13:29:32Z</time>
      </trkpt>
      <trkpt lat="46.72323" lon="5.65313">
        <ele>497.14</ele>
        <time>2016-06-07T13:29:46Z</time>
      </trkpt>
      <trkpt lat="46.72316" lon="5.65294">
        <ele>499.54</ele>
        <time>2016-06-07T13:29:59Z</time>
      </trkpt>
      <trkpt lat="46.72311" lon="5.65275">
        <ele>500.98</ele>
        <time>2016-06-07T13:30:10Z</time>
      </trkpt>
      <trkpt lat="46.72306" lon="5.65252">
        <ele>500.98</ele>
        <time>2016-06-07T13:30:25Z</time>
      </trkpt>
      <trkpt lat="46.72303" lon="5.65234">
        <ele>500.5</ele>
        <time>2016-06-07T13:30:37Z</time>
      </trkpt>
      <trkpt lat="46.72301" lon="5.65217">
        <ele>499.54</ele>
        <time>2016-06-07T13:30:49Z</time>
      </trkpt>
      <trkpt lat="46.72301" lon="5.652">
        <ele>495.22</ele>
        <time>2016-06-07T13:31:03Z</time>
      </trkpt>
      <trkpt lat="46.72297" lon="5.65181">
        <ele>495.7</ele>
        <time>2016-06-07T13:31:17Z</time>
      </trkpt>
      <trkpt lat="46.72294" lon="5.65166">
        <ele>495.22</ele>
        <time>2016-06-07T13:31:32Z</time>
      </trkpt>
      <trkpt lat="46.72288" lon="5.65151">
        <ele>496.18</ele>
        <time>2016-06-07T13:31:47Z</time>
      </trkpt>
      <trkpt lat="46.72283" lon="5.6514">
        <ele>496.66</ele>
        <time>2016-06-07T13:31:58Z</time>
      </trkpt>
      <trkpt lat="46.72279" lon="5.6513">
        <ele>498.1</ele>
        <time>2016-06-07T13:32:12Z</time>
      </trkpt>
      <trkpt lat="46.72273" lon="5.65114">
        <ele>496.66</ele>
        <time>2016-06-07T13:32:24Z</time>
      </trkpt>
      <trkpt lat="46.72267" lon="5.65102">
        <ele>497.62</ele>
        <time>2016-06-07T13:32:32Z</time>
      </trkpt>
      <trkpt lat="46.72258" lon="5.65081">
        <ele>500.02</ele>
        <time>2016-06-07T13:32:42Z</time>
      </trkpt>
      <trkpt lat="46.7225" lon="5.65052">
        <ele>505.31</ele>
        <time>2016-06-07T13:32:59Z</time>
      </trkpt>
      <trkpt lat="46.72246" lon="5.65029">
        <ele>502.91</ele>
        <time>2016-06-07T13:33:15Z</time>
      </trkpt>
      <trkpt lat="46.72245" lon="5.65025">
        <ele>502.91</ele>
        <time>2016-06-07T13:33:18Z</time>
      </trkpt>
      <trkpt lat="46.72243" lon="5.64999">
        <ele>502.91</ele>
        <time>2016-06-07T13:33:35Z</time>
      </trkpt>
      <trkpt lat="46.72242" lon="5.64978">
        <ele>502.91</ele>
        <time>2016-06-07T13:33:48Z</time>
      </trkpt>
      <trkpt lat="46.72242" lon="5.64954">
        <ele>501.95</ele>
        <time>2016-06-07T13:34:03Z</time>
      </trkpt>
      <trkpt lat="46.72241" lon="5.64933">
        <ele>502.43</ele>
        <time>2016-06-07T13:34:16Z</time>
      </trkpt>
      <trkpt lat="46.72241" lon="5.64921">
        <ele>501.95</ele>
        <time>2016-06-07T13:34:24Z</time>
      </trkpt>
      <trkpt lat="46.72241" lon="5.649">
        <ele>500.5</ele>
        <time>2016-06-07T13:34:37Z</time>
      </trkpt>
      <trkpt lat="46.72239" lon="5.64878">
        <ele>499.06</ele>
        <time>2016-06-07T13:34:52Z</time>
      </trkpt>
      <trkpt lat="46.72234" lon="5.64858">
        <ele>498.58</ele>
        <time>2016-06-07T13:35:07Z</time>
      </trkpt>
      <trkpt lat="46.72229" lon="5.64853">
        <ele>497.62</ele>
        <time>2016-06-07T13:35:13Z</time>
      </trkpt>
      <trkpt lat="46.72223" lon="5.64847">
        <ele>495.7</ele>
        <time>2016-06-07T13:35:21Z</time>
      </trkpt>
      <trkpt lat="46.72212" lon="5.6484">
        <ele>493.77</ele>
        <time>2016-06-07T13:35:33Z</time>
      </trkpt>
      <trkpt lat="46.7221" lon="5.64836">
        <ele>493.29</ele>
        <time>2016-06-07T13:35:37Z</time>
      </trkpt>
      <trkpt lat="46.72208" lon="5.64834">
        <ele>492.81</ele>
        <time>2016-06-07T13:35:39Z</time>
      </trkpt>
      <trkpt lat="46.72205" lon="5.6481">
        <ele>489.45</ele>
        <time>2016-06-07T13:35:58Z</time>
      </trkpt>
      <trkpt lat="46.72203" lon="5.64789">
        <ele>488.49</ele>
        <time>2016-06-07T13:36:13Z</time>
      </trkpt>
      <trkpt lat="46.72198" lon="5.64768">
        <ele>490.89</ele>
        <time>2016-06-07T13:36:25Z</time>
      </trkpt>
      <trkpt lat="46.72193" lon="5.64745">
        <ele>491.85</ele>
        <time>2016-06-07T13:36:39Z</time>
      </trkpt>
      <trkpt lat="46.72192" lon="5.64743">
        <ele>491.37</ele>
        <time>2016-06-07T13:36:40Z</time>
      </trkpt>
      <trkpt lat="46.7219" lon="5.6472">
        <ele>490.41</ele>
        <time>2016-06-07T13:36:55Z</time>
      </trkpt>
      <trkpt lat="46.72185" lon="5.64701">
        <ele>490.89</ele>
        <time>2016-06-07T13:37:07Z</time>
      </trkpt>
      <trkpt lat="46.72181" lon="5.64681">
        <ele>491.85</ele>
        <time>2016-06-07T13:37:20Z</time>
      </trkpt>
      <trkpt lat="46.72179" lon="5.64667">
        <ele>492.81</ele>
        <time>2016-06-07T13:37:29Z</time>
      </trkpt>
      <trkpt lat="46.72176" lon="5.64655">
        <ele>493.77</ele>
        <time>2016-06-07T13:37:38Z</time>
      </trkpt>
      <trkpt lat="46.72172" lon="5.64632">
        <ele>493.29</ele>
        <time>2016-06-07T13:37:53Z</time>
      </trkpt>
      <trkpt lat="46.7217" lon="5.64627">
        <ele>492.33</ele>
        <time>2016-06-07T13:37:57Z</time>
      </trkpt>
      <trkpt lat="46.72162" lon="5.64612">
        <ele>489.45</ele>
        <time>2016-06-07T13:38:12Z</time>
      </trkpt>
      <trkpt lat="46.72155" lon="5.64602">
        <ele>488.49</ele>
        <time>2016-06-07T13:38:23Z</time>
      </trkpt>
      <trkpt lat="46.72145" lon="5.64593">
        <ele>488.49</ele>
        <time>2016-06-07T13:38:33Z</time>
      </trkpt>
      <trkpt lat="46.72134" lon="5.64584">
        <ele>488.49</ele>
        <time>2016-06-07T13:38:47Z</time>
      </trkpt>
      <trkpt lat="46.72132" lon="5.64583">
        <ele>488.49</ele>
        <time>2016-06-07T13:38:49Z</time>
      </trkpt>
      <trkpt lat="46.72118" lon="5.64568">
        <ele>487.05</ele>
        <time>2016-06-07T13:39:07Z</time>
      </trkpt>
      <trkpt lat="46.72106" lon="5.64553">
        <ele>485.6</ele>
        <time>2016-06-07T13:39:23Z</time>
      </trkpt>
      <trkpt lat="46.72095" lon="5.64549">
        <ele>483.68</ele>
        <time>2016-06-07T13:39:34Z</time>
      </trkpt>
      <trkpt lat="46.72079" lon="5.64549">
        <ele>482.72</ele>
        <time>2016-06-07T13:39:48Z</time>
      </trkpt>
      <trkpt lat="46.72066" lon="5.64546">
        <ele>483.2</ele>
        <time>2016-06-07T13:40:00Z</time>
      </trkpt>
      <trkpt lat="46.72049" lon="5.64544">
        <ele>485.6</ele>
        <time>2016-06-07T13:40:14Z</time>
      </trkpt>
      <trkpt lat="46.72039" lon="5.64541">
        <ele>488.49</ele>
        <time>2016-06-07T13:40:22Z</time>
      </trkpt>
      <trkpt lat="46.72024" lon="5.64544">
        <ele>490.41</ele>
        <time>2016-06-07T13:40:35Z</time>
      </trkpt>
      <trkpt lat="46.72023" lon="5.64543">
        <ele>490.41</ele>
        <time>2016-06-07T13:40:36Z</time>
      </trkpt>
      <trkpt lat="46.72021" lon="5.64542">
        <ele>490.89</ele>
        <time>2016-06-07T13:40:40Z</time>
      </trkpt>
      <trkpt lat="46.72008" lon="5.64544">
        <ele>489.45</ele>
        <time>2016-06-07T13:40:51Z</time>
      </trkpt>
      <trkpt lat="46.72001" lon="5.64543">
        <ele>488.01</ele>
        <time>2016-06-07T13:40:58Z</time>
      </trkpt>
      <trkpt lat="46.71983" lon="5.64538">
        <ele>489.93</ele>
        <time>2016-06-07T13:41:14Z</time>
      </trkpt>
      <trkpt lat="46.71973" lon="5.64533">
        <ele>489.93</ele>
        <time>2016-06-07T13:41:25Z</time>
      </trkpt>
      <trkpt lat="46.71959" lon="5.64524">
        <ele>491.85</ele>
        <time>2016-06-07T13:41:38Z</time>
      </trkpt>
      <trkpt lat="46.71948" lon="5.64519">
        <ele>493.77</ele>
        <time>2016-06-07T13:41:48Z</time>
      </trkpt>
      <trkpt lat="46.71932" lon="5.64514">
        <ele>493.77</ele>
        <time>2016-06-07T13:42:03Z</time>
      </trkpt>
      <trkpt lat="46.71918" lon="5.64515">
        <ele>493.77</ele>
        <time>2016-06-07T13:42:18Z</time>
      </trkpt>
      <trkpt lat="46.71904" lon="5.64517">
        <ele>494.74</ele>
        <time>2016-06-07T13:42:28Z</time>
      </trkpt>
      <trkpt lat="46.71891" lon="5.64522">
        <ele>494.26</ele>
        <time>2016-06-07T13:42:42Z</time>
      </trkpt>
      <trkpt lat="46.71879" lon="5.6453">
        <ele>495.22</ele>
        <time>2016-06-07T13:42:56Z</time>
      </trkpt>
      <trkpt lat="46.71869" lon="5.64532">
        <ele>495.22</ele>
        <time>2016-06-07T13:43:05Z</time>
      </trkpt>
      <trkpt lat="46.71854" lon="5.64535">
        <ele>495.22</ele>
        <time>2016-06-07T13:43:20Z</time>
      </trkpt>
      <trkpt lat="46.71843" lon="5.64532">
        <ele>494.26</ele>
        <time>2016-06-07T13:43:31Z</time>
      </trkpt>
      <trkpt lat="46.71837" lon="5.64528">
        <ele>493.29</ele>
        <time>2016-06-07T13:43:38Z</time>
      </trkpt>
      <trkpt lat="46.71819" lon="5.64516">
        <ele>494.74</ele>
        <time>2016-06-07T13:43:54Z</time>
      </trkpt>
      <trkpt lat="46.71806" lon="5.64502">
        <ele>494.74</ele>
        <time>2016-06-07T13:44:10Z</time>
      </trkpt>
      <trkpt lat="46.71793" lon="5.64491">
        <ele>491.85</ele>
        <time>2016-06-07T13:44:25Z</time>
      </trkpt>
      <trkpt lat="46.71785" lon="5.64487">
        <ele>492.33</ele>
        <time>2016-06-07T13:44:39Z</time>
      </trkpt>
      <trkpt lat="46.71782" lon="5.64485">
        <ele>495.22</ele>
        <time>2016-06-07T13:44:54Z</time>
      </trkpt>
      <trkpt lat="46.71782" lon="5.64481">
        <ele>496.18</ele>
        <time>2016-06-07T13:44:57Z</time>
      </trkpt>
      <trkpt lat="46.71784" lon="5.64471">
        <ele>497.62</ele>
        <time>2016-06-07T13:45:04Z</time>
      </trkpt>
      <trkpt lat="46.71789" lon="5.64453">
        <ele>498.58</ele>
        <time>2016-06-07T13:45:17Z</time>
      </trkpt>
      <trkpt lat="46.71793" lon="5.64428">
        <ele>501.95</ele>
        <time>2016-06-07T13:45:33Z</time>
      </trkpt>
      <trkpt lat="46.71795" lon="5.64415">
        <ele>502.91</ele>
        <time>2016-06-07T13:45:41Z</time>
      </trkpt>
      <trkpt lat="46.71795" lon="5.64404">
        <ele>503.39</ele>
        <time>2016-06-07T13:45:48Z</time>
      </trkpt>
      <trkpt lat="46.71799" lon="5.64385">
        <ele>503.87</ele>
        <time>2016-06-07T13:46:00Z</time>
      </trkpt>
      <trkpt lat="46.718" lon="5.64381">
        <ele>503.39</ele>
        <time>2016-06-07T13:46:13Z</time>
      </trkpt>
      <trkpt lat="46.718" lon="5.64381">
        <ele>503.87</ele>
        <time>2016-06-07T13:46:30Z</time>
      </trkpt>
      <trkpt lat="46.71799" lon="5.64382">
        <ele>503.87</ele>
        <time>2016-06-07T13:46:42Z</time>
      </trkpt>
      <trkpt lat="46.71799" lon="5.64382">
        <ele>503.39</ele>
        <time>2016-06-07T13:46:59Z</time>
      </trkpt>
      <trkpt lat="46.71799" lon="5.64384">
        <ele>501.95</ele>
        <time>2016-06-07T13:47:18Z</time>
      </trkpt>
      <trkpt lat="46.71799" lon="5.64385">
        <ele>500.98</ele>
        <time>2016-06-07T13:47:39Z</time>
      </trkpt>
      <trkpt lat="46.71799" lon="5.64385">
        <ele>500.98</ele>
        <time>2016-06-07T13:47:55Z</time>
      </trkpt>
      <trkpt lat="46.71799" lon="5.64385">
        <ele>501.46</ele>
        <time>2016-06-07T13:48:10Z</time>
      </trkpt>
      <trkpt lat="46.71799" lon="5.64386">
        <ele>500.98</ele>
        <time>2016-06-07T13:48:30Z</time>
      </trkpt>
      <trkpt lat="46.71799" lon="5.64387">
        <ele>500.98</ele>
        <time>2016-06-07T13:48:49Z</time>
      </trkpt>
      <trkpt lat="46.71799" lon="5.64386">
        <ele>500.98</ele>
        <time>2016-06-07T13:49:08Z</time>
      </trkpt>
      <trkpt lat="46.71799" lon="5.64386">
        <ele>500.98</ele>
        <time>2016-06-07T13:49:30Z</time>
      </trkpt>
      <trkpt lat="46.718" lon="5.64386">
        <ele>500.98</ele>
        <time>2016-06-07T13:49:50Z</time>
      </trkpt>
      <trkpt lat="46.718" lon="5.64387">
        <ele>501.46</ele>
        <time>2016-06-07T13:50:12Z</time>
      </trkpt>
      <trkpt lat="46.718" lon="5.64386">
        <ele>501.46</ele>
        <time>2016-06-07T13:50:39Z</time>
      </trkpt>
      <trkpt lat="46.718" lon="5.64386">
        <ele>501.95</ele>
        <time>2016-06-07T13:51:03Z</time>
      </trkpt>
      <trkpt lat="46.71799" lon="5.64386">
        <ele>502.43</ele>
        <time>2016-06-07T13:51:30Z</time>
      </trkpt>
      <trkpt lat="46.718" lon="5.64388">
        <ele>502.43</ele>
        <time>2016-06-07T13:51:57Z</time>
      </trkpt>
      <trkpt lat="46.718" lon="5.64388">
        <ele>502.43</ele>
        <time>2016-06-07T13:52:18Z</time>
      </trkpt>
      <trkpt lat="46.718" lon="5.64387">
        <ele>502.91</ele>
        <time>2016-06-07T13:52:42Z</time>
      </trkpt>
      <trkpt lat="46.718" lon="5.64387">
        <ele>503.39</ele>
        <time>2016-06-07T13:53:06Z</time>
      </trkpt>
      <trkpt lat="46.718" lon="5.64387">
        <ele>503.39</ele>
        <time>2016-06-07T13:53:27Z</time>
      </trkpt>
      <trkpt lat="46.718" lon="5.64388">
        <ele>503.39</ele>
        <time>2016-06-07T13:53:48Z</time>
      </trkpt>
      <trkpt lat="46.718" lon="5.64387">
        <ele>502.91</ele>
        <time>2016-06-07T13:54:14Z</time>
      </trkpt>
      <trkpt lat="46.71801" lon="5.64388">
        <ele>502.91</ele>
        <time>2016-06-07T13:54:27Z</time>
      </trkpt>
      <trkpt lat="46.718" lon="5.64389">
        <ele>502.91</ele>
        <time>2016-06-07T13:54:45Z</time>
      </trkpt>
      <trkpt lat="46.718" lon="5.64389">
        <ele>502.91</ele>
        <time>2016-06-07T13:55:00Z</time>
      </trkpt>
      <trkpt lat="46.718" lon="5.64388">
        <ele>502.91</ele>
        <time>2016-06-07T13:55:20Z</time>
      </trkpt>
      <trkpt lat="46.718" lon="5.64388">
        <ele>502.91</ele>
        <time>2016-06-07T13:55:39Z</time>
      </trkpt>
      <trkpt lat="46.718" lon="5.64389">
        <ele>502.91</ele>
        <time>2016-06-07T13:55:55Z</time>
      </trkpt>
      <trkpt lat="46.718" lon="5.64389">
        <ele>503.39</ele>
        <time>2016-06-07T13:56:15Z</time>
      </trkpt>
      <trkpt lat="46.718" lon="5.64389">
        <ele>503.39</ele>
        <time>2016-06-07T13:56:32Z</time>
      </trkpt>
      <trkpt lat="46.718" lon="5.64388">
        <ele>502.43</ele>
        <time>2016-06-07T13:56:48Z</time>
      </trkpt>
      <trkpt lat="46.71799" lon="5.64386">
        <ele>502.91</ele>
        <time>2016-06-07T13:57:01Z</time>
      </trkpt>
      <trkpt lat="46.71799" lon="5.64386">
        <ele>502.91</ele>
        <time>2016-06-07T13:57:19Z</time>
      </trkpt>
      <trkpt lat="46.718" lon="5.64385">
        <ele>502.91</ele>
        <time>2016-06-07T13:57:37Z</time>
      </trkpt>
      <trkpt lat="46.718" lon="5.64385">
        <ele>502.43</ele>
        <time>2016-06-07T13:57:56Z</time>
      </trkpt>
      <trkpt lat="46.718" lon="5.64384">
        <ele>502.43</ele>
        <time>2016-06-07T13:58:18Z</time>
      </trkpt>
      <trkpt lat="46.71799" lon="5.64384">
        <ele>502.43</ele>
        <time>2016-06-07T13:58:30Z</time>
      </trkpt>
      <trkpt lat="46.71799" lon="5.64385">
        <ele>502.91</ele>
        <time>2016-06-07T13:58:44Z</time>
      </trkpt>
      <trkpt lat="46.71799" lon="5.64385">
        <ele>502.43</ele>
        <time>2016-06-07T13:58:55Z</time>
      </trkpt>
      <trkpt lat="46.71799" lon="5.64385">
        <ele>502.43</ele>
        <time>2016-06-07T13:59:09Z</time>
      </trkpt>
      <trkpt lat="46.71799" lon="5.64384">
        <ele>501.95</ele>
        <time>2016-06-07T13:59:25Z</time>
      </trkpt>
      <trkpt lat="46.71799" lon="5.64384">
        <ele>501.95</ele>
        <time>2016-06-07T13:59:43Z</time>
      </trkpt>
      <trkpt lat="46.71799" lon="5.64384">
        <ele>501.95</ele>
        <time>2016-06-07T13:59:59Z</time>
      </trkpt>
      <trkpt lat="46.71804" lon="5.64382">
        <ele>501.46</ele>
        <time>2016-06-07T14:00:12Z</time>
      </trkpt>
      <trkpt lat="46.71802" lon="5.64392">
        <ele>500.5</ele>
        <time>2016-06-07T14:00:21Z</time>
      </trkpt>
      <trkpt lat="46.71799" lon="5.64401">
        <ele>500.98</ele>
        <time>2016-06-07T14:00:32Z</time>
      </trkpt>
      <trkpt lat="46.71793" lon="5.64427">
        <ele>502.91</ele>
        <time>2016-06-07T14:00:49Z</time>
      </trkpt>
      <trkpt lat="46.71789" lon="5.64451">
        <ele>500.98</ele>
        <time>2016-06-07T14:01:06Z</time>
      </trkpt>
      <trkpt lat="46.7178" lon="5.6447">
        <ele>501.46</ele>
        <time>2016-06-07T14:01:21Z</time>
      </trkpt>
      <trkpt lat="46.71778" lon="5.64483">
        <ele>501.46</ele>
        <time>2016-06-07T14:01:35Z</time>
      </trkpt>
      <trkpt lat="46.71775" lon="5.6448">
        <ele>500.5</ele>
        <time>2016-06-07T14:01:46Z</time>
      </trkpt>
      <trkpt lat="46.71761" lon="5.64479">
        <ele>500.98</ele>
        <time>2016-06-07T14:02:00Z</time>
      </trkpt>
      <trkpt lat="46.71752" lon="5.64479">
        <ele>500.98</ele>
        <time>2016-06-07T14:02:08Z</time>
      </trkpt>
      <trkpt lat="46.71739" lon="5.64481">
        <ele>500.5</ele>
        <time>2016-06-07T14:02:25Z</time>
      </trkpt>
      <trkpt lat="46.71727" lon="5.64483">
        <ele>500.98</ele>
        <time>2016-06-07T14:02:36Z</time>
      </trkpt>
      <trkpt lat="46.7172" lon="5.64483">
        <ele>501.46</ele>
        <time>2016-06-07T14:02:43Z</time>
      </trkpt>
      <trkpt lat="46.71708" lon="5.64486">
        <ele>501.46</ele>
        <time>2016-06-07T14:02:55Z</time>
      </trkpt>
      <trkpt lat="46.71694" lon="5.64487">
        <ele>501.46</ele>
        <time>2016-06-07T14:03:08Z</time>
      </trkpt>
      <trkpt lat="46.71688" lon="5.64487">
        <ele>500.5</ele>
        <time>2016-06-07T14:03:13Z</time>
      </trkpt>
      <trkpt lat="46.7167" lon="5.6449">
        <ele>500.02</ele>
        <time>2016-06-07T14:03:28Z</time>
      </trkpt>
      <trkpt lat="46.71657" lon="5.64484">
        <ele>500.5</ele>
        <time>2016-06-07T14:03:40Z</time>
      </trkpt>
      <trkpt lat="46.71642" lon="5.64475">
        <ele>500.02</ele>
        <time>2016-06-07T14:03:55Z</time>
      </trkpt>
      <trkpt lat="46.71628" lon="5.64468">
        <ele>500.02</ele>
        <time>2016-06-07T14:04:08Z</time>
      </trkpt>
      <trkpt lat="46.71617" lon="5.64464">
        <ele>498.58</ele>
        <time>2016-06-07T14:04:21Z</time>
      </trkpt>
      <trkpt lat="46.716" lon="5.64453">
        <ele>497.14</ele>
        <time>2016-06-07T14:04:37Z</time>
      </trkpt>
      <trkpt lat="46.71588" lon="5.64446">
        <ele>497.14</ele>
        <time>2016-06-07T14:04:49Z</time>
      </trkpt>
      <trkpt lat="46.71576" lon="5.6444">
        <ele>496.66</ele>
        <time>2016-06-07T14:05:01Z</time>
      </trkpt>
      <trkpt lat="46.71566" lon="5.64437">
        <ele>496.18</ele>
        <time>2016-06-07T14:05:09Z</time>
      </trkpt>
      <trkpt lat="46.71558" lon="5.64426">
        <ele>495.22</ele>
        <time>2016-06-07T14:05:20Z</time>
      </trkpt>
      <trkpt lat="46.71548" lon="5.64414">
        <ele>495.22</ele>
        <time>2016-06-07T14:05:31Z</time>
      </trkpt>
      <trkpt lat="46.71534" lon="5.64406">
        <ele>494.74</ele>
        <time>2016-06-07T14:05:44Z</time>
      </trkpt>
      <trkpt lat="46.71527" lon="5.64404">
        <ele>496.66</ele>
        <time>2016-06-07T14:05:50Z</time>
      </trkpt>
      <trkpt lat="46.71518" lon="5.64396">
        <ele>498.1</ele>
        <time>2016-06-07T14:05:59Z</time>
      </trkpt>
      <trkpt lat="46.71504" lon="5.64395">
        <ele>498.58</ele>
        <time>2016-06-07T14:06:11Z</time>
      </trkpt>
      <trkpt lat="46.7149" lon="5.64395">
        <ele>498.1</ele>
        <time>2016-06-07T14:06:24Z</time>
      </trkpt>
      <trkpt lat="46.71489" lon="5.64395">
        <ele>498.1</ele>
        <time>2016-06-07T14:06:25Z</time>
      </trkpt>
      <trkpt lat="46.71475" lon="5.64392">
        <ele>498.1</ele>
        <time>2016-06-07T14:06:39Z</time>
      </trkpt>
      <trkpt lat="46.71461" lon="5.64396">
        <ele>500.5</ele>
        <time>2016-06-07T14:06:51Z</time>
      </trkpt>
      <trkpt lat="46.7145" lon="5.64398">
        <ele>500.02</ele>
        <time>2016-06-07T14:07:01Z</time>
      </trkpt>
      <trkpt lat="46.71436" lon="5.64406">
        <ele>501.95</ele>
        <time>2016-06-07T14:07:14Z</time>
      </trkpt>
      <trkpt lat="46.7143" lon="5.64409">
        <ele>503.39</ele>
        <time>2016-06-07T14:07:19Z</time>
      </trkpt>
      <trkpt lat="46.71426" lon="5.6441">
        <ele>504.35</ele>
        <time>2016-06-07T14:07:23Z</time>
      </trkpt>
      <trkpt lat="46.71419" lon="5.64414">
        <ele>505.31</ele>
        <time>2016-06-07T14:07:30Z</time>
      </trkpt>
      <trkpt lat="46.71405" lon="5.64422">
        <ele>506.27</ele>
        <time>2016-06-07T14:07:44Z</time>
      </trkpt>
      <trkpt lat="46.71398" lon="5.64434">
        <ele>504.83</ele>
        <time>2016-06-07T14:07:54Z</time>
      </trkpt>
      <trkpt lat="46.71391" lon="5.64456">
        <ele>503.39</ele>
        <time>2016-06-07T14:08:08Z</time>
      </trkpt>
      <trkpt lat="46.7139" lon="5.64457">
        <ele>502.43</ele>
        <time>2016-06-07T14:08:09Z</time>
      </trkpt>
      <trkpt lat="46.71388" lon="5.64458">
        <ele>501.46</ele>
        <time>2016-06-07T14:08:11Z</time>
      </trkpt>
      <trkpt lat="46.7138" lon="5.64475">
        <ele>502.43</ele>
        <time>2016-06-07T14:08:24Z</time>
      </trkpt>
      <trkpt lat="46.71377" lon="5.64475">
        <ele>501.46</ele>
        <time>2016-06-07T14:08:35Z</time>
      </trkpt>
      <trkpt lat="46.71376" lon="5.64475">
        <ele>501.95</ele>
        <time>2016-06-07T14:08:41Z</time>
      </trkpt>
      <trkpt lat="46.71367" lon="5.64487">
        <ele>501.46</ele>
        <time>2016-06-07T14:08:54Z</time>
      </trkpt>
      <trkpt lat="46.71366" lon="5.64489">
        <ele>500.98</ele>
        <time>2016-06-07T14:08:56Z</time>
      </trkpt>
      <trkpt lat="46.71357" lon="5.64498">
        <ele>501.46</ele>
        <time>2016-06-07T14:09:08Z</time>
      </trkpt>
      <trkpt lat="46.71352" lon="5.64499">
        <ele>501.95</ele>
        <time>2016-06-07T14:09:13Z</time>
      </trkpt>
      <trkpt lat="46.71339" lon="5.64502">
        <ele>501.46</ele>
        <time>2016-06-07T14:09:28Z</time>
      </trkpt>
      <trkpt lat="46.71329" lon="5.64501">
        <ele>502.43</ele>
        <time>2016-06-07T14:09:39Z</time>
      </trkpt>
      <trkpt lat="46.71321" lon="5.64499">
        <ele>500.98</ele>
        <time>2016-06-07T14:09:50Z</time>
      </trkpt>
      <trkpt lat="46.71308" lon="5.64499">
        <ele>499.54</ele>
        <time>2016-06-07T14:10:03Z</time>
      </trkpt>
      <trkpt lat="46.71307" lon="5.64499">
        <ele>499.54</ele>
        <time>2016-06-07T14:10:26Z</time>
      </trkpt>
      <trkpt lat="46.71307" lon="5.64498">
        <ele>499.54</ele>
        <time>2016-06-07T14:10:48Z</time>
      </trkpt>
      <trkpt lat="46.71306" lon="5.64496">
        <ele>499.54</ele>
        <time>2016-06-07T14:11:00Z</time>
      </trkpt>
      <trkpt lat="46.71297" lon="5.64488">
        <ele>499.06</ele>
        <time>2016-06-07T14:11:13Z</time>
      </trkpt>
      <trkpt lat="46.71296" lon="5.64488">
        <ele>498.58</ele>
        <time>2016-06-07T14:11:14Z</time>
      </trkpt>
      <trkpt lat="46.71287" lon="5.64482">
        <ele>497.62</ele>
        <time>2016-06-07T14:11:23Z</time>
      </trkpt>
      <trkpt lat="46.71286" lon="5.6447">
        <ele>495.7</ele>
        <time>2016-06-07T14:11:38Z</time>
      </trkpt>
      <trkpt lat="46.71279" lon="5.64465">
        <ele>493.77</ele>
        <time>2016-06-07T14:11:52Z</time>
      </trkpt>
      <trkpt lat="46.71273" lon="5.64471">
        <ele>491.37</ele>
        <time>2016-06-07T14:12:08Z</time>
      </trkpt>
      <trkpt lat="46.71267" lon="5.64479">
        <ele>487.53</ele>
        <time>2016-06-07T14:12:21Z</time>
      </trkpt>
      <trkpt lat="46.71269" lon="5.64491">
        <ele>484.64</ele>
        <time>2016-06-07T14:12:34Z</time>
      </trkpt>
      <trkpt lat="46.71276" lon="5.64507">
        <ele>481.28</ele>
        <time>2016-06-07T14:12:47Z</time>
      </trkpt>
      <trkpt lat="46.71285" lon="5.6452">
        <ele>479.84</ele>
        <time>2016-06-07T14:13:02Z</time>
      </trkpt>
      <trkpt lat="46.71291" lon="5.64527">
        <ele>479.84</ele>
        <time>2016-06-07T14:13:15Z</time>
      </trkpt>
      <trkpt lat="46.71296" lon="5.64534">
        <ele>479.84</ele>
        <time>2016-06-07T14:13:30Z</time>
      </trkpt>
      <trkpt lat="46.71305" lon="5.64545">
        <ele>479.84</ele>
        <time>2016-06-07T14:13:43Z</time>
      </trkpt>
      <trkpt lat="46.71319" lon="5.64559">
        <ele>478.39</ele>
        <time>2016-06-07T14:13:56Z</time>
      </trkpt>
      <trkpt lat="46.71323" lon="5.64569">
        <ele>476.95</ele>
        <time>2016-06-07T14:14:09Z</time>
      </trkpt>
      <trkpt lat="46.71325" lon="5.64588">
        <ele>476.95</ele>
        <time>2016-06-07T14:14:25Z</time>
      </trkpt>
      <trkpt lat="46.71323" lon="5.64599">
        <ele>477.91</ele>
        <time>2016-06-07T14:14:37Z</time>
      </trkpt>
      <trkpt lat="46.71321" lon="5.64604">
        <ele>477.43</ele>
        <time>2016-06-07T14:14:48Z</time>
      </trkpt>
      <trkpt lat="46.7132" lon="5.64607">
        <ele>476.95</ele>
        <time>2016-06-07T14:15:01Z</time>
      </trkpt>
      <trkpt lat="46.71317" lon="5.64611">
        <ele>475.51</ele>
        <time>2016-06-07T14:15:14Z</time>
      </trkpt>
      <trkpt lat="46.71312" lon="5.64616">
        <ele>473.59</ele>
        <time>2016-06-07T14:15:27Z</time>
      </trkpt>
      <trkpt lat="46.71303" lon="5.64633">
        <ele>474.55</ele>
        <time>2016-06-07T14:15:40Z</time>
      </trkpt>
      <trkpt lat="46.71298" lon="5.64642">
        <ele>475.99</ele>
        <time>2016-06-07T14:15:53Z</time>
      </trkpt>
      <trkpt lat="46.7129" lon="5.64655">
        <ele>474.55</ele>
        <time>2016-06-07T14:16:07Z</time>
      </trkpt>
      <trkpt lat="46.71289" lon="5.64656">
        <ele>472.63</ele>
        <time>2016-06-07T14:16:23Z</time>
      </trkpt>
      <trkpt lat="46.71286" lon="5.64661">
        <ele>468.3</ele>
        <time>2016-06-07T14:16:34Z</time>
      </trkpt>
      <trkpt lat="46.71285" lon="5.64661">
        <ele>467.82</ele>
        <time>2016-06-07T14:16:36Z</time>
      </trkpt>
      <trkpt lat="46.71282" lon="5.64666">
        <ele>464.93</ele>
        <time>2016-06-07T14:16:43Z</time>
      </trkpt>
      <trkpt lat="46.71276" lon="5.64675">
        <ele>460.13</ele>
        <time>2016-06-07T14:16:57Z</time>
      </trkpt>
      <trkpt lat="46.71267" lon="5.64682">
        <ele>458.21</ele>
        <time>2016-06-07T14:17:12Z</time>
      </trkpt>
      <trkpt lat="46.71259" lon="5.64693">
        <ele>456.76</ele>
        <time>2016-06-07T14:17:24Z</time>
      </trkpt>
      <trkpt lat="46.7125" lon="5.64702">
        <ele>454.36</ele>
        <time>2016-06-07T14:17:40Z</time>
      </trkpt>
      <trkpt lat="46.71243" lon="5.64708">
        <ele>452.92</ele>
        <time>2016-06-07T14:17:52Z</time>
      </trkpt>
      <trkpt lat="46.71236" lon="5.64716">
        <ele>449.07</ele>
        <time>2016-06-07T14:18:07Z</time>
      </trkpt>
      <trkpt lat="46.7123" lon="5.64723">
        <ele>445.71</ele>
        <time>2016-06-07T14:18:19Z</time>
      </trkpt>
      <trkpt lat="46.71223" lon="5.64727">
        <ele>441.38</ele>
        <time>2016-06-07T14:18:31Z</time>
      </trkpt>
      <trkpt lat="46.71217" lon="5.6473">
        <ele>438.5</ele>
        <time>2016-06-07T14:18:45Z</time>
      </trkpt>
      <trkpt lat="46.71207" lon="5.6474">
        <ele>438.5</ele>
        <time>2016-06-07T14:19:00Z</time>
      </trkpt>
      <trkpt lat="46.71201" lon="5.64746">
        <ele>438.02</ele>
        <time>2016-06-07T14:19:11Z</time>
      </trkpt>
      <trkpt lat="46.71195" lon="5.64751">
        <ele>437.06</ele>
        <time>2016-06-07T14:19:24Z</time>
      </trkpt>
      <trkpt lat="46.71185" lon="5.64758">
        <ele>432.73</ele>
        <time>2016-06-07T14:19:40Z</time>
      </trkpt>
      <trkpt lat="46.71178" lon="5.64764">
        <ele>426.96</ele>
        <time>2016-06-07T14:19:54Z</time>
      </trkpt>
      <trkpt lat="46.71174" lon="5.64769">
        <ele>425.52</ele>
        <time>2016-06-07T14:20:08Z</time>
      </trkpt>
      <trkpt lat="46.71166" lon="5.64777">
        <ele>424.08</ele>
        <time>2016-06-07T14:20:23Z</time>
      </trkpt>
      <trkpt lat="46.71157" lon="5.64783">
        <ele>424.08</ele>
        <time>2016-06-07T14:20:34Z</time>
      </trkpt>
      <trkpt lat="46.7115" lon="5.64793">
        <ele>425.04</ele>
        <time>2016-06-07T14:20:47Z</time>
      </trkpt>
      <trkpt lat="46.71144" lon="5.64802">
        <ele>423.12</ele>
        <time>2016-06-07T14:20:58Z</time>
      </trkpt>
      <trkpt lat="46.71138" lon="5.64809">
        <ele>421.68</ele>
        <time>2016-06-07T14:21:08Z</time>
      </trkpt>
      <trkpt lat="46.7113" lon="5.64817">
        <ele>420.23</ele>
        <time>2016-06-07T14:21:21Z</time>
      </trkpt>
      <trkpt lat="46.71125" lon="5.64819">
        <ele>419.27</ele>
        <time>2016-06-07T14:21:32Z</time>
      </trkpt>
      <trkpt lat="46.71118" lon="5.64821">
        <ele>417.83</ele>
        <time>2016-06-07T14:21:46Z</time>
      </trkpt>
      <trkpt lat="46.71104" lon="5.6483">
        <ele>415.91</ele>
        <time>2016-06-07T14:21:58Z</time>
      </trkpt>
      <trkpt lat="46.71097" lon="5.64836">
        <ele>413.5</ele>
        <time>2016-06-07T14:22:10Z</time>
      </trkpt>
      <trkpt lat="46.71091" lon="5.64846">
        <ele>407.74</ele>
        <time>2016-06-07T14:22:23Z</time>
      </trkpt>
      <trkpt lat="46.71085" lon="5.64852">
        <ele>405.33</ele>
        <time>2016-06-07T14:22:35Z</time>
      </trkpt>
      <trkpt lat="46.71075" lon="5.6486">
        <ele>402.93</ele>
        <time>2016-06-07T14:22:48Z</time>
      </trkpt>
      <trkpt lat="46.71065" lon="5.64869">
        <ele>402.45</ele>
        <time>2016-06-07T14:23:04Z</time>
      </trkpt>
      <trkpt lat="46.71058" lon="5.64874">
        <ele>401.49</ele>
        <time>2016-06-07T14:23:16Z</time>
      </trkpt>
      <trkpt lat="46.7105" lon="5.64875">
        <ele>397.64</ele>
        <time>2016-06-07T14:23:29Z</time>
      </trkpt>
      <trkpt lat="46.71045" lon="5.64877">
        <ele>395.24</ele>
        <time>2016-06-07T14:23:48Z</time>
      </trkpt>
      <trkpt lat="46.71041" lon="5.64879">
        <ele>392.84</ele>
        <time>2016-06-07T14:24:01Z</time>
      </trkpt>
      <trkpt lat="46.71033" lon="5.64881">
        <ele>392.36</ele>
        <time>2016-06-07T14:24:14Z</time>
      </trkpt>
      <trkpt lat="46.71018" lon="5.64884">
        <ele>390.91</ele>
        <time>2016-06-07T14:24:28Z</time>
      </trkpt>
      <trkpt lat="46.71013" lon="5.6488">
        <ele>388.51</ele>
        <time>2016-06-07T14:24:44Z</time>
      </trkpt>
      <trkpt lat="46.71012" lon="5.64872">
        <ele>387.07</ele>
        <time>2016-06-07T14:24:58Z</time>
      </trkpt>
      <trkpt lat="46.71013" lon="5.6486">
        <ele>387.55</ele>
        <time>2016-06-07T14:25:12Z</time>
      </trkpt>
      <trkpt lat="46.71007" lon="5.64858">
        <ele>384.66</ele>
        <time>2016-06-07T14:25:28Z</time>
      </trkpt>
      <trkpt lat="46.71005" lon="5.64852">
        <ele>384.18</ele>
        <time>2016-06-07T14:25:42Z</time>
      </trkpt>
      <trkpt lat="46.71" lon="5.64848">
        <ele>383.22</ele>
        <time>2016-06-07T14:25:56Z</time>
      </trkpt>
      <trkpt lat="46.70999" lon="5.64837">
        <ele>379.86</ele>
        <time>2016-06-07T14:26:03Z</time>
      </trkpt>
      <trkpt lat="46.70999" lon="5.64823">
        <ele>374.57</ele>
        <time>2016-06-07T14:26:16Z</time>
      </trkpt>
      <trkpt lat="46.71003" lon="5.64819">
        <ele>372.65</ele>
        <time>2016-06-07T14:26:27Z</time>
      </trkpt>
      <trkpt lat="46.71004" lon="5.64815">
        <ele>370.73</ele>
        <time>2016-06-07T14:26:38Z</time>
      </trkpt>
      <trkpt lat="46.71005" lon="5.64814">
        <ele>370.24</ele>
        <time>2016-06-07T14:26:49Z</time>
      </trkpt>
      <trkpt lat="46.71005" lon="5.64806">
        <ele>368.32</ele>
        <time>2016-06-07T14:27:05Z</time>
      </trkpt>
      <trkpt lat="46.71004" lon="5.64804">
        <ele>366.4</ele>
        <time>2016-06-07T14:27:16Z</time>
      </trkpt>
      <trkpt lat="46.71003" lon="5.64806">
        <ele>365.44</ele>
        <time>2016-06-07T14:27:18Z</time>
      </trkpt>
      <trkpt lat="46.70995" lon="5.64819">
        <ele>361.11</ele>
        <time>2016-06-07T14:27:29Z</time>
      </trkpt>
      <trkpt lat="46.70993" lon="5.64819">
        <ele>360.63</ele>
        <time>2016-06-07T14:27:31Z</time>
      </trkpt>
      <trkpt lat="46.70991" lon="5.64819">
        <ele>361.11</ele>
        <time>2016-06-07T14:27:37Z</time>
      </trkpt>
      <trkpt lat="46.70984" lon="5.64811">
        <ele>358.23</ele>
        <time>2016-06-07T14:27:53Z</time>
      </trkpt>
      <trkpt lat="46.70985" lon="5.64811">
        <ele>358.23</ele>
        <time>2016-06-07T14:27:54Z</time>
      </trkpt>
      <trkpt lat="46.70996" lon="5.64805">
        <ele>355.34</ele>
        <time>2016-06-07T14:28:06Z</time>
      </trkpt>
      <trkpt lat="46.71009" lon="5.64801">
        <ele>353.42</ele>
        <time>2016-06-07T14:28:18Z</time>
      </trkpt>
      <trkpt lat="46.71018" lon="5.64788">
        <ele>351.5</ele>
        <time>2016-06-07T14:28:31Z</time>
      </trkpt>
      <trkpt lat="46.71023" lon="5.6478">
        <ele>350.06</ele>
        <time>2016-06-07T14:28:39Z</time>
      </trkpt>
      <trkpt lat="46.71034" lon="5.64762">
        <ele>347.65</ele>
        <time>2016-06-07T14:28:55Z</time>
      </trkpt>
      <trkpt lat="46.71039" lon="5.64746">
        <ele>343.33</ele>
        <time>2016-06-07T14:29:07Z</time>
      </trkpt>
      <trkpt lat="46.71039" lon="5.64745">
        <ele>343.33</ele>
        <time>2016-06-07T14:29:08Z</time>
      </trkpt>
      <trkpt lat="46.71042" lon="5.64727">
        <ele>342.85</ele>
        <time>2016-06-07T14:29:21Z</time>
      </trkpt>
      <trkpt lat="46.71043" lon="5.64725">
        <ele>342.37</ele>
        <time>2016-06-07T14:29:26Z</time>
      </trkpt>
      <trkpt lat="46.71044" lon="5.64717">
        <ele>342.85</ele>
        <time>2016-06-07T14:29:31Z</time>
      </trkpt>
      <trkpt lat="46.71045" lon="5.64706">
        <ele>341.41</ele>
        <time>2016-06-07T14:29:39Z</time>
      </trkpt>
      <trkpt lat="46.71045" lon="5.64702">
        <ele>342.37</ele>
        <time>2016-06-07T14:29:46Z</time>
      </trkpt>
      <trkpt lat="46.71047" lon="5.64692">
        <ele>342.37</ele>
        <time>2016-06-07T14:29:56Z</time>
      </trkpt>
      <trkpt lat="46.71048" lon="5.64685">
        <ele>341.89</ele>
        <time>2016-06-07T14:30:03Z</time>
      </trkpt>
      <trkpt lat="46.71052" lon="5.64672">
        <ele>339.96</ele>
        <time>2016-06-07T14:30:13Z</time>
      </trkpt>
      <trkpt lat="46.71052" lon="5.64666">
        <ele>339.96</ele>
        <time>2016-06-07T14:30:17Z</time>
      </trkpt>
      <trkpt lat="46.71052" lon="5.64661">
        <ele>339</ele>
        <time>2016-06-07T14:30:20Z</time>
      </trkpt>
      <trkpt lat="46.71051" lon="5.64654">
        <ele>339.48</ele>
        <time>2016-06-07T14:30:32Z</time>
      </trkpt>
      <trkpt lat="46.71053" lon="5.64658">
        <ele>339</ele>
        <time>2016-06-07T14:30:49Z</time>
      </trkpt>
      <trkpt lat="46.71054" lon="5.64669">
        <ele>338.52</ele>
        <time>2016-06-07T14:30:56Z</time>
      </trkpt>
      <trkpt lat="46.71051" lon="5.64679">
        <ele>338.52</ele>
        <time>2016-06-07T14:31:02Z</time>
      </trkpt>
      <trkpt lat="46.71048" lon="5.64696">
        <ele>336.12</ele>
        <time>2016-06-07T14:31:14Z</time>
      </trkpt>
      <trkpt lat="46.71047" lon="5.64708">
        <ele>334.68</ele>
        <time>2016-06-07T14:31:25Z</time>
      </trkpt>
      <trkpt lat="46.71045" lon="5.64718">
        <ele>336.6</ele>
        <time>2016-06-07T14:31:39Z</time>
      </trkpt>
      <trkpt lat="46.71044" lon="5.64721">
        <ele>338.04</ele>
        <time>2016-06-07T14:31:57Z</time>
      </trkpt>
      <trkpt lat="46.71044" lon="5.64718">
        <ele>339.48</ele>
        <time>2016-06-07T14:32:04Z</time>
      </trkpt>
      <trkpt lat="46.71047" lon="5.64703">
        <ele>339</ele>
        <time>2016-06-07T14:32:15Z</time>
      </trkpt>
      <trkpt lat="46.71047" lon="5.64696">
        <ele>338.04</ele>
        <time>2016-06-07T14:32:19Z</time>
      </trkpt>
      <trkpt lat="46.71052" lon="5.64678">
        <ele>339</ele>
        <time>2016-06-07T14:32:34Z</time>
      </trkpt>
      <trkpt lat="46.71053" lon="5.64662">
        <ele>338.52</ele>
        <time>2016-06-07T14:32:45Z</time>
      </trkpt>
      <trkpt lat="46.71051" lon="5.64649">
        <ele>336.6</ele>
        <time>2016-06-07T14:32:56Z</time>
      </trkpt>
      <trkpt lat="46.71052" lon="5.64641">
        <ele>334.68</ele>
        <time>2016-06-07T14:33:02Z</time>
      </trkpt>
      <trkpt lat="46.71058" lon="5.64626">
        <ele>330.35</ele>
        <time>2016-06-07T14:33:15Z</time>
      </trkpt>
      <trkpt lat="46.71059" lon="5.64623">
        <ele>330.35</ele>
        <time>2016-06-07T14:33:17Z</time>
      </trkpt>
      <trkpt lat="46.71055" lon="5.64612">
        <ele>328.91</ele>
        <time>2016-06-07T14:33:28Z</time>
      </trkpt>
      <trkpt lat="46.71052" lon="5.64607">
        <ele>327.95</ele>
        <time>2016-06-07T14:33:41Z</time>
      </trkpt>
      <trkpt lat="46.71049" lon="5.64606">
        <ele>327.47</ele>
        <time>2016-06-07T14:33:49Z</time>
      </trkpt>
      <trkpt lat="46.71038" lon="5.64602">
        <ele>325.06</ele>
        <time>2016-06-07T14:34:02Z</time>
      </trkpt>
      <trkpt lat="46.71026" lon="5.64607">
        <ele>318.81</ele>
        <time>2016-06-07T14:34:15Z</time>
      </trkpt>
      <trkpt lat="46.71015" lon="5.6461">
        <ele>312.09</ele>
        <time>2016-06-07T14:34:29Z</time>
      </trkpt>
      <trkpt lat="46.7101" lon="5.64613">
        <ele>312.57</ele>
        <time>2016-06-07T14:34:40Z</time>
      </trkpt>
      <trkpt lat="46.7101" lon="5.64615">
        <ele>312.57</ele>
        <time>2016-06-07T14:34:42Z</time>
      </trkpt>
      <trkpt lat="46.71003" lon="5.64632">
        <ele>312.09</ele>
        <time>2016-06-07T14:34:56Z</time>
      </trkpt>
      <trkpt lat="46.71001" lon="5.64641">
        <ele>312.57</ele>
        <time>2016-06-07T14:35:00Z</time>
      </trkpt>
      <trkpt lat="46.70993" lon="5.64655">
        <ele>314.49</ele>
        <time>2016-06-07T14:35:12Z</time>
      </trkpt>
      <trkpt lat="46.70992" lon="5.64656">
        <ele>318.33</ele>
        <time>2016-06-07T14:35:16Z</time>
      </trkpt>
      <trkpt lat="46.70984" lon="5.64667">
        <ele>318.81</ele>
        <time>2016-06-07T14:35:28Z</time>
      </trkpt>
      <trkpt lat="46.70982" lon="5.64668">
        <ele>317.85</ele>
        <time>2016-06-07T14:35:30Z</time>
      </trkpt>
      <trkpt lat="46.70966" lon="5.64677">
        <ele>316.41</ele>
        <time>2016-06-07T14:35:42Z</time>
      </trkpt>
      <trkpt lat="46.70961" lon="5.6468">
        <ele>316.89</ele>
        <time>2016-06-07T14:35:48Z</time>
      </trkpt>
      <trkpt lat="46.70949" lon="5.64692">
        <ele>315.45</ele>
        <time>2016-06-07T14:36:02Z</time>
      </trkpt>
      <trkpt lat="46.70945" lon="5.64694">
        <ele>315.93</ele>
        <time>2016-06-07T14:36:10Z</time>
      </trkpt>
      <trkpt lat="46.70939" lon="5.64692">
        <ele>318.33</ele>
        <time>2016-06-07T14:36:16Z</time>
      </trkpt>
      <trkpt lat="46.70934" lon="5.64693">
        <ele>319.3</ele>
        <time>2016-06-07T14:36:20Z</time>
      </trkpt>
      <trkpt lat="46.70932" lon="5.64695">
        <ele>323.14</ele>
        <time>2016-06-07T14:36:31Z</time>
      </trkpt>
      <trkpt lat="46.7093" lon="5.64697">
        <ele>323.62</ele>
        <time>2016-06-07T14:36:36Z</time>
      </trkpt>
      <trkpt lat="46.70926" lon="5.647">
        <ele>322.66</ele>
        <time>2016-06-07T14:36:43Z</time>
      </trkpt>
      <trkpt lat="46.70911" lon="5.64708">
        <ele>321.7</ele>
        <time>2016-06-07T14:36:56Z</time>
      </trkpt>
      <trkpt lat="46.70899" lon="5.64715">
        <ele>319.3</ele>
        <time>2016-06-07T14:37:09Z</time>
      </trkpt>
      <trkpt lat="46.70884" lon="5.64724">
        <ele>316.89</ele>
        <time>2016-06-07T14:37:23Z</time>
      </trkpt>
      <trkpt lat="46.70872" lon="5.64727">
        <ele>313.53</ele>
        <time>2016-06-07T14:37:35Z</time>
      </trkpt>
      <trkpt lat="46.70863" lon="5.64729">
        <ele>308.24</ele>
        <time>2016-06-07T14:37:47Z</time>
      </trkpt>
      <trkpt lat="46.70848" lon="5.64736">
        <ele>309.68</ele>
        <time>2016-06-07T14:38:00Z</time>
      </trkpt>
      <trkpt lat="46.70843" lon="5.6474">
        <ele>310.64</ele>
        <time>2016-06-07T14:38:05Z</time>
      </trkpt>
      <trkpt lat="46.70829" lon="5.64748">
        <ele>314.01</ele>
        <time>2016-06-07T14:38:19Z</time>
      </trkpt>
      <trkpt lat="46.70817" lon="5.64751">
        <ele>314.01</ele>
        <time>2016-06-07T14:38:30Z</time>
      </trkpt>
      <trkpt lat="46.70806" lon="5.64758">
        <ele>316.89</ele>
        <time>2016-06-07T14:38:42Z</time>
      </trkpt>
      <trkpt lat="46.70798" lon="5.64758">
        <ele>316.89</ele>
        <time>2016-06-07T14:38:51Z</time>
      </trkpt>
      <trkpt lat="46.70787" lon="5.64748">
        <ele>313.53</ele>
        <time>2016-06-07T14:39:04Z</time>
      </trkpt>
      <trkpt lat="46.70785" lon="5.64741">
        <ele>312.09</ele>
        <time>2016-06-07T14:39:10Z</time>
      </trkpt>
      <trkpt lat="46.70779" lon="5.64735">
        <ele>310.16</ele>
        <time>2016-06-07T14:39:24Z</time>
      </trkpt>
      <trkpt lat="46.70779" lon="5.6473">
        <ele>309.2</ele>
        <time>2016-06-07T14:39:30Z</time>
      </trkpt>
      <trkpt lat="46.70781" lon="5.64721">
        <ele>308.24</ele>
        <time>2016-06-07T14:39:36Z</time>
      </trkpt>
      <trkpt lat="46.7078" lon="5.64713">
        <ele>307.76</ele>
        <time>2016-06-07T14:39:40Z</time>
      </trkpt>
      <trkpt lat="46.7078" lon="5.64693">
        <ele>305.36</ele>
        <time>2016-06-07T14:39:52Z</time>
      </trkpt>
      <trkpt lat="46.70773" lon="5.64666">
        <ele>304.39</ele>
        <time>2016-06-07T14:40:06Z</time>
      </trkpt>
      <trkpt lat="46.70772" lon="5.64662">
        <ele>303.91</ele>
        <time>2016-06-07T14:40:09Z</time>
      </trkpt>
      <trkpt lat="46.70769" lon="5.64645">
        <ele>302.95</ele>
        <time>2016-06-07T14:40:21Z</time>
      </trkpt>
      <trkpt lat="46.70764" lon="5.64631">
        <ele>301.99</ele>
        <time>2016-06-07T14:40:33Z</time>
      </trkpt>
      <trkpt lat="46.70755" lon="5.64634">
        <ele>307.28</ele>
        <time>2016-06-07T14:40:45Z</time>
      </trkpt>
      <trkpt lat="46.70744" lon="5.6464">
        <ele>307.28</ele>
        <time>2016-06-07T14:40:57Z</time>
      </trkpt>
      <trkpt lat="46.70734" lon="5.64645">
        <ele>306.8</ele>
        <time>2016-06-07T14:41:07Z</time>
      </trkpt>
      <trkpt lat="46.7073" lon="5.64648">
        <ele>306.32</ele>
        <time>2016-06-07T14:41:11Z</time>
      </trkpt>
      <trkpt lat="46.70721" lon="5.64656">
        <ele>307.76</ele>
        <time>2016-06-07T14:41:26Z</time>
      </trkpt>
      <trkpt lat="46.70716" lon="5.64659">
        <ele>308.24</ele>
        <time>2016-06-07T14:41:31Z</time>
      </trkpt>
      <trkpt lat="46.70704" lon="5.64662">
        <ele>311.6</ele>
        <time>2016-06-07T14:41:43Z</time>
      </trkpt>
      <trkpt lat="46.70692" lon="5.64659">
        <ele>307.28</ele>
        <time>2016-06-07T14:41:55Z</time>
      </trkpt>
      <trkpt lat="46.7068" lon="5.6466">
        <ele>301.51</ele>
        <time>2016-06-07T14:42:08Z</time>
      </trkpt>
      <trkpt lat="46.70669" lon="5.6466">
        <ele>296.7</ele>
        <time>2016-06-07T14:42:20Z</time>
      </trkpt>
      <trkpt lat="46.70662" lon="5.64657">
        <ele>294.78</ele>
        <time>2016-06-07T14:42:27Z</time>
      </trkpt>
      <trkpt lat="46.70649" lon="5.64652">
        <ele>292.86</ele>
        <time>2016-06-07T14:42:38Z</time>
      </trkpt>
      <trkpt lat="46.70635" lon="5.64647">
        <ele>294.78</ele>
        <time>2016-06-07T14:42:50Z</time>
      </trkpt>
      <trkpt lat="46.70633" lon="5.64646">
        <ele>294.78</ele>
        <time>2016-06-07T14:42:52Z</time>
      </trkpt>
      <trkpt lat="46.70617" lon="5.64645">
        <ele>297.18</ele>
        <time>2016-06-07T14:43:07Z</time>
      </trkpt>
      <trkpt lat="46.70604" lon="5.64648">
        <ele>300.07</ele>
        <time>2016-06-07T14:43:19Z</time>
      </trkpt>
      <trkpt lat="46.70591" lon="5.64649">
        <ele>302.47</ele>
        <time>2016-06-07T14:43:31Z</time>
      </trkpt>
      <trkpt lat="46.70579" lon="5.64652">
        <ele>304.88</ele>
        <time>2016-06-07T14:43:44Z</time>
      </trkpt>
      <trkpt lat="46.70578" lon="5.64652">
        <ele>304.88</ele>
        <time>2016-06-07T14:43:45Z</time>
      </trkpt>
      <trkpt lat="46.70574" lon="5.64653">
        <ele>305.36</ele>
        <time>2016-06-07T14:43:49Z</time>
      </trkpt>
      <trkpt lat="46.70565" lon="5.64656">
        <ele>305.84</ele>
        <time>2016-06-07T14:43:57Z</time>
      </trkpt>
      <trkpt lat="46.70551" lon="5.64661">
        <ele>306.32</ele>
        <time>2016-06-07T14:44:12Z</time>
      </trkpt>
      <trkpt lat="46.70545" lon="5.64663">
        <ele>306.8</ele>
        <time>2016-06-07T14:44:17Z</time>
      </trkpt>
      <trkpt lat="46.70543" lon="5.64663">
        <ele>307.28</ele>
        <time>2016-06-07T14:44:19Z</time>
      </trkpt>
      <trkpt lat="46.7053" lon="5.64671">
        <ele>311.6</ele>
        <time>2016-06-07T14:44:31Z</time>
      </trkpt>
      <trkpt lat="46.70524" lon="5.64671">
        <ele>312.09</ele>
        <time>2016-06-07T14:44:38Z</time>
      </trkpt>
      <trkpt lat="46.70522" lon="5.6467">
        <ele>311.6</ele>
        <time>2016-06-07T14:44:40Z</time>
      </trkpt>
      <trkpt lat="46.70509" lon="5.64666">
        <ele>311.12</ele>
        <time>2016-06-07T14:44:51Z</time>
      </trkpt>
      <trkpt lat="46.705" lon="5.6466">
        <ele>310.64</ele>
        <time>2016-06-07T14:45:02Z</time>
      </trkpt>
      <trkpt lat="46.70496" lon="5.64656">
        <ele>311.6</ele>
        <time>2016-06-07T14:45:07Z</time>
      </trkpt>
      <trkpt lat="46.70491" lon="5.64653">
        <ele>313.05</ele>
        <time>2016-06-07T14:45:13Z</time>
      </trkpt>
      <trkpt lat="46.70481" lon="5.64648">
        <ele>316.41</ele>
        <time>2016-06-07T14:45:25Z</time>
      </trkpt>
      <trkpt lat="46.70481" lon="5.64648">
        <ele>316.41</ele>
        <time>2016-06-07T14:45:26Z</time>
      </trkpt>
      <trkpt lat="46.70468" lon="5.64642">
        <ele>316.89</ele>
        <time>2016-06-07T14:45:39Z</time>
      </trkpt>
      <trkpt lat="46.70462" lon="5.6464">
        <ele>315.93</ele>
        <time>2016-06-07T14:45:51Z</time>
      </trkpt>
      <trkpt lat="46.70459" lon="5.64639">
        <ele>315.45</ele>
        <time>2016-06-07T14:45:55Z</time>
      </trkpt>
      <trkpt lat="46.70445" lon="5.64626">
        <ele>313.05</ele>
        <time>2016-06-07T14:46:10Z</time>
      </trkpt>
      <trkpt lat="46.70443" lon="5.64626">
        <ele>312.57</ele>
        <time>2016-06-07T14:46:12Z</time>
      </trkpt>
      <trkpt lat="46.7043" lon="5.64618">
        <ele>310.64</ele>
        <time>2016-06-07T14:46:25Z</time>
      </trkpt>
      <trkpt lat="46.7042" lon="5.64609">
        <ele>308.24</ele>
        <time>2016-06-07T14:46:38Z</time>
      </trkpt>
      <trkpt lat="46.70407" lon="5.64598">
        <ele>306.32</ele>
        <time>2016-06-07T14:46:49Z</time>
      </trkpt>
      <trkpt lat="46.70402" lon="5.64589">
        <ele>306.8</ele>
        <time>2016-06-07T14:47:03Z</time>
      </trkpt>
      <trkpt lat="46.70402" lon="5.64584">
        <ele>307.28</ele>
        <time>2016-06-07T14:47:12Z</time>
      </trkpt>
      <trkpt lat="46.70408" lon="5.64581">
        <ele>309.2</ele>
        <time>2016-06-07T14:47:20Z</time>
      </trkpt>
      <trkpt lat="46.70412" lon="5.64581">
        <ele>310.64</ele>
        <time>2016-06-07T14:47:33Z</time>
      </trkpt>
      <trkpt lat="46.7042" lon="5.64575">
        <ele>310.16</ele>
        <time>2016-06-07T14:47:47Z</time>
      </trkpt>
      <trkpt lat="46.70431" lon="5.6456">
        <ele>309.2</ele>
        <time>2016-06-07T14:48:02Z</time>
      </trkpt>
      <trkpt lat="46.70429" lon="5.64544">
        <ele>310.64</ele>
        <time>2016-06-07T14:48:19Z</time>
      </trkpt>
      <trkpt lat="46.70426" lon="5.64537">
        <ele>314.01</ele>
        <time>2016-06-07T14:48:31Z</time>
      </trkpt>
      <trkpt lat="46.70424" lon="5.64533">
        <ele>312.57</ele>
        <time>2016-06-07T14:48:46Z</time>
      </trkpt>
      <trkpt lat="46.70421" lon="5.64525">
        <ele>314.49</ele>
        <time>2016-06-07T14:48:58Z</time>
      </trkpt>
      <trkpt lat="46.70419" lon="5.6452">
        <ele>318.33</ele>
        <time>2016-06-07T14:49:08Z</time>
      </trkpt>
      <trkpt lat="46.70415" lon="5.64516">
        <ele>320.74</ele>
        <time>2016-06-07T14:49:21Z</time>
      </trkpt>
      <trkpt lat="46.70412" lon="5.6451">
        <ele>323.14</ele>
        <time>2016-06-07T14:49:32Z</time>
      </trkpt>
      <trkpt lat="46.70407" lon="5.64503">
        <ele>325.06</ele>
        <time>2016-06-07T14:49:44Z</time>
      </trkpt>
      <trkpt lat="46.70401" lon="5.64497">
        <ele>327.47</ele>
        <time>2016-06-07T14:49:56Z</time>
      </trkpt>
      <trkpt lat="46.70395" lon="5.64492">
        <ele>327.95</ele>
        <time>2016-06-07T14:50:09Z</time>
      </trkpt>
      <trkpt lat="46.70388" lon="5.64486">
        <ele>326.99</ele>
        <time>2016-06-07T14:50:22Z</time>
      </trkpt>
      <trkpt lat="46.70379" lon="5.64475">
        <ele>325.54</ele>
        <time>2016-06-07T14:50:35Z</time>
      </trkpt>
      <trkpt lat="46.70372" lon="5.64465">
        <ele>323.62</ele>
        <time>2016-06-07T14:50:47Z</time>
      </trkpt>
      <trkpt lat="46.70365" lon="5.64459">
        <ele>323.62</ele>
        <time>2016-06-07T14:51:00Z</time>
      </trkpt>
      <trkpt lat="46.70356" lon="5.64454">
        <ele>326.99</ele>
        <time>2016-06-07T14:51:14Z</time>
      </trkpt>
      <trkpt lat="46.70351" lon="5.64448">
        <ele>326.99</ele>
        <time>2016-06-07T14:51:25Z</time>
      </trkpt>
      <trkpt lat="46.70347" lon="5.64437">
        <ele>327.95</ele>
        <time>2016-06-07T14:51:37Z</time>
      </trkpt>
      <trkpt lat="46.70344" lon="5.64419">
        <ele>326.02</ele>
        <time>2016-06-07T14:51:50Z</time>
      </trkpt>
      <trkpt lat="46.70344" lon="5.64417">
        <ele>325.54</ele>
        <time>2016-06-07T14:51:51Z</time>
      </trkpt>
      <trkpt lat="46.70341" lon="5.64407">
        <ele>325.06</ele>
        <time>2016-06-07T14:52:04Z</time>
      </trkpt>
      <trkpt lat="46.70336" lon="5.644">
        <ele>327.47</ele>
        <time>2016-06-07T14:52:16Z</time>
      </trkpt>
      <trkpt lat="46.70326" lon="5.64392">
        <ele>327.95</ele>
        <time>2016-06-07T14:52:30Z</time>
      </trkpt>
      <trkpt lat="46.70325" lon="5.64392">
        <ele>328.43</ele>
        <time>2016-06-07T14:52:31Z</time>
      </trkpt>
      <trkpt lat="46.70322" lon="5.64389">
        <ele>329.39</ele>
        <time>2016-06-07T14:52:44Z</time>
      </trkpt>
      <trkpt lat="46.70312" lon="5.64382">
        <ele>332.75</ele>
        <time>2016-06-07T14:52:55Z</time>
      </trkpt>
      <trkpt lat="46.70302" lon="5.64378">
        <ele>334.68</ele>
        <time>2016-06-07T14:53:06Z</time>
      </trkpt>
      <trkpt lat="46.70292" lon="5.64375">
        <ele>335.64</ele>
        <time>2016-06-07T14:53:18Z</time>
      </trkpt>
      <trkpt lat="46.70284" lon="5.64373">
        <ele>331.79</ele>
        <time>2016-06-07T14:53:32Z</time>
      </trkpt>
      <trkpt lat="46.70276" lon="5.64374">
        <ele>330.83</ele>
        <time>2016-06-07T14:53:45Z</time>
      </trkpt>
      <trkpt lat="46.70276" lon="5.64373">
        <ele>330.35</ele>
        <time>2016-06-07T14:53:48Z</time>
      </trkpt>
      <trkpt lat="46.70263" lon="5.64363">
        <ele>325.54</ele>
        <time>2016-06-07T14:54:01Z</time>
      </trkpt>
      <trkpt lat="46.70254" lon="5.6436">
        <ele>323.62</ele>
        <time>2016-06-07T14:54:13Z</time>
      </trkpt>
      <trkpt lat="46.70244" lon="5.64358">
        <ele>322.66</ele>
        <time>2016-06-07T14:54:26Z</time>
      </trkpt>
      <trkpt lat="46.70232" lon="5.64358">
        <ele>322.66</ele>
        <time>2016-06-07T14:54:39Z</time>
      </trkpt>
      <trkpt lat="46.70224" lon="5.64354">
        <ele>320.26</ele>
        <time>2016-06-07T14:54:52Z</time>
      </trkpt>
      <trkpt lat="46.70218" lon="5.64352">
        <ele>316.41</ele>
        <time>2016-06-07T14:55:06Z</time>
      </trkpt>
      <trkpt lat="46.70209" lon="5.6435">
        <ele>314.01</ele>
        <time>2016-06-07T14:55:17Z</time>
      </trkpt>
      <trkpt lat="46.70201" lon="5.64351">
        <ele>310.64</ele>
        <time>2016-06-07T14:55:30Z</time>
      </trkpt>
      <trkpt lat="46.70193" lon="5.64353">
        <ele>308.24</ele>
        <time>2016-06-07T14:55:44Z</time>
      </trkpt>
      <trkpt lat="46.70186" lon="5.64349">
        <ele>303.91</ele>
        <time>2016-06-07T14:56:02Z</time>
      </trkpt>
      <trkpt lat="46.7018" lon="5.64339">
        <ele>302.47</ele>
        <time>2016-06-07T14:56:14Z</time>
      </trkpt>
      <trkpt lat="46.70169" lon="5.64332">
        <ele>302.47</ele>
        <time>2016-06-07T14:56:26Z</time>
      </trkpt>
      <trkpt lat="46.70159" lon="5.64326">
        <ele>303.43</ele>
        <time>2016-06-07T14:56:41Z</time>
      </trkpt>
      <trkpt lat="46.70152" lon="5.6432">
        <ele>302.47</ele>
        <time>2016-06-07T14:56:53Z</time>
      </trkpt>
      <trkpt lat="46.70142" lon="5.64307">
        <ele>303.91</ele>
        <time>2016-06-07T14:57:07Z</time>
      </trkpt>
      <trkpt lat="46.70133" lon="5.64296">
        <ele>303.91</ele>
        <time>2016-06-07T14:57:21Z</time>
      </trkpt>
      <trkpt lat="46.7013" lon="5.64295">
        <ele>303.91</ele>
        <time>2016-06-07T14:57:24Z</time>
      </trkpt>
      <trkpt lat="46.70119" lon="5.64286">
        <ele>304.39</ele>
        <time>2016-06-07T14:57:37Z</time>
      </trkpt>
      <trkpt lat="46.70112" lon="5.64274">
        <ele>310.64</ele>
        <time>2016-06-07T14:57:49Z</time>
      </trkpt>
      <trkpt lat="46.70105" lon="5.64268">
        <ele>310.64</ele>
        <time>2016-06-07T14:58:01Z</time>
      </trkpt>
      <trkpt lat="46.70096" lon="5.64257">
        <ele>308.72</ele>
        <time>2016-06-07T14:58:14Z</time>
      </trkpt>
      <trkpt lat="46.70084" lon="5.64245">
        <ele>305.36</ele>
        <time>2016-06-07T14:58:29Z</time>
      </trkpt>
      <trkpt lat="46.70076" lon="5.64234">
        <ele>306.32</ele>
        <time>2016-06-07T14:58:38Z</time>
      </trkpt>
      <trkpt lat="46.70066" lon="5.64231">
        <ele>300.07</ele>
        <time>2016-06-07T14:58:51Z</time>
      </trkpt>
      <trkpt lat="46.70058" lon="5.64228">
        <ele>295.26</ele>
        <time>2016-06-07T14:59:04Z</time>
      </trkpt>
      <trkpt lat="46.70048" lon="5.64227">
        <ele>287.57</ele>
        <time>2016-06-07T14:59:17Z</time>
      </trkpt>
      <trkpt lat="46.70043" lon="5.64218">
        <ele>284.69</ele>
        <time>2016-06-07T14:59:28Z</time>
      </trkpt>
      <trkpt lat="46.70038" lon="5.64213">
        <ele>288.05</ele>
        <time>2016-06-07T14:59:40Z</time>
      </trkpt>
      <trkpt lat="46.70028" lon="5.64209">
        <ele>281.32</ele>
        <time>2016-06-07T14:59:51Z</time>
      </trkpt>
      <trkpt lat="46.70018" lon="5.64205">
        <ele>276.52</ele>
        <time>2016-06-07T15:00:03Z</time>
      </trkpt>
      <trkpt lat="46.70007" lon="5.64204">
        <ele>271.71</ele>
        <time>2016-06-07T15:00:16Z</time>
      </trkpt>
      <trkpt lat="46.6999" lon="5.64197">
        <ele>269.31</ele>
        <time>2016-06-07T15:00:31Z</time>
      </trkpt>
      <trkpt lat="46.69978" lon="5.642">
        <ele>268.35</ele>
        <time>2016-06-07T15:00:42Z</time>
      </trkpt>
      <trkpt lat="46.69977" lon="5.64197">
        <ele>266.42</ele>
        <time>2016-06-07T15:00:59Z</time>
      </trkpt>
      <trkpt lat="46.69978" lon="5.64195">
        <ele>265.46</ele>
        <time>2016-06-07T15:01:24Z</time>
      </trkpt>
      <trkpt lat="46.69978" lon="5.64194">
        <ele>266.9</ele>
        <time>2016-06-07T15:01:42Z</time>
      </trkpt>
      <trkpt lat="46.69977" lon="5.64191">
        <ele>269.79</ele>
        <time>2016-06-07T15:01:57Z</time>
      </trkpt>
      <trkpt lat="46.69971" lon="5.6419">
        <ele>273.15</ele>
        <time>2016-06-07T15:02:08Z</time>
      </trkpt>
      <trkpt lat="46.69963" lon="5.64186">
        <ele>273.63</ele>
        <time>2016-06-07T15:02:21Z</time>
      </trkpt>
      <trkpt lat="46.69957" lon="5.64181">
        <ele>275.07</ele>
        <time>2016-06-07T15:02:33Z</time>
      </trkpt>
      <trkpt lat="46.69944" lon="5.64174">
        <ele>277</ele>
        <time>2016-06-07T15:02:45Z</time>
      </trkpt>
      <trkpt lat="46.69932" lon="5.64167">
        <ele>278.44</ele>
        <time>2016-06-07T15:02:59Z</time>
      </trkpt>
      <trkpt lat="46.69923" lon="5.64164">
        <ele>280.36</ele>
        <time>2016-06-07T15:03:11Z</time>
      </trkpt>
      <trkpt lat="46.69911" lon="5.64163">
        <ele>281.8</ele>
        <time>2016-06-07T15:03:22Z</time>
      </trkpt>
      <trkpt lat="46.699" lon="5.64162">
        <ele>283.25</ele>
        <time>2016-06-07T15:03:34Z</time>
      </trkpt>
      <trkpt lat="46.69891" lon="5.64157">
        <ele>284.69</ele>
        <time>2016-06-07T15:03:44Z</time>
      </trkpt>
      <trkpt lat="46.69876" lon="5.64158">
        <ele>284.69</ele>
        <time>2016-06-07T15:03:57Z</time>
      </trkpt>
      <trkpt lat="46.69871" lon="5.64159">
        <ele>284.21</ele>
        <time>2016-06-07T15:04:01Z</time>
      </trkpt>
      <trkpt lat="46.69864" lon="5.64161">
        <ele>289.49</ele>
        <time>2016-06-07T15:04:07Z</time>
      </trkpt>
      <trkpt lat="46.69849" lon="5.64165">
        <ele>307.28</ele>
        <time>2016-06-07T15:04:21Z</time>
      </trkpt>
      <trkpt lat="46.69844" lon="5.64166">
        <ele>309.68</ele>
        <time>2016-06-07T15:04:28Z</time>
      </trkpt>
      <trkpt lat="46.69831" lon="5.64167">
        <ele>310.16</ele>
        <time>2016-06-07T15:04:41Z</time>
      </trkpt>
      <trkpt lat="46.69823" lon="5.64168">
        <ele>308.72</ele>
        <time>2016-06-07T15:04:55Z</time>
      </trkpt>
      <trkpt lat="46.69813" lon="5.64166">
        <ele>307.28</ele>
        <time>2016-06-07T15:05:05Z</time>
      </trkpt>
      <trkpt lat="46.69803" lon="5.64167">
        <ele>306.32</ele>
        <time>2016-06-07T15:05:17Z</time>
      </trkpt>
      <trkpt lat="46.69793" lon="5.6417">
        <ele>305.84</ele>
        <time>2016-06-07T15:05:29Z</time>
      </trkpt>
      <trkpt lat="46.69788" lon="5.64172">
        <ele>306.32</ele>
        <time>2016-06-07T15:05:37Z</time>
      </trkpt>
      <trkpt lat="46.69782" lon="5.64172">
        <ele>306.32</ele>
        <time>2016-06-07T15:05:43Z</time>
      </trkpt>
      <trkpt lat="46.69775" lon="5.64174">
        <ele>306.32</ele>
        <time>2016-06-07T15:05:54Z</time>
      </trkpt>
      <trkpt lat="46.69763" lon="5.64174">
        <ele>308.24</ele>
        <time>2016-06-07T15:06:05Z</time>
      </trkpt>
      <trkpt lat="46.69753" lon="5.64172">
        <ele>311.12</ele>
        <time>2016-06-07T15:06:15Z</time>
      </trkpt>
      <trkpt lat="46.69741" lon="5.64171">
        <ele>314.97</ele>
        <time>2016-06-07T15:06:25Z</time>
      </trkpt>
      <trkpt lat="46.69732" lon="5.64169">
        <ele>318.33</ele>
        <time>2016-06-07T15:06:35Z</time>
      </trkpt>
      <trkpt lat="46.69729" lon="5.64169">
        <ele>317.37</ele>
        <time>2016-06-07T15:06:42Z</time>
      </trkpt>
      <trkpt lat="46.69717" lon="5.64164">
        <ele>317.37</ele>
        <time>2016-06-07T15:06:55Z</time>
      </trkpt>
      <trkpt lat="46.69709" lon="5.64165">
        <ele>315.93</ele>
        <time>2016-06-07T15:07:06Z</time>
      </trkpt>
      <trkpt lat="46.69697" lon="5.64165">
        <ele>313.05</ele>
        <time>2016-06-07T15:07:17Z</time>
      </trkpt>
      <trkpt lat="46.69685" lon="5.64163">
        <ele>313.05</ele>
        <time>2016-06-07T15:07:28Z</time>
      </trkpt>
      <trkpt lat="46.69678" lon="5.64162">
        <ele>312.09</ele>
        <time>2016-06-07T15:07:35Z</time>
      </trkpt>
      <trkpt lat="46.69665" lon="5.64159">
        <ele>313.53</ele>
        <time>2016-06-07T15:07:47Z</time>
      </trkpt>
      <trkpt lat="46.69654" lon="5.64158">
        <ele>314.97</ele>
        <time>2016-06-07T15:07:59Z</time>
      </trkpt>
      <trkpt lat="46.69639" lon="5.64157">
        <ele>317.85</ele>
        <time>2016-06-07T15:08:11Z</time>
      </trkpt>
      <trkpt lat="46.6963" lon="5.64157">
        <ele>316.89</ele>
        <time>2016-06-07T15:08:21Z</time>
      </trkpt>
      <trkpt lat="46.69621" lon="5.64153">
        <ele>314.97</ele>
        <time>2016-06-07T15:08:30Z</time>
      </trkpt>
      <trkpt lat="46.69613" lon="5.6415">
        <ele>313.05</ele>
        <time>2016-06-07T15:08:43Z</time>
      </trkpt>
      <trkpt lat="46.69613" lon="5.64149">
        <ele>313.05</ele>
        <time>2016-06-07T15:08:45Z</time>
      </trkpt>
      <trkpt lat="46.696" lon="5.64142">
        <ele>313.05</ele>
        <time>2016-06-07T15:08:59Z</time>
      </trkpt>
      <trkpt lat="46.69591" lon="5.64135">
        <ele>312.57</ele>
        <time>2016-06-07T15:09:12Z</time>
      </trkpt>
      <trkpt lat="46.69586" lon="5.64128">
        <ele>313.05</ele>
        <time>2016-06-07T15:09:25Z</time>
      </trkpt>
      <trkpt lat="46.69583" lon="5.64127">
        <ele>312.57</ele>
        <time>2016-06-07T15:09:29Z</time>
      </trkpt>
      <trkpt lat="46.69568" lon="5.64114">
        <ele>312.57</ele>
        <time>2016-06-07T15:09:42Z</time>
      </trkpt>
      <trkpt lat="46.69565" lon="5.64111">
        <ele>312.09</ele>
        <time>2016-06-07T15:09:45Z</time>
      </trkpt>
      <trkpt lat="46.69555" lon="5.64104">
        <ele>312.09</ele>
        <time>2016-06-07T15:09:57Z</time>
      </trkpt>
      <trkpt lat="46.69547" lon="5.64097">
        <ele>311.12</ele>
        <time>2016-06-07T15:10:09Z</time>
      </trkpt>
      <trkpt lat="46.69546" lon="5.64096">
        <ele>311.12</ele>
        <time>2016-06-07T15:10:12Z</time>
      </trkpt>
      <trkpt lat="46.69538" lon="5.64093">
        <ele>310.64</ele>
        <time>2016-06-07T15:10:23Z</time>
      </trkpt>
      <trkpt lat="46.69532" lon="5.6409">
        <ele>310.64</ele>
        <time>2016-06-07T15:10:34Z</time>
      </trkpt>
      <trkpt lat="46.69523" lon="5.64079">
        <ele>309.68</ele>
        <time>2016-06-07T15:10:46Z</time>
      </trkpt>
      <trkpt lat="46.69518" lon="5.64078">
        <ele>309.2</ele>
        <time>2016-06-07T15:10:56Z</time>
      </trkpt>
      <trkpt lat="46.69514" lon="5.64076">
        <ele>308.24</ele>
        <time>2016-06-07T15:11:00Z</time>
      </trkpt>
      <trkpt lat="46.69505" lon="5.64071">
        <ele>307.76</ele>
        <time>2016-06-07T15:11:14Z</time>
      </trkpt>
      <trkpt lat="46.69496" lon="5.64064">
        <ele>303.91</ele>
        <time>2016-06-07T15:11:24Z</time>
      </trkpt>
      <trkpt lat="46.69489" lon="5.64059">
        <ele>301.99</ele>
        <time>2016-06-07T15:11:34Z</time>
      </trkpt>
      <trkpt lat="46.69477" lon="5.64051">
        <ele>303.43</ele>
        <time>2016-06-07T15:11:47Z</time>
      </trkpt>
      <trkpt lat="46.69469" lon="5.64042">
        <ele>305.36</ele>
        <time>2016-06-07T15:11:58Z</time>
      </trkpt>
      <trkpt lat="46.69461" lon="5.64035">
        <ele>303.43</ele>
        <time>2016-06-07T15:12:09Z</time>
      </trkpt>
      <trkpt lat="46.69456" lon="5.64032">
        <ele>303.91</ele>
        <time>2016-06-07T15:12:18Z</time>
      </trkpt>
      <trkpt lat="46.69446" lon="5.64021">
        <ele>297.18</ele>
        <time>2016-06-07T15:12:30Z</time>
      </trkpt>
      <trkpt lat="46.69437" lon="5.64012">
        <ele>291.9</ele>
        <time>2016-06-07T15:12:41Z</time>
      </trkpt>
      <trkpt lat="46.69428" lon="5.64003">
        <ele>293.34</ele>
        <time>2016-06-07T15:12:53Z</time>
      </trkpt>
      <trkpt lat="46.69424" lon="5.64002">
        <ele>293.34</ele>
        <time>2016-06-07T15:13:02Z</time>
      </trkpt>
      <trkpt lat="46.69418" lon="5.63998">
        <ele>292.86</ele>
        <time>2016-06-07T15:13:13Z</time>
      </trkpt>
      <trkpt lat="46.69409" lon="5.63987">
        <ele>293.82</ele>
        <time>2016-06-07T15:13:25Z</time>
      </trkpt>
      <trkpt lat="46.694" lon="5.63974">
        <ele>296.22</ele>
        <time>2016-06-07T15:13:35Z</time>
      </trkpt>
      <trkpt lat="46.69387" lon="5.63961">
        <ele>301.03</ele>
        <time>2016-06-07T15:13:49Z</time>
      </trkpt>
      <trkpt lat="46.6938" lon="5.6396">
        <ele>302.47</ele>
        <time>2016-06-07T15:14:01Z</time>
      </trkpt>
      <trkpt lat="46.69373" lon="5.63963">
        <ele>306.32</ele>
        <time>2016-06-07T15:14:12Z</time>
      </trkpt>
      <trkpt lat="46.69368" lon="5.63965">
        <ele>306.8</ele>
        <time>2016-06-07T15:14:17Z</time>
      </trkpt>
      <trkpt lat="46.69358" lon="5.63966">
        <ele>307.28</ele>
        <time>2016-06-07T15:14:29Z</time>
      </trkpt>
      <trkpt lat="46.69352" lon="5.63963">
        <ele>307.76</ele>
        <time>2016-06-07T15:14:40Z</time>
      </trkpt>
      <trkpt lat="46.69349" lon="5.63961">
        <ele>308.72</ele>
        <time>2016-06-07T15:14:49Z</time>
      </trkpt>
      <trkpt lat="46.69346" lon="5.63957">
        <ele>311.12</ele>
        <time>2016-06-07T15:15:03Z</time>
      </trkpt>
      <trkpt lat="46.69345" lon="5.63954">
        <ele>313.53</ele>
        <time>2016-06-07T15:15:17Z</time>
      </trkpt>
      <trkpt lat="46.69343" lon="5.63951">
        <ele>315.93</ele>
        <time>2016-06-07T15:15:40Z</time>
      </trkpt>
      <trkpt lat="46.69337" lon="5.63951">
        <ele>319.3</ele>
        <time>2016-06-07T15:15:52Z</time>
      </trkpt>
      <trkpt lat="46.69334" lon="5.6395">
        <ele>320.74</ele>
        <time>2016-06-07T15:16:05Z</time>
      </trkpt>
      <trkpt lat="46.69331" lon="5.63945">
        <ele>322.66</ele>
        <time>2016-06-07T15:16:20Z</time>
      </trkpt>
      <trkpt lat="46.69327" lon="5.63941">
        <ele>324.1</ele>
        <time>2016-06-07T15:16:32Z</time>
      </trkpt>
      <trkpt lat="46.69326" lon="5.63941">
        <ele>324.1</ele>
        <time>2016-06-07T15:16:34Z</time>
      </trkpt>
      <trkpt lat="46.69316" lon="5.63941">
        <ele>325.06</ele>
        <time>2016-06-07T15:16:46Z</time>
      </trkpt>
      <trkpt lat="46.69312" lon="5.63942">
        <ele>325.06</ele>
        <time>2016-06-07T15:17:00Z</time>
      </trkpt>
      <trkpt lat="46.69309" lon="5.63944">
        <ele>324.1</ele>
        <time>2016-06-07T15:17:15Z</time>
      </trkpt>
      <trkpt lat="46.69306" lon="5.63944">
        <ele>324.58</ele>
        <time>2016-06-07T15:17:29Z</time>
      </trkpt>
      <trkpt lat="46.69303" lon="5.63944">
        <ele>324.1</ele>
        <time>2016-06-07T15:17:43Z</time>
      </trkpt>
      <trkpt lat="46.69299" lon="5.63944">
        <ele>323.62</ele>
        <time>2016-06-07T15:17:56Z</time>
      </trkpt>
      <trkpt lat="46.69295" lon="5.63943">
        <ele>322.18</ele>
        <time>2016-06-07T15:18:11Z</time>
      </trkpt>
      <trkpt lat="46.69292" lon="5.63941">
        <ele>323.14</ele>
        <time>2016-06-07T15:18:27Z</time>
      </trkpt>
      <trkpt lat="46.69286" lon="5.6394">
        <ele>323.14</ele>
        <time>2016-06-07T15:18:38Z</time>
      </trkpt>
      <trkpt lat="46.69283" lon="5.6394">
        <ele>324.1</ele>
        <time>2016-06-07T15:18:48Z</time>
      </trkpt>
      <trkpt lat="46.69278" lon="5.63939">
        <ele>325.54</ele>
        <time>2016-06-07T15:18:58Z</time>
      </trkpt>
      <trkpt lat="46.69274" lon="5.63937">
        <ele>327.47</ele>
        <time>2016-06-07T15:19:10Z</time>
      </trkpt>
      <trkpt lat="46.69267" lon="5.63933">
        <ele>330.35</ele>
        <time>2016-06-07T15:19:24Z</time>
      </trkpt>
      <trkpt lat="46.69258" lon="5.63931">
        <ele>330.83</ele>
        <time>2016-06-07T15:19:35Z</time>
      </trkpt>
      <trkpt lat="46.69251" lon="5.63928">
        <ele>331.31</ele>
        <time>2016-06-07T15:19:47Z</time>
      </trkpt>
      <trkpt lat="46.69239" lon="5.63917">
        <ele>334.68</ele>
        <time>2016-06-07T15:20:00Z</time>
      </trkpt>
      <trkpt lat="46.69231" lon="5.63917">
        <ele>335.64</ele>
        <time>2016-06-07T15:20:14Z</time>
      </trkpt>
      <trkpt lat="46.69221" lon="5.63915">
        <ele>334.68</ele>
        <time>2016-06-07T15:20:25Z</time>
      </trkpt>
      <trkpt lat="46.69218" lon="5.63913">
        <ele>335.64</ele>
        <time>2016-06-07T15:20:37Z</time>
      </trkpt>
      <trkpt lat="46.69211" lon="5.63914">
        <ele>336.12</ele>
        <time>2016-06-07T15:20:48Z</time>
      </trkpt>
      <trkpt lat="46.69207" lon="5.63913">
        <ele>338.52</ele>
        <time>2016-06-07T15:20:58Z</time>
      </trkpt>
      <trkpt lat="46.69203" lon="5.63912">
        <ele>340.44</ele>
        <time>2016-06-07T15:21:10Z</time>
      </trkpt>
      <trkpt lat="46.692" lon="5.63909">
        <ele>341.41</ele>
        <time>2016-06-07T15:21:22Z</time>
      </trkpt>
      <trkpt lat="46.69195" lon="5.6391">
        <ele>342.37</ele>
        <time>2016-06-07T15:21:41Z</time>
      </trkpt>
      <trkpt lat="46.69192" lon="5.63909">
        <ele>344.77</ele>
        <time>2016-06-07T15:21:57Z</time>
      </trkpt>
      <trkpt lat="46.69189" lon="5.63908">
        <ele>346.69</ele>
        <time>2016-06-07T15:22:20Z</time>
      </trkpt>
      <trkpt lat="46.69185" lon="5.63907">
        <ele>349.1</ele>
        <time>2016-06-07T15:22:41Z</time>
      </trkpt>
      <trkpt lat="46.69184" lon="5.63906">
        <ele>349.1</ele>
        <time>2016-06-07T15:23:01Z</time>
      </trkpt>
      <trkpt lat="46.69184" lon="5.63904">
        <ele>350.54</ele>
        <time>2016-06-07T15:23:13Z</time>
      </trkpt>
      <trkpt lat="46.69182" lon="5.639">
        <ele>351.98</ele>
        <time>2016-06-07T15:23:28Z</time>
      </trkpt>
      <trkpt lat="46.6918" lon="5.63895">
        <ele>352.46</ele>
        <time>2016-06-07T15:23:39Z</time>
      </trkpt>
      <trkpt lat="46.69177" lon="5.63892">
        <ele>351.98</ele>
        <time>2016-06-07T15:23:50Z</time>
      </trkpt>
      <trkpt lat="46.69172" lon="5.63891">
        <ele>351.5</ele>
        <time>2016-06-07T15:24:05Z</time>
      </trkpt>
      <trkpt lat="46.69168" lon="5.63892">
        <ele>351.5</ele>
        <time>2016-06-07T15:24:21Z</time>
      </trkpt>
      <trkpt lat="46.69162" lon="5.63887">
        <ele>351.02</ele>
        <time>2016-06-07T15:24:39Z</time>
      </trkpt>
      <trkpt lat="46.69155" lon="5.63883">
        <ele>351.02</ele>
        <time>2016-06-07T15:24:51Z</time>
      </trkpt>
      <trkpt lat="46.6914" lon="5.63855">
        <ele>361.11</ele>
        <time>2016-06-07T15:25:04Z</time>
      </trkpt>
      <trkpt lat="46.69138" lon="5.63849">
        <ele>361.59</ele>
        <time>2016-06-07T15:25:17Z</time>
      </trkpt>
      <trkpt lat="46.69133" lon="5.63848">
        <ele>370.73</ele>
        <time>2016-06-07T15:25:30Z</time>
      </trkpt>
      <trkpt lat="46.69128" lon="5.63848">
        <ele>371.21</ele>
        <time>2016-06-07T15:25:42Z</time>
      </trkpt>
      <trkpt lat="46.69125" lon="5.63848">
        <ele>371.21</ele>
        <time>2016-06-07T15:25:57Z</time>
      </trkpt>
      <trkpt lat="46.69122" lon="5.6385">
        <ele>371.69</ele>
        <time>2016-06-07T15:26:10Z</time>
      </trkpt>
      <trkpt lat="46.69114" lon="5.6386">
        <ele>372.65</ele>
        <time>2016-06-07T15:26:24Z</time>
      </trkpt>
      <trkpt lat="46.69111" lon="5.63861">
        <ele>371.69</ele>
        <time>2016-06-07T15:26:29Z</time>
      </trkpt>
      <trkpt lat="46.69105" lon="5.63864">
        <ele>373.13</ele>
        <time>2016-06-07T15:26:37Z</time>
      </trkpt>
      <trkpt lat="46.691" lon="5.6387">
        <ele>374.57</ele>
        <time>2016-06-07T15:26:43Z</time>
      </trkpt>
      <trkpt lat="46.69096" lon="5.6387">
        <ele>376.49</ele>
        <time>2016-06-07T15:26:55Z</time>
      </trkpt>
      <trkpt lat="46.69093" lon="5.63874">
        <ele>379.38</ele>
        <time>2016-06-07T15:27:08Z</time>
      </trkpt>
      <trkpt lat="46.69092" lon="5.63881">
        <ele>380.34</ele>
        <time>2016-06-07T15:27:19Z</time>
      </trkpt>
      <trkpt lat="46.69088" lon="5.63888">
        <ele>377.94</ele>
        <time>2016-06-07T15:27:31Z</time>
      </trkpt>
      <trkpt lat="46.69081" lon="5.63893">
        <ele>376.97</ele>
        <time>2016-06-07T15:27:42Z</time>
      </trkpt>
      <trkpt lat="46.69074" lon="5.63896">
        <ele>376.01</ele>
        <time>2016-06-07T15:27:53Z</time>
      </trkpt>
      <trkpt lat="46.69068" lon="5.63894">
        <ele>376.01</ele>
        <time>2016-06-07T15:28:05Z</time>
      </trkpt>
      <trkpt lat="46.69059" lon="5.63894">
        <ele>378.9</ele>
        <time>2016-06-07T15:28:29Z</time>
      </trkpt>
      <trkpt lat="46.69056" lon="5.63892">
        <ele>379.38</ele>
        <time>2016-06-07T15:28:43Z</time>
      </trkpt>
      <trkpt lat="46.6905" lon="5.63892">
        <ele>381.78</ele>
        <time>2016-06-07T15:28:56Z</time>
      </trkpt>
      <trkpt lat="46.69042" lon="5.63893">
        <ele>384.18</ele>
        <time>2016-06-07T15:29:09Z</time>
      </trkpt>
      <trkpt lat="46.69032" lon="5.63894">
        <ele>386.59</ele>
        <time>2016-06-07T15:29:22Z</time>
      </trkpt>
      <trkpt lat="46.69027" lon="5.63888">
        <ele>391.87</ele>
        <time>2016-06-07T15:29:37Z</time>
      </trkpt>
      <trkpt lat="46.69019" lon="5.63885">
        <ele>397.64</ele>
        <time>2016-06-07T15:29:47Z</time>
      </trkpt>
      <trkpt lat="46.69015" lon="5.63881">
        <ele>395.72</ele>
        <time>2016-06-07T15:29:56Z</time>
      </trkpt>
      <trkpt lat="46.69007" lon="5.63883">
        <ele>391.39</ele>
        <time>2016-06-07T15:30:07Z</time>
      </trkpt>
      <trkpt lat="46.69005" lon="5.6388">
        <ele>393.8</ele>
        <time>2016-06-07T15:30:22Z</time>
      </trkpt>
      <trkpt lat="46.69005" lon="5.63882">
        <ele>393.32</ele>
        <time>2016-06-07T15:30:35Z</time>
      </trkpt>
      <trkpt lat="46.69006" lon="5.6388">
        <ele>394.76</ele>
        <time>2016-06-07T15:30:49Z</time>
      </trkpt>
      <trkpt lat="46.69008" lon="5.63876">
        <ele>398.12</ele>
        <time>2016-06-07T15:31:10Z</time>
      </trkpt>
      <trkpt lat="46.69009" lon="5.63877">
        <ele>399.57</ele>
        <time>2016-06-07T15:31:27Z</time>
      </trkpt>
      <trkpt lat="46.69009" lon="5.63878">
        <ele>400.05</ele>
        <time>2016-06-07T15:31:36Z</time>
      </trkpt>
      <trkpt lat="46.69013" lon="5.63884">
        <ele>399.57</ele>
        <time>2016-06-07T15:31:46Z</time>
      </trkpt>
      <trkpt lat="46.69015" lon="5.63885">
        <ele>400.05</ele>
        <time>2016-06-07T15:31:58Z</time>
      </trkpt>
      <trkpt lat="46.69016" lon="5.63888">
        <ele>400.53</ele>
        <time>2016-06-07T15:32:06Z</time>
      </trkpt>
      <trkpt lat="46.69015" lon="5.63889">
        <ele>400.05</ele>
        <time>2016-06-07T15:32:11Z</time>
      </trkpt>
      <trkpt lat="46.69015" lon="5.63887">
        <ele>399.57</ele>
        <time>2016-06-07T15:32:20Z</time>
      </trkpt>
      <trkpt lat="46.69019" lon="5.63878">
        <ele>401.01</ele>
        <time>2016-06-07T15:32:27Z</time>
      </trkpt>
      <trkpt lat="46.69027" lon="5.63872">
        <ele>401.49</ele>
        <time>2016-06-07T15:32:36Z</time>
      </trkpt>
      <trkpt lat="46.69041" lon="5.6387">
        <ele>399.57</ele>
        <time>2016-06-07T15:32:49Z</time>
      </trkpt>
      <trkpt lat="46.69053" lon="5.63873">
        <ele>396.68</ele>
        <time>2016-06-07T15:33:02Z</time>
      </trkpt>
      <trkpt lat="46.6906" lon="5.63873">
        <ele>393.8</ele>
        <time>2016-06-07T15:33:15Z</time>
      </trkpt>
      <trkpt lat="46.69061" lon="5.63873">
        <ele>393.32</ele>
        <time>2016-06-07T15:33:16Z</time>
      </trkpt>
      <trkpt lat="46.69075" lon="5.63879">
        <ele>387.07</ele>
        <time>2016-06-07T15:33:28Z</time>
      </trkpt>
      <trkpt lat="46.69077" lon="5.63874">
        <ele>388.03</ele>
        <time>2016-06-07T15:33:40Z</time>
      </trkpt>
      <trkpt lat="46.69079" lon="5.63864">
        <ele>390.43</ele>
        <time>2016-06-07T15:33:56Z</time>
      </trkpt>
      <trkpt lat="46.69081" lon="5.63864">
        <ele>391.87</ele>
        <time>2016-06-07T15:34:18Z</time>
      </trkpt>
      <trkpt lat="46.69082" lon="5.63864">
        <ele>395.24</ele>
        <time>2016-06-07T15:34:37Z</time>
      </trkpt>
      <trkpt lat="46.69081" lon="5.63862">
        <ele>398.12</ele>
        <time>2016-06-07T15:35:03Z</time>
      </trkpt>
      <trkpt lat="46.69081" lon="5.63862">
        <ele>399.08</ele>
        <time>2016-06-07T15:35:26Z</time>
      </trkpt>
      <trkpt lat="46.69082" lon="5.63861">
        <ele>401.01</ele>
        <time>2016-06-07T15:35:49Z</time>
      </trkpt>
      <trkpt lat="46.69081" lon="5.63859">
        <ele>403.89</ele>
        <time>2016-06-07T15:36:11Z</time>
      </trkpt>
      <trkpt lat="46.6908" lon="5.63858">
        <ele>404.85</ele>
        <time>2016-06-07T15:36:28Z</time>
      </trkpt>
      <trkpt lat="46.6908" lon="5.63857">
        <ele>405.81</ele>
        <time>2016-06-07T15:36:56Z</time>
      </trkpt>
      <trkpt lat="46.6908" lon="5.63857">
        <ele>406.29</ele>
        <time>2016-06-07T15:37:20Z</time>
      </trkpt>
      <trkpt lat="46.69081" lon="5.63857">
        <ele>406.77</ele>
        <time>2016-06-07T15:37:39Z</time>
      </trkpt>
      <trkpt lat="46.6908" lon="5.63856">
        <ele>408.7</ele>
        <time>2016-06-07T15:37:59Z</time>
      </trkpt>
      <trkpt lat="46.6908" lon="5.63856">
        <ele>410.14</ele>
        <time>2016-06-07T15:38:16Z</time>
      </trkpt>
      <trkpt lat="46.6908" lon="5.63855">
        <ele>409.18</ele>
        <time>2016-06-07T15:38:38Z</time>
      </trkpt>
      <trkpt lat="46.69078" lon="5.63858">
        <ele>409.66</ele>
        <time>2016-06-07T15:38:53Z</time>
      </trkpt>
      <trkpt lat="46.69059" lon="5.63911">
        <ele>361.59</ele>
        <time>2016-06-07T15:40:55Z</time>
      </trkpt>
      <trkpt lat="46.69049" lon="5.63914">
        <ele>357.27</ele>
        <time>2016-06-07T15:41:05Z</time>
      </trkpt>
      <trkpt lat="46.69044" lon="5.63917">
        <ele>355.83</ele>
        <time>2016-06-07T15:41:09Z</time>
      </trkpt>
      <trkpt lat="46.69035" lon="5.63927">
        <ele>354.38</ele>
        <time>2016-06-07T15:41:20Z</time>
      </trkpt>
      <trkpt lat="46.69031" lon="5.63932">
        <ele>356.31</ele>
        <time>2016-06-07T15:41:27Z</time>
      </trkpt>
      <trkpt lat="46.69023" lon="5.63944">
        <ele>356.31</ele>
        <time>2016-06-07T15:41:38Z</time>
      </trkpt>
      <trkpt lat="46.68972" lon="5.63935">
        <ele>446.67</ele>
        <time>2016-06-07T15:42:24Z</time>
      </trkpt>
      <trkpt lat="46.68966" lon="5.6392">
        <ele>448.11</ele>
        <time>2016-06-07T15:42:34Z</time>
      </trkpt>
      <trkpt lat="46.68954" lon="5.63897">
        <ele>456.28</ele>
        <time>2016-06-07T15:42:45Z</time>
      </trkpt>
      <trkpt lat="46.68935" lon="5.63866">
        <ele>470.7</ele>
        <time>2016-06-07T15:42:56Z</time>
      </trkpt>
      <trkpt lat="46.68893" lon="5.63796">
        <ele>502.43</ele>
        <time>2016-06-07T15:43:11Z</time>
      </trkpt>
      <trkpt lat="46.68893" lon="5.63791">
        <ele>506.27</ele>
        <time>2016-06-07T15:43:24Z</time>
      </trkpt>
      <trkpt lat="46.6889" lon="5.63777">
        <ele>506.75</ele>
        <time>2016-06-07T15:43:36Z</time>
      </trkpt>
      <trkpt lat="46.68895" lon="5.63779">
        <ele>495.7</ele>
        <time>2016-06-07T15:43:45Z</time>
      </trkpt>
      <trkpt lat="46.68895" lon="5.6378">
        <ele>494.74</ele>
        <time>2016-06-07T15:43:51Z</time>
      </trkpt>
      <trkpt lat="46.68897" lon="5.63784">
        <ele>493.77</ele>
        <time>2016-06-07T15:43:56Z</time>
      </trkpt>
      <trkpt lat="46.68912" lon="5.63795">
        <ele>489.45</ele>
        <time>2016-06-07T15:44:09Z</time>
      </trkpt>
      <trkpt lat="46.6892" lon="5.63797">
        <ele>485.6</ele>
        <time>2016-06-07T15:44:24Z</time>
      </trkpt>
      <trkpt lat="46.68925" lon="5.63799">
        <ele>483.2</ele>
        <time>2016-06-07T15:44:38Z</time>
      </trkpt>
      <trkpt lat="46.68932" lon="5.638">
        <ele>481.28</ele>
        <time>2016-06-07T15:44:57Z</time>
      </trkpt>
      <trkpt lat="46.68937" lon="5.63804">
        <ele>479.35</ele>
        <time>2016-06-07T15:45:11Z</time>
      </trkpt>
      <trkpt lat="46.69093" lon="5.6396">
        <ele>567.8</ele>
        <time>2016-06-07T15:51:54Z</time>
      </trkpt>
      <trkpt lat="46.69098" lon="5.63966">
        <ele>602.4</ele>
        <time>2016-06-07T15:52:21Z</time>
      </trkpt>
      <trkpt lat="46.69122" lon="5.63972">
        <ele>624.03</ele>
        <time>2016-06-07T15:52:45Z</time>
      </trkpt>
      <trkpt lat="46.69129" lon="5.63973">
        <ele>626.92</ele>
        <time>2016-06-07T15:53:06Z</time>
      </trkpt>
      <trkpt lat="46.69134" lon="5.6397">
        <ele>629.32</ele>
        <time>2016-06-07T15:53:21Z</time>
      </trkpt>
      <trkpt lat="46.69139" lon="5.63965">
        <ele>632.2</ele>
        <time>2016-06-07T15:53:39Z</time>
      </trkpt>
      <trkpt lat="46.69131" lon="5.63957">
        <ele>635.09</ele>
        <time>2016-06-07T15:53:51Z</time>
      </trkpt>
      <trkpt lat="46.69124" lon="5.63942">
        <ele>639.89</ele>
        <time>2016-06-07T15:54:09Z</time>
      </trkpt>
      <trkpt lat="46.69122" lon="5.63938">
        <ele>642.3</ele>
        <time>2016-06-07T15:54:23Z</time>
      </trkpt>
      <trkpt lat="46.69119" lon="5.63931">
        <ele>644.7</ele>
        <time>2016-06-07T15:54:43Z</time>
      </trkpt>
      <trkpt lat="46.69117" lon="5.63927">
        <ele>645.66</ele>
        <time>2016-06-07T15:54:56Z</time>
      </trkpt>
      <trkpt lat="46.69115" lon="5.6392">
        <ele>651.43</ele>
        <time>2016-06-07T15:55:10Z</time>
      </trkpt>
      <trkpt lat="46.69114" lon="5.63915">
        <ele>654.31</ele>
        <time>2016-06-07T15:55:12Z</time>
      </trkpt>
      <trkpt lat="46.69111" lon="5.63886">
        <ele>668.25</ele>
        <time>2016-06-07T15:55:26Z</time>
      </trkpt>
      <trkpt lat="46.69109" lon="5.63874">
        <ele>678.35</ele>
        <time>2016-06-07T15:55:39Z</time>
      </trkpt>
      <trkpt lat="46.69117" lon="5.63865">
        <ele>693.73</ele>
        <time>2016-06-07T15:55:52Z</time>
      </trkpt>
      <trkpt lat="46.69124" lon="5.63858">
        <ele>705.26</ele>
        <time>2016-06-07T15:56:05Z</time>
      </trkpt>
      <trkpt lat="46.69125" lon="5.63856">
        <ele>705.75</ele>
        <time>2016-06-07T15:56:06Z</time>
      </trkpt>
      <trkpt lat="46.69126" lon="5.63852">
        <ele>709.11</ele>
        <time>2016-06-07T15:56:13Z</time>
      </trkpt>
      <trkpt lat="46.69129" lon="5.63846">
        <ele>712.47</ele>
        <time>2016-06-07T15:56:23Z</time>
      </trkpt>
      <trkpt lat="46.69127" lon="5.63842">
        <ele>711.51</ele>
        <time>2016-06-07T15:56:32Z</time>
      </trkpt>
      <trkpt lat="46.69126" lon="5.63843">
        <ele>711.99</ele>
        <time>2016-06-07T15:56:39Z</time>
      </trkpt>
      <trkpt lat="46.69123" lon="5.63839">
        <ele>706.71</ele>
        <time>2016-06-07T15:56:51Z</time>
      </trkpt>
      <trkpt lat="46.69119" lon="5.63834">
        <ele>699.5</ele>
        <time>2016-06-07T15:57:06Z</time>
      </trkpt>
      <trkpt lat="46.69113" lon="5.63825">
        <ele>689.4</ele>
        <time>2016-06-07T15:57:18Z</time>
      </trkpt>
      <trkpt lat="46.69105" lon="5.63819">
        <ele>677.87</ele>
        <time>2016-06-07T15:57:31Z</time>
      </trkpt>
      <trkpt lat="46.69093" lon="5.63813">
        <ele>656.72</ele>
        <time>2016-06-07T15:57:50Z</time>
      </trkpt>
      <trkpt lat="46.69077" lon="5.63813">
        <ele>636.05</ele>
        <time>2016-06-07T15:58:04Z</time>
      </trkpt>
      <trkpt lat="46.69059" lon="5.63816">
        <ele>612.98</ele>
        <time>2016-06-07T15:58:17Z</time>
      </trkpt>
      <trkpt lat="46.69041" lon="5.63813">
        <ele>590.39</ele>
        <time>2016-06-07T15:58:30Z</time>
      </trkpt>
      <trkpt lat="46.69029" lon="5.63815">
        <ele>575.01</ele>
        <time>2016-06-07T15:58:42Z</time>
      </trkpt>
      <trkpt lat="46.69021" lon="5.63814">
        <ele>564.91</ele>
        <time>2016-06-07T15:58:56Z</time>
      </trkpt>
      <trkpt lat="46.69009" lon="5.63815">
        <ele>553.86</ele>
        <time>2016-06-07T15:59:09Z</time>
      </trkpt>
      <trkpt lat="46.68997" lon="5.63814">
        <ele>543.76</ele>
        <time>2016-06-07T15:59:23Z</time>
      </trkpt>
      <trkpt lat="46.68987" lon="5.63809">
        <ele>534.63</ele>
        <time>2016-06-07T15:59:37Z</time>
      </trkpt>
      <trkpt lat="46.68977" lon="5.63806">
        <ele>525.5</ele>
        <time>2016-06-07T15:59:49Z</time>
      </trkpt>
      <trkpt lat="46.68968" lon="5.63803">
        <ele>518.77</ele>
        <time>2016-06-07T16:00:04Z</time>
      </trkpt>
      <trkpt lat="46.68961" lon="5.63801">
        <ele>513.96</ele>
        <time>2016-06-07T16:00:20Z</time>
      </trkpt>
      <trkpt lat="46.68955" lon="5.638">
        <ele>510.6</ele>
        <time>2016-06-07T16:00:34Z</time>
      </trkpt>
      <trkpt lat="46.68948" lon="5.63799">
        <ele>506.75</ele>
        <time>2016-06-07T16:00:48Z</time>
      </trkpt>
      <trkpt lat="46.68937" lon="5.63803">
        <ele>503.39</ele>
        <time>2016-06-07T16:01:00Z</time>
      </trkpt>
      <trkpt lat="46.68928" lon="5.63806">
        <ele>500.5</ele>
        <time>2016-06-07T16:01:12Z</time>
      </trkpt>
      <trkpt lat="46.6892" lon="5.6381">
        <ele>499.54</ele>
        <time>2016-06-07T16:01:24Z</time>
      </trkpt>
      <trkpt lat="46.68913" lon="5.63812">
        <ele>497.62</ele>
        <time>2016-06-07T16:01:39Z</time>
      </trkpt>
      <trkpt lat="46.68911" lon="5.63813">
        <ele>496.18</ele>
        <time>2016-06-07T16:01:45Z</time>
      </trkpt>
      <trkpt lat="46.68901" lon="5.63815">
        <ele>489.45</ele>
        <time>2016-06-07T16:01:52Z</time>
      </trkpt>
      <trkpt lat="46.68878" lon="5.63818">
        <ele>470.7</ele>
        <time>2016-06-07T16:02:08Z</time>
      </trkpt>
      <trkpt lat="46.6886" lon="5.63826">
        <ele>460.61</ele>
        <time>2016-06-07T16:02:22Z</time>
      </trkpt>
      <trkpt lat="46.68856" lon="5.6383">
        <ele>458.21</ele>
        <time>2016-06-07T16:02:27Z</time>
      </trkpt>
      <trkpt lat="46.68846" lon="5.63842">
        <ele>451.48</ele>
        <time>2016-06-07T16:02:42Z</time>
      </trkpt>
      <trkpt lat="46.68839" lon="5.6385">
        <ele>447.63</ele>
        <time>2016-06-07T16:02:54Z</time>
      </trkpt>
      <trkpt lat="46.68834" lon="5.6386">
        <ele>445.71</ele>
        <time>2016-06-07T16:03:08Z</time>
      </trkpt>
      <trkpt lat="46.68834" lon="5.63864">
        <ele>446.19</ele>
        <time>2016-06-07T16:03:23Z</time>
      </trkpt>
      <trkpt lat="46.6883" lon="5.6387">
        <ele>446.67</ele>
        <time>2016-06-07T16:03:37Z</time>
      </trkpt>
      <trkpt lat="46.68828" lon="5.63872">
        <ele>446.67</ele>
        <time>2016-06-07T16:03:52Z</time>
      </trkpt>
      <trkpt lat="46.68826" lon="5.63876">
        <ele>447.15</ele>
        <time>2016-06-07T16:04:04Z</time>
      </trkpt>
      <trkpt lat="46.68825" lon="5.63885">
        <ele>447.63</ele>
        <time>2016-06-07T16:04:17Z</time>
      </trkpt>
      <trkpt lat="46.68826" lon="5.6389">
        <ele>447.63</ele>
        <time>2016-06-07T16:04:31Z</time>
      </trkpt>
      <trkpt lat="46.68825" lon="5.63894">
        <ele>448.11</ele>
        <time>2016-06-07T16:04:38Z</time>
      </trkpt>
      <trkpt lat="46.68826" lon="5.63896">
        <ele>448.11</ele>
        <time>2016-06-07T16:04:40Z</time>
      </trkpt>
      <trkpt lat="46.68829" lon="5.63901">
        <ele>448.11</ele>
        <time>2016-06-07T16:04:43Z</time>
      </trkpt>
      <trkpt lat="46.68829" lon="5.6391">
        <ele>448.59</ele>
        <time>2016-06-07T16:04:50Z</time>
      </trkpt>
      <trkpt lat="46.68824" lon="5.63921">
        <ele>449.07</ele>
        <time>2016-06-07T16:05:01Z</time>
      </trkpt>
      <trkpt lat="46.68827" lon="5.63927">
        <ele>449.07</ele>
        <time>2016-06-07T16:05:09Z</time>
      </trkpt>
      <trkpt lat="46.68829" lon="5.63933">
        <ele>450.03</ele>
        <time>2016-06-07T16:05:22Z</time>
      </trkpt>
      <trkpt lat="46.68828" lon="5.63937">
        <ele>451</ele>
        <time>2016-06-07T16:05:33Z</time>
      </trkpt>
      <trkpt lat="46.6883" lon="5.63941">
        <ele>452.92</ele>
        <time>2016-06-07T16:05:50Z</time>
      </trkpt>
      <trkpt lat="46.68831" lon="5.63942">
        <ele>453.88</ele>
        <time>2016-06-07T16:06:01Z</time>
      </trkpt>
      <trkpt lat="46.68833" lon="5.63946">
        <ele>454.36</ele>
        <time>2016-06-07T16:06:12Z</time>
      </trkpt>
      <trkpt lat="46.68839" lon="5.63971">
        <ele>457.72</ele>
        <time>2016-06-07T16:06:26Z</time>
      </trkpt>
      <trkpt lat="46.68846" lon="5.63987">
        <ele>458.69</ele>
        <time>2016-06-07T16:06:35Z</time>
      </trkpt>
      <trkpt lat="46.68852" lon="5.63998">
        <ele>459.17</ele>
        <time>2016-06-07T16:06:46Z</time>
      </trkpt>
      <trkpt lat="46.68851" lon="5.64007">
        <ele>458.69</ele>
        <time>2016-06-07T16:07:00Z</time>
      </trkpt>
      <trkpt lat="46.68848" lon="5.6401">
        <ele>458.21</ele>
        <time>2016-06-07T16:07:08Z</time>
      </trkpt>
      <trkpt lat="46.68851" lon="5.64015">
        <ele>458.21</ele>
        <time>2016-06-07T16:07:13Z</time>
      </trkpt>
      <trkpt lat="46.68853" lon="5.64024">
        <ele>458.21</ele>
        <time>2016-06-07T16:07:19Z</time>
      </trkpt>
      <trkpt lat="46.68854" lon="5.64028">
        <ele>457.72</ele>
        <time>2016-06-07T16:07:23Z</time>
      </trkpt>
      <trkpt lat="46.68852" lon="5.64032">
        <ele>457.24</ele>
        <time>2016-06-07T16:07:30Z</time>
      </trkpt>
      <trkpt lat="46.6885" lon="5.64038">
        <ele>455.32</ele>
        <time>2016-06-07T16:07:38Z</time>
      </trkpt>
      <trkpt lat="46.68851" lon="5.64045">
        <ele>452.44</ele>
        <time>2016-06-07T16:07:53Z</time>
      </trkpt>
      <trkpt lat="46.68853" lon="5.64052">
        <ele>451.96</ele>
        <time>2016-06-07T16:08:05Z</time>
      </trkpt>
      <trkpt lat="46.68857" lon="5.64057">
        <ele>451.96</ele>
        <time>2016-06-07T16:08:19Z</time>
      </trkpt>
      <trkpt lat="46.68855" lon="5.64059">
        <ele>452.92</ele>
        <time>2016-06-07T16:08:32Z</time>
      </trkpt>
      <trkpt lat="46.68855" lon="5.64059">
        <ele>453.4</ele>
        <time>2016-06-07T16:08:41Z</time>
      </trkpt>
      <trkpt lat="46.68863" lon="5.64063">
        <ele>451.48</ele>
        <time>2016-06-07T16:08:52Z</time>
      </trkpt>
      <trkpt lat="46.6886" lon="5.64067">
        <ele>449.55</ele>
        <time>2016-06-07T16:09:02Z</time>
      </trkpt>
      <trkpt lat="46.68855" lon="5.6407">
        <ele>448.11</ele>
        <time>2016-06-07T16:09:14Z</time>
      </trkpt>
      <trkpt lat="46.68852" lon="5.6407">
        <ele>447.63</ele>
        <time>2016-06-07T16:09:27Z</time>
      </trkpt>
      <trkpt lat="46.68848" lon="5.64071">
        <ele>446.67</ele>
        <time>2016-06-07T16:09:38Z</time>
      </trkpt>
      <trkpt lat="46.68846" lon="5.64067">
        <ele>447.63</ele>
        <time>2016-06-07T16:09:45Z</time>
      </trkpt>
      <trkpt lat="46.6885" lon="5.64066">
        <ele>446.19</ele>
        <time>2016-06-07T16:09:56Z</time>
      </trkpt>
      <trkpt lat="46.68849" lon="5.64058">
        <ele>446.19</ele>
        <time>2016-06-07T16:10:08Z</time>
      </trkpt>
      <trkpt lat="46.6885" lon="5.64056">
        <ele>446.19</ele>
        <time>2016-06-07T16:10:10Z</time>
      </trkpt>
      <trkpt lat="46.6885" lon="5.64052">
        <ele>445.23</ele>
        <time>2016-06-07T16:10:14Z</time>
      </trkpt>
      <trkpt lat="46.68852" lon="5.64052">
        <ele>444.75</ele>
        <time>2016-06-07T16:10:21Z</time>
      </trkpt>
      <trkpt lat="46.6885" lon="5.64053">
        <ele>444.75</ele>
        <time>2016-06-07T16:10:23Z</time>
      </trkpt>
      <trkpt lat="46.68847" lon="5.64042">
        <ele>448.59</ele>
        <time>2016-06-07T16:10:32Z</time>
      </trkpt>
      <trkpt lat="46.68843" lon="5.64028">
        <ele>460.13</ele>
        <time>2016-06-07T16:10:44Z</time>
      </trkpt>
      <trkpt lat="46.68842" lon="5.64025">
        <ele>469.26</ele>
        <time>2016-06-07T16:10:55Z</time>
      </trkpt>
      <trkpt lat="46.68842" lon="5.6403">
        <ele>475.51</ele>
        <time>2016-06-07T16:11:07Z</time>
      </trkpt>
      <trkpt lat="46.68842" lon="5.64037">
        <ele>482.24</ele>
        <time>2016-06-07T16:11:22Z</time>
      </trkpt>
      <trkpt lat="46.68848" lon="5.64046">
        <ele>494.26</ele>
        <time>2016-06-07T16:11:34Z</time>
      </trkpt>
      <trkpt lat="46.68847" lon="5.64051">
        <ele>500.02</ele>
        <time>2016-06-07T16:11:49Z</time>
      </trkpt>
      <trkpt lat="46.68848" lon="5.64049">
        <ele>502.43</ele>
        <time>2016-06-07T16:12:05Z</time>
      </trkpt>
      <trkpt lat="46.68844" lon="5.64038">
        <ele>504.83</ele>
        <time>2016-06-07T16:12:17Z</time>
      </trkpt>
      <trkpt lat="46.68844" lon="5.64029">
        <ele>505.79</ele>
        <time>2016-06-07T16:12:23Z</time>
      </trkpt>
      <trkpt lat="46.68846" lon="5.64014">
        <ele>506.27</ele>
        <time>2016-06-07T16:12:36Z</time>
      </trkpt>
      <trkpt lat="46.68842" lon="5.64003">
        <ele>504.83</ele>
        <time>2016-06-07T16:12:48Z</time>
      </trkpt>
      <trkpt lat="46.68842" lon="5.64">
        <ele>504.35</ele>
        <time>2016-06-07T16:13:00Z</time>
      </trkpt>
      <trkpt lat="46.68842" lon="5.63999">
        <ele>504.83</ele>
        <time>2016-06-07T16:13:16Z</time>
      </trkpt>
      <trkpt lat="46.68839" lon="5.63999">
        <ele>504.35</ele>
        <time>2016-06-07T16:13:28Z</time>
      </trkpt>
      <trkpt lat="46.6884" lon="5.63999">
        <ele>504.35</ele>
        <time>2016-06-07T16:13:42Z</time>
      </trkpt>
      <trkpt lat="46.68841" lon="5.64">
        <ele>504.35</ele>
        <time>2016-06-07T16:13:58Z</time>
      </trkpt>
      <trkpt lat="46.68841" lon="5.63999">
        <ele>503.87</ele>
        <time>2016-06-07T16:14:32Z</time>
      </trkpt>
      <trkpt lat="46.68841" lon="5.63997">
        <ele>502.91</ele>
        <time>2016-06-07T16:14:50Z</time>
      </trkpt>
      <trkpt lat="46.68842" lon="5.63998">
        <ele>502.43</ele>
        <time>2016-06-07T16:15:15Z</time>
      </trkpt>
      <trkpt lat="46.68843" lon="5.63998">
        <ele>502.43</ele>
        <time>2016-06-07T16:15:36Z</time>
      </trkpt>
      <trkpt lat="46.68839" lon="5.63999">
        <ele>503.39</ele>
        <time>2016-06-07T16:15:46Z</time>
      </trkpt>
      <trkpt lat="46.68839" lon="5.63999">
        <ele>503.39</ele>
        <time>2016-06-07T16:15:50Z</time>
      </trkpt>
      <trkpt lat="46.68835" lon="5.6402">
        <ele>504.35</ele>
        <time>2016-06-07T16:16:04Z</time>
      </trkpt>
      <trkpt lat="46.68825" lon="5.64028">
        <ele>505.31</ele>
        <time>2016-06-07T16:16:21Z</time>
      </trkpt>
      <trkpt lat="46.68822" lon="5.6403">
        <ele>505.79</ele>
        <time>2016-06-07T16:16:24Z</time>
      </trkpt>
      <trkpt lat="46.68805" lon="5.64075">
        <ele>509.16</ele>
        <time>2016-06-07T17:03:28Z</time>
      </trkpt>
      <trkpt lat="46.68815" lon="5.64059">
        <ele>513.96</ele>
        <time>2016-06-07T17:03:55Z</time>
      </trkpt>
      <trkpt lat="46.68815" lon="5.64057">
        <ele>519.73</ele>
        <time>2016-06-07T17:04:22Z</time>
      </trkpt>
    </trkseg>
  </trk>
</gpx>